<?xml version='1.0' encoding='UTF-8'?><gpx version="1.1" creator="JPX - https://github.com/jenetics/jpx" xmlns="http://www.topografix.com/GPX/1/1"><trk><trkseg><trkpt lat="36.799741074006846" lon="-108.12569421708638"><ele>1746.0</ele><time>2026-04-25T16:14:09Z</time></trkpt><trkpt lat="36.79981002726032" lon="-108.12570855872343"><ele>1746.0</ele><time>2026-04-25T16:14:46Z</time></trkpt><trkpt lat="36.799798203131154" lon="-108.12588276344516"><ele>1746.0</ele><time>2026-04-25T16:18:46Z</time></trkpt><trkpt lat="36.79981420478353" lon="-108.12596692717663"><ele>1746.0</ele><time>2026-04-25T16:18:47Z</time></trkpt><trkpt lat="36.799803187972024" lon="-108.12607370529635"><ele>1746.0</ele><time>2026-04-25T16:18:48Z</time></trkpt><trkpt lat="36.79978499094226" lon="-108.12621592195326"><ele>1746.1666666666667</ele><time>2026-04-25T16:18:50Z</time></trkpt><trkpt lat="36.7997791287849" lon="-108.12631619474631"><ele>1746.3333333333335</ele><time>2026-04-25T16:18:51Z</time></trkpt><trkpt lat="36.79974404968955" lon="-108.12640786742507"><ele>1746.5</ele><time>2026-04-25T16:19:02Z</time></trkpt><trkpt lat="36.79968027328066" lon="-108.12646944686057"><ele>1746.6666666666667</ele><time>2026-04-25T16:19:03Z</time></trkpt><trkpt lat="36.799598808467366" lon="-108.12648457749754"><ele>1746.8333333333335</ele><time>2026-04-25T16:19:04Z</time></trkpt><trkpt lat="36.79948919088115" lon="-108.12647388093572"><ele>1747.0</ele><time>2026-04-25T16:19:05Z</time></trkpt><trkpt lat="36.799348869206206" lon="-108.12644482690419"><ele>1745.3333333333335</ele><time>2026-04-25T16:19:06Z</time></trkpt><trkpt lat="36.79916817890995" lon="-108.12644043292647"><ele>1743.6666666666665</ele><time>2026-04-25T16:19:07Z</time></trkpt><trkpt lat="36.79896577792581" lon="-108.12644266903484"><ele>1742.0</ele><time>2026-04-25T16:19:08Z</time></trkpt><trkpt lat="36.79875761088025" lon="-108.12645970173236"><ele>1742.0</ele><time>2026-04-25T16:19:09Z</time></trkpt><trkpt lat="36.7985726229851" lon="-108.12646105419276"><ele>1742.0</ele><time>2026-04-25T16:19:10Z</time></trkpt><trkpt lat="36.79842391420368" lon="-108.1264690941899"><ele>1742.0</ele><time>2026-04-25T16:19:11Z</time></trkpt><trkpt lat="36.79831002752935" lon="-108.12648111057888"><ele>1742.0</ele><time>2026-04-25T16:19:12Z</time></trkpt><trkpt lat="36.798231121611224" lon="-108.12648732331017"><ele>1743.1999999999998</ele><time>2026-04-25T16:19:13Z</time></trkpt><trkpt lat="36.798241934557325" lon="-108.1266991334947"><ele>1744.3999999999999</ele><time>2026-04-25T16:19:15Z</time></trkpt><trkpt lat="36.79823816225358" lon="-108.12682326841207"><ele>1745.6000000000001</ele><time>2026-04-25T16:19:16Z</time></trkpt><trkpt lat="36.79823430926356" lon="-108.1269500585978"><ele>1746.8000000000002</ele><time>2026-04-25T16:19:17Z</time></trkpt><trkpt lat="36.79823296544308" lon="-108.12704549072514"><ele>1748.0</ele><time>2026-04-25T16:19:18Z</time></trkpt><trkpt lat="36.79823306803811" lon="-108.12715325335739"><ele>1748.0</ele><time>2026-04-25T16:19:19Z</time></trkpt><trkpt lat="36.79823448442521" lon="-108.12725820120347"><ele>1748.0000000000002</ele><time>2026-04-25T16:19:20Z</time></trkpt><trkpt lat="36.79823891742252" lon="-108.1273654915691"><ele>1748.0000000000002</ele><time>2026-04-25T16:19:21Z</time></trkpt><trkpt lat="36.79824403246034" lon="-108.12747804598963"><ele>1748.0</ele><time>2026-04-25T16:19:22Z</time></trkpt><trkpt lat="36.798250815619205" lon="-108.12759511831314"><ele>1748.0</ele><time>2026-04-25T16:19:22.999Z</time></trkpt><trkpt lat="36.79825100282821" lon="-108.12772246133338"><ele>1749.25</ele><time>2026-04-25T16:19:23.999Z</time></trkpt><trkpt lat="36.7982801495271" lon="-108.12785405815"><ele>1750.5</ele><time>2026-04-25T16:19:24.999Z</time></trkpt><trkpt lat="36.798310441423105" lon="-108.12799897907661"><ele>1751.75</ele><time>2026-04-25T16:19:25.999Z</time></trkpt><trkpt lat="36.79834136255963" lon="-108.12815323892123"><ele>1753.0</ele><time>2026-04-25T16:19:26.999Z</time></trkpt><trkpt lat="36.79840333975164" lon="-108.12834236232146"><ele>1753.0</ele><time>2026-04-25T16:19:27.999Z</time></trkpt><trkpt lat="36.79848921947504" lon="-108.12850551260382"><ele>1753.0</ele><time>2026-04-25T16:19:28.999Z</time></trkpt><trkpt lat="36.798573708955395" lon="-108.12867436385646"><ele>1753.0</ele><time>2026-04-25T16:19:29.999Z</time></trkpt><trkpt lat="36.79866629693414" lon="-108.12883839760032"><ele>1753.0</ele><time>2026-04-25T16:19:30.999Z</time></trkpt><trkpt lat="36.798777228637626" lon="-108.12897990587113"><ele>1753.0</ele><time>2026-04-25T16:19:31.999Z</time></trkpt><trkpt lat="36.79890758710069" lon="-108.1291259771561"><ele>1753.0</ele><time>2026-04-25T16:19:32.999Z</time></trkpt><trkpt lat="36.79906144952193" lon="-108.129253040349"><ele>1753.0</ele><time>2026-04-25T16:19:33.999Z</time></trkpt><trkpt lat="36.799244159672796" lon="-108.12938907055008"><ele>1753.0</ele><time>2026-04-25T16:19:35Z</time></trkpt><trkpt lat="36.79945483112338" lon="-108.12948645019695"><ele>1753.0</ele><time>2026-04-25T16:19:36Z</time></trkpt><trkpt lat="36.79967535136824" lon="-108.12953544629745"><ele>1753.6666666666667</ele><time>2026-04-25T16:19:37Z</time></trkpt><trkpt lat="36.799879385604875" lon="-108.12957729656638"><ele>1754.3333333333335</ele><time>2026-04-25T16:19:38Z</time></trkpt><trkpt lat="36.80008561020155" lon="-108.12962080064226"><ele>1755.0</ele><time>2026-04-25T16:19:39Z</time></trkpt><trkpt lat="36.800281325530094" lon="-108.12969538127436"><ele>1755.6666666666665</ele><time>2026-04-25T16:19:40Z</time></trkpt><trkpt lat="36.80047007480067" lon="-108.12974819566261"><ele>1756.3333333333333</ele><time>2026-04-25T16:19:41Z</time></trkpt><trkpt lat="36.800645200497016" lon="-108.12987034916969"><ele>1757.0</ele><time>2026-04-25T16:19:42Z</time></trkpt><trkpt lat="36.800793232662585" lon="-108.12998995066867"><ele>1757.0</ele><time>2026-04-25T16:19:43Z</time></trkpt><trkpt lat="36.80092201316852" lon="-108.13012702274183"><ele>1757.0</ele><time>2026-04-25T16:19:44Z</time></trkpt><trkpt lat="36.80103004557463" lon="-108.13028160662763"><ele>1757.0</ele><time>2026-04-25T16:19:45Z</time></trkpt><trkpt lat="36.801128209328624" lon="-108.13047382622428"><ele>1758.6666666666665</ele><time>2026-04-25T16:19:46Z</time></trkpt><trkpt lat="36.80120546346821" lon="-108.13066920087691"><ele>1760.3333333333335</ele><time>2026-04-25T16:19:47Z</time></trkpt><trkpt lat="36.801253983900295" lon="-108.13085155184561"><ele>1762.0</ele><time>2026-04-25T16:19:48Z</time></trkpt><trkpt lat="36.80128675410645" lon="-108.13103285804198"><ele>1762.6666666666667</ele><time>2026-04-25T16:19:49Z</time></trkpt><trkpt lat="36.801303279297365" lon="-108.13123466754"><ele>1763.3333333333335</ele><time>2026-04-25T16:19:50Z</time></trkpt><trkpt lat="36.80131087096506" lon="-108.13146690350626"><ele>1764.0</ele><time>2026-04-25T16:19:51Z</time></trkpt><trkpt lat="36.80131946688031" lon="-108.13172717803782"><ele>1765.0</ele><time>2026-04-25T16:19:52Z</time></trkpt><trkpt lat="36.801341379999016" lon="-108.13200573692681"><ele>1766.0</ele><time>2026-04-25T16:19:53Z</time></trkpt><trkpt lat="36.801376536510716" lon="-108.13227082655615"><ele>1767.0</ele><time>2026-04-25T16:19:54Z</time></trkpt><trkpt lat="36.80145399005071" lon="-108.13246918817224"><ele>1767.75</ele><time>2026-04-25T16:19:55Z</time></trkpt><trkpt lat="36.80152365936298" lon="-108.1326489575258"><ele>1768.5</ele><time>2026-04-25T16:19:56Z</time></trkpt><trkpt lat="36.801601584726605" lon="-108.13280825216648"><ele>1769.25</ele><time>2026-04-25T16:19:57Z</time></trkpt><trkpt lat="36.801671511049655" lon="-108.13293700617699"><ele>1770.0</ele><time>2026-04-25T16:19:58Z</time></trkpt><trkpt lat="36.8017355114272" lon="-108.13304501272427"><ele>1770.0</ele><time>2026-04-25T16:19:59Z</time></trkpt><trkpt lat="36.8017874733677" lon="-108.1331414076181"><ele>1770.0</ele><time>2026-04-25T16:20:00Z</time></trkpt><trkpt lat="36.80185137411796" lon="-108.13319630797935"><ele>1770.0</ele><time>2026-04-25T16:20:01Z</time></trkpt><trkpt lat="36.80199960686513" lon="-108.13302666910343"><ele>1770.0</ele><time>2026-04-25T16:20:03Z</time></trkpt><trkpt lat="36.802090304792486" lon="-108.13295769396392"><ele>1771.0</ele><time>2026-04-25T16:20:04Z</time></trkpt><trkpt lat="36.802187457995416" lon="-108.13288840492923"><ele>1772.0</ele><time>2026-04-25T16:20:05Z</time></trkpt><trkpt lat="36.802298792680794" lon="-108.13282481587996"><ele>1773.0</ele><time>2026-04-25T16:20:06Z</time></trkpt><trkpt lat="36.802439937156535" lon="-108.13281003401443"><ele>1774.0</ele><time>2026-04-25T16:20:07Z</time></trkpt><trkpt lat="36.80257220794634" lon="-108.13280555431399"><ele>1774.5</ele><time>2026-04-25T16:20:08Z</time></trkpt><trkpt lat="36.80270850991118" lon="-108.13278105573825"><ele>1775.0</ele><time>2026-04-25T16:20:09Z</time></trkpt><trkpt lat="36.80284030179611" lon="-108.13279635516714"><ele>1775.5</ele><time>2026-04-25T16:20:10Z</time></trkpt><trkpt lat="36.80296909208837" lon="-108.13279397200263"><ele>1776.0</ele><time>2026-04-25T16:20:11Z</time></trkpt><trkpt lat="36.80308396733741" lon="-108.13277070046426"><ele>1776.0</ele><time>2026-04-25T16:20:12Z</time></trkpt><trkpt lat="36.80321259392154" lon="-108.1327674510939"><ele>1776.0</ele><time>2026-04-25T16:20:13Z</time></trkpt><trkpt lat="36.80336050760911" lon="-108.13276371449861"><ele>1776.0</ele><time>2026-04-25T16:20:14Z</time></trkpt><trkpt lat="36.80352385337044" lon="-108.13275958805315"><ele>1776.0</ele><time>2026-04-25T16:20:15Z</time></trkpt><trkpt lat="36.803692300742796" lon="-108.13275619915682"><ele>1777.6666666666665</ele><time>2026-04-25T16:20:16Z</time></trkpt><trkpt lat="36.80388236309167" lon="-108.1327506421428"><ele>1779.3333333333333</ele><time>2026-04-25T16:20:17Z</time></trkpt><trkpt lat="36.804086989297154" lon="-108.13274261956059"><ele>1781.0</ele><time>2026-04-25T16:20:18Z</time></trkpt><trkpt lat="36.80430028902508" lon="-108.13273470642602"><ele>1781.3333333333333</ele><time>2026-04-25T16:20:19Z</time></trkpt><trkpt lat="36.804508872215926" lon="-108.1327294021437"><ele>1781.6666666666665</ele><time>2026-04-25T16:20:20Z</time></trkpt><trkpt lat="36.80469119527707" lon="-108.13272505162291"><ele>1782.0</ele><time>2026-04-25T16:20:21Z</time></trkpt><trkpt lat="36.804829223441544" lon="-108.13273269103689"><ele>1782.0</ele><time>2026-04-25T16:20:22Z</time></trkpt><trkpt lat="36.804921681593704" lon="-108.13270072980234"><ele>1781.9999999999998</ele><time>2026-04-25T16:20:23Z</time></trkpt><trkpt lat="36.80497650056387" lon="-108.13262870285753"><ele>1781.9999999999998</ele><time>2026-04-25T16:20:24Z</time></trkpt><trkpt lat="36.80496582140375" lon="-108.13250251309348"><ele>1782.0</ele><time>2026-04-25T16:20:25Z</time></trkpt><trkpt lat="36.80495492515916" lon="-108.13233958589034"><ele>1782.0</ele><time>2026-04-25T16:20:26Z</time></trkpt><trkpt lat="36.80495497676129" lon="-108.13215936012863"><ele>1780.6666666666665</ele><time>2026-04-25T16:20:27Z</time></trkpt><trkpt lat="36.804957068964185" lon="-108.13196177125451"><ele>1779.3333333333333</ele><time>2026-04-25T16:20:28Z</time></trkpt><trkpt lat="36.804964265510655" lon="-108.1317693423378"><ele>1778.0</ele><time>2026-04-25T16:20:29Z</time></trkpt><trkpt lat="36.80496549321822" lon="-108.13159599050265"><ele>1777.6666666666665</ele><time>2026-04-25T16:20:30Z</time></trkpt><trkpt lat="36.80496393730008" lon="-108.13141546952906"><ele>1777.3333333333335</ele><time>2026-04-25T16:20:31Z</time></trkpt><trkpt lat="36.80496798834117" lon="-108.13121875042232"><ele>1777.0</ele><time>2026-04-25T16:20:32Z</time></trkpt><trkpt lat="36.8049699388528" lon="-108.13102895729699"><ele>1777.0</ele><time>2026-04-25T16:20:33Z</time></trkpt><trkpt lat="36.80497103024751" lon="-108.13082063728139"><ele>1777.0</ele><time>2026-04-25T16:20:34Z</time></trkpt><trkpt lat="36.804980384886676" lon="-108.13060045045927"><ele>1777.0</ele><time>2026-04-25T16:20:35Z</time></trkpt><trkpt lat="36.80497631355189" lon="-108.13038529539728"><ele>1777.0</ele><time>2026-04-25T16:20:36Z</time></trkpt><trkpt lat="36.80497580760567" lon="-108.13018389752476"><ele>1777.0</ele><time>2026-04-25T16:20:37Z</time></trkpt><trkpt lat="36.80497641659741" lon="-108.13001023359675"><ele>1777.0</ele><time>2026-04-25T16:20:38Z</time></trkpt><trkpt lat="36.80497234582021" lon="-108.12984099308487"><ele>1777.0</ele><time>2026-04-25T16:20:39Z</time></trkpt><trkpt lat="36.80495940722181" lon="-108.12969131110232"><ele>1777.0</ele><time>2026-04-25T16:20:40Z</time></trkpt><trkpt lat="36.804960705042696" lon="-108.12956844250328"><ele>1776.9999999999998</ele><time>2026-04-25T16:20:41Z</time></trkpt><trkpt lat="36.8049771999151" lon="-108.12945415559561"><ele>1776.9999999999998</ele><time>2026-04-25T16:20:42Z</time></trkpt><trkpt lat="36.80505100599773" lon="-108.12933079030182"><ele>1777.0</ele><time>2026-04-25T16:20:43Z</time></trkpt><trkpt lat="36.8051134402637" lon="-108.12918974399103"><ele>1777.0</ele><time>2026-04-25T16:20:44Z</time></trkpt><trkpt lat="36.80514593016749" lon="-108.12906520856563"><ele>1778.75</ele><time>2026-04-25T16:20:45Z</time></trkpt><trkpt lat="36.8052384083893" lon="-108.12901544667454"><ele>1780.5</ele><time>2026-04-25T16:20:46Z</time></trkpt><trkpt lat="36.80537522521381" lon="-108.1289843264427"><ele>1782.25</ele><time>2026-04-25T16:20:47Z</time></trkpt><trkpt lat="36.80546087104749" lon="-108.12887627483391"><ele>1784.0</ele><time>2026-04-25T16:20:48Z</time></trkpt><trkpt lat="36.80554414003576" lon="-108.12876039001847"><ele>1784.0</ele><time>2026-04-25T16:20:49Z</time></trkpt><trkpt lat="36.80560527556754" lon="-108.12869980194517"><ele>1784.0</ele><time>2026-04-25T16:20:50Z</time></trkpt><trkpt lat="36.80574471078688" lon="-108.12877619798354"><ele>1784.0</ele><time>2026-04-25T16:20:52Z</time></trkpt><trkpt lat="36.80583975772398" lon="-108.12880530830365"><ele>1784.0</ele><time>2026-04-25T16:20:53Z</time></trkpt><trkpt lat="36.80594702952229" lon="-108.12874167328805"><ele>1784.0</ele><time>2026-04-25T16:20:54Z</time></trkpt><trkpt lat="36.80604118002903" lon="-108.12864572862411"><ele>1785.0</ele><time>2026-04-25T16:20:55Z</time></trkpt><trkpt lat="36.80614740870794" lon="-108.12857549965116"><ele>1786.0</ele><time>2026-04-25T16:20:56Z</time></trkpt><trkpt lat="36.80631375722387" lon="-108.12852190980267"><ele>1787.0</ele><time>2026-04-25T16:20:57Z</time></trkpt><trkpt lat="36.80645001277219" lon="-108.12843604883138"><ele>1788.0</ele><time>2026-04-25T16:20:58Z</time></trkpt><trkpt lat="36.80654781648438" lon="-108.12826667071494"><ele>1787.75</ele><time>2026-04-25T16:20:59Z</time></trkpt><trkpt lat="36.80666671922485" lon="-108.12816035898969"><ele>1787.5</ele><time>2026-04-25T16:21:00Z</time></trkpt><trkpt lat="36.80678970647426" lon="-108.12817725841087"><ele>1787.25</ele><time>2026-04-25T16:21:01Z</time></trkpt><trkpt lat="36.80694530179649" lon="-108.12821085328376"><ele>1787.0</ele><time>2026-04-25T16:21:02Z</time></trkpt><trkpt lat="36.807090608530416" lon="-108.12821890949974"><ele>1787.0</ele><time>2026-04-25T16:21:03Z</time></trkpt><trkpt lat="36.807247327435796" lon="-108.1282218319529"><ele>1787.0</ele><time>2026-04-25T16:21:04Z</time></trkpt><trkpt lat="36.80741815886017" lon="-108.12819737673112"><ele>1787.0</ele><time>2026-04-25T16:21:05Z</time></trkpt><trkpt lat="36.8075703229104" lon="-108.12816843344464"><ele>1788.0</ele><time>2026-04-25T16:21:06Z</time></trkpt><trkpt lat="36.807697632267" lon="-108.12817348164737"><ele>1788.9999999999998</ele><time>2026-04-25T16:21:07Z</time></trkpt><trkpt lat="36.80780073051525" lon="-108.12821400246645"><ele>1789.9999999999998</ele><time>2026-04-25T16:21:08Z</time></trkpt><trkpt lat="36.80783842175636" lon="-108.12810894925686"><ele>1791.0</ele><time>2026-04-25T16:21:10Z</time></trkpt><trkpt lat="36.807832424981164" lon="-108.12798591658087"><ele>1792.0</ele><time>2026-04-25T16:21:11Z</time></trkpt><trkpt lat="36.80785775205331" lon="-108.12784994838563"><ele>1792.0</ele><time>2026-04-25T16:21:12Z</time></trkpt><trkpt lat="36.80791859489983" lon="-108.12776891900222"><ele>1791.9999999999998</ele><time>2026-04-25T16:21:13Z</time></trkpt><trkpt lat="36.80801977699482" lon="-108.12772575743028"><ele>1791.9999999999998</ele><time>2026-04-25T16:21:14Z</time></trkpt><trkpt lat="36.80811097312552" lon="-108.12767246895127"><ele>1792.0</ele><time>2026-04-25T16:21:15Z</time></trkpt><trkpt lat="36.80819164026776" lon="-108.12754650293341"><ele>1792.0</ele><time>2026-04-25T16:21:16Z</time></trkpt><trkpt lat="36.80828326124122" lon="-108.12744006783701"><ele>1791.3999999999999</ele><time>2026-04-25T16:21:17Z</time></trkpt><trkpt lat="36.80838319381809" lon="-108.1273272004747"><ele>1790.7999999999997</ele><time>2026-04-25T16:21:18Z</time></trkpt><trkpt lat="36.80845261693068" lon="-108.12721903069148"><ele>1790.2</ele><time>2026-04-25T16:21:19Z</time></trkpt><trkpt lat="36.80849176827089" lon="-108.12714918863922"><ele>1789.6</ele><time>2026-04-25T16:21:20Z</time></trkpt><trkpt lat="36.80852891443814" lon="-108.12707410403381"><ele>1789.0</ele><time>2026-04-25T16:21:21Z</time></trkpt><trkpt lat="36.80855982539765" lon="-108.12699424135761"><ele>1789.0000000000002</ele><time>2026-04-25T16:21:22Z</time></trkpt><trkpt lat="36.80859706051313" lon="-108.1269226194674"><ele>1789.0</ele><time>2026-04-25T16:21:23Z</time></trkpt><trkpt lat="36.80864666671069" lon="-108.12686689239062"><ele>1789.0</ele><time>2026-04-25T16:21:24Z</time></trkpt><trkpt lat="36.80871367638323" lon="-108.12683202630885"><ele>1789.0</ele><time>2026-04-25T16:21:25Z</time></trkpt><trkpt lat="36.80879401821847" lon="-108.12679402449119"><ele>1789.0000000000002</ele><time>2026-04-25T16:21:26Z</time></trkpt><trkpt lat="36.808867259696015" lon="-108.12675104755493"><ele>1789.0</ele><time>2026-04-25T16:21:27Z</time></trkpt><trkpt lat="36.80895094782959" lon="-108.12669188330293"><ele>1789.0</ele><time>2026-04-25T16:21:28Z</time></trkpt><trkpt lat="36.80903726666707" lon="-108.12663981522928"><ele>1789.0</ele><time>2026-04-25T16:21:29Z</time></trkpt><trkpt lat="36.80911747195654" lon="-108.12658727072922"><ele>1789.0</ele><time>2026-04-25T16:21:30Z</time></trkpt><trkpt lat="36.80919947047918" lon="-108.12653655220048"><ele>1789.0</ele><time>2026-04-25T16:21:31Z</time></trkpt><trkpt lat="36.80927845711504" lon="-108.12647769379248"><ele>1789.0</ele><time>2026-04-25T16:21:32Z</time></trkpt><trkpt lat="36.809361871761496" lon="-108.12641924293212"><ele>1790.75</ele><time>2026-04-25T16:21:33Z</time></trkpt><trkpt lat="36.80944654198175" lon="-108.12636582582431"><ele>1792.5</ele><time>2026-04-25T16:21:34Z</time></trkpt><trkpt lat="36.809541473423884" lon="-108.12632195364546"><ele>1794.25</ele><time>2026-04-25T16:21:35Z</time></trkpt><trkpt lat="36.80965440724672" lon="-108.12629024228329"><ele>1796.0</ele><time>2026-04-25T16:21:36Z</time></trkpt><trkpt lat="36.80980074515363" lon="-108.1262898270801"><ele>1796.0</ele><time>2026-04-25T16:21:37Z</time></trkpt><trkpt lat="36.809947175986395" lon="-108.12634048816625"><ele>1796.0</ele><time>2026-04-25T16:21:38Z</time></trkpt><trkpt lat="36.81007007968974" lon="-108.12642116303336"><ele>1796.0</ele><time>2026-04-25T16:21:39Z</time></trkpt><trkpt lat="36.81015659295286" lon="-108.12646154064954"><ele>1796.0</ele><time>2026-04-25T16:21:40Z</time></trkpt><trkpt lat="36.81030273891624" lon="-108.12652066827675"><ele>1797.25</ele><time>2026-04-25T16:21:42Z</time></trkpt><trkpt lat="36.81041520170626" lon="-108.12659785547115"><ele>1798.5</ele><time>2026-04-25T16:21:43Z</time></trkpt><trkpt lat="36.81052555842555" lon="-108.12665591278896"><ele>1799.75</ele><time>2026-04-25T16:21:44Z</time></trkpt><trkpt lat="36.810612322045934" lon="-108.12670759097423"><ele>1801.0</ele><time>2026-04-25T16:21:45Z</time></trkpt><trkpt lat="36.81073115500234" lon="-108.12678415276767"><ele>1801.0</ele><time>2026-04-25T16:21:46Z</time></trkpt><trkpt lat="36.81084351179822" lon="-108.12686915632814"><ele>1801.0</ele><time>2026-04-25T16:21:47Z</time></trkpt><trkpt lat="36.81092733339469" lon="-108.12694735100935"><ele>1801.0</ele><time>2026-04-25T16:21:48Z</time></trkpt><trkpt lat="36.81102732234622" lon="-108.12690758278065"><ele>1801.0</ele><time>2026-04-25T16:21:50Z</time></trkpt><trkpt lat="36.8111033989541" lon="-108.12679870400633"><ele>1801.0</ele><time>2026-04-25T16:21:51Z</time></trkpt><trkpt lat="36.811179235469474" lon="-108.12669287928038"><ele>1801.0</ele><time>2026-04-25T16:21:52Z</time></trkpt><trkpt lat="36.811257418378155" lon="-108.12662990438328"><ele>1801.0</ele><time>2026-04-25T16:21:53Z</time></trkpt><trkpt lat="36.81134070893724" lon="-108.12655155442806"><ele>1801.0</ele><time>2026-04-25T16:21:54Z</time></trkpt><trkpt lat="36.81145856130449" lon="-108.12653192872415"><ele>1801.0</ele><time>2026-04-25T16:21:55Z</time></trkpt><trkpt lat="36.811602919569616" lon="-108.12653825300134"><ele>1800.0</ele><time>2026-04-25T16:21:56Z</time></trkpt><trkpt lat="36.81177688849823" lon="-108.12646864793437"><ele>1799.0</ele><time>2026-04-25T16:21:57Z</time></trkpt><trkpt lat="36.81192164865405" lon="-108.12638507984444"><ele>1798.0</ele><time>2026-04-25T16:21:58Z</time></trkpt><trkpt lat="36.81203018708966" lon="-108.12633365629326"><ele>1797.5</ele><time>2026-04-25T16:21:59Z</time></trkpt><trkpt lat="36.81212686821043" lon="-108.12630136106911"><ele>1797.0</ele><time>2026-04-25T16:22:00Z</time></trkpt><trkpt lat="36.812247791432156" lon="-108.12627117679673"><ele>1796.5</ele><time>2026-04-25T16:22:01Z</time></trkpt><trkpt lat="36.812399877106756" lon="-108.12624063541382"><ele>1796.0</ele><time>2026-04-25T16:22:02Z</time></trkpt><trkpt lat="36.81251872992984" lon="-108.1262626924861"><ele>1796.0</ele><time>2026-04-25T16:22:03Z</time></trkpt><trkpt lat="36.81262424324523" lon="-108.12630810433777"><ele>1796.0</ele><time>2026-04-25T16:22:04Z</time></trkpt><trkpt lat="36.81278648854318" lon="-108.1263335484212"><ele>1796.0</ele><time>2026-04-25T16:22:05Z</time></trkpt><trkpt lat="36.81292648962926" lon="-108.12631207932688"><ele>1796.0</ele><time>2026-04-25T16:22:06Z</time></trkpt><trkpt lat="36.81303398252312" lon="-108.12622527629239"><ele>1796.0</ele><time>2026-04-25T16:22:07Z</time></trkpt><trkpt lat="36.813143760148456" lon="-108.1261042343142"><ele>1796.0</ele><time>2026-04-25T16:22:08Z</time></trkpt><trkpt lat="36.813246398009355" lon="-108.12597799346698"><ele>1796.0</ele><time>2026-04-25T16:22:09Z</time></trkpt><trkpt lat="36.81334011305484" lon="-108.12584891969337"><ele>1796.0</ele><time>2026-04-25T16:22:10Z</time></trkpt><trkpt lat="36.813415304269114" lon="-108.12573518123658"><ele>1795.25</ele><time>2026-04-25T16:22:11Z</time></trkpt><trkpt lat="36.813510514122584" lon="-108.12565077058613"><ele>1794.5</ele><time>2026-04-25T16:22:12Z</time></trkpt><trkpt lat="36.81363375138086" lon="-108.12557798577272"><ele>1793.75</ele><time>2026-04-25T16:22:13Z</time></trkpt><trkpt lat="36.81377569967412" lon="-108.12556554776152"><ele>1793.0</ele><time>2026-04-25T16:22:14Z</time></trkpt><trkpt lat="36.81391516839487" lon="-108.12552286697309"><ele>1793.0</ele><time>2026-04-25T16:22:15Z</time></trkpt><trkpt lat="36.81403930844271" lon="-108.12545234492909"><ele>1793.0000000000002</ele><time>2026-04-25T16:22:16Z</time></trkpt><trkpt lat="36.81417932135462" lon="-108.12540148162273"><ele>1793.0000000000002</ele><time>2026-04-25T16:22:17Z</time></trkpt><trkpt lat="36.81427383069078" lon="-108.12536452661524"><ele>1793.0</ele><time>2026-04-25T16:22:18Z</time></trkpt><trkpt lat="36.814341900714346" lon="-108.12535775784467"><ele>1793.0</ele><time>2026-04-25T16:22:19Z</time></trkpt><trkpt lat="36.814414316938496" lon="-108.12540332830694"><ele>1792.4</ele><time>2026-04-25T16:22:20Z</time></trkpt><trkpt lat="36.81446029248483" lon="-108.1255067382319"><ele>1791.8000000000002</ele><time>2026-04-25T16:22:21Z</time></trkpt><trkpt lat="36.81453177262491" lon="-108.12556114215485"><ele>1791.2</ele><time>2026-04-25T16:22:22Z</time></trkpt><trkpt lat="36.814608837838115" lon="-108.12551495523375"><ele>1790.6</ele><time>2026-04-25T16:22:23Z</time></trkpt><trkpt lat="36.814739574493295" lon="-108.12543981357454"><ele>1790.0</ele><time>2026-04-25T16:22:24Z</time></trkpt><trkpt lat="36.81487804494966" lon="-108.12540710097429"><ele>1790.0</ele><time>2026-04-25T16:22:25Z</time></trkpt><trkpt lat="36.81501251526825" lon="-108.12539563148246"><ele>1790.0</ele><time>2026-04-25T16:22:26Z</time></trkpt><trkpt lat="36.815137341094655" lon="-108.12536509089446"><ele>1790.0</ele><time>2026-04-25T16:22:27Z</time></trkpt><trkpt lat="36.81525630161924" lon="-108.12530275294205"><ele>1790.0</ele><time>2026-04-25T16:22:28Z</time></trkpt><trkpt lat="36.81538253853515" lon="-108.12533411461693"><ele>1789.0</ele><time>2026-04-25T16:22:29Z</time></trkpt><trkpt lat="36.81554818482759" lon="-108.12538903835154"><ele>1788.0</ele><time>2026-04-25T16:22:30Z</time></trkpt><trkpt lat="36.81569794831486" lon="-108.12539493042954"><ele>1787.0</ele><time>2026-04-25T16:22:31Z</time></trkpt><trkpt lat="36.815834486907235" lon="-108.12538482989946"><ele>1787.0</ele><time>2026-04-25T16:22:32Z</time></trkpt><trkpt lat="36.81594796018018" lon="-108.12537337595047"><ele>1787.0</ele><time>2026-04-25T16:22:33Z</time></trkpt><trkpt lat="36.8160785274068" lon="-108.1253987700274"><ele>1787.0</ele><time>2026-04-25T16:22:34Z</time></trkpt><trkpt lat="36.816234932690165" lon="-108.12542130388877"><ele>1787.0</ele><time>2026-04-25T16:22:35Z</time></trkpt><trkpt lat="36.816351302135125" lon="-108.12542677943911"><ele>1787.6</ele><time>2026-04-25T16:22:36Z</time></trkpt><trkpt lat="36.816435190785576" lon="-108.12539531122236"><ele>1788.1999999999998</ele><time>2026-04-25T16:22:37Z</time></trkpt><trkpt lat="36.81652654717645" lon="-108.12532643456758"><ele>1788.8</ele><time>2026-04-25T16:22:38Z</time></trkpt><trkpt lat="36.81663718687689" lon="-108.12526304094541"><ele>1789.4</ele><time>2026-04-25T16:22:39Z</time></trkpt><trkpt lat="36.816761793055704" lon="-108.12523061612785"><ele>1790.0</ele><time>2026-04-25T16:22:40Z</time></trkpt><trkpt lat="36.81691100495335" lon="-108.12519393996965"><ele>1790.6</ele><time>2026-04-25T16:22:41Z</time></trkpt><trkpt lat="36.817002218391515" lon="-108.12522538365256"><ele>1791.2</ele><time>2026-04-25T16:22:42Z</time></trkpt><trkpt lat="36.81710923405946" lon="-108.12526196177541"><ele>1791.8000000000002</ele><time>2026-04-25T16:22:43Z</time></trkpt><trkpt lat="36.81722158290021" lon="-108.12529027719744"><ele>1792.4</ele><time>2026-04-25T16:22:44Z</time></trkpt><trkpt lat="36.817342190797724" lon="-108.1253382406629"><ele>1793.0</ele><time>2026-04-25T16:22:45Z</time></trkpt><trkpt lat="36.81740958140327" lon="-108.12541321521243"><ele>1793.0</ele><time>2026-04-25T16:22:46Z</time></trkpt><trkpt lat="36.81741776130409" lon="-108.12549401099885"><ele>1793.0000000000002</ele><time>2026-04-25T16:22:47Z</time></trkpt><trkpt lat="36.817428814832795" lon="-108.12562014772652"><ele>1793.0000000000002</ele><time>2026-04-25T16:22:48Z</time></trkpt><trkpt lat="36.81747226802885" lon="-108.12575266983691"><ele>1793.0</ele><time>2026-04-25T16:22:49Z</time></trkpt><trkpt lat="36.817545646007574" lon="-108.12585197151589"><ele>1793.0</ele><time>2026-04-25T16:22:50Z</time></trkpt><trkpt lat="36.81765562800327" lon="-108.12595890530928"><ele>1793.25</ele><time>2026-04-25T16:22:51Z</time></trkpt><trkpt lat="36.81773223757667" lon="-108.12600292060402"><ele>1793.5</ele><time>2026-04-25T16:22:52Z</time></trkpt><trkpt lat="36.817824334030234" lon="-108.12599640827091"><ele>1793.75</ele><time>2026-04-25T16:22:53Z</time></trkpt><trkpt lat="36.81797051127649" lon="-108.12597596699729"><ele>1794.0</ele><time>2026-04-25T16:22:54Z</time></trkpt><trkpt lat="36.81811329841258" lon="-108.12600233500977"><ele>1794.0</ele><time>2026-04-25T16:22:55Z</time></trkpt><trkpt lat="36.81825030844289" lon="-108.12602814920966"><ele>1794.0</ele><time>2026-04-25T16:22:56Z</time></trkpt><trkpt lat="36.81837521556491" lon="-108.12601148881726"><ele>1794.0</ele><time>2026-04-25T16:22:57Z</time></trkpt><trkpt lat="36.81850168105577" lon="-108.12599294933324"><ele>1794.0</ele><time>2026-04-25T16:22:58Z</time></trkpt><trkpt lat="36.81863524400546" lon="-108.12601188998973"><ele>1792.3333333333335</ele><time>2026-04-25T16:22:59Z</time></trkpt><trkpt lat="36.81882738003771" lon="-108.12601088279838"><ele>1790.6666666666667</ele><time>2026-04-25T16:23:00Z</time></trkpt><trkpt lat="36.8189722649868" lon="-108.12600249564794"><ele>1789.0</ele><time>2026-04-25T16:23:01Z</time></trkpt><trkpt lat="36.819100074401014" lon="-108.12600205035247"><ele>1789.0</ele><time>2026-04-25T16:23:02Z</time></trkpt><trkpt lat="36.81924083987054" lon="-108.12601458643906"><ele>1789.0</ele><time>2026-04-25T16:23:03Z</time></trkpt><trkpt lat="36.81936838937996" lon="-108.1259913453755"><ele>1789.0</ele><time>2026-04-25T16:23:04Z</time></trkpt><trkpt lat="36.819469306154495" lon="-108.1259475123796"><ele>1789.0</ele><time>2026-04-25T16:23:05Z</time></trkpt><trkpt lat="36.819554710334835" lon="-108.12593240115604"><ele>1788.0</ele><time>2026-04-25T16:23:06Z</time></trkpt><trkpt lat="36.819627032250274" lon="-108.12596350377639"><ele>1787.0</ele><time>2026-04-25T16:23:07Z</time></trkpt><trkpt lat="36.81971374273435" lon="-108.1260294002395"><ele>1786.0</ele><time>2026-04-25T16:23:08Z</time></trkpt><trkpt lat="36.819848137515976" lon="-108.12609285657102"><ele>1785.0</ele><time>2026-04-25T16:23:09Z</time></trkpt><trkpt lat="36.819959790408085" lon="-108.12613995282831"><ele>1784.0</ele><time>2026-04-25T16:23:10Z</time></trkpt><trkpt lat="36.82002784779169" lon="-108.12617117902731"><ele>1784.0</ele><time>2026-04-25T16:23:11Z</time></trkpt><trkpt lat="36.82011225142974" lon="-108.12613669086869"><ele>1784.0</ele><time>2026-04-25T16:23:12Z</time></trkpt><trkpt lat="36.820182918865" lon="-108.12605285503936"><ele>1784.0</ele><time>2026-04-25T16:23:13Z</time></trkpt><trkpt lat="36.820277850492474" lon="-108.12603574400093"><ele>1784.0</ele><time>2026-04-25T16:23:14Z</time></trkpt><trkpt lat="36.82037871103196" lon="-108.12608262071831"><ele>1784.0</ele><time>2026-04-25T16:23:15Z</time></trkpt><trkpt lat="36.820467739917504" lon="-108.12615133951195"><ele>1783.75</ele><time>2026-04-25T16:23:16Z</time></trkpt><trkpt lat="36.82057368510712" lon="-108.12624317956718"><ele>1783.5</ele><time>2026-04-25T16:23:17Z</time></trkpt><trkpt lat="36.82066563175591" lon="-108.12635663496522"><ele>1783.25</ele><time>2026-04-25T16:23:18Z</time></trkpt><trkpt lat="36.82076589466565" lon="-108.12645619255036"><ele>1783.0</ele><time>2026-04-25T16:23:19Z</time></trkpt><trkpt lat="36.82086604613756" lon="-108.12653761726307"><ele>1783.4</ele><time>2026-04-25T16:23:20Z</time></trkpt><trkpt lat="36.82097255987214" lon="-108.1265683284103"><ele>1783.8000000000002</ele><time>2026-04-25T16:23:21Z</time></trkpt><trkpt lat="36.82107493616842" lon="-108.12656650339268"><ele>1784.2</ele><time>2026-04-25T16:23:22Z</time></trkpt><trkpt lat="36.82117903341304" lon="-108.12657921398515"><ele>1784.6</ele><time>2026-04-25T16:23:23Z</time></trkpt><trkpt lat="36.82129636641704" lon="-108.12661021216553"><ele>1785.0</ele><time>2026-04-25T16:23:24Z</time></trkpt><trkpt lat="36.82141379039435" lon="-108.12665050198319"><ele>1786.0</ele><time>2026-04-25T16:23:25Z</time></trkpt><trkpt lat="36.82150489226552" lon="-108.12672160972974"><ele>1787.0</ele><time>2026-04-25T16:23:26Z</time></trkpt><trkpt lat="36.821598476610596" lon="-108.1268248794642"><ele>1788.0</ele><time>2026-04-25T16:23:27Z</time></trkpt><trkpt lat="36.82170778413691" lon="-108.12691612179763"><ele>1789.0</ele><time>2026-04-25T16:23:28Z</time></trkpt><trkpt lat="36.82179646920127" lon="-108.12703404934223"><ele>1789.6666666666667</ele><time>2026-04-25T16:23:29Z</time></trkpt><trkpt lat="36.82188891163526" lon="-108.12707645876522"><ele>1790.3333333333335</ele><time>2026-04-25T16:23:30Z</time></trkpt><trkpt lat="36.82196865710271" lon="-108.127079424515"><ele>1791.0</ele><time>2026-04-25T16:23:31Z</time></trkpt><trkpt lat="36.82206686221079" lon="-108.12709320922373"><ele>1791.6666666666665</ele><time>2026-04-25T16:23:32Z</time></trkpt><trkpt lat="36.82212568061484" lon="-108.12704052417737"><ele>1792.3333333333333</ele><time>2026-04-25T16:23:33Z</time></trkpt><trkpt lat="36.822155094973276" lon="-108.1269411839569"><ele>1793.0</ele><time>2026-04-25T16:23:34Z</time></trkpt><trkpt lat="36.82220778245014" lon="-108.1268323553968"><ele>1793.0</ele><time>2026-04-25T16:23:35Z</time></trkpt><trkpt lat="36.82224781738519" lon="-108.12674202486795"><ele>1793.0</ele><time>2026-04-25T16:23:36Z</time></trkpt><trkpt lat="36.822226432721116" lon="-108.12659857228006"><ele>1793.0</ele><time>2026-04-25T16:23:37Z</time></trkpt><trkpt lat="36.82217228058674" lon="-108.12640680459849"><ele>1793.0</ele><time>2026-04-25T16:23:38Z</time></trkpt><trkpt lat="36.82214366488861" lon="-108.12620150074639"><ele>1792.2</ele><time>2026-04-25T16:23:39Z</time></trkpt><trkpt lat="36.82211481560426" lon="-108.12605238603602"><ele>1791.4</ele><time>2026-04-25T16:23:40Z</time></trkpt><trkpt lat="36.82208289787842" lon="-108.12597238377793"><ele>1790.6000000000001</ele><time>2026-04-25T16:23:41Z</time></trkpt><trkpt lat="36.82210944019221" lon="-108.12586735146398"><ele>1789.8000000000002</ele><time>2026-04-25T16:23:42Z</time></trkpt><trkpt lat="36.822194348664276" lon="-108.12573312435724"><ele>1789.0</ele><time>2026-04-25T16:23:43Z</time></trkpt><trkpt lat="36.822281121333276" lon="-108.1256446886103"><ele>1789.0</ele><time>2026-04-25T16:23:44Z</time></trkpt><trkpt lat="36.82236361473919" lon="-108.12561058701858"><ele>1789.0</ele><time>2026-04-25T16:23:45Z</time></trkpt><trkpt lat="36.822443862862805" lon="-108.12553354417497"><ele>1789.0</ele><time>2026-04-25T16:23:46Z</time></trkpt><trkpt lat="36.8225441679722" lon="-108.1254284623948"><ele>1789.0</ele><time>2026-04-25T16:23:47Z</time></trkpt><trkpt lat="36.82266232931699" lon="-108.12534058007287"><ele>1790.25</ele><time>2026-04-25T16:23:48Z</time></trkpt><trkpt lat="36.82277872186653" lon="-108.12523241888186"><ele>1791.5</ele><time>2026-04-25T16:23:49Z</time></trkpt><trkpt lat="36.82287827239237" lon="-108.12511002064831"><ele>1792.75</ele><time>2026-04-25T16:23:50Z</time></trkpt><trkpt lat="36.8229678192525" lon="-108.12501125602965"><ele>1794.0</ele><time>2026-04-25T16:23:51Z</time></trkpt><trkpt lat="36.82309771964351" lon="-108.1249359468313"><ele>1793.4</ele><time>2026-04-25T16:23:53Z</time></trkpt><trkpt lat="36.82322425376779" lon="-108.12487902971596"><ele>1792.8000000000002</ele><time>2026-04-25T16:23:54Z</time></trkpt><trkpt lat="36.823308234841825" lon="-108.12481273380753"><ele>1792.1999999999998</ele><time>2026-04-25T16:23:55Z</time></trkpt><trkpt lat="36.823340915047844" lon="-108.12469553394028"><ele>1791.6</ele><time>2026-04-25T16:23:56Z</time></trkpt><trkpt lat="36.823382563782" lon="-108.12456898467387"><ele>1791.0</ele><time>2026-04-25T16:23:57Z</time></trkpt><trkpt lat="36.82339127274939" lon="-108.12443902314668"><ele>1791.0</ele><time>2026-04-25T16:23:58Z</time></trkpt><trkpt lat="36.82341901231516" lon="-108.12436098408703"><ele>1791.0</ele><time>2026-04-25T16:23:59Z</time></trkpt><trkpt lat="36.82348356429585" lon="-108.12430127858391"><ele>1791.0</ele><time>2026-04-25T16:24:00Z</time></trkpt><trkpt lat="36.823578768994246" lon="-108.12426347757794"><ele>1791.0</ele><time>2026-04-25T16:24:01Z</time></trkpt><trkpt lat="36.823700532988745" lon="-108.12422764115735"><ele>1791.0</ele><time>2026-04-25T16:24:02Z</time></trkpt><trkpt lat="36.823801554081385" lon="-108.12418811762139"><ele>1791.0</ele><time>2026-04-25T16:24:03Z</time></trkpt><trkpt lat="36.823912052114956" lon="-108.12415272904562"><ele>1791.0</ele><time>2026-04-25T16:24:04Z</time></trkpt><trkpt lat="36.82400438317076" lon="-108.12411053450018"><ele>1791.0</ele><time>2026-04-25T16:24:05Z</time></trkpt><trkpt lat="36.82407289562864" lon="-108.12414581090164"><ele>1791.0</ele><time>2026-04-25T16:24:06Z</time></trkpt><trkpt lat="36.82414238529125" lon="-108.12424357448255"><ele>1791.0</ele><time>2026-04-25T16:24:07Z</time></trkpt><trkpt lat="36.82423786958464" lon="-108.12435723927712"><ele>1790.75</ele><time>2026-04-25T16:24:08Z</time></trkpt><trkpt lat="36.82435479817468" lon="-108.12441841549771"><ele>1790.5</ele><time>2026-04-25T16:24:09Z</time></trkpt><trkpt lat="36.824453652396244" lon="-108.12450169647381"><ele>1790.25</ele><time>2026-04-25T16:24:10Z</time></trkpt><trkpt lat="36.82453858054632" lon="-108.12457835715874"><ele>1790.0</ele><time>2026-04-25T16:24:11Z</time></trkpt><trkpt lat="36.82465585946004" lon="-108.12459548009339"><ele>1790.0</ele><time>2026-04-25T16:24:12Z</time></trkpt><trkpt lat="36.82474709687476" lon="-108.1246130065664"><ele>1790.0</ele><time>2026-04-25T16:24:13Z</time></trkpt><trkpt lat="36.824819562794076" lon="-108.1246851085288"><ele>1790.0</ele><time>2026-04-25T16:24:14Z</time></trkpt><trkpt lat="36.82488807267018" lon="-108.12480988588621"><ele>1790.0</ele><time>2026-04-25T16:24:15Z</time></trkpt><trkpt lat="36.8249983671968" lon="-108.12484065176105"><ele>1790.0</ele><time>2026-04-25T16:24:16Z</time></trkpt><trkpt lat="36.82512662706112" lon="-108.12492467914126"><ele>1791.0</ele><time>2026-04-25T16:24:17Z</time></trkpt><trkpt lat="36.82521629299701" lon="-108.12499773749829"><ele>1792.0</ele><time>2026-04-25T16:24:18Z</time></trkpt><trkpt lat="36.82529353218072" lon="-108.12496803135328"><ele>1793.0</ele><time>2026-04-25T16:24:19Z</time></trkpt><trkpt lat="36.82535436149737" lon="-108.12487617504429"><ele>1794.0</ele><time>2026-04-25T16:24:20Z</time></trkpt><trkpt lat="36.82542066945865" lon="-108.12477980364213"><ele>1795.0</ele><time>2026-04-25T16:24:21Z</time></trkpt><trkpt lat="36.82553399850387" lon="-108.12470385093158"><ele>1795.0</ele><time>2026-04-25T16:24:22Z</time></trkpt><trkpt lat="36.82565353317511" lon="-108.12467439105761"><ele>1795.0</ele><time>2026-04-25T16:24:23Z</time></trkpt><trkpt lat="36.82576284075098" lon="-108.12461755542317"><ele>1795.0</ele><time>2026-04-25T16:24:24Z</time></trkpt><trkpt lat="36.825869798987235" lon="-108.124524118206"><ele>1795.0</ele><time>2026-04-25T16:24:25Z</time></trkpt><trkpt lat="36.82598775413466" lon="-108.1244130527385"><ele>1795.5</ele><time>2026-04-25T16:24:26Z</time></trkpt><trkpt lat="36.82610939843039" lon="-108.12431408785326"><ele>1796.0</ele><time>2026-04-25T16:24:27Z</time></trkpt><trkpt lat="36.82622222159013" lon="-108.12421572834431"><ele>1796.5</ele><time>2026-04-25T16:24:28Z</time></trkpt><trkpt lat="36.82632605958572" lon="-108.12410908568998"><ele>1797.0</ele><time>2026-04-25T16:24:29Z</time></trkpt><trkpt lat="36.826449672102406" lon="-108.12399248547804"><ele>1797.0</ele><time>2026-04-25T16:24:30Z</time></trkpt><trkpt lat="36.82656029828907" lon="-108.12387915484622"><ele>1797.0</ele><time>2026-04-25T16:24:31Z</time></trkpt><trkpt lat="36.826678943710284" lon="-108.12375109460346"><ele>1797.0</ele><time>2026-04-25T16:24:32Z</time></trkpt><trkpt lat="36.826786883803074" lon="-108.12362991775014"><ele>1797.0</ele><time>2026-04-25T16:24:33Z</time></trkpt><trkpt lat="36.82689319999628" lon="-108.12349989281469"><ele>1797.0</ele><time>2026-04-25T16:24:34Z</time></trkpt><trkpt lat="36.82702049547477" lon="-108.12338948594106"><ele>1797.0</ele><time>2026-04-25T16:24:35Z</time></trkpt><trkpt lat="36.82716141966147" lon="-108.1232632945997"><ele>1797.0</ele><time>2026-04-25T16:24:36Z</time></trkpt><trkpt lat="36.82730047473884" lon="-108.12314954707696"><ele>1796.6666666666665</ele><time>2026-04-25T16:24:37Z</time></trkpt><trkpt lat="36.827430835938124" lon="-108.12299997059885"><ele>1796.3333333333333</ele><time>2026-04-25T16:24:38Z</time></trkpt><trkpt lat="36.8275904578982" lon="-108.12286922355635"><ele>1796.0</ele><time>2026-04-25T16:24:39Z</time></trkpt><trkpt lat="36.82773259551373" lon="-108.12270932738608"><ele>1795.0</ele><time>2026-04-25T16:24:40Z</time></trkpt><trkpt lat="36.82784123845387" lon="-108.12259298049014"><ele>1794.0</ele><time>2026-04-25T16:24:41Z</time></trkpt><trkpt lat="36.82798912543259" lon="-108.1224727599445"><ele>1793.0</ele><time>2026-04-25T16:24:42Z</time></trkpt><trkpt lat="36.828111752708864" lon="-108.12234427733733"><ele>1793.0</ele><time>2026-04-25T16:24:43Z</time></trkpt><trkpt lat="36.82819780706131" lon="-108.12225188479958"><ele>1793.0</ele><time>2026-04-25T16:24:44Z</time></trkpt><trkpt lat="36.82831503411395" lon="-108.12218420053195"><ele>1793.0</ele><time>2026-04-25T16:24:45Z</time></trkpt><trkpt lat="36.82846841184972" lon="-108.12210281925664"><ele>1793.0</ele><time>2026-04-25T16:24:46Z</time></trkpt><trkpt lat="36.82862810022912" lon="-108.12198543000999"><ele>1793.0</ele><time>2026-04-25T16:24:47Z</time></trkpt><trkpt lat="36.82876398786246" lon="-108.12181501024381"><ele>1793.0</ele><time>2026-04-25T16:24:48Z</time></trkpt><trkpt lat="36.82890064579429" lon="-108.1216630756437"><ele>1793.0</ele><time>2026-04-25T16:24:49Z</time></trkpt><trkpt lat="36.82904252922372" lon="-108.12153282835064"><ele>1793.0</ele><time>2026-04-25T16:24:50Z</time></trkpt><trkpt lat="36.82917278667898" lon="-108.1214136784149"><ele>1793.0</ele><time>2026-04-25T16:24:51Z</time></trkpt><trkpt lat="36.82926236817185" lon="-108.1213339843386"><ele>1793.0</ele><time>2026-04-25T16:24:52Z</time></trkpt><trkpt lat="36.82932255433177" lon="-108.12127402781877"><ele>1793.0</ele><time>2026-04-25T16:24:53Z</time></trkpt><trkpt lat="36.82943869452306" lon="-108.12123750427581"><ele>1792.2</ele><time>2026-04-25T16:25:54Z</time></trkpt><trkpt lat="36.8295567130224" lon="-108.12122637557884"><ele>1791.4</ele><time>2026-04-25T16:25:56Z</time></trkpt><trkpt lat="36.82964567509885" lon="-108.12122765483548"><ele>1790.6000000000001</ele><time>2026-04-25T16:25:57Z</time></trkpt><trkpt lat="36.829756614525515" lon="-108.12122857862994"><ele>1789.8000000000002</ele><time>2026-04-25T16:25:58Z</time></trkpt><trkpt lat="36.82987181274775" lon="-108.12124816265076"><ele>1789.0</ele><time>2026-04-25T16:25:59Z</time></trkpt><trkpt lat="36.83000240355236" lon="-108.12124738637493"><ele>1789.0</ele><time>2026-04-25T16:26:00Z</time></trkpt><trkpt lat="36.83012591301809" lon="-108.12122799227245"><ele>1789.0</ele><time>2026-04-25T16:26:01Z</time></trkpt><trkpt lat="36.830258987546" lon="-108.12120664224628"><ele>1789.0</ele><time>2026-04-25T16:26:02Z</time></trkpt><trkpt lat="36.83039205936462" lon="-108.12120997881678"><ele>1789.0</ele><time>2026-04-25T16:26:03Z</time></trkpt><trkpt lat="36.83051839575672" lon="-108.12123202846223"><ele>1788.0</ele><time>2026-04-25T16:26:04Z</time></trkpt><trkpt lat="36.83064504418542" lon="-108.121261209507"><ele>1787.0</ele><time>2026-04-25T16:26:05Z</time></trkpt><trkpt lat="36.830752370661514" lon="-108.12129727571842"><ele>1786.0</ele><time>2026-04-25T16:26:06Z</time></trkpt><trkpt lat="36.83085174807542" lon="-108.12133344746206"><ele>1785.0</ele><time>2026-04-25T16:26:07Z</time></trkpt><trkpt lat="36.83093198012102" lon="-108.12135074763833"><ele>1784.0</ele><time>2026-04-25T16:26:08Z</time></trkpt><trkpt lat="36.83104806079871" lon="-108.12132058341344"><ele>1784.0</ele><time>2026-04-25T16:26:09Z</time></trkpt><trkpt lat="36.83117649827132" lon="-108.12131166084079"><ele>1784.0</ele><time>2026-04-25T16:26:10Z</time></trkpt><trkpt lat="36.831275111292506" lon="-108.12132539411432"><ele>1784.0</ele><time>2026-04-25T16:26:11Z</time></trkpt><trkpt lat="36.831368776378525" lon="-108.12136130233354"><ele>1784.0</ele><time>2026-04-25T16:26:12Z</time></trkpt><trkpt lat="36.831465058785156" lon="-108.12139164699883"><ele>1784.0</ele><time>2026-04-25T16:26:13Z</time></trkpt><trkpt lat="36.831582427406126" lon="-108.12140726013764"><ele>1784.0</ele><time>2026-04-25T16:26:14Z</time></trkpt><trkpt lat="36.83170260541169" lon="-108.12143502078924"><ele>1784.0</ele><time>2026-04-25T16:26:15Z</time></trkpt><trkpt lat="36.831808804465496" lon="-108.12146588641774"><ele>1784.0</ele><time>2026-04-25T16:26:16Z</time></trkpt><trkpt lat="36.83193954452696" lon="-108.1214957558917"><ele>1784.0</ele><time>2026-04-25T16:26:17Z</time></trkpt><trkpt lat="36.83207579925592" lon="-108.12154595353589"><ele>1784.3333333333333</ele><time>2026-04-25T16:26:18Z</time></trkpt><trkpt lat="36.8322210665968" lon="-108.12159279091672"><ele>1784.6666666666665</ele><time>2026-04-25T16:26:19Z</time></trkpt><trkpt lat="36.83237025846929" lon="-108.12164484393078"><ele>1785.0</ele><time>2026-04-25T16:26:20Z</time></trkpt><trkpt lat="36.83252777341475" lon="-108.1217312190373"><ele>1785.6666666666665</ele><time>2026-04-25T16:26:21Z</time></trkpt><trkpt lat="36.83269964242529" lon="-108.1218622098514"><ele>1786.3333333333333</ele><time>2026-04-25T16:26:22Z</time></trkpt><trkpt lat="36.83283968983316" lon="-108.12197747883172"><ele>1787.0</ele><time>2026-04-25T16:26:23Z</time></trkpt><trkpt lat="36.832970668058664" lon="-108.12204931783619"><ele>1787.0</ele><time>2026-04-25T16:26:24Z</time></trkpt><trkpt lat="36.83308654515763" lon="-108.12210590595404"><ele>1786.9999999999998</ele><time>2026-04-25T16:26:25Z</time></trkpt><trkpt lat="36.83317885849963" lon="-108.12215217764876"><ele>1786.9999999999998</ele><time>2026-04-25T16:26:26Z</time></trkpt><trkpt lat="36.83327143377621" lon="-108.12215616062825"><ele>1787.0</ele><time>2026-04-25T16:26:27Z</time></trkpt><trkpt lat="36.83336934817697" lon="-108.12215431660275"><ele>1787.0</ele><time>2026-04-25T16:26:28Z</time></trkpt><trkpt lat="36.833456410241446" lon="-108.1221745279964"><ele>1788.6</ele><time>2026-04-25T16:26:29Z</time></trkpt><trkpt lat="36.8335448738581" lon="-108.12221823861117"><ele>1790.1999999999998</ele><time>2026-04-25T16:26:30Z</time></trkpt><trkpt lat="36.83364752970825" lon="-108.12226252163006"><ele>1791.8</ele><time>2026-04-25T16:26:31Z</time></trkpt><trkpt lat="36.83374935847246" lon="-108.12230581190462"><ele>1793.4</ele><time>2026-04-25T16:26:32Z</time></trkpt><trkpt lat="36.83384073123495" lon="-108.12238279161645"><ele>1795.0</ele><time>2026-04-25T16:26:33Z</time></trkpt><trkpt lat="36.83389413471624" lon="-108.12248001411123"><ele>1795.0</ele><time>2026-04-25T16:26:34Z</time></trkpt><trkpt lat="36.83396528660572" lon="-108.12259132651803"><ele>1795.0</ele><time>2026-04-25T16:26:35Z</time></trkpt><trkpt lat="36.83401700710927" lon="-108.12267603836217"><ele>1795.0</ele><time>2026-04-25T16:26:36Z</time></trkpt><trkpt lat="36.834058033331864" lon="-108.12275491761551"><ele>1795.0</ele><time>2026-04-25T16:26:37Z</time></trkpt><trkpt lat="36.834125450474794" lon="-108.12278845973688"><ele>1795.0</ele><time>2026-04-25T16:26:40Z</time></trkpt><trkpt lat="36.83433140161179" lon="-108.12265077202672"><ele>1796.0</ele><time>2026-04-25T16:26:41Z</time></trkpt><trkpt lat="36.83445679993434" lon="-108.12260337805252"><ele>1797.0</ele><time>2026-04-25T16:26:42Z</time></trkpt><trkpt lat="36.83457235695877" lon="-108.12255937684685"><ele>1798.0</ele><time>2026-04-25T16:26:43Z</time></trkpt><trkpt lat="36.834700054320635" lon="-108.12252413279158"><ele>1799.0</ele><time>2026-04-25T16:26:44Z</time></trkpt><trkpt lat="36.8348434175658" lon="-108.12249893978655"><ele>1799.0</ele><time>2026-04-25T16:26:45Z</time></trkpt><trkpt lat="36.83495734563156" lon="-108.12245030084219"><ele>1799.0</ele><time>2026-04-25T16:26:46Z</time></trkpt><trkpt lat="36.835067057567564" lon="-108.12241054186414"><ele>1799.0</ele><time>2026-04-25T16:26:47Z</time></trkpt><trkpt lat="36.8351883480479" lon="-108.12243408618711"><ele>1799.0</ele><time>2026-04-25T16:26:48Z</time></trkpt><trkpt lat="36.83534158056316" lon="-108.12244396630167"><ele>1799.6666666666665</ele><time>2026-04-25T16:26:49Z</time></trkpt><trkpt lat="36.835508393160204" lon="-108.12248537512644"><ele>1800.3333333333335</ele><time>2026-04-25T16:26:50Z</time></trkpt><trkpt lat="36.83566257467681" lon="-108.12248749191303"><ele>1801.0</ele><time>2026-04-25T16:26:51Z</time></trkpt><trkpt lat="36.83580520298628" lon="-108.12243418192993"><ele>1800.75</ele><time>2026-04-25T16:26:52Z</time></trkpt><trkpt lat="36.83594215698824" lon="-108.12237058261063"><ele>1800.5</ele><time>2026-04-25T16:26:53Z</time></trkpt><trkpt lat="36.83607718211645" lon="-108.12233882977812"><ele>1800.25</ele><time>2026-04-25T16:26:54Z</time></trkpt><trkpt lat="36.83617797258214" lon="-108.12228587592665"><ele>1800.0</ele><time>2026-04-25T16:26:55Z</time></trkpt><trkpt lat="36.836264097790554" lon="-108.12223360602664"><ele>1800.0</ele><time>2026-04-25T16:26:56Z</time></trkpt><trkpt lat="36.83637372289807" lon="-108.122233275756"><ele>1800.0</ele><time>2026-04-25T16:26:57Z</time></trkpt><trkpt lat="36.83651411354225" lon="-108.12223250027075"><ele>1800.0</ele><time>2026-04-25T16:26:58Z</time></trkpt><trkpt lat="36.83665030245033" lon="-108.12224322194521"><ele>1800.0</ele><time>2026-04-25T16:26:59Z</time></trkpt><trkpt lat="36.836771673404705" lon="-108.12222679644468"><ele>1800.0</ele><time>2026-04-25T16:27:00Z</time></trkpt><trkpt lat="36.8368840561466" lon="-108.12219796519322"><ele>1800.0</ele><time>2026-04-25T16:27:01Z</time></trkpt><trkpt lat="36.83698382504836" lon="-108.12219593226939"><ele>1800.0</ele><time>2026-04-25T16:27:02Z</time></trkpt><trkpt lat="36.837057967321485" lon="-108.12222476719818"><ele>1800.0</ele><time>2026-04-25T16:27:03Z</time></trkpt><trkpt lat="36.83712893598445" lon="-108.12222617344372"><ele>1800.0</ele><time>2026-04-25T16:27:04Z</time></trkpt><trkpt lat="36.837224924158875" lon="-108.12220372161528"><ele>1800.0</ele><time>2026-04-25T16:27:05Z</time></trkpt><trkpt lat="36.837343198803524" lon="-108.12220994673936"><ele>1800.0</ele><time>2026-04-25T16:27:06Z</time></trkpt><trkpt lat="36.83746426871893" lon="-108.1222017309074"><ele>1800.0</ele><time>2026-04-25T16:27:07Z</time></trkpt><trkpt lat="36.837580720917245" lon="-108.12217734439746"><ele>1800.0</ele><time>2026-04-25T16:27:08Z</time></trkpt><trkpt lat="36.837684418094526" lon="-108.12213095327601"><ele>1801.0</ele><time>2026-04-25T16:27:09Z</time></trkpt><trkpt lat="36.837813521841554" lon="-108.12212296423232"><ele>1802.0</ele><time>2026-04-25T16:27:10Z</time></trkpt><trkpt lat="36.83793226513957" lon="-108.1221419777086"><ele>1803.0</ele><time>2026-04-25T16:27:11Z</time></trkpt><trkpt lat="36.8380551447448" lon="-108.12216519453504"><ele>1804.0</ele><time>2026-04-25T16:27:12Z</time></trkpt><trkpt lat="36.838180957188534" lon="-108.12214506979358"><ele>1804.0</ele><time>2026-04-25T16:27:13Z</time></trkpt><trkpt lat="36.838321932784034" lon="-108.1221344176921"><ele>1804.0</ele><time>2026-04-25T16:27:14Z</time></trkpt><trkpt lat="36.83846220279952" lon="-108.12208830241735"><ele>1804.0</ele><time>2026-04-25T16:27:15Z</time></trkpt><trkpt lat="36.83863001449232" lon="-108.12205162365183"><ele>1806.6666666666667</ele><time>2026-04-25T16:27:16Z</time></trkpt><trkpt lat="36.83881657038944" lon="-108.12202415795608"><ele>1809.3333333333335</ele><time>2026-04-25T16:27:17Z</time></trkpt><trkpt lat="36.83897534905393" lon="-108.12195519509328"><ele>1812.0</ele><time>2026-04-25T16:27:18Z</time></trkpt><trkpt lat="36.83912242172198" lon="-108.12184677249783"><ele>1812.0</ele><time>2026-04-25T16:27:19Z</time></trkpt><trkpt lat="36.83927228848341" lon="-108.12179154187429"><ele>1812.0</ele><time>2026-04-25T16:27:20Z</time></trkpt><trkpt lat="36.83937168730576" lon="-108.12172907033842"><ele>1812.0</ele><time>2026-04-25T16:27:21Z</time></trkpt><trkpt lat="36.839414209985925" lon="-108.12157600688529"><ele>1812.0</ele><time>2026-04-25T16:27:23Z</time></trkpt><trkpt lat="36.83946068794137" lon="-108.12145733345565"><ele>1812.8</ele><time>2026-04-25T16:27:26Z</time></trkpt><trkpt lat="36.83952161251436" lon="-108.12139698243735"><ele>1813.6</ele><time>2026-04-25T16:27:27Z</time></trkpt><trkpt lat="36.83960278372629" lon="-108.1213249062606"><ele>1814.3999999999999</ele><time>2026-04-25T16:27:28Z</time></trkpt><trkpt lat="36.839715339567846" lon="-108.12135033250303"><ele>1815.1999999999998</ele><time>2026-04-25T16:27:30Z</time></trkpt><trkpt lat="36.839783607148" lon="-108.12141347206769"><ele>1816.0</ele><time>2026-04-25T16:27:31Z</time></trkpt><trkpt lat="36.83985763927545" lon="-108.12139998923072"><ele>1816.0</ele><time>2026-04-25T16:27:34Z</time></trkpt><trkpt lat="36.839964388465134" lon="-108.12133278784593"><ele>1816.0</ele><time>2026-04-25T16:27:46Z</time></trkpt><trkpt lat="36.840023600262775" lon="-108.12130593677401"><ele>1816.0</ele><time>2026-04-25T16:27:47Z</time></trkpt><trkpt lat="36.84015001768882" lon="-108.12123789748337"><ele>1816.0</ele><time>2026-04-25T16:27:49Z</time></trkpt><trkpt lat="36.84023784702849" lon="-108.12118833595777"><ele>1816.0</ele><time>2026-04-25T16:27:50Z</time></trkpt><trkpt lat="36.84032330885569" lon="-108.12110560498206"><ele>1814.75</ele><time>2026-04-25T16:27:51Z</time></trkpt><trkpt lat="36.84039504997112" lon="-108.1209874994474"><ele>1813.5</ele><time>2026-04-25T16:27:52Z</time></trkpt><trkpt lat="36.84044395687289" lon="-108.12082535983531"><ele>1812.25</ele><time>2026-04-25T16:27:53Z</time></trkpt><trkpt lat="36.84049768185155" lon="-108.12069271297648"><ele>1811.0</ele><time>2026-04-25T16:27:54Z</time></trkpt><trkpt lat="36.840533779474626" lon="-108.12054561252363"><ele>1810.0</ele><time>2026-04-25T16:27:55Z</time></trkpt><trkpt lat="36.84058358295752" lon="-108.12040082303385"><ele>1809.0</ele><time>2026-04-25T16:27:56Z</time></trkpt><trkpt lat="36.84066737430964" lon="-108.12026818133499"><ele>1808.0</ele><time>2026-04-25T16:27:57Z</time></trkpt><trkpt lat="36.84076063045006" lon="-108.12014107880752"><ele>1807.0</ele><time>2026-04-25T16:27:58Z</time></trkpt><trkpt lat="36.84084420963628" lon="-108.12011127362658"><ele>1807.0</ele><time>2026-04-25T16:27:59Z</time></trkpt><trkpt lat="36.84096529928837" lon="-108.12001957140497"><ele>1807.0</ele><time>2026-04-25T16:28:00Z</time></trkpt><trkpt lat="36.841034517921955" lon="-108.11993449310867"><ele>1807.0</ele><time>2026-04-25T16:28:01Z</time></trkpt><trkpt lat="36.84113389228598" lon="-108.11987591655188"><ele>1807.0</ele><time>2026-04-25T16:28:02Z</time></trkpt><trkpt lat="36.84127872133179" lon="-108.11982728855646"><ele>1806.75</ele><time>2026-04-25T16:28:03Z</time></trkpt><trkpt lat="36.84143897154289" lon="-108.1197845213517"><ele>1806.5</ele><time>2026-04-25T16:28:04Z</time></trkpt><trkpt lat="36.841573101030846" lon="-108.11981184879261"><ele>1806.25</ele><time>2026-04-25T16:28:05Z</time></trkpt><trkpt lat="36.84172012468928" lon="-108.11978829903838"><ele>1806.0</ele><time>2026-04-25T16:28:06Z</time></trkpt><trkpt lat="36.84188067416329" lon="-108.11976789462025"><ele>1806.0</ele><time>2026-04-25T16:28:07Z</time></trkpt><trkpt lat="36.842009374237804" lon="-108.11975454389287"><ele>1806.0</ele><time>2026-04-25T16:28:08Z</time></trkpt><trkpt lat="36.842128296321626" lon="-108.11973594208838"><ele>1806.0</ele><time>2026-04-25T16:28:09Z</time></trkpt><trkpt lat="36.84225292864749" lon="-108.1196595016412"><ele>1806.0</ele><time>2026-04-25T16:28:10Z</time></trkpt><trkpt lat="36.84237214753517" lon="-108.11961598489941"><ele>1806.0</ele><time>2026-04-25T16:28:11Z</time></trkpt><trkpt lat="36.842496942719094" lon="-108.11959663168972"><ele>1806.0</ele><time>2026-04-25T16:28:12Z</time></trkpt><trkpt lat="36.84257505393305" lon="-108.11956707417829"><ele>1806.0</ele><time>2026-04-25T16:28:13Z</time></trkpt><trkpt lat="36.842651566961734" lon="-108.11948933721204"><ele>1806.0</ele><time>2026-04-25T16:28:14Z</time></trkpt><trkpt lat="36.84272544429668" lon="-108.11940998835868"><ele>1806.0</ele><time>2026-04-25T16:28:15Z</time></trkpt><trkpt lat="36.84276724469522" lon="-108.11934189441381"><ele>1806.1999999999998</ele><time>2026-04-25T16:28:16Z</time></trkpt><trkpt lat="36.84280704688683" lon="-108.1192407608257"><ele>1806.3999999999999</ele><time>2026-04-25T16:28:17Z</time></trkpt><trkpt lat="36.84288367192382" lon="-108.11910443359872"><ele>1806.6</ele><time>2026-04-25T16:28:18Z</time></trkpt><trkpt lat="36.84297559844766" lon="-108.11901518655874"><ele>1806.8</ele><time>2026-04-25T16:28:19Z</time></trkpt><trkpt lat="36.84303362556" lon="-108.11890423196061"><ele>1807.0</ele><time>2026-04-25T16:28:20Z</time></trkpt><trkpt lat="36.843081220598904" lon="-108.11880138801178"><ele>1807.0</ele><time>2026-04-25T16:28:21Z</time></trkpt><trkpt lat="36.84313148549891" lon="-108.11872579095093"><ele>1806.9999999999998</ele><time>2026-04-25T16:28:22Z</time></trkpt><trkpt lat="36.84316776538197" lon="-108.11864578770047"><ele>1806.9999999999998</ele><time>2026-04-25T16:28:23Z</time></trkpt><trkpt lat="36.843213851829134" lon="-108.11858379963378"><ele>1807.0</ele><time>2026-04-25T16:28:24Z</time></trkpt><trkpt lat="36.843323118196935" lon="-108.1185863654339"><ele>1807.0</ele><time>2026-04-25T16:28:25Z</time></trkpt><trkpt lat="36.84344478973884" lon="-108.1185474428101"><ele>1807.3999999999999</ele><time>2026-04-25T16:28:26Z</time></trkpt><trkpt lat="36.84352863593665" lon="-108.11847409954159"><ele>1807.7999999999997</ele><time>2026-04-25T16:28:27Z</time></trkpt><trkpt lat="36.8436394131985" lon="-108.11841947097996"><ele>1808.2</ele><time>2026-04-25T16:28:28Z</time></trkpt><trkpt lat="36.84370006707934" lon="-108.1183183545954"><ele>1808.6</ele><time>2026-04-25T16:28:29Z</time></trkpt><trkpt lat="36.843746932744665" lon="-108.11818469862604"><ele>1809.0</ele><time>2026-04-25T16:28:30Z</time></trkpt><trkpt lat="36.843819223179615" lon="-108.118043412566"><ele>1807.8000000000002</ele><time>2026-04-25T16:28:31Z</time></trkpt><trkpt lat="36.843865348259506" lon="-108.11796430197708"><ele>1806.6000000000001</ele><time>2026-04-25T16:28:32Z</time></trkpt><trkpt lat="36.84393985041189" lon="-108.11788438602909"><ele>1805.4</ele><time>2026-04-25T16:28:33Z</time></trkpt><trkpt lat="36.844032470438314" lon="-108.11783143732569"><ele>1804.2</ele><time>2026-04-25T16:28:34Z</time></trkpt><trkpt lat="36.8441181843695" lon="-108.11773284564624"><ele>1803.0</ele><time>2026-04-25T16:28:35Z</time></trkpt><trkpt lat="36.84418659444966" lon="-108.11762025133127"><ele>1803.0</ele><time>2026-04-25T16:28:36Z</time></trkpt><trkpt lat="36.8442308952509" lon="-108.11751331589059"><ele>1803.0000000000002</ele><time>2026-04-25T16:28:37Z</time></trkpt><trkpt lat="36.84429698249505" lon="-108.11745054279564"><ele>1803.0000000000002</ele><time>2026-04-25T16:28:38Z</time></trkpt><trkpt lat="36.8443875622513" lon="-108.1173801194391"><ele>1803.0</ele><time>2026-04-25T16:28:39Z</time></trkpt><trkpt lat="36.84446783627239" lon="-108.11730504597314"><ele>1803.0</ele><time>2026-04-25T16:28:40Z</time></trkpt><trkpt lat="36.84452618493325" lon="-108.11717448681395"><ele>1801.5</ele><time>2026-04-25T16:28:41Z</time></trkpt><trkpt lat="36.844594567368695" lon="-108.1170140907146"><ele>1800.0</ele><time>2026-04-25T16:28:42Z</time></trkpt><trkpt lat="36.84466622052013" lon="-108.11683244153059"><ele>1798.5</ele><time>2026-04-25T16:28:43Z</time></trkpt><trkpt lat="36.84473467538347" lon="-108.11669177310718"><ele>1797.0</ele><time>2026-04-25T16:28:44Z</time></trkpt><trkpt lat="36.844835262933934" lon="-108.11659726169759"><ele>1798.25</ele><time>2026-04-25T16:28:45Z</time></trkpt><trkpt lat="36.844964228848006" lon="-108.11649740495828"><ele>1799.5</ele><time>2026-04-25T16:28:46Z</time></trkpt><trkpt lat="36.84509931057342" lon="-108.11641751198427"><ele>1800.75</ele><time>2026-04-25T16:28:47Z</time></trkpt><trkpt lat="36.845199058947955" lon="-108.11628549050306"><ele>1802.0</ele><time>2026-04-25T16:28:48Z</time></trkpt><trkpt lat="36.8452470550026" lon="-108.11616350010813"><ele>1801.9999999999998</ele><time>2026-04-25T16:28:49Z</time></trkpt><trkpt lat="36.84529545146624" lon="-108.11606576105716"><ele>1802.0</ele><time>2026-04-25T16:28:50Z</time></trkpt><trkpt lat="36.845329229130215" lon="-108.1159620015723"><ele>1802.0</ele><time>2026-04-25T16:28:51Z</time></trkpt><trkpt lat="36.84530245013054" lon="-108.11588025243475"><ele>1802.0</ele><time>2026-04-25T16:28:52Z</time></trkpt><trkpt lat="36.845200988885615" lon="-108.11578573533028"><ele>1801.9999999999998</ele><time>2026-04-25T16:28:54Z</time></trkpt><trkpt lat="36.845131607847186" lon="-108.11579264411078"><ele>1802.0</ele><time>2026-04-25T16:28:55Z</time></trkpt><trkpt lat="36.84505364768233" lon="-108.11574880313748"><ele>1802.6666666666665</ele><time>2026-04-25T16:28:57Z</time></trkpt><trkpt lat="36.84501531492103" lon="-108.11567608822482"><ele>1803.3333333333333</ele><time>2026-04-25T16:28:59Z</time></trkpt><trkpt lat="36.844955868495106" lon="-108.1155794330487"><ele>1804.0</ele><time>2026-04-25T16:29:03Z</time></trkpt><trkpt lat="36.8448972718405" lon="-108.11550088163948"><ele>1804.6666666666665</ele><time>2026-04-25T16:29:05Z</time></trkpt><trkpt lat="36.84488699094456" lon="-108.11535971497466"><ele>1805.3333333333333</ele><time>2026-04-25T16:29:07Z</time></trkpt><trkpt lat="36.84487932979168" lon="-108.11526699299641"><ele>1806.0</ele><time>2026-04-25T16:29:08Z</time></trkpt><trkpt lat="36.844860121296065" lon="-108.1151571912065"><ele>1806.0</ele><time>2026-04-25T16:29:09Z</time></trkpt><trkpt lat="36.844842664312" lon="-108.11503338630617"><ele>1806.0</ele><time>2026-04-25T16:29:10Z</time></trkpt><trkpt lat="36.84494752495475" lon="-108.11491852578747"><ele>1806.0</ele><time>2026-04-25T16:29:12Z</time></trkpt><trkpt lat="36.84501060517252" lon="-108.11483338490133"><ele>1806.0</ele><time>2026-04-25T16:29:13Z</time></trkpt><trkpt lat="36.84493927159227" lon="-108.11464907679488"><ele>1807.0</ele><time>2026-04-25T16:29:15Z</time></trkpt><trkpt lat="36.84493614120355" lon="-108.11455009126328"><ele>1808.0</ele><time>2026-04-25T16:29:16Z</time></trkpt><trkpt lat="36.84496981005086" lon="-108.114454762341"><ele>1809.0</ele><time>2026-04-25T16:29:17Z</time></trkpt><trkpt lat="36.84498729588632" lon="-108.11432748362826"><ele>1810.0</ele><time>2026-04-25T16:29:18Z</time></trkpt><trkpt lat="36.84498140082375" lon="-108.11419002190799"><ele>1811.0</ele><time>2026-04-25T16:29:19Z</time></trkpt><trkpt lat="36.844954882736594" lon="-108.1140739529472"><ele>1812.0</ele><time>2026-04-25T16:29:20Z</time></trkpt><trkpt lat="36.84493441917906" lon="-108.11399538866218"><ele>1813.0</ele><time>2026-04-25T16:29:21Z</time></trkpt><trkpt lat="36.84500159830969" lon="-108.11382714794244"><ele>1814.0</ele><time>2026-04-25T16:29:23Z</time></trkpt><trkpt lat="36.84496528127049" lon="-108.11369089334357"><ele>1815.0</ele><time>2026-04-25T16:29:24Z</time></trkpt><trkpt lat="36.84491332720973" lon="-108.11356267991764"><ele>1816.0</ele><time>2026-04-25T16:29:25Z</time></trkpt><trkpt lat="36.844853635635054" lon="-108.11347803464066"><ele>1816.0</ele><time>2026-04-25T16:29:26Z</time></trkpt><trkpt lat="36.844761107792685" lon="-108.11340069826178"><ele>1816.0</ele><time>2026-04-25T16:29:27Z</time></trkpt><trkpt lat="36.84464456249188" lon="-108.11327683076472"><ele>1816.0</ele><time>2026-04-25T16:29:28Z</time></trkpt><trkpt lat="36.84456633390123" lon="-108.11315334492932"><ele>1816.0</ele><time>2026-04-25T16:29:29Z</time></trkpt><trkpt lat="36.84451975881251" lon="-108.11300873601505"><ele>1816.0</ele><time>2026-04-25T16:29:30Z</time></trkpt><trkpt lat="36.84445221842687" lon="-108.11287417095126"><ele>1816.0</ele><time>2026-04-25T16:29:31Z</time></trkpt><trkpt lat="36.844376043964886" lon="-108.11273662784536"><ele>1816.0</ele><time>2026-04-25T16:29:32Z</time></trkpt><trkpt lat="36.84433640147705" lon="-108.11256766387028"><ele>1816.0</ele><time>2026-04-25T16:29:33Z</time></trkpt><trkpt lat="36.844348813824425" lon="-108.11237341666168"><ele>1816.6666666666667</ele><time>2026-04-25T16:29:34Z</time></trkpt><trkpt lat="36.84436992676566" lon="-108.11217266630106"><ele>1817.3333333333335</ele><time>2026-04-25T16:29:35Z</time></trkpt><trkpt lat="36.84436118985216" lon="-108.11198308042802"><ele>1818.0</ele><time>2026-04-25T16:29:36Z</time></trkpt><trkpt lat="36.84432181636405" lon="-108.11180105443913"><ele>1818.0</ele><time>2026-04-25T16:29:37Z</time></trkpt><trkpt lat="36.84430373329721" lon="-108.11166957065323"><ele>1818.0000000000002</ele><time>2026-04-25T16:29:38Z</time></trkpt><trkpt lat="36.844284410817124" lon="-108.11156697955275"><ele>1818.0000000000002</ele><time>2026-04-25T16:29:39Z</time></trkpt><trkpt lat="36.84423379832357" lon="-108.1114975982956"><ele>1818.0</ele><time>2026-04-25T16:29:40Z</time></trkpt><trkpt lat="36.84413757384314" lon="-108.11143365571643"><ele>1818.0</ele><time>2026-04-25T16:29:41Z</time></trkpt><trkpt lat="36.844041121240714" lon="-108.1114587465184"><ele>1817.8000000000002</ele><time>2026-04-25T16:29:42Z</time></trkpt><trkpt lat="36.8439462726979" lon="-108.11148586944584"><ele>1817.6000000000001</ele><time>2026-04-25T16:29:43Z</time></trkpt><trkpt lat="36.84385667139002" lon="-108.11152240303211"><ele>1817.3999999999999</ele><time>2026-04-25T16:29:44Z</time></trkpt><trkpt lat="36.84375377766669" lon="-108.11155621253397"><ele>1817.1999999999998</ele><time>2026-04-25T16:29:45Z</time></trkpt><trkpt lat="36.843646346562544" lon="-108.11161840106733"><ele>1817.0</ele><time>2026-04-25T16:29:46Z</time></trkpt><trkpt lat="36.84357064922517" lon="-108.11162845085438"><ele>1817.0</ele><time>2026-04-25T16:29:47Z</time></trkpt><trkpt lat="36.84349539051031" lon="-108.11159096953425"><ele>1816.9999999999998</ele><time>2026-04-25T16:29:48Z</time></trkpt><trkpt lat="36.843387017117216" lon="-108.11160433184236"><ele>1816.9999999999998</ele><time>2026-04-25T16:29:50Z</time></trkpt><trkpt lat="36.843298079110305" lon="-108.11152021266638"><ele>1817.0</ele><time>2026-04-25T16:29:51Z</time></trkpt><trkpt lat="36.843198274982065" lon="-108.11146590286383"><ele>1817.0</ele><time>2026-04-25T16:29:52Z</time></trkpt><trkpt lat="36.8430993372333" lon="-108.11144245610261"><ele>1815.6666666666665</ele><time>2026-04-25T16:29:53Z</time></trkpt><trkpt lat="36.84301137530374" lon="-108.11139515180331"><ele>1814.3333333333333</ele><time>2026-04-25T16:29:54Z</time></trkpt><trkpt lat="36.84293890309117" lon="-108.11133549172533"><ele>1813.0</ele><time>2026-04-25T16:29:55Z</time></trkpt><trkpt lat="36.84287390617616" lon="-108.1112664134322"><ele>1811.6666666666665</ele><time>2026-04-25T16:29:56Z</time></trkpt><trkpt lat="36.842800033884835" lon="-108.11121523335446"><ele>1810.3333333333333</ele><time>2026-04-25T16:29:57Z</time></trkpt><trkpt lat="36.84273878893799" lon="-108.11115767283034"><ele>1809.0</ele><time>2026-04-25T16:29:58Z</time></trkpt><trkpt lat="36.842669364493766" lon="-108.11105413232322"><ele>1807.75</ele><time>2026-04-25T16:29:59Z</time></trkpt><trkpt lat="36.84257876603973" lon="-108.11095035512241"><ele>1806.5</ele><time>2026-04-25T16:30:00Z</time></trkpt><trkpt lat="36.84248873621469" lon="-108.11084858625179"><ele>1805.25</ele><time>2026-04-25T16:30:01Z</time></trkpt><trkpt lat="36.84239977549052" lon="-108.11074755042182"><ele>1804.0</ele><time>2026-04-25T16:30:02Z</time></trkpt><trkpt lat="36.842310941094425" lon="-108.11068090674567"><ele>1804.0</ele><time>2026-04-25T16:30:03Z</time></trkpt><trkpt lat="36.84220996922574" lon="-108.11061055310128"><ele>1804.0</ele><time>2026-04-25T16:30:04Z</time></trkpt><trkpt lat="36.84213401136305" lon="-108.11054626135295"><ele>1804.0</ele><time>2026-04-25T16:30:05Z</time></trkpt><trkpt lat="36.8420620058562" lon="-108.11047924822056"><ele>1804.0</ele><time>2026-04-25T16:30:06Z</time></trkpt><trkpt lat="36.84202196814086" lon="-108.11033287558872"><ele>1804.0</ele><time>2026-04-25T16:30:08Z</time></trkpt><trkpt lat="36.842049069100675" lon="-108.11025823694999"><ele>1804.0000000000002</ele><time>2026-04-25T16:30:09Z</time></trkpt><trkpt lat="36.84207016183977" lon="-108.11016095174307"><ele>1804.0</ele><time>2026-04-25T16:30:11Z</time></trkpt><trkpt lat="36.84214290122897" lon="-108.11012760617551"><ele>1804.0</ele><time>2026-04-25T16:30:13Z</time></trkpt><trkpt lat="36.84216075354" lon="-108.11003953660793"><ele>1804.0</ele><time>2026-04-25T16:30:14Z</time></trkpt><trkpt lat="36.84220442483919" lon="-108.10994690731049"><ele>1804.0000000000002</ele><time>2026-04-25T16:30:15Z</time></trkpt><trkpt lat="36.84225092626446" lon="-108.10984805373873"><ele>1804.0</ele><time>2026-04-25T16:30:16Z</time></trkpt><trkpt lat="36.842274329691755" lon="-108.10975322215947"><ele>1804.5000000000002</ele><time>2026-04-25T16:30:17Z</time></trkpt><trkpt lat="36.842248952607314" lon="-108.1096322681036"><ele>1805.0</ele><time>2026-04-25T16:30:18Z</time></trkpt><trkpt lat="36.842202021560915" lon="-108.10953824835794"><ele>1805.5</ele><time>2026-04-25T16:30:19Z</time></trkpt><trkpt lat="36.842179831060186" lon="-108.10946242519427"><ele>1806.0</ele><time>2026-04-25T16:30:20Z</time></trkpt><trkpt lat="36.84221376656743" lon="-108.10939224280514"><ele>1806.5000000000002</ele><time>2026-04-25T16:30:21Z</time></trkpt><trkpt lat="36.842278064927406" lon="-108.10931428640663"><ele>1807.0</ele><time>2026-04-25T16:30:22Z</time></trkpt><trkpt lat="36.84233721899195" lon="-108.10922567041541"><ele>1807.0</ele><time>2026-04-25T16:30:23Z</time></trkpt><trkpt lat="36.84235348582097" lon="-108.10910046077893"><ele>1806.9999999999998</ele><time>2026-04-25T16:30:24Z</time></trkpt><trkpt lat="36.842371184488066" lon="-108.10896198927922"><ele>1806.9999999999998</ele><time>2026-04-25T16:30:25Z</time></trkpt><trkpt lat="36.842407512606584" lon="-108.10883389790114"><ele>1807.0</ele><time>2026-04-25T16:30:26Z</time></trkpt><trkpt lat="36.842457481058645" lon="-108.10871620930413"><ele>1807.0</ele><time>2026-04-25T16:30:27Z</time></trkpt><trkpt lat="36.84250180711203" lon="-108.1085931434903"><ele>1805.3999999999999</ele><time>2026-04-25T16:30:28Z</time></trkpt><trkpt lat="36.842506597120504" lon="-108.10847229752093"><ele>1803.7999999999997</ele><time>2026-04-25T16:30:29Z</time></trkpt><trkpt lat="36.84249251950545" lon="-108.10835332743447"><ele>1802.2</ele><time>2026-04-25T16:30:30Z</time></trkpt><trkpt lat="36.842434621626374" lon="-108.10825584436142"><ele>1800.6</ele><time>2026-04-25T16:30:31Z</time></trkpt><trkpt lat="36.84231303254373" lon="-108.10818965972497"><ele>1799.0</ele><time>2026-04-25T16:30:32Z</time></trkpt><trkpt lat="36.84219261374309" lon="-108.10812517433384"><ele>1797.4</ele><time>2026-04-25T16:30:33Z</time></trkpt><trkpt lat="36.84207074190581" lon="-108.10803048920744"><ele>1795.8000000000002</ele><time>2026-04-25T16:30:34Z</time></trkpt><trkpt lat="36.84197821460403" lon="-108.1079351739704"><ele>1794.1999999999998</ele><time>2026-04-25T16:30:35Z</time></trkpt><trkpt lat="36.841888323318734" lon="-108.10784726406628"><ele>1792.6</ele><time>2026-04-25T16:30:36Z</time></trkpt><trkpt lat="36.841832763188066" lon="-108.10780282550722"><ele>1791.0</ele><time>2026-04-25T16:30:37Z</time></trkpt><trkpt lat="36.84183123874921" lon="-108.10760772293747"><ele>1791.0</ele><time>2026-04-25T16:30:39Z</time></trkpt><trkpt lat="36.84182048395912" lon="-108.10747701555577"><ele>1791.0</ele><time>2026-04-25T16:30:40Z</time></trkpt><trkpt lat="36.841767419239915" lon="-108.10734545213403"><ele>1791.0</ele><time>2026-04-25T16:30:41Z</time></trkpt><trkpt lat="36.84175786094138" lon="-108.10724298501758"><ele>1791.0</ele><time>2026-04-25T16:30:42Z</time></trkpt><trkpt lat="36.841742469478895" lon="-108.10716155519066"><ele>1791.0</ele><time>2026-04-25T16:30:43Z</time></trkpt><trkpt lat="36.84179146426864" lon="-108.10709894567351"><ele>1791.0</ele><time>2026-04-25T16:30:44Z</time></trkpt><trkpt lat="36.841873747888805" lon="-108.10698062818537"><ele>1790.25</ele><time>2026-04-25T16:30:45Z</time></trkpt><trkpt lat="36.84194187878021" lon="-108.10684434726718"><ele>1789.5</ele><time>2026-04-25T16:30:46Z</time></trkpt><trkpt lat="36.84202731943366" lon="-108.10673354933552"><ele>1788.75</ele><time>2026-04-25T16:30:47Z</time></trkpt><trkpt lat="36.84213811958634" lon="-108.10664658618742"><ele>1788.0</ele><time>2026-04-25T16:30:48Z</time></trkpt><trkpt lat="36.84225070954809" lon="-108.10652929945925"><ele>1787.6000000000001</ele><time>2026-04-25T16:30:49Z</time></trkpt><trkpt lat="36.842317955331254" lon="-108.10641071605316"><ele>1787.2000000000003</ele><time>2026-04-25T16:30:50Z</time></trkpt><trkpt lat="36.84234551679785" lon="-108.10629436009845"><ele>1786.8</ele><time>2026-04-25T16:30:51Z</time></trkpt><trkpt lat="36.84236537786711" lon="-108.10618543664656"><ele>1786.4</ele><time>2026-04-25T16:30:52Z</time></trkpt><trkpt lat="36.842392628185316" lon="-108.10608348739528"><ele>1786.0</ele><time>2026-04-25T16:30:53Z</time></trkpt><trkpt lat="36.84241070833243" lon="-108.10600589341358"><ele>1786.0</ele><time>2026-04-25T16:30:54Z</time></trkpt><trkpt lat="36.84237295062958" lon="-108.10585788946928"><ele>1786.0</ele><time>2026-04-25T16:30:56Z</time></trkpt><trkpt lat="36.842293527969815" lon="-108.1057856789348"><ele>1786.0</ele><time>2026-04-25T16:30:58Z</time></trkpt><trkpt lat="36.84224780437878" lon="-108.10571210333336"><ele>1786.0</ele><time>2026-04-25T16:31:00Z</time></trkpt><trkpt lat="36.84216826301585" lon="-108.10563087489312"><ele>1786.0</ele><time>2026-04-25T16:31:04Z</time></trkpt><trkpt lat="36.842122069582146" lon="-108.10556757686749"><ele>1785.8333333333335</ele><time>2026-04-25T16:31:06Z</time></trkpt><trkpt lat="36.84207330877897" lon="-108.10550075520825"><ele>1785.6666666666667</ele><time>2026-04-25T16:31:07Z</time></trkpt><trkpt lat="36.84202433561548" lon="-108.10541468197921"><ele>1785.5</ele><time>2026-04-25T16:31:09Z</time></trkpt><trkpt lat="36.841967383191395" lon="-108.10535869393033"><ele>1785.3333333333335</ele><time>2026-04-25T16:31:11Z</time></trkpt><trkpt lat="36.84187606337755" lon="-108.10534125217119"><ele>1785.1666666666667</ele><time>2026-04-25T16:31:13Z</time></trkpt><trkpt lat="36.84180313540159" lon="-108.1052888174899"><ele>1785.0</ele><time>2026-04-25T16:31:15Z</time></trkpt><trkpt lat="36.841652313832526" lon="-108.10544766304207"><ele>1784.6</ele><time>2026-04-25T16:31:16Z</time></trkpt><trkpt lat="36.84155208761642" lon="-108.10549293509432"><ele>1784.2</ele><time>2026-04-25T16:31:17Z</time></trkpt><trkpt lat="36.841491762320246" lon="-108.10552093288244"><ele>1783.8000000000002</ele><time>2026-04-25T16:31:18Z</time></trkpt><trkpt lat="36.84146922222629" lon="-108.10561413376792"><ele>1783.4</ele><time>2026-04-25T16:31:19Z</time></trkpt><trkpt lat="36.841525724346056" lon="-108.10572829830171"><ele>1783.0</ele><time>2026-04-25T16:31:20Z</time></trkpt><trkpt lat="36.8416195432439" lon="-108.10577838218971"><ele>1782.8000000000002</ele><time>2026-04-25T16:31:21Z</time></trkpt><trkpt lat="36.841724473690654" lon="-108.10573185424404"><ele>1782.6000000000001</ele><time>2026-04-25T16:31:22Z</time></trkpt><trkpt lat="36.841795757914824" lon="-108.1056423207441"><ele>1782.3999999999999</ele><time>2026-04-25T16:31:23Z</time></trkpt><trkpt lat="36.84184440329444" lon="-108.10556069181295"><ele>1782.1999999999998</ele><time>2026-04-25T16:31:24Z</time></trkpt><trkpt lat="36.84187976946148" lon="-108.10548262366063"><ele>1782.0</ele><time>2026-04-25T16:31:25Z</time></trkpt><trkpt lat="36.84192657610599" lon="-108.10534583294046"><ele>1782.6</ele><time>2026-04-25T16:31:27Z</time></trkpt><trkpt lat="36.84194378162012" lon="-108.10522692001526"><ele>1783.1999999999998</ele><time>2026-04-25T16:31:29Z</time></trkpt><trkpt lat="36.84197676800681" lon="-108.10514949615838"><ele>1783.8</ele><time>2026-04-25T16:31:30Z</time></trkpt><trkpt lat="36.84207196334057" lon="-108.10510776906061"><ele>1784.4</ele><time>2026-04-25T16:31:31Z</time></trkpt><trkpt lat="36.84219658415666" lon="-108.10506095463958"><ele>1785.0</ele><time>2026-04-25T16:31:32Z</time></trkpt><trkpt lat="36.84231008941765" lon="-108.10499656712756"><ele>1785.0</ele><time>2026-04-25T16:31:33Z</time></trkpt><trkpt lat="36.842423199868044" lon="-108.10493064605323"><ele>1785.0</ele><time>2026-04-25T16:31:34Z</time></trkpt><trkpt lat="36.84251284715258" lon="-108.10489199654343"><ele>1785.0</ele><time>2026-04-25T16:31:35Z</time></trkpt><trkpt lat="36.84256356430807" lon="-108.1048384148127"><ele>1785.0</ele><time>2026-04-25T16:31:36Z</time></trkpt><trkpt lat="36.8426168622467" lon="-108.10474684054599"><ele>1785.0</ele><time>2026-04-25T16:31:37Z</time></trkpt><trkpt lat="36.84268825593781" lon="-108.10469267422043"><ele>1785.4</ele><time>2026-04-25T16:31:38Z</time></trkpt><trkpt lat="36.84276433391813" lon="-108.10462072669424"><ele>1785.8</ele><time>2026-04-25T16:31:40Z</time></trkpt><trkpt lat="36.842775564962444" lon="-108.1044988838597"><ele>1786.1999999999998</ele><time>2026-04-25T16:31:41Z</time></trkpt><trkpt lat="36.842775412390104" lon="-108.10435473931956"><ele>1786.6</ele><time>2026-04-25T16:31:42Z</time></trkpt><trkpt lat="36.84279886966204" lon="-108.10422425702015"><ele>1787.0</ele><time>2026-04-25T16:31:43Z</time></trkpt><trkpt lat="36.84284750568891" lon="-108.10405585201316"><ele>1787.0</ele><time>2026-04-25T16:31:44Z</time></trkpt><trkpt lat="36.84292277516841" lon="-108.10385459749435"><ele>1787.0</ele><time>2026-04-25T16:31:45Z</time></trkpt><trkpt lat="36.843002904538245" lon="-108.10361289711906"><ele>1787.0</ele><time>2026-04-25T16:31:46Z</time></trkpt><trkpt lat="36.84308074514473" lon="-108.10336083666564"><ele>1788.3333333333333</ele><time>2026-04-25T16:31:47Z</time></trkpt><trkpt lat="36.843166954601394" lon="-108.10308930578339"><ele>1789.6666666666665</ele><time>2026-04-25T16:31:48Z</time></trkpt><trkpt lat="36.84323480808842" lon="-108.10283851300403"><ele>1791.0</ele><time>2026-04-25T16:31:49Z</time></trkpt><trkpt lat="36.84329407051738" lon="-108.10263473674684"><ele>1791.0</ele><time>2026-04-25T16:31:50Z</time></trkpt><trkpt lat="36.84334307873342" lon="-108.10248717676842"><ele>1791.0</ele><time>2026-04-25T16:31:51Z</time></trkpt><trkpt lat="36.843404780950365" lon="-108.10235600064254"><ele>1791.0</ele><time>2026-04-25T16:31:52Z</time></trkpt><trkpt lat="36.8434424189025" lon="-108.10221272653193"><ele>1791.0</ele><time>2026-04-25T16:31:53Z</time></trkpt><trkpt lat="36.84345896264864" lon="-108.10212812363143"><ele>1791.0</ele><time>2026-04-25T16:31:54Z</time></trkpt><trkpt lat="36.84349975415682" lon="-108.1020122236634"><ele>1792.0</ele><time>2026-04-25T16:31:55Z</time></trkpt><trkpt lat="36.84350017151361" lon="-108.10190903618205"><ele>1793.0</ele><time>2026-04-25T16:31:56Z</time></trkpt><trkpt lat="36.84349192690881" lon="-108.10178351036879"><ele>1794.0</ele><time>2026-04-25T16:31:57Z</time></trkpt><trkpt lat="36.84346053007936" lon="-108.1016293359866"><ele>1795.0</ele><time>2026-04-25T16:31:58Z</time></trkpt><trkpt lat="36.84347317451051" lon="-108.10154605726188"><ele>1796.0</ele><time>2026-04-25T16:31:59Z</time></trkpt><trkpt lat="36.84353526056574" lon="-108.10143115195383"><ele>1797.1666666666665</ele><time>2026-04-25T16:32:00Z</time></trkpt><trkpt lat="36.843527535488896" lon="-108.10130450879828"><ele>1798.3333333333333</ele><time>2026-04-25T16:32:01Z</time></trkpt><trkpt lat="36.84347103634622" lon="-108.10120365927476"><ele>1799.5</ele><time>2026-04-25T16:32:02Z</time></trkpt><trkpt lat="36.843463593375304" lon="-108.10111708329651"><ele>1800.6666666666665</ele><time>2026-04-25T16:32:03Z</time></trkpt><trkpt lat="36.84347276189118" lon="-108.10099916885225"><ele>1801.8333333333333</ele><time>2026-04-25T16:32:04Z</time></trkpt><trkpt lat="36.843499029389214" lon="-108.10090701039785"><ele>1803.0</ele><time>2026-04-25T16:32:05Z</time></trkpt><trkpt lat="36.84357123051415" lon="-108.10081436175727"><ele>1803.8000000000002</ele><time>2026-04-25T16:32:06Z</time></trkpt><trkpt lat="36.84359897587479" lon="-108.10070554008514"><ele>1804.6000000000001</ele><time>2026-04-25T16:32:07Z</time></trkpt><trkpt lat="36.843603539702244" lon="-108.10059901616238"><ele>1805.3999999999999</ele><time>2026-04-25T16:32:08Z</time></trkpt><trkpt lat="36.843633826538635" lon="-108.10052363007732"><ele>1806.1999999999998</ele><time>2026-04-25T16:32:09Z</time></trkpt><trkpt lat="36.843729765363506" lon="-108.10046092882342"><ele>1807.0</ele><time>2026-04-25T16:32:10Z</time></trkpt><trkpt lat="36.8438367669456" lon="-108.10037194252173"><ele>1807.0</ele><time>2026-04-25T16:32:11Z</time></trkpt><trkpt lat="36.84392829248064" lon="-108.100325217662"><ele>1806.9999999999998</ele><time>2026-04-25T16:32:12Z</time></trkpt><trkpt lat="36.84401247674044" lon="-108.10017815583834"><ele>1806.9999999999998</ele><time>2026-04-25T16:32:14Z</time></trkpt><trkpt lat="36.84409041161358" lon="-108.10010852604091"><ele>1807.0</ele><time>2026-04-25T16:32:15Z</time></trkpt><trkpt lat="36.844189201423006" lon="-108.10006050835315"><ele>1807.0</ele><time>2026-04-25T16:32:16Z</time></trkpt><trkpt lat="36.844257063409124" lon="-108.10006331790402"><ele>1807.0000000000002</ele><time>2026-04-25T16:32:17Z</time></trkpt><trkpt lat="36.8443312184495" lon="-108.10002694155693"><ele>1807.0</ele><time>2026-04-25T16:32:18Z</time></trkpt><trkpt lat="36.84440267808393" lon="-108.0999655852585"><ele>1807.0</ele><time>2026-04-25T16:32:19Z</time></trkpt><trkpt lat="36.84445751383386" lon="-108.09990456602128"><ele>1807.0</ele><time>2026-04-25T16:32:20Z</time></trkpt><trkpt lat="36.84454686698467" lon="-108.09989084760775"><ele>1807.0000000000002</ele><time>2026-04-25T16:32:21Z</time></trkpt><trkpt lat="36.84464114482663" lon="-108.09992219730167"><ele>1807.0</ele><time>2026-04-25T16:32:22Z</time></trkpt><trkpt lat="36.84469562886678" lon="-108.10008724590108"><ele>1806.8</ele><time>2026-04-25T16:32:24Z</time></trkpt><trkpt lat="36.84477445771214" lon="-108.1001751589652"><ele>1806.6</ele><time>2026-04-25T16:32:25Z</time></trkpt><trkpt lat="36.84485951898746" lon="-108.10025109752802"><ele>1806.3999999999999</ele><time>2026-04-25T16:32:26Z</time></trkpt><trkpt lat="36.844938261664105" lon="-108.1003096424854"><ele>1806.1999999999998</ele><time>2026-04-25T16:32:27Z</time></trkpt><trkpt lat="36.845001941480525" lon="-108.10030223867348"><ele>1806.0</ele><time>2026-04-25T16:32:28Z</time></trkpt><trkpt lat="36.845090924817086" lon="-108.10022881197425"><ele>1805.0</ele><time>2026-04-25T16:32:29Z</time></trkpt><trkpt lat="36.84519284693496" lon="-108.10018164029427"><ele>1804.0</ele><time>2026-04-25T16:32:30Z</time></trkpt><trkpt lat="36.84528260225099" lon="-108.10020046483115"><ele>1803.0</ele><time>2026-04-25T16:32:31Z</time></trkpt><trkpt lat="36.84537338030049" lon="-108.10019602476451"><ele>1802.0</ele><time>2026-04-25T16:32:32Z</time></trkpt><trkpt lat="36.84547365539326" lon="-108.10012038048812"><ele>1801.0</ele><time>2026-04-25T16:32:33Z</time></trkpt><trkpt lat="36.84557194838456" lon="-108.10004600169577"><ele>1801.0</ele><time>2026-04-25T16:32:34Z</time></trkpt><trkpt lat="36.84565137512942" lon="-108.0999942050177"><ele>1801.0</ele><time>2026-04-25T16:32:35Z</time></trkpt><trkpt lat="36.845741858234184" lon="-108.09988889803446"><ele>1801.0</ele><time>2026-04-25T16:32:36Z</time></trkpt><trkpt lat="36.845806480385185" lon="-108.09986892207469"><ele>1801.0</ele><time>2026-04-25T16:32:37Z</time></trkpt><trkpt lat="36.84594762025169" lon="-108.09997112652344"><ele>1801.0</ele><time>2026-04-25T16:32:39Z</time></trkpt><trkpt lat="36.84601701440775" lon="-108.10006884695275"><ele>1801.25</ele><time>2026-04-25T16:32:40Z</time></trkpt><trkpt lat="36.846133001183354" lon="-108.10008769408599"><ele>1801.5</ele><time>2026-04-25T16:32:41Z</time></trkpt><trkpt lat="36.84626983088406" lon="-108.1001010968225"><ele>1801.75</ele><time>2026-04-25T16:32:42Z</time></trkpt><trkpt lat="36.84639667666188" lon="-108.1001457600939"><ele>1802.0</ele><time>2026-04-25T16:32:43Z</time></trkpt><trkpt lat="36.84653278677608" lon="-108.10019464126819"><ele>1802.0</ele><time>2026-04-25T16:32:44Z</time></trkpt><trkpt lat="36.84667840565055" lon="-108.10018804611785"><ele>1801.9999999999998</ele><time>2026-04-25T16:32:45Z</time></trkpt><trkpt lat="36.84677308112605" lon="-108.10017125708494"><ele>1801.9999999999998</ele><time>2026-04-25T16:32:46Z</time></trkpt><trkpt lat="36.8468409702359" lon="-108.10011487415646"><ele>1802.0</ele><time>2026-04-25T16:32:47Z</time></trkpt><trkpt lat="36.84688498716357" lon="-108.10001936496914"><ele>1802.0</ele><time>2026-04-25T16:32:48Z</time></trkpt><trkpt lat="36.846892101867375" lon="-108.09986909734155"><ele>1802.25</ele><time>2026-04-25T16:32:49Z</time></trkpt><trkpt lat="36.84692998461299" lon="-108.09976625942734"><ele>1802.5</ele><time>2026-04-25T16:32:50Z</time></trkpt><trkpt lat="36.847038206690755" lon="-108.09965003681603"><ele>1802.75</ele><time>2026-04-25T16:32:51Z</time></trkpt><trkpt lat="36.84718315197034" lon="-108.09953189079685"><ele>1803.0</ele><time>2026-04-25T16:32:52Z</time></trkpt><trkpt lat="36.847322649665955" lon="-108.09942283833355"><ele>1803.0</ele><time>2026-04-25T16:32:53Z</time></trkpt><trkpt lat="36.847436094842" lon="-108.09930504343215"><ele>1803.0</ele><time>2026-04-25T16:32:54Z</time></trkpt><trkpt lat="36.84751329113939" lon="-108.09913794210082"><ele>1803.0</ele><time>2026-04-25T16:32:55Z</time></trkpt><trkpt lat="36.84758010350375" lon="-108.09893639422022"><ele>1804.3333333333335</ele><time>2026-04-25T16:32:56Z</time></trkpt><trkpt lat="36.84767165673842" lon="-108.09875973559855"><ele>1805.6666666666667</ele><time>2026-04-25T16:32:57Z</time></trkpt><trkpt lat="36.84781563460836" lon="-108.0986092321055"><ele>1807.0</ele><time>2026-04-25T16:32:58Z</time></trkpt><trkpt lat="36.84793916630053" lon="-108.09850253988702"><ele>1807.0000000000002</ele><time>2026-04-25T16:32:59Z</time></trkpt><trkpt lat="36.8480278077205" lon="-108.09841949014687"><ele>1807.0</ele><time>2026-04-25T16:33:00Z</time></trkpt><trkpt lat="36.84809398682113" lon="-108.0983868724548"><ele>1807.0</ele><time>2026-04-25T16:33:01Z</time></trkpt><trkpt lat="36.848185168097174" lon="-108.09835635997116"><ele>1807.0</ele><time>2026-04-25T16:33:02Z</time></trkpt><trkpt lat="36.84825931396835" lon="-108.0982951775297"><ele>1807.0000000000002</ele><time>2026-04-25T16:33:03Z</time></trkpt><trkpt lat="36.84832552990644" lon="-108.09823155175764"><ele>1807.0</ele><time>2026-04-25T16:33:04Z</time></trkpt><trkpt lat="36.84843326512882" lon="-108.09821438610496"><ele>1808.5</ele><time>2026-04-25T16:33:05Z</time></trkpt><trkpt lat="36.84855438969318" lon="-108.09815521868977"><ele>1810.0</ele><time>2026-04-25T16:33:06Z</time></trkpt><trkpt lat="36.84865697786325" lon="-108.09809801892041"><ele>1811.5</ele><time>2026-04-25T16:33:07Z</time></trkpt><trkpt lat="36.84872598478288" lon="-108.09812138442396"><ele>1813.0</ele><time>2026-04-25T16:33:08Z</time></trkpt><trkpt lat="36.848866407622126" lon="-108.09810530191807"><ele>1813.0</ele><time>2026-04-25T16:33:09Z</time></trkpt><trkpt lat="36.848971134758436" lon="-108.09805309569907"><ele>1813.0000000000002</ele><time>2026-04-25T16:33:10Z</time></trkpt><trkpt lat="36.8490546284659" lon="-108.09801456843577"><ele>1813.0000000000002</ele><time>2026-04-25T16:33:11Z</time></trkpt><trkpt lat="36.84907459978416" lon="-108.09791454680699"><ele>1813.0</ele><time>2026-04-25T16:33:13Z</time></trkpt><trkpt lat="36.84907594854225" lon="-108.0977499639395"><ele>1813.0</ele><time>2026-04-25T16:33:14Z</time></trkpt><trkpt lat="36.84912065360404" lon="-108.09764525357191"><ele>1813.0000000000002</ele><time>2026-04-25T16:33:15Z</time></trkpt><trkpt lat="36.84917106979184" lon="-108.09758875224045"><ele>1813.0</ele><time>2026-04-25T16:33:16Z</time></trkpt><trkpt lat="36.849242142825524" lon="-108.09759799984853"><ele>1813.0</ele><time>2026-04-25T16:33:17Z</time></trkpt><trkpt lat="36.84933615202187" lon="-108.09760940096936"><ele>1813.0</ele><time>2026-04-25T16:33:18Z</time></trkpt><trkpt lat="36.84943890450014" lon="-108.09760896796942"><ele>1813.0000000000002</ele><time>2026-04-25T16:33:19Z</time></trkpt><trkpt lat="36.84953873854548" lon="-108.09756932335539"><ele>1813.0</ele><time>2026-04-25T16:33:20Z</time></trkpt><trkpt lat="36.849660282134685" lon="-108.09752194699021"><ele>1813.0</ele><time>2026-04-25T16:33:21Z</time></trkpt><trkpt lat="36.849788064030214" lon="-108.09748116125591"><ele>1813.0000000000002</ele><time>2026-04-25T16:33:22Z</time></trkpt><trkpt lat="36.84988637448091" lon="-108.09744643342182"><ele>1813.0000000000002</ele><time>2026-04-25T16:33:23Z</time></trkpt><trkpt lat="36.849978145171" lon="-108.09736898058496"><ele>1813.0</ele><time>2026-04-25T16:33:24Z</time></trkpt><trkpt lat="36.85005475279828" lon="-108.0972886781754"><ele>1813.0</ele><time>2026-04-25T16:33:25Z</time></trkpt><trkpt lat="36.85008807273897" lon="-108.09719271443129"><ele>1814.75</ele><time>2026-04-25T16:33:26Z</time></trkpt><trkpt lat="36.85006940704462" lon="-108.09705915109515"><ele>1816.5</ele><time>2026-04-25T16:33:27Z</time></trkpt><trkpt lat="36.85007375200346" lon="-108.09690895818913"><ele>1818.25</ele><time>2026-04-25T16:33:28Z</time></trkpt><trkpt lat="36.85014349207954" lon="-108.09679152844917"><ele>1820.0</ele><time>2026-04-25T16:33:29Z</time></trkpt><trkpt lat="36.850181139327624" lon="-108.09662327522116"><ele>1820.8</ele><time>2026-04-25T16:33:30Z</time></trkpt><trkpt lat="36.85019976143656" lon="-108.09651073671843"><ele>1821.6</ele><time>2026-04-25T16:33:31Z</time></trkpt><trkpt lat="36.850245717459025" lon="-108.09643559075705"><ele>1822.4</ele><time>2026-04-25T16:33:32Z</time></trkpt><trkpt lat="36.85031667831893" lon="-108.09635791243375"><ele>1823.2</ele><time>2026-04-25T16:33:33Z</time></trkpt><trkpt lat="36.85040199299429" lon="-108.096279055403"><ele>1824.0</ele><time>2026-04-25T16:33:34Z</time></trkpt><trkpt lat="36.85046886771768" lon="-108.09619892260382"><ele>1824.0</ele><time>2026-04-25T16:33:35Z</time></trkpt><trkpt lat="36.85049187239937" lon="-108.09607761109913"><ele>1824.0</ele><time>2026-04-25T16:33:36Z</time></trkpt><trkpt lat="36.85049278610805" lon="-108.09594948358342"><ele>1824.0</ele><time>2026-04-25T16:33:37Z</time></trkpt><trkpt lat="36.850552143987024" lon="-108.09587153377494"><ele>1824.0</ele><time>2026-04-25T16:33:38Z</time></trkpt><trkpt lat="36.85064105393239" lon="-108.09585785447513"><ele>1824.0</ele><time>2026-04-25T16:33:39Z</time></trkpt><trkpt lat="36.85072459640083" lon="-108.09580210050888"><ele>1825.3333333333333</ele><time>2026-04-25T16:33:40Z</time></trkpt><trkpt lat="36.850772602059415" lon="-108.09570279930301"><ele>1826.6666666666665</ele><time>2026-04-25T16:33:41Z</time></trkpt><trkpt lat="36.850808458354194" lon="-108.09559863695586"><ele>1828.0</ele><time>2026-04-25T16:33:42Z</time></trkpt><trkpt lat="36.85083774026118" lon="-108.09549991489773"><ele>1829.3333333333333</ele><time>2026-04-25T16:33:43Z</time></trkpt><trkpt lat="36.850855579091444" lon="-108.09540613757595"><ele>1830.6666666666665</ele><time>2026-04-25T16:33:44Z</time></trkpt><trkpt lat="36.85088507706472" lon="-108.09528868099946"><ele>1832.0</ele><time>2026-04-25T16:33:45Z</time></trkpt><trkpt lat="36.85092530762556" lon="-108.09515084483137"><ele>1831.5</ele><time>2026-04-25T16:33:46Z</time></trkpt><trkpt lat="36.85096692363942" lon="-108.09501101401113"><ele>1831.0</ele><time>2026-04-25T16:33:47Z</time></trkpt><trkpt lat="36.8510273421954" lon="-108.09488603106048"><ele>1830.5</ele><time>2026-04-25T16:33:48Z</time></trkpt><trkpt lat="36.851077157147714" lon="-108.09483158410059"><ele>1830.0</ele><time>2026-04-25T16:33:49Z</time></trkpt><trkpt lat="36.851264277083665" lon="-108.09481794903695"><ele>1831.4</ele><time>2026-04-25T16:33:51Z</time></trkpt><trkpt lat="36.851387079128216" lon="-108.0948162324057"><ele>1832.8</ele><time>2026-04-25T16:33:52Z</time></trkpt><trkpt lat="36.85150219248337" lon="-108.09477993929461"><ele>1834.1999999999998</ele><time>2026-04-25T16:33:53Z</time></trkpt><trkpt lat="36.851606708342416" lon="-108.09474793083523"><ele>1835.6</ele><time>2026-04-25T16:33:54Z</time></trkpt><trkpt lat="36.8517006181081" lon="-108.0947211690625"><ele>1837.0</ele><time>2026-04-25T16:33:55Z</time></trkpt><trkpt lat="36.85177059758414" lon="-108.0946425017943"><ele>1837.75</ele><time>2026-04-25T16:33:56Z</time></trkpt><trkpt lat="36.85188076585158" lon="-108.09452331630861"><ele>1838.5</ele><time>2026-04-25T16:33:57Z</time></trkpt><trkpt lat="36.852013754743325" lon="-108.09445856269926"><ele>1839.25</ele><time>2026-04-25T16:33:58Z</time></trkpt><trkpt lat="36.852107774317574" lon="-108.09444148548482"><ele>1840.0</ele><time>2026-04-25T16:33:59Z</time></trkpt><trkpt lat="36.85218973494067" lon="-108.0944217142338"><ele>1840.0</ele><time>2026-04-25T16:34:00Z</time></trkpt><trkpt lat="36.85222985438441" lon="-108.09452020090916"><ele>1840.0</ele><time>2026-04-25T16:34:02Z</time></trkpt><trkpt lat="36.852208268956225" lon="-108.09468197621982"><ele>1840.0</ele><time>2026-04-25T16:34:03Z</time></trkpt><trkpt lat="36.852222534742666" lon="-108.09482227348877"><ele>1840.0</ele><time>2026-04-25T16:34:04Z</time></trkpt><trkpt lat="36.85226712878043" lon="-108.09491195499683"><ele>1840.0</ele><time>2026-04-25T16:34:05Z</time></trkpt><trkpt lat="36.85234197863336" lon="-108.09495191126634"><ele>1839.6</ele><time>2026-04-25T16:34:06Z</time></trkpt><trkpt lat="36.852429814985214" lon="-108.09498337174873"><ele>1839.2</ele><time>2026-04-25T16:34:07Z</time></trkpt><trkpt lat="36.85254551014647" lon="-108.09500912971652"><ele>1838.8000000000002</ele><time>2026-04-25T16:34:08Z</time></trkpt><trkpt lat="36.85260872078106" lon="-108.095101103147"><ele>1838.4</ele><time>2026-04-25T16:34:09Z</time></trkpt><trkpt lat="36.85267477612505" lon="-108.09522039358318"><ele>1838.0</ele><time>2026-04-25T16:34:10Z</time></trkpt><trkpt lat="36.85276199787957" lon="-108.09525163580655"><ele>1839.6000000000001</ele><time>2026-04-25T16:34:11Z</time></trkpt><trkpt lat="36.85285238426997" lon="-108.09530483241554"><ele>1841.2000000000003</ele><time>2026-04-25T16:34:12Z</time></trkpt><trkpt lat="36.852915849505635" lon="-108.09538433424756"><ele>1842.8</ele><time>2026-04-25T16:34:13Z</time></trkpt><trkpt lat="36.852941719919215" lon="-108.09546288828435"><ele>1844.4</ele><time>2026-04-25T16:34:14Z</time></trkpt><trkpt lat="36.852965828142324" lon="-108.09558261412039"><ele>1846.0</ele><time>2026-04-25T16:34:15Z</time></trkpt><trkpt lat="36.85304339137051" lon="-108.09565017135034"><ele>1846.0</ele><time>2026-04-25T16:34:16Z</time></trkpt><trkpt lat="36.8531055283975" lon="-108.09560490712364"><ele>1846.0</ele><time>2026-04-25T16:34:17Z</time></trkpt><trkpt lat="36.85319630674189" lon="-108.09555530916533"><ele>1846.0</ele><time>2026-04-25T16:34:18Z</time></trkpt><trkpt lat="36.85329283722408" lon="-108.09545152193834"><ele>1846.0</ele><time>2026-04-25T16:34:19Z</time></trkpt><trkpt lat="36.853337492705826" lon="-108.09537377961902"><ele>1846.0</ele><time>2026-04-25T16:34:20Z</time></trkpt><trkpt lat="36.85341779308084" lon="-108.0953254148171"><ele>1847.4</ele><time>2026-04-25T16:34:21Z</time></trkpt><trkpt lat="36.85348774213457" lon="-108.09527695151614"><ele>1848.8</ele><time>2026-04-25T16:34:22Z</time></trkpt><trkpt lat="36.85353573190875" lon="-108.09522109051316"><ele>1850.2000000000003</ele><time>2026-04-25T16:34:23Z</time></trkpt><trkpt lat="36.85362224271177" lon="-108.09512378914536"><ele>1851.6000000000001</ele><time>2026-04-25T16:34:24Z</time></trkpt><trkpt lat="36.85374128637719" lon="-108.09506783085037"><ele>1853.0</ele><time>2026-04-25T16:34:25Z</time></trkpt><trkpt lat="36.85382987638664" lon="-108.09501405316178"><ele>1853.0</ele><time>2026-04-25T16:34:26Z</time></trkpt><trkpt lat="36.853902059400156" lon="-108.09501395902993"><ele>1853.0000000000002</ele><time>2026-04-25T16:34:27Z</time></trkpt><trkpt lat="36.853998150670044" lon="-108.09499525168037"><ele>1853.0000000000002</ele><time>2026-04-25T16:34:28Z</time></trkpt><trkpt lat="36.85409374223141" lon="-108.09493183658469"><ele>1853.0</ele><time>2026-04-25T16:34:29Z</time></trkpt><trkpt lat="36.85417881931637" lon="-108.094856226032"><ele>1853.0</ele><time>2026-04-25T16:34:30Z</time></trkpt><trkpt lat="36.85425795066576" lon="-108.09481761695882"><ele>1853.8333333333333</ele><time>2026-04-25T16:34:31Z</time></trkpt><trkpt lat="36.85434694858183" lon="-108.09481270294465"><ele>1854.6666666666665</ele><time>2026-04-25T16:34:32Z</time></trkpt><trkpt lat="36.85444492507943" lon="-108.09482814491719"><ele>1855.5</ele><time>2026-04-25T16:34:33Z</time></trkpt><trkpt lat="36.85452632614742" lon="-108.09485254441081"><ele>1856.3333333333335</ele><time>2026-04-25T16:34:34Z</time></trkpt><trkpt lat="36.85458772987803" lon="-108.0948892416803"><ele>1857.1666666666667</ele><time>2026-04-25T16:34:35Z</time></trkpt><trkpt lat="36.85461221224709" lon="-108.0949662014662"><ele>1858.0</ele><time>2026-04-25T16:34:36Z</time></trkpt><trkpt lat="36.85466558184876" lon="-108.09501323162615"><ele>1858.0</ele><time>2026-04-25T16:34:37Z</time></trkpt><trkpt lat="36.854739525330146" lon="-108.09500241854495"><ele>1858.0000000000002</ele><time>2026-04-25T16:34:38Z</time></trkpt><trkpt lat="36.85482735575672" lon="-108.09497073286519"><ele>1858.0000000000002</ele><time>2026-04-25T16:34:39Z</time></trkpt><trkpt lat="36.8549096620587" lon="-108.09498534114064"><ele>1858.0</ele><time>2026-04-25T16:34:40Z</time></trkpt><trkpt lat="36.85497798561511" lon="-108.09495131064506"><ele>1858.0</ele><time>2026-04-25T16:34:41Z</time></trkpt><trkpt lat="36.85510397479496" lon="-108.0949092731978"><ele>1859.3333333333335</ele><time>2026-04-25T16:34:43Z</time></trkpt><trkpt lat="36.855180185695204" lon="-108.09486938665384"><ele>1860.6666666666667</ele><time>2026-04-25T16:34:44Z</time></trkpt><trkpt lat="36.85525290769268" lon="-108.09486824343729"><ele>1862.0</ele><time>2026-04-25T16:34:45Z</time></trkpt><trkpt lat="36.855307697903264" lon="-108.09491584989252"><ele>1863.3333333333335</ele><time>2026-04-25T16:34:46Z</time></trkpt><trkpt lat="36.85536140271989" lon="-108.0949957137423"><ele>1864.6666666666667</ele><time>2026-04-25T16:34:47Z</time></trkpt><trkpt lat="36.85540597482239" lon="-108.09506737473284"><ele>1866.0</ele><time>2026-04-25T16:34:48Z</time></trkpt><trkpt lat="36.855500691730384" lon="-108.0951030164211"><ele>1866.1999999999998</ele><time>2026-04-25T16:34:49Z</time></trkpt><trkpt lat="36.855589449094545" lon="-108.0951019049624"><ele>1866.3999999999999</ele><time>2026-04-25T16:34:50Z</time></trkpt><trkpt lat="36.85567888103852" lon="-108.09517091905508"><ele>1866.6</ele><time>2026-04-25T16:34:51Z</time></trkpt><trkpt lat="36.855757284530455" lon="-108.0952476192666"><ele>1866.8</ele><time>2026-04-25T16:34:52Z</time></trkpt><trkpt lat="36.855823747609094" lon="-108.09531012825448"><ele>1867.0</ele><time>2026-04-25T16:34:53Z</time></trkpt><trkpt lat="36.855891760924344" lon="-108.09539846187641"><ele>1868.1666666666667</ele><time>2026-04-25T16:34:54Z</time></trkpt><trkpt lat="36.85597099407506" lon="-108.09547732475987"><ele>1869.3333333333335</ele><time>2026-04-25T16:34:55Z</time></trkpt><trkpt lat="36.856037200547746" lon="-108.09555478673488"><ele>1870.5</ele><time>2026-04-25T16:34:56Z</time></trkpt><trkpt lat="36.85609038537644" lon="-108.09561048120358"><ele>1871.6666666666665</ele><time>2026-04-25T16:34:57Z</time></trkpt><trkpt lat="36.856158544898996" lon="-108.09565284640762"><ele>1872.8333333333333</ele><time>2026-04-25T16:34:58Z</time></trkpt><trkpt lat="36.8562266943021" lon="-108.09572818094932"><ele>1874.0</ele><time>2026-04-25T16:34:59Z</time></trkpt><trkpt lat="36.85623270886319" lon="-108.095839538048"><ele>1874.3333333333333</ele><time>2026-04-25T16:35:00Z</time></trkpt><trkpt lat="36.85625736782088" lon="-108.09596995149337"><ele>1874.6666666666665</ele><time>2026-04-25T16:35:01Z</time></trkpt><trkpt lat="36.85626244471938" lon="-108.0960769406515"><ele>1875.0</ele><time>2026-04-25T16:35:02Z</time></trkpt><trkpt lat="36.856249111051234" lon="-108.09616725518828"><ele>1875.3333333333335</ele><time>2026-04-25T16:35:03Z</time></trkpt><trkpt lat="36.85628953265936" lon="-108.09622875370319"><ele>1875.6666666666667</ele><time>2026-04-25T16:35:04Z</time></trkpt><trkpt lat="36.856371328290955" lon="-108.09621524106694"><ele>1876.0</ele><time>2026-04-25T16:35:05Z</time></trkpt><trkpt lat="36.85643985091843" lon="-108.09618050028415"><ele>1876.0000000000002</ele><time>2026-04-25T16:35:06Z</time></trkpt><trkpt lat="36.856505891669265" lon="-108.09617184454748"><ele>1876.0</ele><time>2026-04-25T16:37:22Z</time></trkpt><trkpt lat="36.85656706733436" lon="-108.09615026999194"><ele>1876.0</ele><time>2026-04-25T16:37:23Z</time></trkpt><trkpt lat="36.85665298847984" lon="-108.09611097733122"><ele>1876.0</ele><time>2026-04-25T16:37:24Z</time></trkpt><trkpt lat="36.85675241092133" lon="-108.09607761977827"><ele>1876.0000000000002</ele><time>2026-04-25T16:37:25Z</time></trkpt><trkpt lat="36.85685894493504" lon="-108.09606123312555"><ele>1876.0</ele><time>2026-04-25T16:37:26Z</time></trkpt><trkpt lat="36.856938304225054" lon="-108.09605069883624"><ele>1876.8</ele><time>2026-04-25T16:37:27Z</time></trkpt><trkpt lat="36.857012306809665" lon="-108.09605245069714"><ele>1877.6</ele><time>2026-04-25T16:37:28Z</time></trkpt><trkpt lat="36.85713718557065" lon="-108.09603752386002"><ele>1878.4</ele><time>2026-04-25T16:37:30Z</time></trkpt><trkpt lat="36.857231677718794" lon="-108.09599433702446"><ele>1879.2</ele><time>2026-04-25T16:37:31Z</time></trkpt><trkpt lat="36.85733067268282" lon="-108.09597904010054"><ele>1880.0</ele><time>2026-04-25T16:37:32Z</time></trkpt><trkpt lat="36.857412986936815" lon="-108.09596005527946"><ele>1880.0</ele><time>2026-04-25T16:37:33Z</time></trkpt><trkpt lat="36.85752924849128" lon="-108.0959401002209"><ele>1880.0</ele><time>2026-04-25T16:37:35Z</time></trkpt><trkpt lat="36.85760212638828" lon="-108.0959377824351"><ele>1880.0</ele><time>2026-04-25T16:37:36Z</time></trkpt><trkpt lat="36.85768564740461" lon="-108.09591649864174"><ele>1880.0</ele><time>2026-04-25T16:37:37Z</time></trkpt><trkpt lat="36.857783301239124" lon="-108.09588662678992"><ele>1880.0</ele><time>2026-04-25T16:37:38Z</time></trkpt><trkpt lat="36.85784633974519" lon="-108.09582062115392"><ele>1878.6</ele><time>2026-04-25T16:37:39Z</time></trkpt><trkpt lat="36.85790457173337" lon="-108.09575208067739"><ele>1877.2</ele><time>2026-04-25T16:37:40Z</time></trkpt><trkpt lat="36.85797801532232" lon="-108.0956977282869"><ele>1875.8000000000002</ele><time>2026-04-25T16:37:41Z</time></trkpt><trkpt lat="36.858086321682464" lon="-108.09567890350479"><ele>1874.4</ele><time>2026-04-25T16:37:42Z</time></trkpt><trkpt lat="36.85820265638676" lon="-108.09565410052709"><ele>1873.0</ele><time>2026-04-25T16:37:43Z</time></trkpt><trkpt lat="36.85827635303633" lon="-108.09561375903917"><ele>1873.0</ele><time>2026-04-25T16:37:44Z</time></trkpt><trkpt lat="36.85837928983949" lon="-108.09552128600056"><ele>1873.0000000000002</ele><time>2026-04-25T16:37:46Z</time></trkpt><trkpt lat="36.858460116472536" lon="-108.09542076188262"><ele>1873.0000000000002</ele><time>2026-04-25T16:37:48Z</time></trkpt><trkpt lat="36.85853803999497" lon="-108.09535392511171"><ele>1873.0</ele><time>2026-04-25T16:37:49Z</time></trkpt><trkpt lat="36.858611138735434" lon="-108.09529452645901"><ele>1873.0</ele><time>2026-04-25T16:37:50Z</time></trkpt><trkpt lat="36.858686694814494" lon="-108.0952597434503"><ele>1872.6000000000001</ele><time>2026-04-25T16:37:51Z</time></trkpt><trkpt lat="36.858743851557236" lon="-108.095214363649"><ele>1872.2000000000003</ele><time>2026-04-25T16:37:52Z</time></trkpt><trkpt lat="36.85881877994321" lon="-108.09512615229254"><ele>1871.8</ele><time>2026-04-25T16:37:53Z</time></trkpt><trkpt lat="36.858887957491284" lon="-108.0950709688737"><ele>1871.4</ele><time>2026-04-25T16:37:54Z</time></trkpt><trkpt lat="36.858990277781544" lon="-108.09501704512553"><ele>1871.0</ele><time>2026-04-25T16:37:55Z</time></trkpt><trkpt lat="36.8590650004686" lon="-108.09496383828701"><ele>1870.1999999999998</ele><time>2026-04-25T16:37:56Z</time></trkpt><trkpt lat="36.859161141524815" lon="-108.09491263084166"><ele>1869.3999999999999</ele><time>2026-04-25T16:37:57Z</time></trkpt><trkpt lat="36.85927028894395" lon="-108.09487367713686"><ele>1868.6</ele><time>2026-04-25T16:37:58Z</time></trkpt><trkpt lat="36.85936569720236" lon="-108.09484761421028"><ele>1867.8</ele><time>2026-04-25T16:37:59Z</time></trkpt><trkpt lat="36.85944757596529" lon="-108.09482855411441"><ele>1867.0</ele><time>2026-04-25T16:38:00Z</time></trkpt><trkpt lat="36.85954868015912" lon="-108.09481937406589"><ele>1866.6</ele><time>2026-04-25T16:38:01Z</time></trkpt><trkpt lat="36.859643920438984" lon="-108.09480043664308"><ele>1866.1999999999998</ele><time>2026-04-25T16:38:02Z</time></trkpt><trkpt lat="36.85972287287046" lon="-108.09479366866"><ele>1865.8</ele><time>2026-04-25T16:38:03Z</time></trkpt><trkpt lat="36.859795123419154" lon="-108.09480658465273"><ele>1865.4</ele><time>2026-04-25T16:38:04Z</time></trkpt><trkpt lat="36.859869447571235" lon="-108.09475661569108"><ele>1865.0</ele><time>2026-04-25T16:38:06Z</time></trkpt><trkpt lat="36.85999277046319" lon="-108.09467330220068"><ele>1864.9999999999998</ele><time>2026-04-25T16:38:08Z</time></trkpt><trkpt lat="36.860075865596684" lon="-108.09467843216551"><ele>1865.0</ele><time>2026-04-25T16:38:09Z</time></trkpt><trkpt lat="36.86017623368219" lon="-108.0947025148706"><ele>1865.0</ele><time>2026-04-25T16:38:10Z</time></trkpt><trkpt lat="36.86027598978267" lon="-108.09470411127683"><ele>1865.0</ele><time>2026-04-25T16:38:11Z</time></trkpt><trkpt lat="36.860337998595156" lon="-108.09468378000705"><ele>1864.9999999999998</ele><time>2026-04-25T16:38:12Z</time></trkpt><trkpt lat="36.860435256799065" lon="-108.09469813090156"><ele>1865.0</ele><time>2026-04-25T16:38:14Z</time></trkpt><trkpt lat="36.86048861742633" lon="-108.09483156260002"><ele>1866.0</ele><time>2026-04-25T16:38:16Z</time></trkpt><trkpt lat="36.860564809991175" lon="-108.09491372343994"><ele>1867.0</ele><time>2026-04-25T16:38:18Z</time></trkpt><trkpt lat="36.860641772611245" lon="-108.09491713953477"><ele>1868.0</ele><time>2026-04-25T16:38:19Z</time></trkpt><trkpt lat="36.86073488322902" lon="-108.09493200584446"><ele>1869.0</ele><time>2026-04-25T16:38:20Z</time></trkpt><trkpt lat="36.860818516706075" lon="-108.09498770870007"><ele>1870.0</ele><time>2026-04-25T16:38:21Z</time></trkpt><trkpt lat="36.8608994130452" lon="-108.09505242778573"><ele>1871.6</ele><time>2026-04-25T16:38:22Z</time></trkpt><trkpt lat="36.86098837286047" lon="-108.09507252776423"><ele>1873.2</ele><time>2026-04-25T16:38:23Z</time></trkpt><trkpt lat="36.861096848809574" lon="-108.09507763570244"><ele>1874.8000000000002</ele><time>2026-04-25T16:38:24Z</time></trkpt><trkpt lat="36.861200090497874" lon="-108.09509285159427"><ele>1876.4</ele><time>2026-04-25T16:38:25Z</time></trkpt><trkpt lat="36.86129385506161" lon="-108.0950684980029"><ele>1878.0</ele><time>2026-04-25T16:38:26Z</time></trkpt><trkpt lat="36.8613701376852" lon="-108.09508320536037"><ele>1878.0</ele><time>2026-04-25T16:38:27Z</time></trkpt><trkpt lat="36.86144937434269" lon="-108.09509353738954"><ele>1878.0</ele><time>2026-04-25T16:38:28Z</time></trkpt><trkpt lat="36.86151068357464" lon="-108.09512196636712"><ele>1878.0</ele><time>2026-04-25T16:38:29Z</time></trkpt><trkpt lat="36.861577859945605" lon="-108.09516131118937"><ele>1878.0</ele><time>2026-04-25T16:38:30Z</time></trkpt><trkpt lat="36.86166044406719" lon="-108.09521766002068"><ele>1878.0</ele><time>2026-04-25T16:38:31Z</time></trkpt><trkpt lat="36.86172707353669" lon="-108.09522839853071"><ele>1878.0</ele><time>2026-04-25T16:38:32Z</time></trkpt><trkpt lat="36.8618166007445" lon="-108.09523062254435"><ele>1878.0</ele><time>2026-04-25T16:38:33Z</time></trkpt><trkpt lat="36.86188946844631" lon="-108.09528174411422"><ele>1878.0000000000002</ele><time>2026-04-25T16:38:34Z</time></trkpt><trkpt lat="36.8619988138033" lon="-108.09533585963236"><ele>1878.0000000000002</ele><time>2026-04-25T16:38:35Z</time></trkpt><trkpt lat="36.862106188031404" lon="-108.09538901985445"><ele>1878.0</ele><time>2026-04-25T16:38:36Z</time></trkpt><trkpt lat="36.862190284964974" lon="-108.09542318909389"><ele>1878.0</ele><time>2026-04-25T16:38:37Z</time></trkpt><trkpt lat="36.86225897198829" lon="-108.09543066689936"><ele>1878.0</ele><time>2026-04-25T16:38:38Z</time></trkpt><trkpt lat="36.86236516563212" lon="-108.09540145028662"><ele>1878.0000000000002</ele><time>2026-04-25T16:38:39Z</time></trkpt><trkpt lat="36.86248075557492" lon="-108.09533437963958"><ele>1878.0000000000002</ele><time>2026-04-25T16:38:40Z</time></trkpt><trkpt lat="36.862557459850656" lon="-108.09525689769477"><ele>1878.0</ele><time>2026-04-25T16:38:41Z</time></trkpt><trkpt lat="36.86260513391243" lon="-108.09517544974763"><ele>1878.0</ele><time>2026-04-25T16:38:42Z</time></trkpt><trkpt lat="36.86267816093204" lon="-108.095050178476"><ele>1878.2</ele><time>2026-04-25T16:38:44Z</time></trkpt><trkpt lat="36.86276093399338" lon="-108.09502729465291"><ele>1878.4</ele><time>2026-04-25T16:38:45Z</time></trkpt><trkpt lat="36.862826102721556" lon="-108.09490320959499"><ele>1878.6000000000001</ele><time>2026-04-25T16:38:47Z</time></trkpt><trkpt lat="36.862939947342674" lon="-108.09489466141164"><ele>1878.8000000000002</ele><time>2026-04-25T16:38:49Z</time></trkpt><trkpt lat="36.86302884639726" lon="-108.0948705445722"><ele>1879.0</ele><time>2026-04-25T16:38:51Z</time></trkpt><trkpt lat="36.86310823579412" lon="-108.09487435328926"><ele>1878.5</ele><time>2026-04-25T16:38:59Z</time></trkpt><trkpt lat="36.863222088295736" lon="-108.09485165060312"><ele>1878.0</ele><time>2026-04-25T16:39:01Z</time></trkpt><trkpt lat="36.86331750601854" lon="-108.09479810315683"><ele>1877.5</ele><time>2026-04-25T16:39:03Z</time></trkpt><trkpt lat="36.86346178031798" lon="-108.09488380900751"><ele>1877.0</ele><time>2026-04-25T16:39:05Z</time></trkpt><trkpt lat="36.86356438169395" lon="-108.09489655479224"><ele>1877.0</ele><time>2026-04-25T16:39:06Z</time></trkpt><trkpt lat="36.86365745481537" lon="-108.09489226410801"><ele>1876.9999999999998</ele><time>2026-04-25T16:39:07Z</time></trkpt><trkpt lat="36.86377175218077" lon="-108.0948005596795"><ele>1876.9999999999998</ele><time>2026-04-25T16:39:09Z</time></trkpt><trkpt lat="36.863838978462226" lon="-108.09475309922844"><ele>1877.0</ele><time>2026-04-25T16:39:10Z</time></trkpt><trkpt lat="36.86390976755131" lon="-108.09466788585185"><ele>1877.0</ele><time>2026-04-25T16:39:11Z</time></trkpt><trkpt lat="36.86396209227769" lon="-108.09456928736002"><ele>1877.0</ele><time>2026-04-25T16:39:12Z</time></trkpt><trkpt lat="36.863983640177096" lon="-108.09446900010619"><ele>1876.9999999999998</ele><time>2026-04-25T16:39:13Z</time></trkpt><trkpt lat="36.86409902526537" lon="-108.09439405457083"><ele>1876.9999999999998</ele><time>2026-04-25T16:39:15Z</time></trkpt><trkpt lat="36.864180889496524" lon="-108.09434529790634"><ele>1877.0</ele><time>2026-04-25T16:39:16Z</time></trkpt><trkpt lat="36.86426174832776" lon="-108.09433024340865"><ele>1877.0</ele><time>2026-04-25T16:39:17Z</time></trkpt><trkpt lat="36.86434549095987" lon="-108.0943409548502"><ele>1877.3999999999999</ele><time>2026-04-25T16:39:18Z</time></trkpt><trkpt lat="36.86443774213971" lon="-108.09434810113976"><ele>1877.7999999999997</ele><time>2026-04-25T16:39:19Z</time></trkpt><trkpt lat="36.8645044300631" lon="-108.09439245779907"><ele>1878.2</ele><time>2026-04-25T16:39:20Z</time></trkpt><trkpt lat="36.86457008362275" lon="-108.09448690026929"><ele>1878.6</ele><time>2026-04-25T16:39:21Z</time></trkpt><trkpt lat="36.86464934631181" lon="-108.09461410576499"><ele>1879.0</ele><time>2026-04-25T16:39:22Z</time></trkpt><trkpt lat="36.864738023942394" lon="-108.09470242768575"><ele>1879.0</ele><time>2026-04-25T16:39:23Z</time></trkpt><trkpt lat="36.864851648234854" lon="-108.09479235967105"><ele>1879.0</ele><time>2026-04-25T16:39:25Z</time></trkpt><trkpt lat="36.86493906334193" lon="-108.0947599208484"><ele>1879.0</ele><time>2026-04-25T16:39:26Z</time></trkpt><trkpt lat="36.86503188958916" lon="-108.09470756860351"><ele>1879.0</ele><time>2026-04-25T16:39:27Z</time></trkpt><trkpt lat="36.865148544428656" lon="-108.09466137210107"><ele>1880.2</ele><time>2026-04-25T16:39:28Z</time></trkpt><trkpt lat="36.865223691766246" lon="-108.09464950593367"><ele>1881.4</ele><time>2026-04-25T16:39:29Z</time></trkpt><trkpt lat="36.865277981179865" lon="-108.09459535122026"><ele>1882.6</ele><time>2026-04-25T16:39:31Z</time></trkpt><trkpt lat="36.86541926334825" lon="-108.09454507231001"><ele>1883.8</ele><time>2026-04-25T16:39:33Z</time></trkpt><trkpt lat="36.865507377651184" lon="-108.09454980090769"><ele>1885.0</ele><time>2026-04-25T16:39:34Z</time></trkpt><trkpt lat="36.865617816303775" lon="-108.09455180005385"><ele>1885.0</ele><time>2026-04-25T16:39:35Z</time></trkpt><trkpt lat="36.86572600687582" lon="-108.09455083911672"><ele>1885.0</ele><time>2026-04-25T16:39:36Z</time></trkpt><trkpt lat="36.86582935156368" lon="-108.09453046628931"><ele>1885.0</ele><time>2026-04-25T16:39:37Z</time></trkpt><trkpt lat="36.865945654433695" lon="-108.09451767995535"><ele>1885.0</ele><time>2026-04-25T16:39:38Z</time></trkpt><trkpt lat="36.86605856648754" lon="-108.09453037657931"><ele>1885.0</ele><time>2026-04-25T16:39:39Z</time></trkpt><trkpt lat="36.866170440701545" lon="-108.0945787980225"><ele>1885.8</ele><time>2026-04-25T16:39:40Z</time></trkpt><trkpt lat="36.86627249696686" lon="-108.09463758136769"><ele>1886.6</ele><time>2026-04-25T16:39:41Z</time></trkpt><trkpt lat="36.866360686420904" lon="-108.09464532149373"><ele>1887.4</ele><time>2026-04-25T16:39:42Z</time></trkpt><trkpt lat="36.86645500226181" lon="-108.09462688931704"><ele>1888.2</ele><time>2026-04-25T16:39:43Z</time></trkpt><trkpt lat="36.8665753773506" lon="-108.09461608454083"><ele>1889.0</ele><time>2026-04-25T16:39:44Z</time></trkpt><trkpt lat="36.866688466418985" lon="-108.09463485715271"><ele>1889.0</ele><time>2026-04-25T16:39:45Z</time></trkpt><trkpt lat="36.86677613889786" lon="-108.0946386541452"><ele>1889.0</ele><time>2026-04-25T16:39:46Z</time></trkpt><trkpt lat="36.866819061360296" lon="-108.09476027455104"><ele>1889.0</ele><time>2026-04-25T16:39:48Z</time></trkpt><trkpt lat="36.8668269850524" lon="-108.09490794272517"><ele>1889.0</ele><time>2026-04-25T16:39:49Z</time></trkpt><trkpt lat="36.86687714322241" lon="-108.09502723748474"><ele>1889.0</ele><time>2026-04-25T16:39:50Z</time></trkpt><trkpt lat="36.86695214715434" lon="-108.09517768003808"><ele>1890.0</ele><time>2026-04-25T16:39:51Z</time></trkpt><trkpt lat="36.86701940436168" lon="-108.09522614916997"><ele>1891.0</ele><time>2026-04-25T16:39:52Z</time></trkpt><trkpt lat="36.867102881377676" lon="-108.09525694202894"><ele>1892.0</ele><time>2026-04-25T16:39:53Z</time></trkpt><trkpt lat="36.86721100687518" lon="-108.09528441876377"><ele>1893.0</ele><time>2026-04-25T16:39:54Z</time></trkpt><trkpt lat="36.86732000621102" lon="-108.09529074330844"><ele>1894.0</ele><time>2026-04-25T16:39:55Z</time></trkpt><trkpt lat="36.86741395147284" lon="-108.09532813209678"><ele>1894.0</ele><time>2026-04-25T16:39:56Z</time></trkpt><trkpt lat="36.86749904581336" lon="-108.09542496135144"><ele>1894.0</ele><time>2026-04-25T16:39:57Z</time></trkpt><trkpt lat="36.867598137930905" lon="-108.09555793714178"><ele>1894.0</ele><time>2026-04-25T16:39:58Z</time></trkpt><trkpt lat="36.86768909680189" lon="-108.09570702273174"><ele>1894.0</ele><time>2026-04-25T16:39:59Z</time></trkpt><trkpt lat="36.8677680817337" lon="-108.09582215825908"><ele>1895.75</ele><time>2026-04-25T16:40:00Z</time></trkpt><trkpt lat="36.86785224721725" lon="-108.09593174752165"><ele>1897.5</ele><time>2026-04-25T16:40:01Z</time></trkpt><trkpt lat="36.867928003421056" lon="-108.09603565138795"><ele>1899.25</ele><time>2026-04-25T16:40:02Z</time></trkpt><trkpt lat="36.86799959065846" lon="-108.09613865704935"><ele>1901.0</ele><time>2026-04-25T16:40:03Z</time></trkpt><trkpt lat="36.868077251184154" lon="-108.09626640799182"><ele>1901.0</ele><time>2026-04-25T16:40:04Z</time></trkpt><trkpt lat="36.86817648571485" lon="-108.09635271361711"><ele>1901.0</ele><time>2026-04-25T16:40:05Z</time></trkpt><trkpt lat="36.868304633185936" lon="-108.09645207529792"><ele>1901.0</ele><time>2026-04-25T16:40:06Z</time></trkpt><trkpt lat="36.86840016408731" lon="-108.09653710443247"><ele>1901.0</ele><time>2026-04-25T16:40:07Z</time></trkpt><trkpt lat="36.86849240486257" lon="-108.09664864177562"><ele>1903.0</ele><time>2026-04-25T16:40:08Z</time></trkpt><trkpt lat="36.86858479101591" lon="-108.09677903685225"><ele>1905.0</ele><time>2026-04-25T16:40:09Z</time></trkpt><trkpt lat="36.86866738045689" lon="-108.09689797447376"><ele>1907.0</ele><time>2026-04-25T16:40:10Z</time></trkpt><trkpt lat="36.86873991983255" lon="-108.09694852599853"><ele>1909.0</ele><time>2026-04-25T16:40:11Z</time></trkpt><trkpt lat="36.86885079748467" lon="-108.09689809242428"><ele>1909.0</ele><time>2026-04-25T16:40:13Z</time></trkpt><trkpt lat="36.86891698438508" lon="-108.0968643011492"><ele>1909.0</ele><time>2026-04-25T16:40:15Z</time></trkpt><trkpt lat="36.868978574304556" lon="-108.09678101292052"><ele>1909.0</ele><time>2026-04-25T16:40:17Z</time></trkpt><trkpt lat="36.869022524862764" lon="-108.09672366924632"><ele>1909.0</ele><time>2026-04-25T16:40:18Z</time></trkpt><trkpt lat="36.86908829256468" lon="-108.09669048009764"><ele>1909.0</ele><time>2026-04-25T16:40:19Z</time></trkpt><trkpt lat="36.869161821551025" lon="-108.09669553950559"><ele>1909.0</ele><time>2026-04-25T16:40:20Z</time></trkpt><trkpt lat="36.86922168437101" lon="-108.09672199470181"><ele>1909.0</ele><time>2026-04-25T16:40:21Z</time></trkpt><trkpt lat="36.869322248418506" lon="-108.09677143156128"><ele>1908.5000000000002</ele><time>2026-04-25T16:40:23Z</time></trkpt><trkpt lat="36.86939539928905" lon="-108.09679922384852"><ele>1908.0</ele><time>2026-04-25T16:40:24Z</time></trkpt><trkpt lat="36.86947261071125" lon="-108.09683754153036"><ele>1907.5</ele><time>2026-04-25T16:40:25Z</time></trkpt><trkpt lat="36.8695403473426" lon="-108.09688182635723"><ele>1907.0</ele><time>2026-04-25T16:40:26Z</time></trkpt><trkpt lat="36.86960831719495" lon="-108.09694779790337"><ele>1906.5000000000002</ele><time>2026-04-25T16:40:27Z</time></trkpt><trkpt lat="36.86968191161405" lon="-108.09700727980832"><ele>1906.0</ele><time>2026-04-25T16:40:28Z</time></trkpt><trkpt lat="36.86975785658061" lon="-108.09705798244757"><ele>1906.0</ele><time>2026-04-25T16:40:29Z</time></trkpt><trkpt lat="36.86982103906033" lon="-108.09709556082906"><ele>1906.0</ele><time>2026-04-25T16:40:30Z</time></trkpt><trkpt lat="36.86992333407284" lon="-108.0970822469634"><ele>1906.0</ele><time>2026-04-25T16:40:32Z</time></trkpt><trkpt lat="36.87004927464247" lon="-108.09710436235048"><ele>1906.0</ele><time>2026-04-25T16:40:34Z</time></trkpt><trkpt lat="36.870110836729616" lon="-108.09718579018245"><ele>1906.0</ele><time>2026-04-25T16:40:35Z</time></trkpt><trkpt lat="36.87018470650992" lon="-108.09717614321954"><ele>1905.6</ele><time>2026-04-25T16:40:36Z</time></trkpt><trkpt lat="36.87025507859217" lon="-108.09721156677165"><ele>1905.1999999999998</ele><time>2026-04-25T16:40:37Z</time></trkpt><trkpt lat="36.87029122291927" lon="-108.09730694132007"><ele>1904.8000000000002</ele><time>2026-04-25T16:40:38Z</time></trkpt><trkpt lat="36.87033382600482" lon="-108.09741745912251"><ele>1904.4</ele><time>2026-04-25T16:40:39Z</time></trkpt><trkpt lat="36.870428180464806" lon="-108.09750208747082"><ele>1904.0</ele><time>2026-04-25T16:40:40Z</time></trkpt><trkpt lat="36.87054225073538" lon="-108.09759311906913"><ele>1903.6666666666665</ele><time>2026-04-25T16:40:41Z</time></trkpt><trkpt lat="36.8706601801271" lon="-108.09769554054341"><ele>1903.3333333333335</ele><time>2026-04-25T16:40:42Z</time></trkpt><trkpt lat="36.8708041494217" lon="-108.09781037333103"><ele>1903.0</ele><time>2026-04-25T16:40:43Z</time></trkpt><trkpt lat="36.870939350584955" lon="-108.09794933885473"><ele>1901.75</ele><time>2026-04-25T16:40:44Z</time></trkpt><trkpt lat="36.87104202903612" lon="-108.09808179047847"><ele>1900.5</ele><time>2026-04-25T16:40:45Z</time></trkpt><trkpt lat="36.87112372206728" lon="-108.09819362452684"><ele>1899.25</ele><time>2026-04-25T16:40:46Z</time></trkpt><trkpt lat="36.8712168817649" lon="-108.09831094338837"><ele>1898.0</ele><time>2026-04-25T16:40:47Z</time></trkpt><trkpt lat="36.871317259042144" lon="-108.0984103022251"><ele>1897.9999999999998</ele><time>2026-04-25T16:40:48Z</time></trkpt><trkpt lat="36.87138963417624" lon="-108.09849614195528"><ele>1898.0</ele><time>2026-04-25T16:40:49Z</time></trkpt><trkpt lat="36.871433307956885" lon="-108.09856901498297"><ele>1898.0</ele><time>2026-04-25T16:40:50Z</time></trkpt><trkpt lat="36.871443543498565" lon="-108.0986478452242"><ele>1898.0</ele><time>2026-04-25T16:40:51Z</time></trkpt><trkpt lat="36.87137799821652" lon="-108.09875229439214"><ele>1897.9999999999998</ele><time>2026-04-25T16:40:52Z</time></trkpt><trkpt lat="36.87132138304325" lon="-108.0988613559791"><ele>1898.0</ele><time>2026-04-25T16:40:53Z</time></trkpt><trkpt lat="36.87135031647785" lon="-108.09898220389981"><ele>1898.0</ele><time>2026-04-25T16:40:54Z</time></trkpt><trkpt lat="36.87145257435794" lon="-108.09908166861865"><ele>1898.0</ele><time>2026-04-25T16:40:55Z</time></trkpt><trkpt lat="36.87151658981448" lon="-108.09918884123847"><ele>1898.0</ele><time>2026-04-25T16:40:56Z</time></trkpt><trkpt lat="36.87162453787063" lon="-108.09927393232627"><ele>1898.0</ele><time>2026-04-25T16:40:57Z</time></trkpt><trkpt lat="36.8717289548393" lon="-108.09934222217736"><ele>1896.5</ele><time>2026-04-25T16:40:58Z</time></trkpt><trkpt lat="36.871822350677114" lon="-108.09943398873536"><ele>1895.0</ele><time>2026-04-25T16:40:59Z</time></trkpt><trkpt lat="36.87187294425231" lon="-108.09957044351803"><ele>1893.5</ele><time>2026-04-25T16:41:00Z</time></trkpt><trkpt lat="36.87189844593391" lon="-108.09972709741095"><ele>1892.0</ele><time>2026-04-25T16:41:01Z</time></trkpt><trkpt lat="36.8719356511544" lon="-108.09982616823"><ele>1892.0</ele><time>2026-04-25T16:41:02Z</time></trkpt><trkpt lat="36.8720076135752" lon="-108.09986226306606"><ele>1891.9999999999998</ele><time>2026-04-25T16:41:03Z</time></trkpt><trkpt lat="36.872113109371476" lon="-108.09997752710115"><ele>1891.9999999999998</ele><time>2026-04-25T16:41:04Z</time></trkpt><trkpt lat="36.87216991101845" lon="-108.10007100070797"><ele>1892.0</ele><time>2026-04-25T16:41:05Z</time></trkpt><trkpt lat="36.87224788105401" lon="-108.10006706701799"><ele>1892.0</ele><time>2026-04-25T16:41:06Z</time></trkpt><trkpt lat="36.872343093880225" lon="-108.10006750440743"><ele>1892.0</ele><time>2026-04-25T16:41:07Z</time></trkpt><trkpt lat="36.87242683277365" lon="-108.10014133607082"><ele>1891.9999999999998</ele><time>2026-04-25T16:41:08Z</time></trkpt><trkpt lat="36.87246934832721" lon="-108.10025507105185"><ele>1891.9999999999998</ele><time>2026-04-25T16:41:09Z</time></trkpt><trkpt lat="36.87248330509028" lon="-108.10037430306055"><ele>1892.0</ele><time>2026-04-25T16:41:10Z</time></trkpt><trkpt lat="36.872513883819806" lon="-108.10054147947106"><ele>1892.0</ele><time>2026-04-25T16:41:11Z</time></trkpt><trkpt lat="36.872574011480346" lon="-108.10071522135773"><ele>1891.0</ele><time>2026-04-25T16:41:12Z</time></trkpt><trkpt lat="36.87263300984483" lon="-108.10082888905075"><ele>1889.9999999999998</ele><time>2026-04-25T16:41:13Z</time></trkpt><trkpt lat="36.87271679023779" lon="-108.10092469989476"><ele>1888.9999999999998</ele><time>2026-04-25T16:41:14Z</time></trkpt><trkpt lat="36.87278419200403" lon="-108.10102371872539"><ele>1888.0</ele><time>2026-04-25T16:41:15Z</time></trkpt><trkpt lat="36.87278182148308" lon="-108.10112785295304"><ele>1887.0</ele><time>2026-04-25T16:41:16Z</time></trkpt><trkpt lat="36.87278388393405" lon="-108.10126582669608"><ele>1887.0</ele><time>2026-04-25T16:41:17Z</time></trkpt><trkpt lat="36.872811486116106" lon="-108.10140273265478"><ele>1886.9999999999998</ele><time>2026-04-25T16:41:18Z</time></trkpt><trkpt lat="36.87285461234256" lon="-108.10154158189461"><ele>1886.9999999999998</ele><time>2026-04-25T16:41:19Z</time></trkpt><trkpt lat="36.87289301427253" lon="-108.10168581782976"><ele>1887.0</ele><time>2026-04-25T16:41:20Z</time></trkpt><trkpt lat="36.87291059133444" lon="-108.10178497213383"><ele>1887.0</ele><time>2026-04-25T16:41:21Z</time></trkpt><trkpt lat="36.87290278197773" lon="-108.10188346200856"><ele>1887.1999999999998</ele><time>2026-04-25T16:41:22Z</time></trkpt><trkpt lat="36.87294518830623" lon="-108.1019629099008"><ele>1887.3999999999999</ele><time>2026-04-25T16:41:23Z</time></trkpt><trkpt lat="36.8730368617228" lon="-108.10205206050485"><ele>1887.6000000000001</ele><time>2026-04-25T16:41:24Z</time></trkpt><trkpt lat="36.87310651491209" lon="-108.10207484113585"><ele>1887.8000000000002</ele><time>2026-04-25T16:41:25Z</time></trkpt><trkpt lat="36.8731894349377" lon="-108.10211838552354"><ele>1888.0</ele><time>2026-04-25T16:41:26Z</time></trkpt><trkpt lat="36.87330287732528" lon="-108.10219002066178"><ele>1888.0</ele><time>2026-04-25T16:41:27Z</time></trkpt><trkpt lat="36.8734094199542" lon="-108.10227436586466"><ele>1888.0000000000002</ele><time>2026-04-25T16:41:28Z</time></trkpt><trkpt lat="36.87349048808372" lon="-108.10233344155272"><ele>1888.0000000000002</ele><time>2026-04-25T16:41:29Z</time></trkpt><trkpt lat="36.873551837286286" lon="-108.10240466026139"><ele>1888.0</ele><time>2026-04-25T16:41:30Z</time></trkpt><trkpt lat="36.87361363691192" lon="-108.10250974773528"><ele>1888.0</ele><time>2026-04-25T16:41:31Z</time></trkpt><trkpt lat="36.87367396794078" lon="-108.10257358964581"><ele>1886.6000000000001</ele><time>2026-04-25T16:41:32Z</time></trkpt><trkpt lat="36.873723669647006" lon="-108.1027543057034"><ele>1885.2000000000003</ele><time>2026-04-25T16:41:35Z</time></trkpt><trkpt lat="36.87379078157678" lon="-108.10283355959152"><ele>1883.8</ele><time>2026-04-25T16:41:36Z</time></trkpt><trkpt lat="36.873830742657226" lon="-108.10291670264864"><ele>1882.4</ele><time>2026-04-25T16:41:37Z</time></trkpt><trkpt lat="36.87378516974427" lon="-108.10303602393608"><ele>1881.0</ele><time>2026-04-25T16:41:38Z</time></trkpt><trkpt lat="36.87373920631271" lon="-108.10317164833747"><ele>1880.75</ele><time>2026-04-25T16:41:39Z</time></trkpt><trkpt lat="36.87369155967075" lon="-108.10333177041373"><ele>1880.5</ele><time>2026-04-25T16:41:40Z</time></trkpt><trkpt lat="36.87361024711141" lon="-108.10344396356645"><ele>1880.25</ele><time>2026-04-25T16:41:41Z</time></trkpt><trkpt lat="36.87351631667673" lon="-108.10352390475241"><ele>1880.0</ele><time>2026-04-25T16:41:42Z</time></trkpt><trkpt lat="36.87352597287415" lon="-108.10365493519342"><ele>1880.0</ele><time>2026-04-25T16:41:44Z</time></trkpt><trkpt lat="36.8735364075539" lon="-108.10377999919075"><ele>1880.0</ele><time>2026-04-25T16:41:45Z</time></trkpt><trkpt lat="36.87347982853584" lon="-108.10386297281575"><ele>1880.0</ele><time>2026-04-25T16:41:46Z</time></trkpt><trkpt lat="36.87350871834444" lon="-108.10398979042557"><ele>1880.0</ele><time>2026-04-25T16:41:48Z</time></trkpt><trkpt lat="36.87350068468934" lon="-108.10407697182532"><ele>1880.0</ele><time>2026-04-25T16:41:49Z</time></trkpt><trkpt lat="36.87362027401863" lon="-108.104087552461"><ele>1880.0</ele><time>2026-04-25T16:41:52Z</time></trkpt><trkpt lat="36.873699346554105" lon="-108.10402375233167"><ele>1880.0</ele><time>2026-04-25T16:41:53Z</time></trkpt><trkpt lat="36.873793254618334" lon="-108.10392551035706"><ele>1880.0</ele><time>2026-04-25T16:41:54Z</time></trkpt><trkpt lat="36.87390045411717" lon="-108.1038042245714"><ele>1880.0</ele><time>2026-04-25T16:41:55Z</time></trkpt><trkpt lat="36.87399347948737" lon="-108.10371356585875"><ele>1880.0</ele><time>2026-04-25T16:41:56Z</time></trkpt><trkpt lat="36.87408551467905" lon="-108.10366996954019"><ele>1880.0</ele><time>2026-04-25T16:41:57Z</time></trkpt><trkpt lat="36.874151519327505" lon="-108.10362744846915"><ele>1880.0</ele><time>2026-04-25T16:41:58Z</time></trkpt><trkpt lat="36.874225130978864" lon="-108.10355725800993"><ele>1880.0</ele><time>2026-04-25T16:41:59Z</time></trkpt><trkpt lat="36.87430536337399" lon="-108.10345971207816"><ele>1880.0</ele><time>2026-04-25T16:42:00Z</time></trkpt><trkpt lat="36.87440026548259" lon="-108.10340606878228"><ele>1878.8</ele><time>2026-04-25T16:42:01Z</time></trkpt><trkpt lat="36.8744633495094" lon="-108.10336459234502"><ele>1877.6</ele><time>2026-04-25T16:42:02Z</time></trkpt><trkpt lat="36.87448362455064" lon="-108.10328733545607"><ele>1876.4</ele><time>2026-04-25T16:42:03Z</time></trkpt><trkpt lat="36.87452659895237" lon="-108.10317558839287"><ele>1875.2</ele><time>2026-04-25T16:42:04Z</time></trkpt><trkpt lat="36.874601416546746" lon="-108.10315920874424"><ele>1874.0</ele><time>2026-04-25T16:42:05Z</time></trkpt><trkpt lat="36.87464341575524" lon="-108.1029874156648"><ele>1874.0</ele><time>2026-04-25T16:42:08Z</time></trkpt><trkpt lat="36.87470140299465" lon="-108.10290391595343"><ele>1874.0</ele><time>2026-04-25T16:42:09Z</time></trkpt><trkpt lat="36.874780558951464" lon="-108.10284248535018"><ele>1874.0</ele><time>2026-04-25T16:42:10Z</time></trkpt><trkpt lat="36.87487510026737" lon="-108.10279437764669"><ele>1874.0</ele><time>2026-04-25T16:42:11Z</time></trkpt><trkpt lat="36.87495815887998" lon="-108.10276135414327"><ele>1874.0</ele><time>2026-04-25T16:42:12Z</time></trkpt><trkpt lat="36.87504917368512" lon="-108.10279598084851"><ele>1872.75</ele><time>2026-04-25T16:42:13Z</time></trkpt><trkpt lat="36.87515808100301" lon="-108.10285567885495"><ele>1871.5</ele><time>2026-04-25T16:42:14Z</time></trkpt><trkpt lat="36.875279308819195" lon="-108.10284391163061"><ele>1870.25</ele><time>2026-04-25T16:42:15Z</time></trkpt><trkpt lat="36.875392628022475" lon="-108.10279600710268"><ele>1869.0</ele><time>2026-04-25T16:42:16Z</time></trkpt><trkpt lat="36.875495259948686" lon="-108.10273511519155"><ele>1869.0</ele><time>2026-04-25T16:42:17Z</time></trkpt><trkpt lat="36.87557058303347" lon="-108.10271346449822"><ele>1869.0</ele><time>2026-04-25T16:42:18Z</time></trkpt><trkpt lat="36.87562963016086" lon="-108.10268288662583"><ele>1869.0</ele><time>2026-04-25T16:42:19Z</time></trkpt><trkpt lat="36.87571361493094" lon="-108.10265435199237"><ele>1869.0</ele><time>2026-04-25T16:42:21Z</time></trkpt><trkpt lat="36.87578883891651" lon="-108.10264505075754"><ele>1869.0</ele><time>2026-04-25T16:42:23Z</time></trkpt><trkpt lat="36.8758724865265" lon="-108.10266520308853"><ele>1869.0</ele><time>2026-04-25T16:42:38Z</time></trkpt><trkpt lat="36.87597449319955" lon="-108.10277492011785"><ele>1868.6</ele><time>2026-04-25T16:42:40Z</time></trkpt><trkpt lat="36.87603290260506" lon="-108.10286623420498"><ele>1868.2</ele><time>2026-04-25T16:42:41Z</time></trkpt><trkpt lat="36.8760834839598" lon="-108.10298857469733"><ele>1867.7999999999997</ele><time>2026-04-25T16:42:42Z</time></trkpt><trkpt lat="36.876135353324166" lon="-108.10312336847008"><ele>1867.3999999999999</ele><time>2026-04-25T16:42:43Z</time></trkpt><trkpt lat="36.876203501674084" lon="-108.10320234754643"><ele>1867.0</ele><time>2026-04-25T16:42:44Z</time></trkpt><trkpt lat="36.87624276468046" lon="-108.10330676871504"><ele>1867.0</ele><time>2026-04-25T16:42:45Z</time></trkpt><trkpt lat="36.8762814141373" lon="-108.10344178090848"><ele>1867.0</ele><time>2026-04-25T16:42:46Z</time></trkpt><trkpt lat="36.8763172892184" lon="-108.10358041816333"><ele>1867.0</ele><time>2026-04-25T16:42:47Z</time></trkpt><trkpt lat="36.876373985113744" lon="-108.10371125696119"><ele>1867.0</ele><time>2026-04-25T16:42:48Z</time></trkpt><trkpt lat="36.87645395055994" lon="-108.1038152286124"><ele>1867.0</ele><time>2026-04-25T16:42:49Z</time></trkpt><trkpt lat="36.87653011288143" lon="-108.10393395165619"><ele>1866.9999999999998</ele><time>2026-04-25T16:42:50Z</time></trkpt><trkpt lat="36.87659170019874" lon="-108.10400884938916"><ele>1866.9999999999998</ele><time>2026-04-25T16:42:51Z</time></trkpt><trkpt lat="36.87667143250459" lon="-108.10404565885784"><ele>1867.0</ele><time>2026-04-25T16:42:52Z</time></trkpt><trkpt lat="36.87674116427231" lon="-108.10406576710182"><ele>1867.0</ele><time>2026-04-25T16:42:53Z</time></trkpt><trkpt lat="36.87683872842978" lon="-108.10405959897959"><ele>1867.6666666666667</ele><time>2026-04-25T16:42:55Z</time></trkpt><trkpt lat="36.87691695606013" lon="-108.10398305798651"><ele>1868.3333333333335</ele><time>2026-04-25T16:42:57Z</time></trkpt><trkpt lat="36.87695471393184" lon="-108.10391239262978"><ele>1869.0</ele><time>2026-04-25T16:42:58Z</time></trkpt><trkpt lat="36.876981660588854" lon="-108.10382577406124"><ele>1869.6666666666665</ele><time>2026-04-25T16:42:59Z</time></trkpt><trkpt lat="36.87701595583643" lon="-108.10374385146427"><ele>1870.3333333333333</ele><time>2026-04-25T16:43:01Z</time></trkpt><trkpt lat="36.87709811748113" lon="-108.10370541818168"><ele>1871.0</ele><time>2026-04-25T16:43:02Z</time></trkpt><trkpt lat="36.87719338616289" lon="-108.10364238856941"><ele>1871.0</ele><time>2026-04-25T16:43:03Z</time></trkpt><trkpt lat="36.877269328192554" lon="-108.10356673469403"><ele>1871.0</ele><time>2026-04-25T16:43:04Z</time></trkpt><trkpt lat="36.877355753923695" lon="-108.10349934177263"><ele>1871.0</ele><time>2026-04-25T16:43:05Z</time></trkpt><trkpt lat="36.87743841754852" lon="-108.10342298170397"><ele>1871.0</ele><time>2026-04-25T16:43:06Z</time></trkpt><trkpt lat="36.877524025382606" lon="-108.10334757691102"><ele>1871.0</ele><time>2026-04-25T16:43:07Z</time></trkpt><trkpt lat="36.8776075789976" lon="-108.10330141761152"><ele>1873.25</ele><time>2026-04-25T16:43:08Z</time></trkpt><trkpt lat="36.877704684028885" lon="-108.10322745665212"><ele>1875.5</ele><time>2026-04-25T16:43:09Z</time></trkpt><trkpt lat="36.877810164144826" lon="-108.10312897354129"><ele>1877.75</ele><time>2026-04-25T16:43:10Z</time></trkpt><trkpt lat="36.87791722995129" lon="-108.10305146214512"><ele>1880.0</ele><time>2026-04-25T16:43:11Z</time></trkpt><trkpt lat="36.87800353006442" lon="-108.10296398403868"><ele>1880.0</ele><time>2026-04-25T16:43:12Z</time></trkpt><trkpt lat="36.8780609104348" lon="-108.10289899213758"><ele>1880.0</ele><time>2026-04-25T16:43:13Z</time></trkpt><trkpt lat="36.878055681889165" lon="-108.10278325640253"><ele>1880.0</ele><time>2026-04-25T16:43:15Z</time></trkpt><trkpt lat="36.87796167234118" lon="-108.10273920011377"><ele>1880.0</ele><time>2026-04-25T16:43:16Z</time></trkpt><trkpt lat="36.877852944580006" lon="-108.10268962277108"><ele>1880.0</ele><time>2026-04-25T16:43:17Z</time></trkpt><trkpt lat="36.87776051910838" lon="-108.10258980561717"><ele>1880.0</ele><time>2026-04-25T16:43:18Z</time></trkpt><trkpt lat="36.87769189867618" lon="-108.10249876077863"><ele>1880.0</ele><time>2026-04-25T16:43:19Z</time></trkpt><trkpt lat="36.87763402126925" lon="-108.10238576800923"><ele>1880.0</ele><time>2026-04-25T16:43:20Z</time></trkpt><trkpt lat="36.877576684293714" lon="-108.10227940860482"><ele>1880.0</ele><time>2026-04-25T16:43:21Z</time></trkpt><trkpt lat="36.87751485176584" lon="-108.10220352631694"><ele>1880.0</ele><time>2026-04-25T16:43:22Z</time></trkpt><trkpt lat="36.87743173264208" lon="-108.10213284179095"><ele>1880.4</ele><time>2026-04-25T16:43:23Z</time></trkpt><trkpt lat="36.877408673343716" lon="-108.10201257300855"><ele>1880.8</ele><time>2026-04-25T16:43:25Z</time></trkpt><trkpt lat="36.87745220686354" lon="-108.1019323511594"><ele>1881.1999999999998</ele><time>2026-04-25T16:43:26Z</time></trkpt><trkpt lat="36.87743307040364" lon="-108.10185439358129"><ele>1881.6</ele><time>2026-04-25T16:43:27Z</time></trkpt><trkpt lat="36.87734507008047" lon="-108.1017691436676"><ele>1882.0</ele><time>2026-04-25T16:43:28Z</time></trkpt><trkpt lat="36.87726682607749" lon="-108.10166947342141"><ele>1883.0</ele><time>2026-04-25T16:43:29Z</time></trkpt><trkpt lat="36.87719380282353" lon="-108.10156950955292"><ele>1883.9999999999998</ele><time>2026-04-25T16:43:30Z</time></trkpt><trkpt lat="36.87711251195754" lon="-108.10148125553107"><ele>1884.9999999999998</ele><time>2026-04-25T16:43:31Z</time></trkpt><trkpt lat="36.877051594995976" lon="-108.10143458091856"><ele>1886.0</ele><time>2026-04-25T16:43:32Z</time></trkpt><trkpt lat="36.87697443599329" lon="-108.10138844222959"><ele>1887.0</ele><time>2026-04-25T16:43:33Z</time></trkpt><trkpt lat="36.876905833120965" lon="-108.10129655928212"><ele>1887.0</ele><time>2026-04-25T16:43:34Z</time></trkpt><trkpt lat="36.87681545262924" lon="-108.10121891068339"><ele>1886.9999999999998</ele><time>2026-04-25T16:43:35Z</time></trkpt><trkpt lat="36.87676339275097" lon="-108.10117001491673"><ele>1886.9999999999998</ele><time>2026-04-25T16:43:36Z</time></trkpt><trkpt lat="36.87663058621858" lon="-108.10115732678517"><ele>1887.0</ele><time>2026-04-25T16:43:38Z</time></trkpt><trkpt lat="36.87652131037639" lon="-108.1011686685924"><ele>1887.0</ele><time>2026-04-25T16:43:39Z</time></trkpt><trkpt lat="36.876477672567006" lon="-108.10107621728781"><ele>1887.0</ele><time>2026-04-25T16:43:40Z</time></trkpt><trkpt lat="36.876524023041384" lon="-108.10092258631212"><ele>1887.0</ele><time>2026-04-25T16:43:42Z</time></trkpt><trkpt lat="36.87658724648621" lon="-108.1008684179955"><ele>1887.0</ele><time>2026-04-25T16:43:43Z</time></trkpt><trkpt lat="36.87666733108996" lon="-108.10087997103005"><ele>1887.0</ele><time>2026-04-25T16:43:44Z</time></trkpt><trkpt lat="36.8767392094172" lon="-108.10089372480564"><ele>1887.0</ele><time>2026-04-25T16:43:45Z</time></trkpt><trkpt lat="36.87679401799377" lon="-108.10082935498764"><ele>1887.0</ele><time>2026-04-25T16:43:47Z</time></trkpt><trkpt lat="36.876859941543415" lon="-108.100841554004"><ele>1887.0</ele><time>2026-04-25T16:43:48Z</time></trkpt><trkpt lat="36.87694901703286" lon="-108.10085884125895"><ele>1886.9999999999998</ele><time>2026-04-25T16:43:49Z</time></trkpt><trkpt lat="36.877078642792625" lon="-108.10085907406753"><ele>1886.9999999999998</ele><time>2026-04-25T16:43:50Z</time></trkpt><trkpt lat="36.87716446390158" lon="-108.10084925876302"><ele>1887.0</ele><time>2026-04-25T16:43:51Z</time></trkpt><trkpt lat="36.877238880834696" lon="-108.10079027135647"><ele>1887.0</ele><time>2026-04-25T16:43:52Z</time></trkpt><trkpt lat="36.87732976534231" lon="-108.10068858579264"><ele>1887.0</ele><time>2026-04-25T16:43:53Z</time></trkpt><trkpt lat="36.87743059765055" lon="-108.10058115052927"><ele>1886.9999999999998</ele><time>2026-04-25T16:43:54Z</time></trkpt><trkpt lat="36.877501937773644" lon="-108.10048266916671"><ele>1886.9999999999998</ele><time>2026-04-25T16:43:55Z</time></trkpt><trkpt lat="36.87754955796504" lon="-108.10040849977563"><ele>1887.0</ele><time>2026-04-25T16:43:56Z</time></trkpt><trkpt lat="36.87762867548924" lon="-108.10031800412914"><ele>1887.0</ele><time>2026-04-25T16:43:57Z</time></trkpt><trkpt lat="36.87769383873135" lon="-108.1002251774394"><ele>1887.6666666666667</ele><time>2026-04-25T16:43:58Z</time></trkpt><trkpt lat="36.87775128168418" lon="-108.1001809322221"><ele>1888.3333333333335</ele><time>2026-04-25T16:43:59Z</time></trkpt><trkpt lat="36.8778252322718" lon="-108.10017758138653"><ele>1889.0</ele><time>2026-04-25T16:44:00Z</time></trkpt><trkpt lat="36.877911191480244" lon="-108.10020677498346"><ele>1889.6666666666667</ele><time>2026-04-25T16:44:01Z</time></trkpt><trkpt lat="36.877995990915856" lon="-108.10019622386709"><ele>1890.3333333333335</ele><time>2026-04-25T16:44:02Z</time></trkpt><trkpt lat="36.87808943842311" lon="-108.10015721935203"><ele>1891.0</ele><time>2026-04-25T16:44:03Z</time></trkpt><trkpt lat="36.878167343490496" lon="-108.10012728750391"><ele>1891.0</ele><time>2026-04-25T16:44:04Z</time></trkpt><trkpt lat="36.878248286924205" lon="-108.10002084430597"><ele>1891.0</ele><time>2026-04-25T16:44:05Z</time></trkpt><trkpt lat="36.8783102583668" lon="-108.09991354788798"><ele>1891.0</ele><time>2026-04-25T16:44:06Z</time></trkpt><trkpt lat="36.87839348279867" lon="-108.09987276588832"><ele>1891.0</ele><time>2026-04-25T16:44:07Z</time></trkpt><trkpt lat="36.87844989120303" lon="-108.09969366976391"><ele>1890.75</ele><time>2026-04-25T16:44:09Z</time></trkpt><trkpt lat="36.87848554600135" lon="-108.09953620658575"><ele>1890.5</ele><time>2026-04-25T16:44:10Z</time></trkpt><trkpt lat="36.87855976169361" lon="-108.09939074239567"><ele>1890.25</ele><time>2026-04-25T16:44:11Z</time></trkpt><trkpt lat="36.87861960091224" lon="-108.0992528382821"><ele>1890.0</ele><time>2026-04-25T16:44:12Z</time></trkpt><trkpt lat="36.878668628401066" lon="-108.09917164687317"><ele>1890.0</ele><time>2026-04-25T16:44:13Z</time></trkpt><trkpt lat="36.878730881808224" lon="-108.09911611850507"><ele>1890.0</ele><time>2026-04-25T16:44:14Z</time></trkpt><trkpt lat="36.87881870418732" lon="-108.0991220942781"><ele>1890.0</ele><time>2026-04-25T16:44:15Z</time></trkpt><trkpt lat="36.87891451637346" lon="-108.09915330225415"><ele>1890.0</ele><time>2026-04-25T16:44:16Z</time></trkpt><trkpt lat="36.8790079926458" lon="-108.09918111664682"><ele>1890.0</ele><time>2026-04-25T16:44:17Z</time></trkpt><trkpt lat="36.87911791318475" lon="-108.0991799227663"><ele>1890.0</ele><time>2026-04-25T16:44:18Z</time></trkpt><trkpt lat="36.87924190800257" lon="-108.09918058720088"><ele>1890.0</ele><time>2026-04-25T16:44:19Z</time></trkpt><trkpt lat="36.8793385615845" lon="-108.09920654590819"><ele>1890.0</ele><time>2026-04-25T16:44:20Z</time></trkpt><trkpt lat="36.87941857813914" lon="-108.09920600893179"><ele>1890.0</ele><time>2026-04-25T16:44:21Z</time></trkpt><trkpt lat="36.87948165654921" lon="-108.09923405254925"><ele>1890.0</ele><time>2026-04-25T16:44:22Z</time></trkpt><trkpt lat="36.87951479985448" lon="-108.09938465095742"><ele>1888.8</ele><time>2026-04-25T16:44:24Z</time></trkpt><trkpt lat="36.87953531997496" lon="-108.0995234449376"><ele>1887.6</ele><time>2026-04-25T16:44:25Z</time></trkpt><trkpt lat="36.87955829276843" lon="-108.09962171723556"><ele>1886.4</ele><time>2026-04-25T16:44:26Z</time></trkpt><trkpt lat="36.87966525435788" lon="-108.09960347357432"><ele>1885.2</ele><time>2026-04-25T16:44:28Z</time></trkpt><trkpt lat="36.879756567583684" lon="-108.09956673828181"><ele>1884.0</ele><time>2026-04-25T16:44:29Z</time></trkpt><trkpt lat="36.87982159317163" lon="-108.09959569644376"><ele>1884.0</ele><time>2026-04-25T16:44:30Z</time></trkpt><trkpt lat="36.87991358864046" lon="-108.09965741039959"><ele>1884.0</ele><time>2026-04-25T16:44:31Z</time></trkpt><trkpt lat="36.87998316670671" lon="-108.09967565722084"><ele>1884.0</ele><time>2026-04-25T16:44:32Z</time></trkpt><trkpt lat="36.8800888881221" lon="-108.09966795697143"><ele>1884.0</ele><time>2026-04-25T16:44:34Z</time></trkpt><trkpt lat="36.88017281751976" lon="-108.09966223233133"><ele>1884.0</ele><time>2026-04-25T16:44:35Z</time></trkpt><trkpt lat="36.88026059612377" lon="-108.09966984332307"><ele>1883.6666666666667</ele><time>2026-04-25T16:44:36Z</time></trkpt><trkpt lat="36.88034787449786" lon="-108.09967202147047"><ele>1883.3333333333335</ele><time>2026-04-25T16:44:37Z</time></trkpt><trkpt lat="36.880426053253984" lon="-108.09966785749728"><ele>1883.0</ele><time>2026-04-25T16:44:38Z</time></trkpt><trkpt lat="36.8805006059989" lon="-108.09960457334562"><ele>1882.6666666666667</ele><time>2026-04-25T16:44:39Z</time></trkpt><trkpt lat="36.880575451117856" lon="-108.09956962737469"><ele>1882.3333333333335</ele><time>2026-04-25T16:44:40Z</time></trkpt><trkpt lat="36.880643173017255" lon="-108.099564247695"><ele>1882.0</ele><time>2026-04-25T16:44:41Z</time></trkpt><trkpt lat="36.88075672984238" lon="-108.09950192965364"><ele>1882.0000000000002</ele><time>2026-04-25T16:44:43Z</time></trkpt><trkpt lat="36.88083011531296" lon="-108.09943493792899"><ele>1882.0</ele><time>2026-04-25T16:44:44Z</time></trkpt><trkpt lat="36.880896110619254" lon="-108.09937603779112"><ele>1882.0</ele><time>2026-04-25T16:44:45Z</time></trkpt><trkpt lat="36.88094855988678" lon="-108.0992946717311"><ele>1882.0</ele><time>2026-04-25T16:44:46Z</time></trkpt><trkpt lat="36.88100905837319" lon="-108.09922738190906"><ele>1882.0000000000002</ele><time>2026-04-25T16:44:47Z</time></trkpt><trkpt lat="36.881082559656925" lon="-108.09920447943071"><ele>1882.0</ele><time>2026-04-25T16:44:48Z</time></trkpt><trkpt lat="36.88115497617531" lon="-108.09918890323435"><ele>1882.0000000000002</ele><time>2026-04-25T16:44:49Z</time></trkpt><trkpt lat="36.88124952248974" lon="-108.0991656234677"><ele>1882.0</ele><time>2026-04-25T16:44:50Z</time></trkpt><trkpt lat="36.881332543692686" lon="-108.09909971850585"><ele>1882.0</ele><time>2026-04-25T16:44:51Z</time></trkpt><trkpt lat="36.88139871639595" lon="-108.09903350234774"><ele>1882.0</ele><time>2026-04-25T16:44:52Z</time></trkpt><trkpt lat="36.881439410698256" lon="-108.09897278200249"><ele>1882.0000000000002</ele><time>2026-04-25T16:44:53Z</time></trkpt><trkpt lat="36.88151195838863" lon="-108.0989232021831"><ele>1882.0</ele><time>2026-04-25T16:44:54Z</time></trkpt><trkpt lat="36.88160038344461" lon="-108.0989176415937"><ele>1881.25</ele><time>2026-04-25T16:44:55Z</time></trkpt><trkpt lat="36.88170196817698" lon="-108.09890014049863"><ele>1880.5</ele><time>2026-04-25T16:44:56Z</time></trkpt><trkpt lat="36.88180407490299" lon="-108.09896592720594"><ele>1879.75</ele><time>2026-04-25T16:44:58Z</time></trkpt><trkpt lat="36.88188439322784" lon="-108.0991071708493"><ele>1879.0</ele><time>2026-04-25T16:44:59Z</time></trkpt><trkpt lat="36.88196431046982" lon="-108.09920954888202"><ele>1877.8000000000002</ele><time>2026-04-25T16:45:00Z</time></trkpt><trkpt lat="36.88204465482803" lon="-108.09919416523053"><ele>1876.6000000000001</ele><time>2026-04-25T16:45:01Z</time></trkpt><trkpt lat="36.882136946859625" lon="-108.09916049782878"><ele>1875.4</ele><time>2026-04-25T16:45:02Z</time></trkpt><trkpt lat="36.882215162043416" lon="-108.09914301497199"><ele>1874.2</ele><time>2026-04-25T16:45:03Z</time></trkpt><trkpt lat="36.88229211928932" lon="-108.09917103179811"><ele>1873.0</ele><time>2026-04-25T16:45:04Z</time></trkpt><trkpt lat="36.88241024757431" lon="-108.09920072189308"><ele>1873.0000000000002</ele><time>2026-04-25T16:45:06Z</time></trkpt><trkpt lat="36.8825009719397" lon="-108.09921543725635"><ele>1873.0</ele><time>2026-04-25T16:45:08Z</time></trkpt><trkpt lat="36.88256850212373" lon="-108.09915827255239"><ele>1873.0</ele><time>2026-04-25T16:45:30Z</time></trkpt><trkpt lat="36.8826608781023" lon="-108.09915981810884"><ele>1873.0</ele><time>2026-04-25T16:45:32Z</time></trkpt><trkpt lat="36.88272362969004" lon="-108.09921874647084"><ele>1873.0000000000002</ele><time>2026-04-25T16:45:33Z</time></trkpt><trkpt lat="36.88278194929073" lon="-108.09931049810704"><ele>1873.0</ele><time>2026-04-25T16:45:34Z</time></trkpt><trkpt lat="36.88284094446675" lon="-108.09939525454273"><ele>1871.8000000000002</ele><time>2026-04-25T16:45:35Z</time></trkpt><trkpt lat="36.88290710990382" lon="-108.09948802750192"><ele>1870.6000000000001</ele><time>2026-04-25T16:45:36Z</time></trkpt><trkpt lat="36.882953040601194" lon="-108.09964216421855"><ele>1869.3999999999999</ele><time>2026-04-25T16:45:37Z</time></trkpt><trkpt lat="36.88300566394195" lon="-108.09974413497686"><ele>1868.1999999999998</ele><time>2026-04-25T16:45:38Z</time></trkpt><trkpt lat="36.88310813384746" lon="-108.0998012584295"><ele>1867.0</ele><time>2026-04-25T16:45:39Z</time></trkpt><trkpt lat="36.883227025164445" lon="-108.09984616758166"><ele>1867.0</ele><time>2026-04-25T16:45:40Z</time></trkpt><trkpt lat="36.883361590163645" lon="-108.0998844918862"><ele>1866.9999999999998</ele><time>2026-04-25T16:45:41Z</time></trkpt><trkpt lat="36.88348198643736" lon="-108.09993771422194"><ele>1866.9999999999998</ele><time>2026-04-25T16:45:42Z</time></trkpt><trkpt lat="36.88357047559537" lon="-108.09997470072697"><ele>1867.0</ele><time>2026-04-25T16:45:43Z</time></trkpt><trkpt lat="36.88361654089229" lon="-108.10002896346006"><ele>1867.0</ele><time>2026-04-25T16:45:45Z</time></trkpt><trkpt lat="36.883610864714136" lon="-108.10017239855377"><ele>1865.75</ele><time>2026-04-25T16:45:46Z</time></trkpt><trkpt lat="36.883652475085725" lon="-108.10032031875585"><ele>1864.5</ele><time>2026-04-25T16:45:47Z</time></trkpt><trkpt lat="36.88372300200427" lon="-108.10044594112259"><ele>1863.25</ele><time>2026-04-25T16:45:48Z</time></trkpt><trkpt lat="36.88376563575997" lon="-108.10060449972363"><ele>1862.0</ele><time>2026-04-25T16:45:49Z</time></trkpt><trkpt lat="36.883810176804495" lon="-108.10070829225967"><ele>1861.6</ele><time>2026-04-25T16:45:50Z</time></trkpt><trkpt lat="36.88389054025281" lon="-108.10077939846624"><ele>1861.1999999999998</ele><time>2026-04-25T16:45:51Z</time></trkpt><trkpt lat="36.88395987782122" lon="-108.1008301495696"><ele>1860.8</ele><time>2026-04-25T16:45:52Z</time></trkpt><trkpt lat="36.88398791099611" lon="-108.1009104805934"><ele>1860.4</ele><time>2026-04-25T16:45:53Z</time></trkpt><trkpt lat="36.88401231133179" lon="-108.1010293276677"><ele>1860.0</ele><time>2026-04-25T16:45:54Z</time></trkpt><trkpt lat="36.88409608092753" lon="-108.10115102870677"><ele>1860.0</ele><time>2026-04-25T16:45:55Z</time></trkpt><trkpt lat="36.88418474910187" lon="-108.10124670972515"><ele>1860.0</ele><time>2026-04-25T16:45:56Z</time></trkpt><trkpt lat="36.88425309325758" lon="-108.10132527882523"><ele>1860.0</ele><time>2026-04-25T16:45:57Z</time></trkpt><trkpt lat="36.88432949008233" lon="-108.10136781994805"><ele>1860.0</ele><time>2026-04-25T16:45:58Z</time></trkpt><trkpt lat="36.88438422216596" lon="-108.10142555645426"><ele>1860.0</ele><time>2026-04-25T16:45:59Z</time></trkpt><trkpt lat="36.8844253843185" lon="-108.10149151321882"><ele>1860.0</ele><time>2026-04-25T16:46:00Z</time></trkpt><trkpt lat="36.8844896750968" lon="-108.10159031424396"><ele>1858.5</ele><time>2026-04-25T16:46:01Z</time></trkpt><trkpt lat="36.88458461035372" lon="-108.10161546735846"><ele>1857.0</ele><time>2026-04-25T16:46:02Z</time></trkpt><trkpt lat="36.88471979633604" lon="-108.1016561534948"><ele>1855.5</ele><time>2026-04-25T16:46:03Z</time></trkpt><trkpt lat="36.884861671030556" lon="-108.10168960023098"><ele>1854.0</ele><time>2026-04-25T16:46:04Z</time></trkpt><trkpt lat="36.88495803161346" lon="-108.10170494304973"><ele>1854.0</ele><time>2026-04-25T16:46:05Z</time></trkpt><trkpt lat="36.885070375923156" lon="-108.10170167827651"><ele>1854.0</ele><time>2026-04-25T16:46:07Z</time></trkpt><trkpt lat="36.8851783244984" lon="-108.10183769745139"><ele>1854.0</ele><time>2026-04-25T16:46:09Z</time></trkpt><trkpt lat="36.885250415894376" lon="-108.10191096149822"><ele>1854.0</ele><time>2026-04-25T16:46:10Z</time></trkpt><trkpt lat="36.88535609279847" lon="-108.1019690919111"><ele>1854.0</ele><time>2026-04-25T16:46:11Z</time></trkpt><trkpt lat="36.88545532634492" lon="-108.10196787789434"><ele>1854.0</ele><time>2026-04-25T16:46:12Z</time></trkpt><trkpt lat="36.885533080096934" lon="-108.10199188529293"><ele>1854.0</ele><time>2026-04-25T16:46:13Z</time></trkpt><trkpt lat="36.885594941491966" lon="-108.10203774510657"><ele>1854.0</ele><time>2026-04-25T16:46:14Z</time></trkpt><trkpt lat="36.885667602253235" lon="-108.10212394479254"><ele>1854.0</ele><time>2026-04-25T16:46:15Z</time></trkpt><trkpt lat="36.88574138733713" lon="-108.10224795772116"><ele>1854.0</ele><time>2026-04-25T16:46:16Z</time></trkpt><trkpt lat="36.88577103096929" lon="-108.10238275977906"><ele>1854.0</ele><time>2026-04-25T16:46:17Z</time></trkpt><trkpt lat="36.88579419980383" lon="-108.10253694920274"><ele>1854.0</ele><time>2026-04-25T16:46:18Z</time></trkpt><trkpt lat="36.88583677856197" lon="-108.10267453707382"><ele>1854.0</ele><time>2026-04-25T16:46:19Z</time></trkpt><trkpt lat="36.88587562741141" lon="-108.10279240770667"><ele>1853.5714285714284</ele><time>2026-04-25T16:46:20Z</time></trkpt><trkpt lat="36.885916692460086" lon="-108.10289455185166"><ele>1853.142857142857</ele><time>2026-04-25T16:46:21Z</time></trkpt><trkpt lat="36.88595148292738" lon="-108.10298642009701"><ele>1852.7142857142858</ele><time>2026-04-25T16:46:22Z</time></trkpt><trkpt lat="36.885977513832444" lon="-108.103065711259"><ele>1852.2857142857142</ele><time>2026-04-25T16:46:23Z</time></trkpt><trkpt lat="36.88599623185241" lon="-108.10315208403078"><ele>1851.8571428571431</ele><time>2026-04-25T16:46:24Z</time></trkpt><trkpt lat="36.88601187369256" lon="-108.10323303796815"><ele>1851.4285714285716</ele><time>2026-04-25T16:46:25Z</time></trkpt><trkpt lat="36.88603602044464" lon="-108.10330768197993"><ele>1851.0</ele><time>2026-04-25T16:46:26Z</time></trkpt><trkpt lat="36.88606835182144" lon="-108.10339396424071"><ele>1850.1666666666667</ele><time>2026-04-25T16:46:27Z</time></trkpt><trkpt lat="36.88610421325506" lon="-108.10348792300452"><ele>1849.3333333333335</ele><time>2026-04-25T16:46:28Z</time></trkpt><trkpt lat="36.886138205467425" lon="-108.10357847550857"><ele>1848.5</ele><time>2026-04-25T16:46:29Z</time></trkpt><trkpt lat="36.88617757276461" lon="-108.1036682163621"><ele>1847.6666666666667</ele><time>2026-04-25T16:46:30Z</time></trkpt><trkpt lat="36.886211644697866" lon="-108.10374599793411"><ele>1846.8333333333335</ele><time>2026-04-25T16:46:31Z</time></trkpt><trkpt lat="36.88624140763822" lon="-108.10382929494429"><ele>1846.0</ele><time>2026-04-25T16:46:32Z</time></trkpt><trkpt lat="36.8862570408941" lon="-108.10391218572823"><ele>1846.0</ele><time>2026-04-25T16:46:33Z</time></trkpt><trkpt lat="36.88624383250632" lon="-108.10406482591405"><ele>1846.0</ele><time>2026-04-25T16:46:35Z</time></trkpt><trkpt lat="36.886167915132724" lon="-108.10416199668494"><ele>1846.0</ele><time>2026-04-25T16:46:37Z</time></trkpt><trkpt lat="36.88607645539959" lon="-108.10424291321146"><ele>1846.0</ele><time>2026-04-25T16:46:39Z</time></trkpt><trkpt lat="36.88614021100965" lon="-108.10438458076736"><ele>1845.5000000000002</ele><time>2026-04-25T16:46:41Z</time></trkpt><trkpt lat="36.88617603307664" lon="-108.10447994345883"><ele>1845.0</ele><time>2026-04-25T16:46:42Z</time></trkpt><trkpt lat="36.886199186940196" lon="-108.10457408106096"><ele>1844.5</ele><time>2026-04-25T16:46:43Z</time></trkpt><trkpt lat="36.886255958839314" lon="-108.10464060758976"><ele>1844.0</ele><time>2026-04-25T16:46:44Z</time></trkpt><trkpt lat="36.88633944700704" lon="-108.10466812827887"><ele>1843.5000000000002</ele><time>2026-04-25T16:46:46Z</time></trkpt><trkpt lat="36.88642335771593" lon="-108.1046669955681"><ele>1843.0</ele><time>2026-04-25T16:46:47Z</time></trkpt><trkpt lat="36.88650646322892" lon="-108.10467355603917"><ele>1843.0</ele><time>2026-04-25T16:46:48Z</time></trkpt><trkpt lat="36.886582594220044" lon="-108.10469662301429"><ele>1843.0000000000002</ele><time>2026-04-25T16:46:49Z</time></trkpt><trkpt lat="36.886672893441855" lon="-108.1047099869455"><ele>1843.0000000000002</ele><time>2026-04-25T16:46:50Z</time></trkpt><trkpt lat="36.88678221813503" lon="-108.10474921365258"><ele>1843.0</ele><time>2026-04-25T16:46:51Z</time></trkpt><trkpt lat="36.88687850412748" lon="-108.10486862899099"><ele>1843.0</ele><time>2026-04-25T16:46:52Z</time></trkpt><trkpt lat="36.88695919553014" lon="-108.10501568336284"><ele>1844.75</ele><time>2026-04-25T16:46:53Z</time></trkpt><trkpt lat="36.88706952643753" lon="-108.1051320860682"><ele>1846.5</ele><time>2026-04-25T16:46:54Z</time></trkpt><trkpt lat="36.88720238358519" lon="-108.10522186735004"><ele>1848.25</ele><time>2026-04-25T16:46:55Z</time></trkpt><trkpt lat="36.887328920038264" lon="-108.1053039487588"><ele>1850.0</ele><time>2026-04-25T16:46:56Z</time></trkpt><trkpt lat="36.88743677675978" lon="-108.10536779615788"><ele>1850.0</ele><time>2026-04-25T16:46:57Z</time></trkpt><trkpt lat="36.88752071559169" lon="-108.10545372650428"><ele>1850.0</ele><time>2026-04-25T16:46:58Z</time></trkpt><trkpt lat="36.88760965129409" lon="-108.10558392673329"><ele>1850.0</ele><time>2026-04-25T16:46:59Z</time></trkpt><trkpt lat="36.887704844883594" lon="-108.10568593780401"><ele>1850.0</ele><time>2026-04-25T16:47:00Z</time></trkpt><trkpt lat="36.8877982565049" lon="-108.10576210500447"><ele>1851.0</ele><time>2026-04-25T16:47:01Z</time></trkpt><trkpt lat="36.88787255927631" lon="-108.10578374105134"><ele>1852.0</ele><time>2026-04-25T16:47:02Z</time></trkpt><trkpt lat="36.887972344614774" lon="-108.10574034822429"><ele>1853.0</ele><time>2026-04-25T16:47:04Z</time></trkpt><trkpt lat="36.88810132659037" lon="-108.10587595498382"><ele>1854.0</ele><time>2026-04-25T16:47:06Z</time></trkpt><trkpt lat="36.88818513792761" lon="-108.10592345785753"><ele>1855.0</ele><time>2026-04-25T16:47:07Z</time></trkpt><trkpt lat="36.88826434480726" lon="-108.10589567046837"><ele>1855.8</ele><time>2026-04-25T16:47:08Z</time></trkpt><trkpt lat="36.8883703152755" lon="-108.10579068923246"><ele>1856.6</ele><time>2026-04-25T16:47:09Z</time></trkpt><trkpt lat="36.888454554789284" lon="-108.10571103157626"><ele>1857.4</ele><time>2026-04-25T16:47:10Z</time></trkpt><trkpt lat="36.888545234560404" lon="-108.105622283602"><ele>1858.2</ele><time>2026-04-25T16:47:11Z</time></trkpt><trkpt lat="36.88863043725716" lon="-108.1055891478021"><ele>1859.0</ele><time>2026-04-25T16:47:12Z</time></trkpt><trkpt lat="36.88873856744069" lon="-108.10558518032265"><ele>1858.9999999999998</ele><time>2026-04-25T16:47:13Z</time></trkpt><trkpt lat="36.888833713554575" lon="-108.10560785906033"><ele>1859.0</ele><time>2026-04-25T16:47:14Z</time></trkpt><trkpt lat="36.88889189720682" lon="-108.10568579366524"><ele>1859.0</ele><time>2026-04-25T16:47:15Z</time></trkpt><trkpt lat="36.88898546852177" lon="-108.10569613608554"><ele>1859.0</ele><time>2026-04-25T16:47:17Z</time></trkpt><trkpt lat="36.889054051371374" lon="-108.10571223230875"><ele>1858.9999999999998</ele><time>2026-04-25T16:47:18Z</time></trkpt><trkpt lat="36.889129783823165" lon="-108.10573247137629"><ele>1859.0</ele><time>2026-04-25T16:47:19Z</time></trkpt><trkpt lat="36.88918032969423" lon="-108.10578540812045"><ele>1860.0</ele><time>2026-04-25T16:47:20Z</time></trkpt><trkpt lat="36.889272375757486" lon="-108.10584995141728"><ele>1861.0</ele><time>2026-04-25T16:47:21.999Z</time></trkpt><trkpt lat="36.88935692077019" lon="-108.10590453152778"><ele>1862.0</ele><time>2026-04-25T16:47:23.999Z</time></trkpt><trkpt lat="36.88942330987811" lon="-108.10596981028525"><ele>1863.0</ele><time>2026-04-25T16:47:24.999Z</time></trkpt><trkpt lat="36.889523751531314" lon="-108.1060286410581"><ele>1864.0</ele><time>2026-04-25T16:47:26.999Z</time></trkpt><trkpt lat="36.88958694156993" lon="-108.1060567226945"><ele>1864.0</ele><time>2026-04-25T16:47:28.999Z</time></trkpt><trkpt lat="36.889787710945384" lon="-108.10619274315356"><ele>1864.0</ele><time>2026-04-25T16:47:31.999Z</time></trkpt><trkpt lat="36.88982666194455" lon="-108.10626933125826"><ele>1864.0</ele><time>2026-04-25T16:47:32.999Z</time></trkpt><trkpt lat="36.889870221217876" lon="-108.10634925086696"><ele>1864.0</ele><time>2026-04-25T16:47:33.999Z</time></trkpt><trkpt lat="36.88992803665168" lon="-108.10643406022321"><ele>1864.0000000000002</ele><time>2026-04-25T16:47:34.999Z</time></trkpt><trkpt lat="36.88998474765185" lon="-108.10651774414791"><ele>1864.0</ele><time>2026-04-25T16:47:35.999Z</time></trkpt><trkpt lat="36.890046935921696" lon="-108.10659102476733"><ele>1864.0</ele><time>2026-04-25T16:47:36.999Z</time></trkpt><trkpt lat="36.89010378939393" lon="-108.10665160927009"><ele>1864.0</ele><time>2026-04-25T16:47:37.999Z</time></trkpt><trkpt lat="36.89018156475583" lon="-108.10668348921274"><ele>1864.0000000000002</ele><time>2026-04-25T16:47:38.999Z</time></trkpt><trkpt lat="36.89025103441193" lon="-108.1067487140679"><ele>1864.0</ele><time>2026-04-25T16:47:39.999Z</time></trkpt><trkpt lat="36.89032254816144" lon="-108.10680432085489"><ele>1865.0</ele><time>2026-04-25T16:47:40.999Z</time></trkpt><trkpt lat="36.8903884458842" lon="-108.10685277348085"><ele>1866.0</ele><time>2026-04-25T16:47:41.999Z</time></trkpt><trkpt lat="36.890459169412665" lon="-108.10689523065076"><ele>1867.0</ele><time>2026-04-25T16:47:42.999Z</time></trkpt><trkpt lat="36.89052025027492" lon="-108.10695663924957"><ele>1868.0</ele><time>2026-04-25T16:47:43.999Z</time></trkpt><trkpt lat="36.890603899010664" lon="-108.10705200105863"><ele>1869.0</ele><time>2026-04-25T16:47:44.999Z</time></trkpt><trkpt lat="36.89067164999326" lon="-108.10715687709403"><ele>1869.0</ele><time>2026-04-25T16:47:45.999Z</time></trkpt><trkpt lat="36.89074279608589" lon="-108.1072962049809"><ele>1869.0</ele><time>2026-04-25T16:47:46.999Z</time></trkpt><trkpt lat="36.890782581185846" lon="-108.1074708359191"><ele>1869.0</ele><time>2026-04-25T16:47:47.999Z</time></trkpt><trkpt lat="36.89082615969916" lon="-108.10762758322772"><ele>1869.0</ele><time>2026-04-25T16:47:48.999Z</time></trkpt><trkpt lat="36.89087649031934" lon="-108.10776457393445"><ele>1870.0</ele><time>2026-04-25T16:47:49.999Z</time></trkpt><trkpt lat="36.89092355386429" lon="-108.10786749801147"><ele>1871.0</ele><time>2026-04-25T16:47:50.999Z</time></trkpt><trkpt lat="36.891021105175284" lon="-108.10785075758633"><ele>1872.0</ele><time>2026-04-25T16:47:52.999Z</time></trkpt><trkpt lat="36.89109636608945" lon="-108.10781125991248"><ele>1873.0</ele><time>2026-04-25T16:47:53.999Z</time></trkpt><trkpt lat="36.891180621387775" lon="-108.10779826733393"><ele>1874.0</ele><time>2026-04-25T16:47:54.999Z</time></trkpt><trkpt lat="36.89125100504738" lon="-108.10786880519898"><ele>1873.9999999999998</ele><time>2026-04-25T16:47:56.999Z</time></trkpt><trkpt lat="36.891288253328135" lon="-108.10793675865865"><ele>1874.0</ele><time>2026-04-25T16:48:06.999Z</time></trkpt><trkpt lat="36.891349206737" lon="-108.10802859907704"><ele>1874.0</ele><time>2026-04-25T16:48:07.999Z</time></trkpt><trkpt lat="36.891393935859455" lon="-108.10810045059625"><ele>1874.0</ele><time>2026-04-25T16:48:08.999Z</time></trkpt><trkpt lat="36.89144856075354" lon="-108.10816722086864"><ele>1873.9999999999998</ele><time>2026-04-25T16:48:09.999Z</time></trkpt><trkpt lat="36.89153698807894" lon="-108.1082325813307"><ele>1874.0</ele><time>2026-04-25T16:48:10.999Z</time></trkpt><trkpt lat="36.89161092487807" lon="-108.10829306847623"><ele>1874.2</ele><time>2026-04-25T16:48:11.999Z</time></trkpt><trkpt lat="36.89163333624224" lon="-108.10839220590024"><ele>1874.4</ele><time>2026-04-25T16:48:12.999Z</time></trkpt><trkpt lat="36.891654541184" lon="-108.10850334376805"><ele>1874.6</ele><time>2026-04-25T16:48:13.999Z</time></trkpt><trkpt lat="36.8917033942344" lon="-108.1086479121316"><ele>1874.8</ele><time>2026-04-25T16:48:14.999Z</time></trkpt><trkpt lat="36.89175652166122" lon="-108.10877495052439"><ele>1875.0</ele><time>2026-04-25T16:48:15.999Z</time></trkpt><trkpt lat="36.891817398905374" lon="-108.10888874360917"><ele>1875.2</ele><time>2026-04-25T16:48:16.999Z</time></trkpt><trkpt lat="36.89188947040851" lon="-108.10899640863394"><ele>1875.4</ele><time>2026-04-25T16:48:17.999Z</time></trkpt><trkpt lat="36.89190610340496" lon="-108.10909013897447"><ele>1875.6</ele><time>2026-04-25T16:48:18.999Z</time></trkpt><trkpt lat="36.89191171006056" lon="-108.10920025024745"><ele>1875.8</ele><time>2026-04-25T16:48:19.999Z</time></trkpt><trkpt lat="36.8919336615573" lon="-108.10932280385373"><ele>1876.0</ele><time>2026-04-25T16:48:20.999Z</time></trkpt><trkpt lat="36.89199831880986" lon="-108.10942774248863"><ele>1877.0</ele><time>2026-04-25T16:48:21.999Z</time></trkpt><trkpt lat="36.89207639161447" lon="-108.10955008749401"><ele>1878.0</ele><time>2026-04-25T16:48:22.999Z</time></trkpt><trkpt lat="36.8921788328868" lon="-108.10963279933482"><ele>1879.0</ele><time>2026-04-25T16:48:23.999Z</time></trkpt><trkpt lat="36.89225962887676" lon="-108.10969100934076"><ele>1880.0</ele><time>2026-04-25T16:48:24.999Z</time></trkpt><trkpt lat="36.89226189743549" lon="-108.10977409458032"><ele>1881.0</ele><time>2026-04-25T16:48:25.999Z</time></trkpt><trkpt lat="36.89221410440209" lon="-108.10984731427502"><ele>1882.8</ele><time>2026-04-25T16:48:26.999Z</time></trkpt><trkpt lat="36.89217584447661" lon="-108.10993952557703"><ele>1884.6</ele><time>2026-04-25T16:48:27.999Z</time></trkpt><trkpt lat="36.892145269272866" lon="-108.11004472001935"><ele>1886.4</ele><time>2026-04-25T16:48:28.999Z</time></trkpt><trkpt lat="36.89218222734581" lon="-108.11021096644832"><ele>1888.2</ele><time>2026-04-25T16:48:30.999Z</time></trkpt><trkpt lat="36.89220246158026" lon="-108.11035358094196"><ele>1890.0</ele><time>2026-04-25T16:48:31.999Z</time></trkpt><trkpt lat="36.89217396561002" lon="-108.11049836842851"><ele>1890.0</ele><time>2026-04-25T16:48:32.999Z</time></trkpt><trkpt lat="36.89219460048298" lon="-108.11058997604233"><ele>1890.0</ele><time>2026-04-25T16:48:33.999Z</time></trkpt><trkpt lat="36.89235227503419" lon="-108.11060112032482"><ele>1890.0</ele><time>2026-04-25T16:48:35.999Z</time></trkpt><trkpt lat="36.89244811216516" lon="-108.11059820625243"><ele>1890.0</ele><time>2026-04-25T16:48:36.999Z</time></trkpt><trkpt lat="36.89251652087766" lon="-108.11055408604803"><ele>1890.0</ele><time>2026-04-25T16:48:37.999Z</time></trkpt><trkpt lat="36.892611188622" lon="-108.11053697525324"><ele>1890.0</ele><time>2026-04-25T16:48:38.999Z</time></trkpt><trkpt lat="36.892719462873885" lon="-108.11059933864212"><ele>1890.0</ele><time>2026-04-25T16:48:39.999Z</time></trkpt><trkpt lat="36.8927874067628" lon="-108.11066180679957"><ele>1890.0</ele><time>2026-04-25T16:48:40.999Z</time></trkpt><trkpt lat="36.892815593659456" lon="-108.11074903407741"><ele>1890.0</ele><time>2026-04-25T16:48:41.999Z</time></trkpt><trkpt lat="36.8928875308877" lon="-108.11082249187444"><ele>1890.0</ele><time>2026-04-25T16:48:42.999Z</time></trkpt><trkpt lat="36.89295505164592" lon="-108.1107933362899"><ele>1890.0</ele><time>2026-04-25T16:48:43.999Z</time></trkpt><trkpt lat="36.8930182967224" lon="-108.11072063426634"><ele>1890.0</ele><time>2026-04-25T16:48:44.999Z</time></trkpt><trkpt lat="36.89312140281354" lon="-108.11068578829834"><ele>1890.0</ele><time>2026-04-25T16:48:45.999Z</time></trkpt><trkpt lat="36.89324081220235" lon="-108.11070747383373"><ele>1890.0</ele><time>2026-04-25T16:48:46.999Z</time></trkpt><trkpt lat="36.89332063182538" lon="-108.11076205609484"><ele>1890.0</ele><time>2026-04-25T16:48:47.999Z</time></trkpt><trkpt lat="36.8934739683089" lon="-108.11075283277418"><ele>1890.1666666666667</ele><time>2026-04-25T16:48:49.999Z</time></trkpt><trkpt lat="36.89356387371912" lon="-108.1107144564425"><ele>1890.3333333333335</ele><time>2026-04-25T16:48:50.999Z</time></trkpt><trkpt lat="36.893643168657924" lon="-108.11070367746905"><ele>1890.5</ele><time>2026-04-25T16:48:51.999Z</time></trkpt><trkpt lat="36.893725272693764" lon="-108.11064626073491"><ele>1890.6666666666667</ele><time>2026-04-25T16:48:52.999Z</time></trkpt><trkpt lat="36.893801619921625" lon="-108.11056502202177"><ele>1890.8333333333335</ele><time>2026-04-25T16:48:53.999Z</time></trkpt><trkpt lat="36.893871666924625" lon="-108.11055240100936"><ele>1891.0</ele><time>2026-04-25T16:48:54.999Z</time></trkpt><trkpt lat="36.893936705414276" lon="-108.11053154629707"><ele>1891.0</ele><time>2026-04-25T16:48:55.999Z</time></trkpt><trkpt lat="36.89404735954304" lon="-108.11041485448122"><ele>1891.0</ele><time>2026-04-25T16:48:56.999Z</time></trkpt><trkpt lat="36.89414202166772" lon="-108.11035400278051"><ele>1891.0</ele><time>2026-04-25T16:48:57.999Z</time></trkpt><trkpt lat="36.89421375328187" lon="-108.11032474110235"><ele>1891.0</ele><time>2026-04-25T16:48:58.999Z</time></trkpt><trkpt lat="36.894255021222726" lon="-108.11021941629656"><ele>1891.0</ele><time>2026-04-25T16:48:59.999Z</time></trkpt><trkpt lat="36.89428232077772" lon="-108.11010130141453"><ele>1891.0</ele><time>2026-04-25T16:49:00.999Z</time></trkpt><trkpt lat="36.89433291817542" lon="-108.11003568380822"><ele>1891.0</ele><time>2026-04-25T16:49:01.999Z</time></trkpt><trkpt lat="36.89445056622597" lon="-108.1099662528948"><ele>1891.0</ele><time>2026-04-25T16:49:02.999Z</time></trkpt><trkpt lat="36.89452197401154" lon="-108.10988532285664"><ele>1891.0</ele><time>2026-04-25T16:49:03.999Z</time></trkpt><trkpt lat="36.89458331605479" lon="-108.10977413817768"><ele>1891.0</ele><time>2026-04-25T16:49:04.999Z</time></trkpt><trkpt lat="36.89464820741289" lon="-108.10967104948227"><ele>1891.3333333333335</ele><time>2026-04-25T16:49:05.999Z</time></trkpt><trkpt lat="36.89469672039057" lon="-108.10959024502773"><ele>1891.6666666666667</ele><time>2026-04-25T16:49:06.999Z</time></trkpt><trkpt lat="36.89476158929207" lon="-108.10956648647132"><ele>1892.0</ele><time>2026-04-25T16:49:07.999Z</time></trkpt><trkpt lat="36.894844040049556" lon="-108.10957831244914"><ele>1892.3333333333335</ele><time>2026-04-25T16:49:08.999Z</time></trkpt><trkpt lat="36.894968114084456" lon="-108.10959923694377"><ele>1892.6666666666667</ele><time>2026-04-25T16:49:09.999Z</time></trkpt><trkpt lat="36.89503816664056" lon="-108.10962293448951"><ele>1893.0</ele><time>2026-04-25T16:49:10.999Z</time></trkpt><trkpt lat="36.89512781195553" lon="-108.10968588998486"><ele>1893.0</ele><time>2026-04-25T16:49:11.999Z</time></trkpt><trkpt lat="36.8952548370514" lon="-108.10974062838937"><ele>1893.0000000000002</ele><time>2026-04-25T16:49:12.999Z</time></trkpt><trkpt lat="36.89534627474864" lon="-108.1097080660015"><ele>1893.0000000000002</ele><time>2026-04-25T16:49:13.999Z</time></trkpt><trkpt lat="36.89539999528227" lon="-108.10960906844637"><ele>1893.0</ele><time>2026-04-25T16:49:14.999Z</time></trkpt><trkpt lat="36.89547735116645" lon="-108.10951358440951"><ele>1893.0</ele><time>2026-04-25T16:49:16.999Z</time></trkpt><trkpt lat="36.89554761624878" lon="-108.10941533105637"><ele>1893.0</ele><time>2026-04-25T16:49:17.999Z</time></trkpt><trkpt lat="36.89563148745098" lon="-108.10934326056706"><ele>1893.0000000000002</ele><time>2026-04-25T16:49:18.999Z</time></trkpt><trkpt lat="36.895714088390115" lon="-108.10930802464812"><ele>1893.0000000000002</ele><time>2026-04-25T16:49:19.999Z</time></trkpt><trkpt lat="36.89574110558613" lon="-108.10918923709595"><ele>1893.0</ele><time>2026-04-25T16:49:20.999Z</time></trkpt><trkpt lat="36.895745250684" lon="-108.10902844306763"><ele>1893.0</ele><time>2026-04-25T16:49:21.999Z</time></trkpt><trkpt lat="36.89578646498142" lon="-108.10890464589446"><ele>1893.2</ele><time>2026-04-25T16:49:22.999Z</time></trkpt><trkpt lat="36.89590208989557" lon="-108.10885575550728"><ele>1893.4</ele><time>2026-04-25T16:49:23.999Z</time></trkpt><trkpt lat="36.89599683020755" lon="-108.1088326252489"><ele>1893.6000000000001</ele><time>2026-04-25T16:49:24.999Z</time></trkpt><trkpt lat="36.8960533950506" lon="-108.10874140360285"><ele>1893.8000000000002</ele><time>2026-04-25T16:49:25.999Z</time></trkpt><trkpt lat="36.896114613907876" lon="-108.10866387812992"><ele>1894.0</ele><time>2026-04-25T16:49:26.999Z</time></trkpt><trkpt lat="36.89616878581717" lon="-108.10860213037819"><ele>1894.3333333333335</ele><time>2026-04-25T16:49:27.999Z</time></trkpt><trkpt lat="36.89623821196517" lon="-108.10853686515024"><ele>1894.6666666666667</ele><time>2026-04-25T16:49:28.999Z</time></trkpt><trkpt lat="36.896322544857384" lon="-108.10858559006202"><ele>1895.0</ele><time>2026-04-25T16:49:29.999Z</time></trkpt><trkpt lat="36.896422018185774" lon="-108.10857513270145"><ele>1895.3333333333335</ele><time>2026-04-25T16:49:30.999Z</time></trkpt><trkpt lat="36.89650063554832" lon="-108.10855999405393"><ele>1895.6666666666667</ele><time>2026-04-25T16:49:31.999Z</time></trkpt><trkpt lat="36.89658745277101" lon="-108.10858591468984"><ele>1896.0</ele><time>2026-04-25T16:49:32.999Z</time></trkpt><trkpt lat="36.89666621748711" lon="-108.10857792024062"><ele>1896.0</ele><time>2026-04-25T16:49:33.999Z</time></trkpt><trkpt lat="36.89672842492488" lon="-108.10848491745244"><ele>1896.0</ele><time>2026-04-25T16:49:34.999Z</time></trkpt><trkpt lat="36.896802310953085" lon="-108.1084083252643"><ele>1896.0</ele><time>2026-04-25T16:49:35.999Z</time></trkpt><trkpt lat="36.896900426476286" lon="-108.10835286096953"><ele>1896.0</ele><time>2026-04-25T16:49:36.999Z</time></trkpt><trkpt lat="36.89697239761144" lon="-108.1083052198807"><ele>1896.0</ele><time>2026-04-25T16:49:37.999Z</time></trkpt><trkpt lat="36.897001233414194" lon="-108.10810796299165"><ele>1895.0</ele><time>2026-04-25T16:49:39.999Z</time></trkpt><trkpt lat="36.89701421151314" lon="-108.10797353008364"><ele>1894.0</ele><time>2026-04-25T16:49:40.999Z</time></trkpt><trkpt lat="36.89702797011765" lon="-108.1078721613582"><ele>1893.0</ele><time>2026-04-25T16:49:41.999Z</time></trkpt><trkpt lat="36.897011069773974" lon="-108.10778576860041"><ele>1892.0</ele><time>2026-04-25T16:49:42.999Z</time></trkpt><trkpt lat="36.89704575930706" lon="-108.10769491668877"><ele>1891.0</ele><time>2026-04-25T16:49:43.999Z</time></trkpt><trkpt lat="36.897120069775276" lon="-108.10760387645269"><ele>1890.0</ele><time>2026-04-25T16:49:44.999Z</time></trkpt><trkpt lat="36.8971595463399" lon="-108.10750116576759"><ele>1890.8</ele><time>2026-04-25T16:49:45.999Z</time></trkpt><trkpt lat="36.89717649097553" lon="-108.10737509140833"><ele>1891.6</ele><time>2026-04-25T16:49:46.999Z</time></trkpt><trkpt lat="36.89724668324013" lon="-108.10725810351836"><ele>1892.4</ele><time>2026-04-25T16:49:47.999Z</time></trkpt><trkpt lat="36.8973327700124" lon="-108.10715773223151"><ele>1893.2</ele><time>2026-04-25T16:49:48.999Z</time></trkpt><trkpt lat="36.897406946224805" lon="-108.10709360849496"><ele>1894.0</ele><time>2026-04-25T16:49:49.999Z</time></trkpt><trkpt lat="36.89747896360139" lon="-108.10705568845657"><ele>1894.0000000000002</ele><time>2026-04-25T16:49:50.999Z</time></trkpt><trkpt lat="36.89756767386884" lon="-108.10704019008911"><ele>1894.0</ele><time>2026-04-25T16:49:51.999Z</time></trkpt><trkpt lat="36.89764119656791" lon="-108.10706351608701"><ele>1894.0</ele><time>2026-04-25T16:49:53.999Z</time></trkpt><trkpt lat="36.89769521834623" lon="-108.1070153581797"><ele>1894.0</ele><time>2026-04-25T16:49:58.999Z</time></trkpt><trkpt lat="36.89780520876765" lon="-108.10694358577521"><ele>1894.0000000000002</ele><time>2026-04-25T16:50:00.999Z</time></trkpt><trkpt lat="36.89786510049416" lon="-108.1068876673953"><ele>1894.0</ele><time>2026-04-25T16:50:01.999Z</time></trkpt><trkpt lat="36.897967775190224" lon="-108.1068391808942"><ele>1894.2</ele><time>2026-04-25T16:50:03.999Z</time></trkpt><trkpt lat="36.89807018648677" lon="-108.10682886087238"><ele>1894.4</ele><time>2026-04-25T16:50:05.999Z</time></trkpt><trkpt lat="36.898134847292624" lon="-108.10682388482225"><ele>1894.6</ele><time>2026-04-25T16:50:07.999Z</time></trkpt><trkpt lat="36.898250542260314" lon="-108.10680282784291"><ele>1894.8</ele><time>2026-04-25T16:50:10.999Z</time></trkpt><trkpt lat="36.89834008479193" lon="-108.10678261380953"><ele>1895.0</ele><time>2026-04-25T16:50:11.999Z</time></trkpt><trkpt lat="36.89841716341365" lon="-108.10675406850267"><ele>1894.9999999999998</ele><time>2026-04-25T16:50:12.999Z</time></trkpt><trkpt lat="36.8984804386189" lon="-108.10673510059496"><ele>1895.0</ele><time>2026-04-25T16:50:13.999Z</time></trkpt><trkpt lat="36.89855347705872" lon="-108.10673626960299"><ele>1895.0</ele><time>2026-04-25T16:50:14.999Z</time></trkpt><trkpt lat="36.898648372032355" lon="-108.10678208817679"><ele>1895.0</ele><time>2026-04-25T16:50:15.999Z</time></trkpt><trkpt lat="36.89874385943658" lon="-108.10683380127695"><ele>1894.9999999999998</ele><time>2026-04-25T16:50:16.999Z</time></trkpt><trkpt lat="36.8988329048603" lon="-108.10686714488958"><ele>1895.0</ele><time>2026-04-25T16:50:17.999Z</time></trkpt><trkpt lat="36.89892461518688" lon="-108.10685502957992"><ele>1895.0</ele><time>2026-04-25T16:50:18.999Z</time></trkpt><trkpt lat="36.89899266980226" lon="-108.10678227191742"><ele>1895.0</ele><time>2026-04-25T16:50:19.999Z</time></trkpt><trkpt lat="36.899038496610935" lon="-108.10662441270294"><ele>1895.0</ele><time>2026-04-25T16:50:20.999Z</time></trkpt><trkpt lat="36.899098301015194" lon="-108.10649594362334"><ele>1895.0</ele><time>2026-04-25T16:50:21.999Z</time></trkpt><trkpt lat="36.89918250597001" lon="-108.10641702326666"><ele>1895.0</ele><time>2026-04-25T16:50:22.999Z</time></trkpt><trkpt lat="36.899263658793444" lon="-108.10636302243972"><ele>1893.6</ele><time>2026-04-25T16:50:23.999Z</time></trkpt><trkpt lat="36.89931911973298" lon="-108.10627823605617"><ele>1892.2</ele><time>2026-04-25T16:50:24.999Z</time></trkpt><trkpt lat="36.899354510328216" lon="-108.10616942757935"><ele>1890.8000000000002</ele><time>2026-04-25T16:50:25.999Z</time></trkpt><trkpt lat="36.89938603629664" lon="-108.106068662223"><ele>1889.4</ele><time>2026-04-25T16:50:26.999Z</time></trkpt><trkpt lat="36.8994499003267" lon="-108.10597611880834"><ele>1888.0</ele><time>2026-04-25T16:50:27.999Z</time></trkpt><trkpt lat="36.899505787272886" lon="-108.10587397559308"><ele>1888.0</ele><time>2026-04-25T16:50:28.999Z</time></trkpt><trkpt lat="36.899547301909415" lon="-108.10579651607748"><ele>1888.0000000000002</ele><time>2026-04-25T16:50:29.999Z</time></trkpt><trkpt lat="36.899591889061455" lon="-108.10573714727771"><ele>1888.0000000000002</ele><time>2026-04-25T16:50:30.999Z</time></trkpt><trkpt lat="36.8996754919499" lon="-108.10563353683962"><ele>1888.0</ele><time>2026-04-25T16:50:31.999Z</time></trkpt><trkpt lat="36.89977143479955" lon="-108.10550955965324"><ele>1888.0</ele><time>2026-04-25T16:50:32.999Z</time></trkpt><trkpt lat="36.899890588226484" lon="-108.10540491719699"><ele>1888.0</ele><time>2026-04-25T16:50:33.999Z</time></trkpt><trkpt lat="36.89999805290581" lon="-108.10529334406368"><ele>1888.0000000000002</ele><time>2026-04-25T16:50:34.999Z</time></trkpt><trkpt lat="36.90005749596737" lon="-108.10517960181802"><ele>1888.0000000000002</ele><time>2026-04-25T16:50:35.999Z</time></trkpt><trkpt lat="36.90011118069567" lon="-108.10507472613504"><ele>1888.0</ele><time>2026-04-25T16:50:36.999Z</time></trkpt><trkpt lat="36.900167513467814" lon="-108.10497469553393"><ele>1888.0</ele><time>2026-04-25T16:50:37.999Z</time></trkpt><trkpt lat="36.900258527269806" lon="-108.10490042860108"><ele>1888.3333333333335</ele><time>2026-04-25T16:50:38.999Z</time></trkpt><trkpt lat="36.90031464956924" lon="-108.10485173619703"><ele>1888.6666666666667</ele><time>2026-04-25T16:50:39.999Z</time></trkpt><trkpt lat="36.90038393011526" lon="-108.10478772259532"><ele>1889.0</ele><time>2026-04-25T16:50:40.999Z</time></trkpt><trkpt lat="36.90044834103494" lon="-108.10474638731196"><ele>1889.3333333333335</ele><time>2026-04-25T16:50:41.999Z</time></trkpt><trkpt lat="36.90043801074486" lon="-108.10465516510787"><ele>1889.6666666666667</ele><time>2026-04-25T16:50:43.999Z</time></trkpt><trkpt lat="36.90049025786778" lon="-108.10454947780063"><ele>1890.0</ele><time>2026-04-25T16:50:45.999Z</time></trkpt><trkpt lat="36.900560768478854" lon="-108.10443839561886"><ele>1890.0</ele><time>2026-04-25T16:50:46.999Z</time></trkpt><trkpt lat="36.90063243507029" lon="-108.1043414586809"><ele>1890.0</ele><time>2026-04-25T16:50:47.999Z</time></trkpt><trkpt lat="36.90078307949404" lon="-108.10431928936379"><ele>1890.0</ele><time>2026-04-25T16:50:48.999Z</time></trkpt><trkpt lat="36.900887574093844" lon="-108.10427229801181"><ele>1890.0</ele><time>2026-04-25T16:50:49.999Z</time></trkpt><trkpt lat="36.900952749439874" lon="-108.10421255345958"><ele>1890.0</ele><time>2026-04-25T16:50:50.999Z</time></trkpt><trkpt lat="36.9009902218425" lon="-108.10414394097701"><ele>1890.0</ele><time>2026-04-25T16:50:51.999Z</time></trkpt><trkpt lat="36.90108688097676" lon="-108.10416742851673"><ele>1890.0</ele><time>2026-04-25T16:50:53.999Z</time></trkpt><trkpt lat="36.901203071552686" lon="-108.10412765122712"><ele>1890.0</ele><time>2026-04-25T16:50:55.999Z</time></trkpt><trkpt lat="36.901300365834885" lon="-108.10407289203087"><ele>1890.0</ele><time>2026-04-25T16:50:56.999Z</time></trkpt><trkpt lat="36.90139159075292" lon="-108.10403192707722"><ele>1890.0</ele><time>2026-04-25T16:50:57.999Z</time></trkpt><trkpt lat="36.901454938182006" lon="-108.10397270216666"><ele>1890.0</ele><time>2026-04-25T16:50:58.999Z</time></trkpt><trkpt lat="36.9015372570911" lon="-108.10392547359204"><ele>1890.0</ele><time>2026-04-25T16:50:59.999Z</time></trkpt><trkpt lat="36.901627589530186" lon="-108.10386762476969"><ele>1890.0</ele><time>2026-04-25T16:51:00.999Z</time></trkpt><trkpt lat="36.901692247904585" lon="-108.10382883048104"><ele>1890.0</ele><time>2026-04-25T16:51:01.999Z</time></trkpt><trkpt lat="36.901739433406235" lon="-108.10372856127744"><ele>1890.0</ele><time>2026-04-25T16:51:02.999Z</time></trkpt><trkpt lat="36.90174932421806" lon="-108.10362327661993"><ele>1890.0</ele><time>2026-04-25T16:51:04Z</time></trkpt><trkpt lat="36.90174772911045" lon="-108.10349700836188"><ele>1890.0</ele><time>2026-04-25T16:51:05Z</time></trkpt><trkpt lat="36.90173391137027" lon="-108.10340868820532"><ele>1890.0</ele><time>2026-04-25T16:51:06Z</time></trkpt><trkpt lat="36.90173663906696" lon="-108.10331032522956"><ele>1890.0</ele><time>2026-04-25T16:51:07Z</time></trkpt><trkpt lat="36.90172494565294" lon="-108.10319715917385"><ele>1890.0</ele><time>2026-04-25T16:51:08Z</time></trkpt><trkpt lat="36.90178926591644" lon="-108.10312962131894"><ele>1890.0</ele><time>2026-04-25T16:51:09Z</time></trkpt><trkpt lat="36.90185580186451" lon="-108.10304763657214"><ele>1890.0</ele><time>2026-04-25T16:51:10Z</time></trkpt><trkpt lat="36.90187396763203" lon="-108.10295960559925"><ele>1889.2</ele><time>2026-04-25T16:51:11Z</time></trkpt><trkpt lat="36.901904062717094" lon="-108.10285675276138"><ele>1888.4</ele><time>2026-04-25T16:51:12Z</time></trkpt><trkpt lat="36.901949495911694" lon="-108.10275637381982"><ele>1887.6</ele><time>2026-04-25T16:51:13Z</time></trkpt><trkpt lat="36.901973212227524" lon="-108.10267840348668"><ele>1886.8</ele><time>2026-04-25T16:51:14Z</time></trkpt><trkpt lat="36.902040165786254" lon="-108.10256519737048"><ele>1886.0</ele><time>2026-04-25T16:51:16Z</time></trkpt><trkpt lat="36.90208704229532" lon="-108.10242876223299"><ele>1885.6</ele><time>2026-04-25T16:51:17Z</time></trkpt><trkpt lat="36.90210103151041" lon="-108.10229377832938"><ele>1885.1999999999998</ele><time>2026-04-25T16:51:18Z</time></trkpt><trkpt lat="36.90211534999068" lon="-108.10220078446763"><ele>1884.8000000000002</ele><time>2026-04-25T16:51:19Z</time></trkpt><trkpt lat="36.902081993319555" lon="-108.10209801101126"><ele>1884.4</ele><time>2026-04-25T16:51:20Z</time></trkpt><trkpt lat="36.902084124013506" lon="-108.10195818130042"><ele>1884.0</ele><time>2026-04-25T16:51:21Z</time></trkpt><trkpt lat="36.90216150327592" lon="-108.1018793446289"><ele>1884.0</ele><time>2026-04-25T16:51:22Z</time></trkpt><trkpt lat="36.90226390186251" lon="-108.10177727455553"><ele>1884.0</ele><time>2026-04-25T16:51:23Z</time></trkpt><trkpt lat="36.90233788083533" lon="-108.10167601632511"><ele>1884.0</ele><time>2026-04-25T16:51:24Z</time></trkpt><trkpt lat="36.90242214045932" lon="-108.1016106084484"><ele>1884.0</ele><time>2026-04-25T16:51:25Z</time></trkpt><trkpt lat="36.90254502920233" lon="-108.10155904832243"><ele>1885.0</ele><time>2026-04-25T16:51:26Z</time></trkpt><trkpt lat="36.90262212038936" lon="-108.10148197803811"><ele>1886.0</ele><time>2026-04-25T16:51:27Z</time></trkpt><trkpt lat="36.902730296661055" lon="-108.10137980521203"><ele>1887.0</ele><time>2026-04-25T16:51:28Z</time></trkpt><trkpt lat="36.902860191188985" lon="-108.10128378351884"><ele>1888.0</ele><time>2026-04-25T16:51:29Z</time></trkpt><trkpt lat="36.902985447636276" lon="-108.10122847868465"><ele>1888.0</ele><time>2026-04-25T16:51:30Z</time></trkpt><trkpt lat="36.90311332805989" lon="-108.101144727531"><ele>1888.0</ele><time>2026-04-25T16:51:31Z</time></trkpt><trkpt lat="36.90320461421959" lon="-108.1010372502709"><ele>1888.0</ele><time>2026-04-25T16:51:32Z</time></trkpt><trkpt lat="36.90328398881002" lon="-108.1009373472477"><ele>1888.0</ele><time>2026-04-25T16:51:33Z</time></trkpt><trkpt lat="36.90335289478749" lon="-108.10084317629655"><ele>1889.0</ele><time>2026-04-25T16:51:34Z</time></trkpt><trkpt lat="36.90341318107167" lon="-108.1007337072874"><ele>1890.0000000000002</ele><time>2026-04-25T16:51:35Z</time></trkpt><trkpt lat="36.903457803981865" lon="-108.10059200360662"><ele>1891.0000000000002</ele><time>2026-04-25T16:51:36Z</time></trkpt><trkpt lat="36.90350175743408" lon="-108.1004805236363"><ele>1892.0</ele><time>2026-04-25T16:51:37Z</time></trkpt><trkpt lat="36.90354652617562" lon="-108.10039498170087"><ele>1893.0</ele><time>2026-04-25T16:51:38Z</time></trkpt><trkpt lat="36.903639357511366" lon="-108.10030413583023"><ele>1894.2</ele><time>2026-04-25T16:51:39Z</time></trkpt><trkpt lat="36.9037023164125" lon="-108.10017689595496"><ele>1895.4</ele><time>2026-04-25T16:51:40Z</time></trkpt><trkpt lat="36.903777697624996" lon="-108.10007226428547"><ele>1896.6000000000001</ele><time>2026-04-25T16:51:41Z</time></trkpt><trkpt lat="36.90383389757305" lon="-108.09997434996201"><ele>1897.8000000000002</ele><time>2026-04-25T16:51:42Z</time></trkpt><trkpt lat="36.90389011999705" lon="-108.09985452246167"><ele>1899.0</ele><time>2026-04-25T16:51:43Z</time></trkpt><trkpt lat="36.903957922369784" lon="-108.09975059106446"><ele>1899.0</ele><time>2026-04-25T16:51:44Z</time></trkpt><trkpt lat="36.90400955055811" lon="-108.09965610337754"><ele>1899.0</ele><time>2026-04-25T16:51:45Z</time></trkpt><trkpt lat="36.90405237066809" lon="-108.09957234834846"><ele>1899.0</ele><time>2026-04-25T16:51:46Z</time></trkpt><trkpt lat="36.904096720983375" lon="-108.09951099387618"><ele>1899.0</ele><time>2026-04-25T16:51:47Z</time></trkpt><trkpt lat="36.90415263819517" lon="-108.09939978581491"><ele>1899.0</ele><time>2026-04-25T16:51:49Z</time></trkpt><trkpt lat="36.90420177776513" lon="-108.09923975599561"><ele>1899.0</ele><time>2026-04-25T16:51:50Z</time></trkpt><trkpt lat="36.90424533632791" lon="-108.09916396971254"><ele>1899.0</ele><time>2026-04-25T16:51:51Z</time></trkpt><trkpt lat="36.90436921655475" lon="-108.0991394725102"><ele>1899.0</ele><time>2026-04-25T16:51:53Z</time></trkpt><trkpt lat="36.90443667166165" lon="-108.09912923391434"><ele>1899.0</ele><time>2026-04-25T16:51:56Z</time></trkpt><trkpt lat="36.90451648295007" lon="-108.09913921278357"><ele>1899.0</ele><time>2026-04-25T16:52:00Z</time></trkpt><trkpt lat="36.9046788771641" lon="-108.09908739318928"><ele>1898.3333333333333</ele><time>2026-04-25T16:52:02Z</time></trkpt><trkpt lat="36.904768235826346" lon="-108.09905346341908"><ele>1897.6666666666665</ele><time>2026-04-25T16:52:04Z</time></trkpt><trkpt lat="36.904876556244766" lon="-108.09903068363012"><ele>1897.0</ele><time>2026-04-25T16:52:06Z</time></trkpt><trkpt lat="36.90493836392395" lon="-108.09901305759468"><ele>1896.3333333333333</ele><time>2026-04-25T16:52:07Z</time></trkpt><trkpt lat="36.905003866849306" lon="-108.09898165439708"><ele>1895.6666666666665</ele><time>2026-04-25T16:52:08Z</time></trkpt><trkpt lat="36.90507353283739" lon="-108.0989488327173"><ele>1895.0</ele><time>2026-04-25T16:52:09Z</time></trkpt><trkpt lat="36.9051589173258" lon="-108.09891956850778"><ele>1894.4</ele><time>2026-04-25T16:52:10Z</time></trkpt><trkpt lat="36.90524858619005" lon="-108.09889345542021"><ele>1893.8</ele><time>2026-04-25T16:52:11Z</time></trkpt><trkpt lat="36.905331620824846" lon="-108.09885573078931"><ele>1893.1999999999998</ele><time>2026-04-25T16:52:12Z</time></trkpt><trkpt lat="36.90542063165789" lon="-108.09882249888201"><ele>1892.6</ele><time>2026-04-25T16:52:13Z</time></trkpt><trkpt lat="36.905483205764114" lon="-108.0987303865621"><ele>1892.0</ele><time>2026-04-25T16:52:14Z</time></trkpt><trkpt lat="36.90555313489134" lon="-108.09862932986515"><ele>1892.0</ele><time>2026-04-25T16:52:15Z</time></trkpt><trkpt lat="36.905656947953894" lon="-108.09852279334731"><ele>1892.0</ele><time>2026-04-25T16:52:16Z</time></trkpt><trkpt lat="36.90576882533427" lon="-108.09843572162812"><ele>1892.0</ele><time>2026-04-25T16:52:17Z</time></trkpt><trkpt lat="36.905858109836004" lon="-108.09837189396866"><ele>1892.0</ele><time>2026-04-25T16:52:18Z</time></trkpt><trkpt lat="36.90594145538398" lon="-108.09830511340894"><ele>1891.9999999999998</ele><time>2026-04-25T16:52:19Z</time></trkpt><trkpt lat="36.90599917427157" lon="-108.0982493459501"><ele>1892.0</ele><time>2026-04-25T16:52:20Z</time></trkpt><trkpt lat="36.90598351248909" lon="-108.0981699069688"><ele>1892.0</ele><time>2026-04-25T16:52:21Z</time></trkpt><trkpt lat="36.90597144567637" lon="-108.0980392452264"><ele>1892.0</ele><time>2026-04-25T16:52:22Z</time></trkpt><trkpt lat="36.90599161350257" lon="-108.09793166761348"><ele>1891.9999999999998</ele><time>2026-04-25T16:52:23Z</time></trkpt><trkpt lat="36.90609825053458" lon="-108.09789359358757"><ele>1892.0</ele><time>2026-04-25T16:52:24Z</time></trkpt><trkpt lat="36.90618341201994" lon="-108.09780789577304"><ele>1892.0</ele><time>2026-04-25T16:52:25Z</time></trkpt><trkpt lat="36.906227451289155" lon="-108.09772568135087"><ele>1891.9999999999998</ele><time>2026-04-25T16:52:26Z</time></trkpt><trkpt lat="36.90631128614255" lon="-108.09771112688432"><ele>1891.9999999999998</ele><time>2026-04-25T16:52:27Z</time></trkpt><trkpt lat="36.90639477737952" lon="-108.0977116019268"><ele>1892.0</ele><time>2026-04-25T16:52:28Z</time></trkpt><trkpt lat="36.906469479590065" lon="-108.09767509744353"><ele>1892.0</ele><time>2026-04-25T16:52:29Z</time></trkpt><trkpt lat="36.9065795172179" lon="-108.09760166362112"><ele>1892.0</ele><time>2026-04-25T16:52:30Z</time></trkpt><trkpt lat="36.90668858009293" lon="-108.09753185559315"><ele>1892.0</ele><time>2026-04-25T16:52:31Z</time></trkpt><trkpt lat="36.906791874279094" lon="-108.09748844597183"><ele>1892.0</ele><time>2026-04-25T16:52:32Z</time></trkpt><trkpt lat="36.90690793596007" lon="-108.09745779791923"><ele>1892.0</ele><time>2026-04-25T16:52:33Z</time></trkpt><trkpt lat="36.90702228385226" lon="-108.09740642096739"><ele>1893.1666666666665</ele><time>2026-04-25T16:52:34Z</time></trkpt><trkpt lat="36.90712158479688" lon="-108.09733570247576"><ele>1894.3333333333333</ele><time>2026-04-25T16:52:35Z</time></trkpt><trkpt lat="36.907206230599726" lon="-108.09727645192427"><ele>1895.5</ele><time>2026-04-25T16:52:36Z</time></trkpt><trkpt lat="36.907262325705275" lon="-108.09723226927922"><ele>1896.6666666666665</ele><time>2026-04-25T16:52:37Z</time></trkpt><trkpt lat="36.90732698346301" lon="-108.09722169745888"><ele>1897.8333333333333</ele><time>2026-04-25T16:52:38Z</time></trkpt><trkpt lat="36.9074196739126" lon="-108.09727852765934"><ele>1899.0</ele><time>2026-04-25T16:52:39Z</time></trkpt><trkpt lat="36.90754639636288" lon="-108.09732143366857"><ele>1899.75</ele><time>2026-04-25T16:52:40Z</time></trkpt><trkpt lat="36.90764759816724" lon="-108.09731301534661"><ele>1900.5</ele><time>2026-04-25T16:52:41Z</time></trkpt><trkpt lat="36.907778003114885" lon="-108.09717899960421"><ele>1901.25</ele><time>2026-04-25T16:52:43Z</time></trkpt><trkpt lat="36.90788259588509" lon="-108.0971056397921"><ele>1902.0</ele><time>2026-04-25T16:52:44Z</time></trkpt><trkpt lat="36.90801078027451" lon="-108.09704147332516"><ele>1902.0</ele><time>2026-04-25T16:52:45Z</time></trkpt><trkpt lat="36.90809396674994" lon="-108.09700514111702"><ele>1902.0</ele><time>2026-04-25T16:52:46Z</time></trkpt><trkpt lat="36.90822305164036" lon="-108.09683843933648"><ele>1902.0</ele><time>2026-04-25T16:52:47Z</time></trkpt><trkpt lat="36.90834048629286" lon="-108.09672778167507"><ele>1902.0</ele><time>2026-04-25T16:52:48Z</time></trkpt><trkpt lat="36.908442093012006" lon="-108.09669906545996"><ele>1902.1999999999998</ele><time>2026-04-25T16:52:49Z</time></trkpt><trkpt lat="36.90849181994758" lon="-108.09661670572882"><ele>1902.3999999999999</ele><time>2026-04-25T16:52:50Z</time></trkpt><trkpt lat="36.908524643183306" lon="-108.09650581437565"><ele>1902.6000000000001</ele><time>2026-04-25T16:52:51Z</time></trkpt><trkpt lat="36.90859861703622" lon="-108.09645802824427"><ele>1902.8000000000002</ele><time>2026-04-25T16:52:52Z</time></trkpt><trkpt lat="36.90872751051932" lon="-108.09639472688066"><ele>1903.0</ele><time>2026-04-25T16:52:53Z</time></trkpt><trkpt lat="36.90879277286719" lon="-108.09631123905699"><ele>1906.25</ele><time>2026-04-25T16:52:54Z</time></trkpt><trkpt lat="36.90886662805046" lon="-108.09625077703345"><ele>1909.5</ele><time>2026-04-25T16:52:55Z</time></trkpt><trkpt lat="36.90900227547733" lon="-108.09619817215402"><ele>1912.75</ele><time>2026-04-25T16:52:56Z</time></trkpt><trkpt lat="36.90915784393035" lon="-108.09613521601356"><ele>1916.0</ele><time>2026-04-25T16:52:57Z</time></trkpt><trkpt lat="36.909275403621855" lon="-108.09607609675092"><ele>1916.4</ele><time>2026-04-25T16:52:58Z</time></trkpt><trkpt lat="36.90941635766685" lon="-108.09607775498361"><ele>1916.8</ele><time>2026-04-25T16:53:00Z</time></trkpt><trkpt lat="36.90949291832431" lon="-108.0960194775264"><ele>1917.2000000000003</ele><time>2026-04-25T16:53:01Z</time></trkpt><trkpt lat="36.90955123591692" lon="-108.095921222672"><ele>1917.6000000000001</ele><time>2026-04-25T16:53:02Z</time></trkpt><trkpt lat="36.90960709365626" lon="-108.09583207018676"><ele>1918.0</ele><time>2026-04-25T16:53:03Z</time></trkpt><trkpt lat="36.90969038936477" lon="-108.09574274325878"><ele>1918.4</ele><time>2026-04-25T16:53:04Z</time></trkpt><trkpt lat="36.90977207096777" lon="-108.09563728460932"><ele>1918.8000000000002</ele><time>2026-04-25T16:53:05Z</time></trkpt><trkpt lat="36.909847294093446" lon="-108.09557847708543"><ele>1919.2</ele><time>2026-04-25T16:53:06Z</time></trkpt><trkpt lat="36.909932693714524" lon="-108.0955357440281"><ele>1919.6</ele><time>2026-04-25T16:53:07Z</time></trkpt><trkpt lat="36.91000757241209" lon="-108.09551479234503"><ele>1920.0</ele><time>2026-04-25T16:53:08Z</time></trkpt><trkpt lat="36.910085891085515" lon="-108.09557532608653"><ele>1920.0</ele><time>2026-04-25T16:53:09Z</time></trkpt><trkpt lat="36.910166805837456" lon="-108.09566671506745"><ele>1920.0</ele><time>2026-04-25T16:53:10Z</time></trkpt><trkpt lat="36.91022868174676" lon="-108.09575338801905"><ele>1920.0</ele><time>2026-04-25T16:53:11Z</time></trkpt><trkpt lat="36.91031470788347" lon="-108.09583101333484"><ele>1920.0</ele><time>2026-04-25T16:53:12Z</time></trkpt><trkpt lat="36.91039912431317" lon="-108.09591512966618"><ele>1920.0</ele><time>2026-04-25T16:53:13Z</time></trkpt><trkpt lat="36.910491482534816" lon="-108.09592446338368"><ele>1920.2</ele><time>2026-04-25T16:53:14Z</time></trkpt><trkpt lat="36.91059860338465" lon="-108.09593222463074"><ele>1920.4</ele><time>2026-04-25T16:53:15Z</time></trkpt><trkpt lat="36.91067914643637" lon="-108.09598008035805"><ele>1920.6</ele><time>2026-04-25T16:53:16Z</time></trkpt><trkpt lat="36.91075453858939" lon="-108.09599577421366"><ele>1920.8</ele><time>2026-04-25T16:53:17Z</time></trkpt><trkpt lat="36.91085380957967" lon="-108.0959401269122"><ele>1921.0</ele><time>2026-04-25T16:53:18Z</time></trkpt><trkpt lat="36.91092215057938" lon="-108.09587901617853"><ele>1920.4</ele><time>2026-04-25T16:53:19Z</time></trkpt><trkpt lat="36.91096645849252" lon="-108.0957842312572"><ele>1919.8</ele><time>2026-04-25T16:53:20Z</time></trkpt><trkpt lat="36.910994938919224" lon="-108.0956624267286"><ele>1919.2000000000003</ele><time>2026-04-25T16:53:21Z</time></trkpt><trkpt lat="36.91101998409233" lon="-108.09555654109845"><ele>1918.6000000000001</ele><time>2026-04-25T16:53:22Z</time></trkpt><trkpt lat="36.911049749609994" lon="-108.09544118948335"><ele>1918.0</ele><time>2026-04-25T16:53:23Z</time></trkpt><trkpt lat="36.91112763192716" lon="-108.09542732683666"><ele>1918.0</ele><time>2026-04-25T16:53:24Z</time></trkpt><trkpt lat="36.911183355977066" lon="-108.09532344250132"><ele>1918.0000000000002</ele><time>2026-04-25T16:53:25Z</time></trkpt><trkpt lat="36.91123799951866" lon="-108.09523301217412"><ele>1918.0000000000002</ele><time>2026-04-25T16:53:26Z</time></trkpt><trkpt lat="36.91129497018136" lon="-108.09512760097013"><ele>1918.0</ele><time>2026-04-25T16:53:27Z</time></trkpt><trkpt lat="36.911380145995984" lon="-108.095012804753"><ele>1918.0</ele><time>2026-04-25T16:53:28Z</time></trkpt><trkpt lat="36.91144826880578" lon="-108.09487619473488"><ele>1918.4</ele><time>2026-04-25T16:53:29Z</time></trkpt><trkpt lat="36.911495260742804" lon="-108.09475524538992"><ele>1918.8000000000002</ele><time>2026-04-25T16:53:30Z</time></trkpt><trkpt lat="36.911578560139105" lon="-108.09468333155881"><ele>1919.2</ele><time>2026-04-25T16:53:31Z</time></trkpt><trkpt lat="36.91168438260232" lon="-108.09460586777254"><ele>1919.6</ele><time>2026-04-25T16:53:32Z</time></trkpt><trkpt lat="36.911777686419335" lon="-108.09452090632311"><ele>1920.0</ele><time>2026-04-25T16:53:33Z</time></trkpt><trkpt lat="36.91186341304456" lon="-108.09446487832693"><ele>1918.8</ele><time>2026-04-25T16:53:34Z</time></trkpt><trkpt lat="36.911927081573445" lon="-108.09437748891217"><ele>1917.6</ele><time>2026-04-25T16:53:35Z</time></trkpt><trkpt lat="36.911994095952245" lon="-108.09428328668007"><ele>1916.4</ele><time>2026-04-25T16:53:36Z</time></trkpt><trkpt lat="36.912108264099274" lon="-108.09425598720365"><ele>1915.2</ele><time>2026-04-25T16:53:37Z</time></trkpt><trkpt lat="36.9122135772404" lon="-108.09424345999611"><ele>1914.0</ele><time>2026-04-25T16:53:38Z</time></trkpt><trkpt lat="36.912233097438545" lon="-108.0940272149582"><ele>1914.0</ele><time>2026-04-25T16:53:40Z</time></trkpt><trkpt lat="36.912275499268944" lon="-108.09387572697335"><ele>1914.0</ele><time>2026-04-25T16:53:41Z</time></trkpt><trkpt lat="36.91232651511624" lon="-108.09375338480413"><ele>1914.0</ele><time>2026-04-25T16:53:42Z</time></trkpt><trkpt lat="36.91234595054134" lon="-108.0936401603168"><ele>1914.0</ele><time>2026-04-25T16:53:43Z</time></trkpt><trkpt lat="36.912330104015524" lon="-108.0935005114014"><ele>1914.0</ele><time>2026-04-25T16:53:44Z</time></trkpt><trkpt lat="36.91233880631362" lon="-108.09334387991149"><ele>1914.0</ele><time>2026-04-25T16:53:45Z</time></trkpt><trkpt lat="36.91233515727103" lon="-108.09320938561382"><ele>1914.0</ele><time>2026-04-25T16:53:46Z</time></trkpt><trkpt lat="36.91231484600292" lon="-108.09309455510278"><ele>1914.0</ele><time>2026-04-25T16:53:47Z</time></trkpt><trkpt lat="36.91231738299158" lon="-108.09296083638013"><ele>1914.0</ele><time>2026-04-25T16:53:48Z</time></trkpt><trkpt lat="36.912322730428336" lon="-108.09282344866615"><ele>1914.0</ele><time>2026-04-25T16:53:49Z</time></trkpt><trkpt lat="36.91231869334073" lon="-108.09271620906866"><ele>1914.0</ele><time>2026-04-25T16:53:50Z</time></trkpt><trkpt lat="36.912312794952015" lon="-108.0926357897942"><ele>1914.0</ele><time>2026-04-25T16:53:51Z</time></trkpt><trkpt lat="36.91233949553503" lon="-108.09254964156133"><ele>1914.0</ele><time>2026-04-25T16:53:52Z</time></trkpt><trkpt lat="36.91233757023064" lon="-108.09240764639519"><ele>1914.0</ele><time>2026-04-25T16:53:53Z</time></trkpt><trkpt lat="36.91234080028922" lon="-108.09229556944338"><ele>1914.0</ele><time>2026-04-25T16:53:54Z</time></trkpt><trkpt lat="36.91237491999951" lon="-108.09219041300499"><ele>1914.0</ele><time>2026-04-25T16:53:55Z</time></trkpt><trkpt lat="36.912452190617685" lon="-108.09210213529416"><ele>1914.6</ele><time>2026-04-25T16:53:56Z</time></trkpt><trkpt lat="36.91249047159865" lon="-108.09200806377456"><ele>1915.2</ele><time>2026-04-25T16:53:57Z</time></trkpt><trkpt lat="36.912463233420254" lon="-108.09189144654967"><ele>1915.7999999999997</ele><time>2026-04-25T16:53:58Z</time></trkpt><trkpt lat="36.91249840102177" lon="-108.09181523908067"><ele>1916.3999999999999</ele><time>2026-04-25T16:54:03Z</time></trkpt><trkpt lat="36.91252973645456" lon="-108.09172201307149"><ele>1917.0</ele><time>2026-04-25T16:54:06Z</time></trkpt><trkpt lat="36.91253543895723" lon="-108.09140492317142"><ele>1917.25</ele><time>2026-04-25T16:54:07Z</time></trkpt><trkpt lat="36.91255055284437" lon="-108.09131581790777"><ele>1917.5</ele><time>2026-04-25T16:54:08Z</time></trkpt><trkpt lat="36.91260091320127" lon="-108.09115489068773"><ele>1917.75</ele><time>2026-04-25T16:54:10Z</time></trkpt><trkpt lat="36.912636792550714" lon="-108.09101751944448"><ele>1918.0</ele><time>2026-04-25T16:54:11Z</time></trkpt><trkpt lat="36.91270586374896" lon="-108.09083888297407"><ele>1917.6000000000001</ele><time>2026-04-25T16:54:12Z</time></trkpt><trkpt lat="36.91275109304078" lon="-108.09073545926147"><ele>1917.2000000000003</ele><time>2026-04-25T16:54:13Z</time></trkpt><trkpt lat="36.91274018970356" lon="-108.09058803275649"><ele>1916.8</ele><time>2026-04-25T16:54:14Z</time></trkpt><trkpt lat="36.91271734465585" lon="-108.09045166083028"><ele>1916.4</ele><time>2026-04-25T16:54:15Z</time></trkpt><trkpt lat="36.91273306451329" lon="-108.09032927125037"><ele>1916.0</ele><time>2026-04-25T16:54:16Z</time></trkpt><trkpt lat="36.912740435467626" lon="-108.09023028446894"><ele>1916.0</ele><time>2026-04-25T16:54:17Z</time></trkpt><trkpt lat="36.9127253367249" lon="-108.09009182394078"><ele>1916.0</ele><time>2026-04-25T16:54:19Z</time></trkpt><trkpt lat="36.912690083522264" lon="-108.0899962613336"><ele>1916.0</ele><time>2026-04-25T16:54:21Z</time></trkpt><trkpt lat="36.912596614946565" lon="-108.08996063874402"><ele>1916.0</ele><time>2026-04-25T16:54:24Z</time></trkpt><trkpt lat="36.9124975645951" lon="-108.08998872485166"><ele>1916.0</ele><time>2026-04-25T16:54:27Z</time></trkpt><trkpt lat="36.91244470660617" lon="-108.08994407041457"><ele>1916.4</ele><time>2026-04-25T16:54:28Z</time></trkpt><trkpt lat="36.91237874464864" lon="-108.08991197694077"><ele>1916.8</ele><time>2026-04-25T16:54:29Z</time></trkpt><trkpt lat="36.91229052708449" lon="-108.08986823141583"><ele>1917.2000000000003</ele><time>2026-04-25T16:54:30Z</time></trkpt><trkpt lat="36.91219406875651" lon="-108.08974916266853"><ele>1917.6000000000001</ele><time>2026-04-25T16:54:31Z</time></trkpt><trkpt lat="36.91209780127701" lon="-108.0896211609641"><ele>1918.0</ele><time>2026-04-25T16:54:32Z</time></trkpt><trkpt lat="36.91200037201142" lon="-108.08957145964786"><ele>1918.0</ele><time>2026-04-25T16:54:33Z</time></trkpt><trkpt lat="36.911902846049095" lon="-108.08951644722501"><ele>1918.0000000000002</ele><time>2026-04-25T16:54:34Z</time></trkpt><trkpt lat="36.91178740457128" lon="-108.08947751072343"><ele>1918.0000000000002</ele><time>2026-04-25T16:54:35Z</time></trkpt><trkpt lat="36.91170902554826" lon="-108.08944369780446"><ele>1918.0</ele><time>2026-04-25T16:54:36Z</time></trkpt><trkpt lat="36.91166829496861" lon="-108.08936746013674"><ele>1918.0</ele><time>2026-04-25T16:54:37Z</time></trkpt><trkpt lat="36.91159366475798" lon="-108.08924516418566"><ele>1917.6000000000001</ele><time>2026-04-25T16:54:38Z</time></trkpt><trkpt lat="36.91150863507373" lon="-108.08915913046346"><ele>1917.2000000000003</ele><time>2026-04-25T16:54:39Z</time></trkpt><trkpt lat="36.9114262843571" lon="-108.08909967364322"><ele>1916.8</ele><time>2026-04-25T16:54:40Z</time></trkpt><trkpt lat="36.91133953229634" lon="-108.08907665217274"><ele>1916.4</ele><time>2026-04-25T16:54:41Z</time></trkpt><trkpt lat="36.911215188261764" lon="-108.08905577729945"><ele>1916.0</ele><time>2026-04-25T16:54:42Z</time></trkpt><trkpt lat="36.91112657524896" lon="-108.08898385062554"><ele>1914.75</ele><time>2026-04-25T16:54:43Z</time></trkpt><trkpt lat="36.91105745893349" lon="-108.08888171521713"><ele>1913.5</ele><time>2026-04-25T16:54:44Z</time></trkpt><trkpt lat="36.91107237351075" lon="-108.0887267790468"><ele>1912.25</ele><time>2026-04-25T16:54:46Z</time></trkpt><trkpt lat="36.91110293012643" lon="-108.08856329281656"><ele>1911.0</ele><time>2026-04-25T16:54:47Z</time></trkpt><trkpt lat="36.911076732946235" lon="-108.08841128639799"><ele>1911.0</ele><time>2026-04-25T16:54:48Z</time></trkpt><trkpt lat="36.91103225776556" lon="-108.08827531742226"><ele>1911.0</ele><time>2026-04-25T16:54:49Z</time></trkpt><trkpt lat="36.91099241145473" lon="-108.088151791021"><ele>1911.0</ele><time>2026-04-25T16:54:50Z</time></trkpt><trkpt lat="36.910953793866675" lon="-108.08804388730805"><ele>1911.0</ele><time>2026-04-25T16:54:51Z</time></trkpt><trkpt lat="36.910903374015874" lon="-108.0879683699158"><ele>1911.0</ele><time>2026-04-25T16:54:52Z</time></trkpt><trkpt lat="36.91084845823512" lon="-108.08791352113778"><ele>1909.25</ele><time>2026-04-25T16:54:53Z</time></trkpt><trkpt lat="36.91075037869894" lon="-108.087850216799"><ele>1907.5</ele><time>2026-04-25T16:54:54Z</time></trkpt><trkpt lat="36.91065086140689" lon="-108.08775254441152"><ele>1905.75</ele><time>2026-04-25T16:54:55Z</time></trkpt><trkpt lat="36.91062386730648" lon="-108.08765398090877"><ele>1904.0</ele><time>2026-04-25T16:54:56Z</time></trkpt><trkpt lat="36.91053565318159" lon="-108.08753107657326"><ele>1904.0</ele><time>2026-04-25T16:54:58Z</time></trkpt><trkpt lat="36.91050866999571" lon="-108.0874366168838"><ele>1904.0</ele><time>2026-04-25T16:54:59Z</time></trkpt><trkpt lat="36.910482267920685" lon="-108.08725864068111"><ele>1904.0</ele><time>2026-04-25T16:55:00Z</time></trkpt><trkpt lat="36.91045004067382" lon="-108.08713963504607"><ele>1904.0</ele><time>2026-04-25T16:55:01Z</time></trkpt><trkpt lat="36.91040407575675" lon="-108.08707713248106"><ele>1904.0</ele><time>2026-04-25T16:55:02Z</time></trkpt><trkpt lat="36.91036272850192" lon="-108.08699577885434"><ele>1902.8000000000002</ele><time>2026-04-25T16:55:03Z</time></trkpt><trkpt lat="36.91029595162388" lon="-108.08691503921449"><ele>1901.6000000000001</ele><time>2026-04-25T16:55:04Z</time></trkpt><trkpt lat="36.91021960099554" lon="-108.08687934256832"><ele>1900.4</ele><time>2026-04-25T16:55:05Z</time></trkpt><trkpt lat="36.910096044544176" lon="-108.0868985837795"><ele>1899.2</ele><time>2026-04-25T16:55:06Z</time></trkpt><trkpt lat="36.9099526550138" lon="-108.08692973755797"><ele>1898.0</ele><time>2026-04-25T16:55:07Z</time></trkpt><trkpt lat="36.9098051648053" lon="-108.0869300168017"><ele>1897.0</ele><time>2026-04-25T16:55:08Z</time></trkpt><trkpt lat="36.909687186753835" lon="-108.08691653375416"><ele>1896.0</ele><time>2026-04-25T16:55:09Z</time></trkpt><trkpt lat="36.909581143528854" lon="-108.08691305439613"><ele>1895.0</ele><time>2026-04-25T16:55:10Z</time></trkpt><trkpt lat="36.90946992231487" lon="-108.08691882732803"><ele>1894.0</ele><time>2026-04-25T16:55:11Z</time></trkpt><trkpt lat="36.90934619709647" lon="-108.08687927646565"><ele>1894.0</ele><time>2026-04-25T16:55:12Z</time></trkpt><trkpt lat="36.90926714057036" lon="-108.08679690455114"><ele>1894.0</ele><time>2026-04-25T16:55:13Z</time></trkpt><trkpt lat="36.90916525500335" lon="-108.08675372252749"><ele>1894.0</ele><time>2026-04-25T16:55:14Z</time></trkpt><trkpt lat="36.909083834524" lon="-108.08675532612766"><ele>1894.0</ele><time>2026-04-25T16:55:15Z</time></trkpt><trkpt lat="36.90893699717712" lon="-108.08668012176862"><ele>1892.4</ele><time>2026-04-25T16:55:17Z</time></trkpt><trkpt lat="36.908833189447435" lon="-108.08661338001752"><ele>1890.8000000000002</ele><time>2026-04-25T16:55:18Z</time></trkpt><trkpt lat="36.90871409833453" lon="-108.08663740050554"><ele>1889.1999999999998</ele><time>2026-04-25T16:55:19Z</time></trkpt><trkpt lat="36.908638068381755" lon="-108.08661330540325"><ele>1887.6</ele><time>2026-04-25T16:55:20Z</time></trkpt><trkpt lat="36.90853027489651" lon="-108.08652790988553"><ele>1886.0</ele><time>2026-04-25T16:55:22Z</time></trkpt><trkpt lat="36.90845130611786" lon="-108.08655502386324"><ele>1885.1999999999998</ele><time>2026-04-25T16:55:23Z</time></trkpt><trkpt lat="36.90835252903636" lon="-108.08663497046528"><ele>1884.3999999999999</ele><time>2026-04-25T16:55:24Z</time></trkpt><trkpt lat="36.90824882863924" lon="-108.08668161630271"><ele>1883.6</ele><time>2026-04-25T16:55:25Z</time></trkpt><trkpt lat="36.90816445672671" lon="-108.08669334535546"><ele>1882.8</ele><time>2026-04-25T16:55:26Z</time></trkpt><trkpt lat="36.9080851950544" lon="-108.08670018317174"><ele>1882.0</ele><time>2026-04-25T16:55:27Z</time></trkpt><trkpt lat="36.9080119673326" lon="-108.0866928638806"><ele>1882.0000000000002</ele><time>2026-04-25T16:55:28Z</time></trkpt><trkpt lat="36.90794300525205" lon="-108.08666949619086"><ele>1882.0</ele><time>2026-04-25T16:55:29Z</time></trkpt><trkpt lat="36.90787658170742" lon="-108.08663401275685"><ele>1882.0</ele><time>2026-04-25T16:55:30Z</time></trkpt><trkpt lat="36.90781509642497" lon="-108.08659510098617"><ele>1882.0</ele><time>2026-04-25T16:55:31Z</time></trkpt><trkpt lat="36.90775298774399" lon="-108.08656016819914"><ele>1882.0000000000002</ele><time>2026-04-25T16:55:32Z</time></trkpt><trkpt lat="36.90769203853172" lon="-108.08653024650815"><ele>1882.0</ele><time>2026-04-25T16:55:33Z</time></trkpt><trkpt lat="36.907584745418276" lon="-108.08645192370244"><ele>1881.0</ele><time>2026-04-25T16:55:35Z</time></trkpt><trkpt lat="36.907527899641515" lon="-108.08639803196036"><ele>1879.9999999999998</ele><time>2026-04-25T16:55:36Z</time></trkpt><trkpt lat="36.90745599048092" lon="-108.08634192567662"><ele>1878.9999999999998</ele><time>2026-04-25T16:55:37Z</time></trkpt><trkpt lat="36.90736672175167" lon="-108.08627361845618"><ele>1878.0</ele><time>2026-04-25T16:55:38Z</time></trkpt><trkpt lat="36.907278020256115" lon="-108.08619760771596"><ele>1877.0</ele><time>2026-04-25T16:55:39Z</time></trkpt><trkpt lat="36.90719858463994" lon="-108.08613307624216"><ele>1876.9999999999998</ele><time>2026-04-25T16:55:40Z</time></trkpt><trkpt lat="36.907124624107205" lon="-108.08608217070616"><ele>1877.0</ele><time>2026-04-25T16:55:41Z</time></trkpt><trkpt lat="36.90705811285546" lon="-108.08604152226279"><ele>1877.0</ele><time>2026-04-25T16:55:42Z</time></trkpt><trkpt lat="36.906993756699805" lon="-108.0859907888687"><ele>1877.0</ele><time>2026-04-25T16:55:43Z</time></trkpt><trkpt lat="36.90691566761526" lon="-108.08592349536463"><ele>1876.9999999999998</ele><time>2026-04-25T16:55:44Z</time></trkpt><trkpt lat="36.906828156786474" lon="-108.08585273482598"><ele>1877.0</ele><time>2026-04-25T16:55:45Z</time></trkpt><trkpt lat="36.906740596330216" lon="-108.08576643680082"><ele>1876.8</ele><time>2026-04-25T16:55:46Z</time></trkpt><trkpt lat="36.90666804636938" lon="-108.08569346555767"><ele>1876.6</ele><time>2026-04-25T16:55:47Z</time></trkpt><trkpt lat="36.90661906641748" lon="-108.08563896899335"><ele>1876.3999999999999</ele><time>2026-04-25T16:55:48Z</time></trkpt><trkpt lat="36.90654476447993" lon="-108.08558158152039"><ele>1876.1999999999998</ele><time>2026-04-25T16:55:50Z</time></trkpt><trkpt lat="36.90650449243831" lon="-108.08548198024936"><ele>1876.0</ele><time>2026-04-25T16:56:29Z</time></trkpt><trkpt lat="36.90641506356392" lon="-108.08537797548287"><ele>1876.0</ele><time>2026-04-25T16:56:31Z</time></trkpt><trkpt lat="36.90630097897388" lon="-108.08540776777002"><ele>1876.0</ele><time>2026-04-25T16:56:33Z</time></trkpt><trkpt lat="36.9062269606727" lon="-108.08546778956831"><ele>1876.0</ele><time>2026-04-25T16:56:34Z</time></trkpt><trkpt lat="36.90614766178617" lon="-108.08552247132897"><ele>1876.0</ele><time>2026-04-25T16:56:35Z</time></trkpt><trkpt lat="36.906050890489226" lon="-108.08555774977278"><ele>1876.0</ele><time>2026-04-25T16:56:36Z</time></trkpt><trkpt lat="36.90595210957552" lon="-108.08561581035082"><ele>1876.0</ele><time>2026-04-25T16:56:37Z</time></trkpt><trkpt lat="36.905856351302525" lon="-108.08570405367944"><ele>1876.0</ele><time>2026-04-25T16:56:38Z</time></trkpt><trkpt lat="36.90575419730795" lon="-108.08582477151685"><ele>1876.0</ele><time>2026-04-25T16:56:39Z</time></trkpt><trkpt lat="36.9056834301153" lon="-108.08598990399224"><ele>1876.0</ele><time>2026-04-25T16:56:40Z</time></trkpt><trkpt lat="36.90558576482788" lon="-108.08613605414294"><ele>1875.3333333333335</ele><time>2026-04-25T16:56:41Z</time></trkpt><trkpt lat="36.90544969980987" lon="-108.0862219249441"><ele>1874.6666666666665</ele><time>2026-04-25T16:56:42Z</time></trkpt><trkpt lat="36.90528932473456" lon="-108.08624157833813"><ele>1874.0</ele><time>2026-04-25T16:56:43Z</time></trkpt><trkpt lat="36.905143879291984" lon="-108.0862756765013"><ele>1874.0</ele><time>2026-04-25T16:56:44Z</time></trkpt><trkpt lat="36.90505189616211" lon="-108.08633415332547"><ele>1874.0</ele><time>2026-04-25T16:56:45Z</time></trkpt><trkpt lat="36.90498513584483" lon="-108.08645394275145"><ele>1874.0</ele><time>2026-04-25T16:56:46Z</time></trkpt><trkpt lat="36.90493199532551" lon="-108.08661961442841"><ele>1874.0</ele><time>2026-04-25T16:56:47Z</time></trkpt><trkpt lat="36.90485468210161" lon="-108.08674425795232"><ele>1874.0</ele><time>2026-04-25T16:56:48Z</time></trkpt><trkpt lat="36.90474760131808" lon="-108.08683298543181"><ele>1874.0</ele><time>2026-04-25T16:56:49Z</time></trkpt><trkpt lat="36.90464943707909" lon="-108.08691759811553"><ele>1874.0</ele><time>2026-04-25T16:56:50Z</time></trkpt><trkpt lat="36.904551691115785" lon="-108.08702252950677"><ele>1874.0</ele><time>2026-04-25T16:56:51Z</time></trkpt><trkpt lat="36.90447147652899" lon="-108.08718933678057"><ele>1874.0</ele><time>2026-04-25T16:56:52Z</time></trkpt><trkpt lat="36.90440171403209" lon="-108.08733489259862"><ele>1874.0</ele><time>2026-04-25T16:56:53Z</time></trkpt><trkpt lat="36.904336173780564" lon="-108.08749190734858"><ele>1874.0</ele><time>2026-04-25T16:56:54Z</time></trkpt><trkpt lat="36.90425170912984" lon="-108.087658466442"><ele>1874.0</ele><time>2026-04-25T16:56:55Z</time></trkpt><trkpt lat="36.904151506303705" lon="-108.08782430078655"><ele>1874.0</ele><time>2026-04-25T16:56:56Z</time></trkpt><trkpt lat="36.90404093972034" lon="-108.08794840872916"><ele>1874.0</ele><time>2026-04-25T16:56:57Z</time></trkpt><trkpt lat="36.90392504260247" lon="-108.08806804800632"><ele>1874.0</ele><time>2026-04-25T16:56:58Z</time></trkpt><trkpt lat="36.90378023468701" lon="-108.0882219191972"><ele>1873.4</ele><time>2026-04-25T16:56:59Z</time></trkpt><trkpt lat="36.90367930032223" lon="-108.08839870494357"><ele>1872.8000000000002</ele><time>2026-04-25T16:57:00Z</time></trkpt><trkpt lat="36.90362687755672" lon="-108.08852079649243"><ele>1872.1999999999998</ele><time>2026-04-25T16:57:01Z</time></trkpt><trkpt lat="36.903589456533346" lon="-108.0886194695794"><ele>1871.6</ele><time>2026-04-25T16:57:02Z</time></trkpt><trkpt lat="36.90352976706316" lon="-108.08866949647367"><ele>1871.0</ele><time>2026-04-25T16:57:03Z</time></trkpt><trkpt lat="36.903448252013156" lon="-108.08869817258959"><ele>1870.75</ele><time>2026-04-25T16:57:04Z</time></trkpt><trkpt lat="36.9033530087297" lon="-108.08870330928036"><ele>1870.5</ele><time>2026-04-25T16:57:05Z</time></trkpt><trkpt lat="36.903252602830136" lon="-108.08870921375369"><ele>1870.25</ele><time>2026-04-25T16:57:06Z</time></trkpt><trkpt lat="36.90316286925717" lon="-108.08879871687228"><ele>1870.0</ele><time>2026-04-25T16:57:07Z</time></trkpt><trkpt lat="36.903104018750646" lon="-108.0889570737391"><ele>1869.6</ele><time>2026-04-25T16:57:08Z</time></trkpt><trkpt lat="36.903016282318724" lon="-108.0890939441963"><ele>1869.2</ele><time>2026-04-25T16:57:09Z</time></trkpt><trkpt lat="36.90293117078019" lon="-108.08920670535757"><ele>1868.8000000000002</ele><time>2026-04-25T16:57:10Z</time></trkpt><trkpt lat="36.9028884457453" lon="-108.08928207691453"><ele>1868.4</ele><time>2026-04-25T16:57:11Z</time></trkpt><trkpt lat="36.902908445688084" lon="-108.08936416480822"><ele>1868.0</ele><time>2026-04-25T16:57:13Z</time></trkpt><trkpt lat="36.90297300808993" lon="-108.08937546508324"><ele>1868.0</ele><time>2026-04-25T16:57:14Z</time></trkpt><trkpt lat="36.90304101291196" lon="-108.08937043438468"><ele>1868.0000000000002</ele><time>2026-04-25T16:57:15Z</time></trkpt><trkpt lat="36.9031185626126" lon="-108.08931736244223"><ele>1868.0000000000002</ele><time>2026-04-25T16:57:16Z</time></trkpt><trkpt lat="36.9031527530899" lon="-108.08942986239073"><ele>1868.0</ele><time>2026-04-25T16:57:21Z</time></trkpt><trkpt lat="36.90310262998188" lon="-108.08955244046525"><ele>1868.0</ele><time>2026-04-25T16:57:22Z</time></trkpt><trkpt lat="36.903056061262134" lon="-108.0896801851053"><ele>1868.0</ele><time>2026-04-25T16:57:23Z</time></trkpt><trkpt lat="36.90298649750243" lon="-108.08979373644266"><ele>1868.0000000000002</ele><time>2026-04-25T16:57:24Z</time></trkpt><trkpt lat="36.902920929362814" lon="-108.08990103671769"><ele>1868.0000000000002</ele><time>2026-04-25T16:57:25Z</time></trkpt><trkpt lat="36.902840194878216" lon="-108.08996643087681"><ele>1868.0</ele><time>2026-04-25T16:57:26Z</time></trkpt><trkpt lat="36.902720972112135" lon="-108.08997013156505"><ele>1868.0</ele><time>2026-04-25T16:57:27Z</time></trkpt><trkpt lat="36.90257619234597" lon="-108.08996757851801"><ele>1867.8000000000002</ele><time>2026-04-25T16:57:28Z</time></trkpt><trkpt lat="36.90247482376101" lon="-108.08997177126888"><ele>1867.6000000000001</ele><time>2026-04-25T16:57:29Z</time></trkpt><trkpt lat="36.902397351708785" lon="-108.09002849057077"><ele>1867.3999999999999</ele><time>2026-04-25T16:57:30Z</time></trkpt><trkpt lat="36.902336593412464" lon="-108.09013705921187"><ele>1867.1999999999998</ele><time>2026-04-25T16:57:31Z</time></trkpt><trkpt lat="36.90227925154132" lon="-108.09029602535568"><ele>1867.0</ele><time>2026-04-25T16:57:32Z</time></trkpt><trkpt lat="36.902228658675305" lon="-108.09045367743384"><ele>1867.0</ele><time>2026-04-25T16:57:33Z</time></trkpt><trkpt lat="36.902159172222085" lon="-108.09060532251365"><ele>1867.0</ele><time>2026-04-25T16:57:34Z</time></trkpt><trkpt lat="36.902104611324944" lon="-108.0907878551396"><ele>1867.0</ele><time>2026-04-25T16:57:35Z</time></trkpt><trkpt lat="36.90206402230658" lon="-108.09098734798926"><ele>1867.0</ele><time>2026-04-25T16:57:36Z</time></trkpt><trkpt lat="36.90201833378465" lon="-108.09116837400433"><ele>1866.9999999999998</ele><time>2026-04-25T16:57:37Z</time></trkpt><trkpt lat="36.901946942699546" lon="-108.09127365480506"><ele>1866.9999999999998</ele><time>2026-04-25T16:57:38Z</time></trkpt><trkpt lat="36.90188588546408" lon="-108.09133816250424"><ele>1867.0</ele><time>2026-04-25T16:57:39Z</time></trkpt><trkpt lat="36.901803900381886" lon="-108.0913660271259"><ele>1867.0</ele><time>2026-04-25T16:57:40Z</time></trkpt><trkpt lat="36.901697195353584" lon="-108.09135937385406"><ele>1867.0</ele><time>2026-04-25T16:57:41Z</time></trkpt><trkpt lat="36.90157096681689" lon="-108.09134713759119"><ele>1867.0</ele><time>2026-04-25T16:57:42Z</time></trkpt><trkpt lat="36.901463729222385" lon="-108.09141614583606"><ele>1867.0</ele><time>2026-04-25T16:57:43Z</time></trkpt><trkpt lat="36.90143142012569" lon="-108.09149828577766"><ele>1867.0</ele><time>2026-04-25T16:57:44Z</time></trkpt><trkpt lat="36.90149801721174" lon="-108.09165849791454"><ele>1867.0</ele><time>2026-04-25T16:57:46Z</time></trkpt><trkpt lat="36.90158398825234" lon="-108.09171188942345"><ele>1866.9999999999998</ele><time>2026-04-25T16:57:47Z</time></trkpt><trkpt lat="36.901692237666474" lon="-108.09173741375561"><ele>1866.9999999999998</ele><time>2026-04-25T16:57:48Z</time></trkpt><trkpt lat="36.90179153057629" lon="-108.09172770728296"><ele>1867.0</ele><time>2026-04-25T16:57:49Z</time></trkpt><trkpt lat="36.90182776203361" lon="-108.0918039204665"><ele>1867.0</ele><time>2026-04-25T16:57:51Z</time></trkpt><trkpt lat="36.90178058328742" lon="-108.09191722150197"><ele>1867.0</ele><time>2026-04-25T16:57:53Z</time></trkpt><trkpt lat="36.90170876717975" lon="-108.09199411529507"><ele>1866.9999999999998</ele><time>2026-04-25T16:57:54Z</time></trkpt><trkpt lat="36.90161672081231" lon="-108.0920447953547"><ele>1866.9999999999998</ele><time>2026-04-25T16:57:55Z</time></trkpt><trkpt lat="36.90149788319075" lon="-108.09207689126934"><ele>1867.0</ele><time>2026-04-25T16:57:56Z</time></trkpt><trkpt lat="36.90137854638578" lon="-108.0920899145345"><ele>1867.0</ele><time>2026-04-25T16:57:57Z</time></trkpt><trkpt lat="36.901286825645364" lon="-108.09215547772266"><ele>1867.0</ele><time>2026-04-25T16:57:58Z</time></trkpt><trkpt lat="36.90115444391011" lon="-108.09219971219461"><ele>1866.9999999999998</ele><time>2026-04-25T16:57:59Z</time></trkpt><trkpt lat="36.901046363739624" lon="-108.0921883806452"><ele>1866.9999999999998</ele><time>2026-04-25T16:58:00Z</time></trkpt><trkpt lat="36.900970004643064" lon="-108.0921752988576"><ele>1867.0</ele><time>2026-04-25T16:58:01Z</time></trkpt><trkpt lat="36.90091058040902" lon="-108.09229818212985"><ele>1867.0</ele><time>2026-04-25T16:58:03Z</time></trkpt><trkpt lat="36.90090182286814" lon="-108.09240017298383"><ele>1866.5000000000002</ele><time>2026-04-25T16:58:04Z</time></trkpt><trkpt lat="36.90093316571643" lon="-108.09249041614049"><ele>1866.0</ele><time>2026-04-25T16:58:05Z</time></trkpt><trkpt lat="36.90098906088242" lon="-108.09253072544696"><ele>1865.5</ele><time>2026-04-25T16:58:06Z</time></trkpt><trkpt lat="36.901042529429155" lon="-108.09257312887566"><ele>1865.0</ele><time>2026-04-25T16:58:07Z</time></trkpt><trkpt lat="36.90102536380775" lon="-108.09273763089625"><ele>1864.5000000000002</ele><time>2026-04-25T16:58:09Z</time></trkpt><trkpt lat="36.90097240035442" lon="-108.09284922157723"><ele>1864.0</ele><time>2026-04-25T16:58:10Z</time></trkpt><trkpt lat="36.90087786116465" lon="-108.09291342935205"><ele>1863.75</ele><time>2026-04-25T16:58:11Z</time></trkpt><trkpt lat="36.900779507478475" lon="-108.09299071254225"><ele>1863.5</ele><time>2026-04-25T16:58:12Z</time></trkpt><trkpt lat="36.90066862974446" lon="-108.09308783377304"><ele>1863.25</ele><time>2026-04-25T16:58:13Z</time></trkpt><trkpt lat="36.90057656751275" lon="-108.09321009537068"><ele>1863.0</ele><time>2026-04-25T16:58:14Z</time></trkpt><trkpt lat="36.900466506486886" lon="-108.09331948587267"><ele>1862.8333333333333</ele><time>2026-04-25T16:58:15Z</time></trkpt><trkpt lat="36.900361150182114" lon="-108.09340687776739"><ele>1862.6666666666665</ele><time>2026-04-25T16:58:16Z</time></trkpt><trkpt lat="36.90031450153987" lon="-108.09348844619996"><ele>1862.5</ele><time>2026-04-25T16:58:17Z</time></trkpt><trkpt lat="36.900270275488076" lon="-108.09357217700622"><ele>1862.3333333333333</ele><time>2026-04-25T16:58:18Z</time></trkpt><trkpt lat="36.9002341013228" lon="-108.09366783390706"><ele>1862.1666666666665</ele><time>2026-04-25T16:58:19Z</time></trkpt><trkpt lat="36.90026816876256" lon="-108.09375413725468"><ele>1862.0</ele><time>2026-04-25T16:58:21Z</time></trkpt><trkpt lat="36.900317571756496" lon="-108.09381355699857"><ele>1862.0</ele><time>2026-04-25T16:58:22Z</time></trkpt><trkpt lat="36.90039572529111" lon="-108.09391547338961"><ele>1861.9999999999998</ele><time>2026-04-25T16:58:23Z</time></trkpt><trkpt lat="36.9004759217148" lon="-108.09401266186707"><ele>1861.9999999999998</ele><time>2026-04-25T16:58:24Z</time></trkpt><trkpt lat="36.900497969633435" lon="-108.0940889639472"><ele>1862.0</ele><time>2026-04-25T16:58:25Z</time></trkpt><trkpt lat="36.90047233626481" lon="-108.09417041227036"><ele>1862.0</ele><time>2026-04-25T16:58:26Z</time></trkpt><trkpt lat="36.90039942628883" lon="-108.09423789650961"><ele>1862.0</ele><time>2026-04-25T16:58:27Z</time></trkpt><trkpt lat="36.900292334546286" lon="-108.0942728733494"><ele>1861.9999999999998</ele><time>2026-04-25T16:58:28Z</time></trkpt><trkpt lat="36.90020850082807" lon="-108.09430148949279"><ele>1861.9999999999998</ele><time>2026-04-25T16:58:29Z</time></trkpt><trkpt lat="36.900114168522144" lon="-108.09434857643777"><ele>1862.0</ele><time>2026-04-25T16:58:30Z</time></trkpt><trkpt lat="36.89998973434345" lon="-108.09435612469035"><ele>1862.0</ele><time>2026-04-25T16:58:31Z</time></trkpt><trkpt lat="36.89988000689949" lon="-108.09438641515067"><ele>1861.9999999999998</ele><time>2026-04-25T16:58:32Z</time></trkpt><trkpt lat="36.8998150119665" lon="-108.09443162824294"><ele>1862.0</ele><time>2026-04-25T16:58:33Z</time></trkpt><trkpt lat="36.899778723446026" lon="-108.094501625125"><ele>1862.0</ele><time>2026-04-25T16:58:34Z</time></trkpt><trkpt lat="36.89978414492976" lon="-108.09460843188573"><ele>1862.0</ele><time>2026-04-25T16:58:35Z</time></trkpt><trkpt lat="36.89975943120068" lon="-108.09468451559626"><ele>1861.9999999999998</ele><time>2026-04-25T16:58:36Z</time></trkpt><trkpt lat="36.89969629185906" lon="-108.09474787032515"><ele>1862.0</ele><time>2026-04-25T16:58:37Z</time></trkpt><trkpt lat="36.89958684492085" lon="-108.09479719853016"><ele>1861.9999999999998</ele><time>2026-04-25T16:58:38Z</time></trkpt><trkpt lat="36.8995186609605" lon="-108.09488225566514"><ele>1862.0</ele><time>2026-04-25T16:58:39Z</time></trkpt><trkpt lat="36.8994872568841" lon="-108.0949594764828"><ele>1862.0</ele><time>2026-04-25T16:58:40Z</time></trkpt><trkpt lat="36.899480723111424" lon="-108.09505562052055"><ele>1862.0</ele><time>2026-04-25T16:58:41Z</time></trkpt><trkpt lat="36.899484232542825" lon="-108.09514438631825"><ele>1861.9999999999998</ele><time>2026-04-25T16:58:42Z</time></trkpt><trkpt lat="36.899494766235286" lon="-108.0952522498361"><ele>1862.0</ele><time>2026-04-25T16:58:43Z</time></trkpt><trkpt lat="36.89948486504001" lon="-108.09538575552958"><ele>1861.8</ele><time>2026-04-25T16:58:44Z</time></trkpt><trkpt lat="36.89943944050748" lon="-108.09553107685942"><ele>1861.6</ele><time>2026-04-25T16:58:45Z</time></trkpt><trkpt lat="36.8993699087829" lon="-108.09564663849383"><ele>1861.3999999999999</ele><time>2026-04-25T16:58:46Z</time></trkpt><trkpt lat="36.89929615697129" lon="-108.09566402001585"><ele>1861.1999999999998</ele><time>2026-04-25T16:58:47Z</time></trkpt><trkpt lat="36.89922478682295" lon="-108.09563376256403"><ele>1861.0</ele><time>2026-04-25T16:58:48Z</time></trkpt><trkpt lat="36.89915873711018" lon="-108.09559120960407"><ele>1861.0000000000002</ele><time>2026-04-25T16:58:49Z</time></trkpt><trkpt lat="36.89910772094547" lon="-108.09552288018203"><ele>1861.0</ele><time>2026-04-25T16:58:50Z</time></trkpt><trkpt lat="36.89905782910791" lon="-108.09544732612517"><ele>1861.0</ele><time>2026-04-25T16:58:51Z</time></trkpt><trkpt lat="36.89899543527194" lon="-108.09535673733417"><ele>1861.0</ele><time>2026-04-25T16:58:52Z</time></trkpt><trkpt lat="36.89894530396981" lon="-108.09530607093357"><ele>1861.0000000000002</ele><time>2026-04-25T16:58:53Z</time></trkpt><trkpt lat="36.89886020769853" lon="-108.09538822132454"><ele>1861.0</ele><time>2026-04-25T16:58:55Z</time></trkpt><trkpt lat="36.89886181426485" lon="-108.09550662604411"><ele>1861.0000000000002</ele><time>2026-04-25T16:58:57Z</time></trkpt><trkpt lat="36.89888824793202" lon="-108.09563846235243"><ele>1861.0</ele><time>2026-04-25T16:58:59Z</time></trkpt><trkpt lat="36.89892583245171" lon="-108.09573748293012"><ele>1861.0</ele><time>2026-04-25T16:59:00Z</time></trkpt><trkpt lat="36.89894140643617" lon="-108.09582722805523"><ele>1861.0</ele><time>2026-04-25T16:59:01Z</time></trkpt><trkpt lat="36.89894558689377" lon="-108.09591063890817"><ele>1861.0000000000002</ele><time>2026-04-25T16:59:02Z</time></trkpt><trkpt lat="36.89887236802899" lon="-108.09600231399168"><ele>1861.0</ele><time>2026-04-25T16:59:04Z</time></trkpt><trkpt lat="36.89875397021106" lon="-108.09600036148468"><ele>1861.1999999999998</ele><time>2026-04-25T16:59:06Z</time></trkpt><trkpt lat="36.8986195976183" lon="-108.09599607601936"><ele>1861.3999999999999</ele><time>2026-04-25T16:59:07Z</time></trkpt><trkpt lat="36.89848701877873" lon="-108.09599971015588"><ele>1861.6</ele><time>2026-04-25T16:59:08Z</time></trkpt><trkpt lat="36.89840732062541" lon="-108.09604211848125"><ele>1861.8</ele><time>2026-04-25T16:59:09Z</time></trkpt><trkpt lat="36.89832798040127" lon="-108.09610402681098"><ele>1862.0</ele><time>2026-04-25T16:59:10Z</time></trkpt><trkpt lat="36.89825504223016" lon="-108.09619983209097"><ele>1861.5</ele><time>2026-04-25T16:59:11Z</time></trkpt><trkpt lat="36.898166357815604" lon="-108.09632675757476"><ele>1861.0</ele><time>2026-04-25T16:59:12Z</time></trkpt><trkpt lat="36.89806736310777" lon="-108.09643708328294"><ele>1860.5</ele><time>2026-04-25T16:59:13Z</time></trkpt><trkpt lat="36.898002062314035" lon="-108.0965569769716"><ele>1860.0</ele><time>2026-04-25T16:59:14Z</time></trkpt><trkpt lat="36.89791088889959" lon="-108.09664230467938"><ele>1859.75</ele><time>2026-04-25T16:59:15Z</time></trkpt><trkpt lat="36.89780379481646" lon="-108.09673964834658"><ele>1859.5</ele><time>2026-04-25T16:59:16Z</time></trkpt><trkpt lat="36.89767595372377" lon="-108.09683513411024"><ele>1859.25</ele><time>2026-04-25T16:59:17Z</time></trkpt><trkpt lat="36.89754529257528" lon="-108.09690996557234"><ele>1859.0</ele><time>2026-04-25T16:59:18Z</time></trkpt><trkpt lat="36.89738118459443" lon="-108.09696548783889"><ele>1859.0</ele><time>2026-04-25T16:59:19Z</time></trkpt><trkpt lat="36.897213623453055" lon="-108.09699443847889"><ele>1859.0</ele><time>2026-04-25T16:59:20Z</time></trkpt><trkpt lat="36.8970512644622" lon="-108.09700432871348"><ele>1859.0</ele><time>2026-04-25T16:59:21Z</time></trkpt><trkpt lat="36.896886858411044" lon="-108.09703484663224"><ele>1859.0</ele><time>2026-04-25T16:59:22Z</time></trkpt><trkpt lat="36.89674210620977" lon="-108.09711067714636"><ele>1859.0</ele><time>2026-04-25T16:59:23Z</time></trkpt><trkpt lat="36.896574362597455" lon="-108.0972074012737"><ele>1859.0</ele><time>2026-04-25T16:59:24Z</time></trkpt><trkpt lat="36.89643421163408" lon="-108.09735305821144"><ele>1858.0</ele><time>2026-04-25T16:59:25Z</time></trkpt><trkpt lat="36.896296382217585" lon="-108.09748446663612"><ele>1857.0</ele><time>2026-04-25T16:59:26Z</time></trkpt><trkpt lat="36.896209541888055" lon="-108.09757699928414"><ele>1856.0</ele><time>2026-04-25T16:59:27Z</time></trkpt><trkpt lat="36.89615386605812" lon="-108.09768354509923"><ele>1855.0</ele><time>2026-04-25T16:59:28Z</time></trkpt><trkpt lat="36.89612235398822" lon="-108.0978138185463"><ele>1855.0</ele><time>2026-04-25T16:59:29Z</time></trkpt><trkpt lat="36.89610352429351" lon="-108.09796157337628"><ele>1855.0</ele><time>2026-04-25T16:59:30Z</time></trkpt><trkpt lat="36.89608099019274" lon="-108.098135227661"><ele>1855.0</ele><time>2026-04-25T16:59:31Z</time></trkpt><trkpt lat="36.896077485791686" lon="-108.09832371960835"><ele>1855.0</ele><time>2026-04-25T16:59:32Z</time></trkpt><trkpt lat="36.896113433153545" lon="-108.09852128890411"><ele>1855.25</ele><time>2026-04-25T16:59:33Z</time></trkpt><trkpt lat="36.89613049677933" lon="-108.09872324766607"><ele>1855.5</ele><time>2026-04-25T16:59:34Z</time></trkpt><trkpt lat="36.89611948116787" lon="-108.09890871353852"><ele>1855.75</ele><time>2026-04-25T16:59:35Z</time></trkpt><trkpt lat="36.89608449303101" lon="-108.09905360775572"><ele>1856.0</ele><time>2026-04-25T16:59:36Z</time></trkpt><trkpt lat="36.896045640924214" lon="-108.09919819195527"><ele>1856.0</ele><time>2026-04-25T16:59:37Z</time></trkpt><trkpt lat="36.895976246444675" lon="-108.0993400802705"><ele>1856.0</ele><time>2026-04-25T16:59:38Z</time></trkpt><trkpt lat="36.89588081331245" lon="-108.0994433569222"><ele>1856.0</ele><time>2026-04-25T16:59:39Z</time></trkpt><trkpt lat="36.895752279116095" lon="-108.09954683755943"><ele>1856.0</ele><time>2026-04-25T16:59:40Z</time></trkpt><trkpt lat="36.895612271411025" lon="-108.09964318834524"><ele>1855.75</ele><time>2026-04-25T16:59:41Z</time></trkpt><trkpt lat="36.89545192428255" lon="-108.09967135801074"><ele>1855.5</ele><time>2026-04-25T16:59:42Z</time></trkpt><trkpt lat="36.89528005511664" lon="-108.09968755172902"><ele>1855.25</ele><time>2026-04-25T16:59:43Z</time></trkpt><trkpt lat="36.895180021102675" lon="-108.099724495898"><ele>1855.0</ele><time>2026-04-25T16:59:44Z</time></trkpt><trkpt lat="36.8950951066159" lon="-108.09980703850074"><ele>1854.5</ele><time>2026-04-25T16:59:45Z</time></trkpt><trkpt lat="36.89501775492997" lon="-108.09997039386907"><ele>1854.0</ele><time>2026-04-25T16:59:46Z</time></trkpt><trkpt lat="36.894935861803276" lon="-108.10010415474275"><ele>1853.5</ele><time>2026-04-25T16:59:47Z</time></trkpt><trkpt lat="36.89484119340798" lon="-108.10020163494136"><ele>1853.0</ele><time>2026-04-25T16:59:48Z</time></trkpt><trkpt lat="36.89474690311442" lon="-108.10025865095007"><ele>1853.0</ele><time>2026-04-25T16:59:49Z</time></trkpt><trkpt lat="36.89466070806756" lon="-108.100289336043"><ele>1853.0000000000002</ele><time>2026-04-25T16:59:50Z</time></trkpt><trkpt lat="36.894541505794365" lon="-108.10026965423035"><ele>1853.0000000000002</ele><time>2026-04-25T16:59:51Z</time></trkpt><trkpt lat="36.894407520638616" lon="-108.10024472189319"><ele>1853.0</ele><time>2026-04-25T16:59:52Z</time></trkpt><trkpt lat="36.89433213834461" lon="-108.10029510252704"><ele>1853.0</ele><time>2026-04-25T16:59:53Z</time></trkpt><trkpt lat="36.89429350501494" lon="-108.10040790367464"><ele>1853.0</ele><time>2026-04-25T16:59:54Z</time></trkpt><trkpt lat="36.894289697324936" lon="-108.10055306479151"><ele>1853.0000000000002</ele><time>2026-04-25T16:59:55Z</time></trkpt><trkpt lat="36.894279238067384" lon="-108.10067432966665"><ele>1853.0000000000002</ele><time>2026-04-25T16:59:56Z</time></trkpt><trkpt lat="36.894243392217334" lon="-108.10075403510093"><ele>1853.0</ele><time>2026-04-25T16:59:57Z</time></trkpt><trkpt lat="36.89416165778619" lon="-108.10073554050176"><ele>1853.0</ele><time>2026-04-25T16:59:58Z</time></trkpt><trkpt lat="36.894083647467895" lon="-108.10065788814853"><ele>1853.0</ele><time>2026-04-25T16:59:59Z</time></trkpt><trkpt lat="36.894026451423144" lon="-108.10055613752984"><ele>1853.0</ele><time>2026-04-25T17:00:00Z</time></trkpt><trkpt lat="36.89394458313742" lon="-108.10044617755925"><ele>1853.0</ele><time>2026-04-25T17:00:01Z</time></trkpt><trkpt lat="36.893859876917" lon="-108.10036216871038"><ele>1853.0</ele><time>2026-04-25T17:00:02Z</time></trkpt><trkpt lat="36.89374348465799" lon="-108.10031380437282"><ele>1853.0</ele><time>2026-04-25T17:00:03Z</time></trkpt><trkpt lat="36.893644412012634" lon="-108.10031811774799"><ele>1853.0000000000002</ele><time>2026-04-25T17:00:04Z</time></trkpt><trkpt lat="36.893583438644406" lon="-108.10036379845249"><ele>1853.0000000000002</ele><time>2026-04-25T17:00:05Z</time></trkpt><trkpt lat="36.89356590075779" lon="-108.10047890011631"><ele>1853.0</ele><time>2026-04-25T17:00:07Z</time></trkpt><trkpt lat="36.8936010646479" lon="-108.10057771301854"><ele>1853.0</ele><time>2026-04-25T17:00:08Z</time></trkpt><trkpt lat="36.893627482459344" lon="-108.10071069285175"><ele>1853.0</ele><time>2026-04-25T17:00:09Z</time></trkpt><trkpt lat="36.893582497162356" lon="-108.1008481372448"><ele>1853.0</ele><time>2026-04-25T17:00:10Z</time></trkpt><trkpt lat="36.89345519625426" lon="-108.10091947665819"><ele>1853.0</ele><time>2026-04-25T17:00:11Z</time></trkpt><trkpt lat="36.893349869581286" lon="-108.10098897686775"><ele>1853.0</ele><time>2026-04-25T17:00:12Z</time></trkpt><trkpt lat="36.89324362170651" lon="-108.10108272340135"><ele>1853.0</ele><time>2026-04-25T17:00:13Z</time></trkpt><trkpt lat="36.89313078872135" lon="-108.10116752072273"><ele>1853.0</ele><time>2026-04-25T17:00:14Z</time></trkpt><trkpt lat="36.89299303457492" lon="-108.10123788699876"><ele>1853.0</ele><time>2026-04-25T17:00:15Z</time></trkpt><trkpt lat="36.892852184482905" lon="-108.10132432513635"><ele>1853.0</ele><time>2026-04-25T17:00:16Z</time></trkpt><trkpt lat="36.892705815783245" lon="-108.10143432926671"><ele>1852.3333333333333</ele><time>2026-04-25T17:00:17Z</time></trkpt><trkpt lat="36.89254460696384" lon="-108.10152382669662"><ele>1851.6666666666665</ele><time>2026-04-25T17:00:18Z</time></trkpt><trkpt lat="36.89237445378581" lon="-108.1016326007904"><ele>1851.0</ele><time>2026-04-25T17:00:19Z</time></trkpt><trkpt lat="36.892216719595446" lon="-108.10170355285194"><ele>1851.0</ele><time>2026-04-25T17:00:20Z</time></trkpt><trkpt lat="36.8920503881931" lon="-108.10171059535156"><ele>1851.0</ele><time>2026-04-25T17:00:21Z</time></trkpt><trkpt lat="36.891890080024375" lon="-108.10170206579103"><ele>1851.0</ele><time>2026-04-25T17:00:22Z</time></trkpt><trkpt lat="36.89172944372855" lon="-108.10168566924575"><ele>1850.3333333333335</ele><time>2026-04-25T17:00:23Z</time></trkpt><trkpt lat="36.891558125779795" lon="-108.10168287326955"><ele>1849.6666666666667</ele><time>2026-04-25T17:00:24Z</time></trkpt><trkpt lat="36.89140114740425" lon="-108.10169621233587"><ele>1849.0</ele><time>2026-04-25T17:00:25Z</time></trkpt><trkpt lat="36.89128117172308" lon="-108.10173915066034"><ele>1849.0</ele><time>2026-04-25T17:00:26Z</time></trkpt><trkpt lat="36.89115561785687" lon="-108.1018229354306"><ele>1849.0</ele><time>2026-04-25T17:00:27Z</time></trkpt><trkpt lat="36.891050194753525" lon="-108.10192890415313"><ele>1849.0</ele><time>2026-04-25T17:00:28Z</time></trkpt><trkpt lat="36.8909680424755" lon="-108.10198347769897"><ele>1849.0</ele><time>2026-04-25T17:00:29Z</time></trkpt><trkpt lat="36.89085511645285" lon="-108.10198129980922"><ele>1849.0</ele><time>2026-04-25T17:00:30Z</time></trkpt><trkpt lat="36.89071812146515" lon="-108.10188938169874"><ele>1849.0</ele><time>2026-04-25T17:00:31Z</time></trkpt><trkpt lat="36.890586780212836" lon="-108.10181999905461"><ele>1849.0</ele><time>2026-04-25T17:00:32Z</time></trkpt><trkpt lat="36.89047221895979" lon="-108.1017874637473"><ele>1849.0</ele><time>2026-04-25T17:00:33Z</time></trkpt><trkpt lat="36.89033882252895" lon="-108.10179625700675"><ele>1849.0000000000002</ele><time>2026-04-25T17:00:34Z</time></trkpt><trkpt lat="36.89019986634838" lon="-108.10182279693475"><ele>1849.0</ele><time>2026-04-25T17:00:35Z</time></trkpt><trkpt lat="36.8901163021183" lon="-108.1018451215413"><ele>1849.0</ele><time>2026-04-25T17:00:36Z</time></trkpt><trkpt lat="36.890066957316975" lon="-108.10190506455885"><ele>1849.0</ele><time>2026-04-25T17:00:37Z</time></trkpt><trkpt lat="36.8900421814855" lon="-108.10199007002134"><ele>1849.0000000000002</ele><time>2026-04-25T17:00:38Z</time></trkpt><trkpt lat="36.890019928845575" lon="-108.10208131127504"><ele>1849.0</ele><time>2026-04-25T17:00:39Z</time></trkpt><trkpt lat="36.890018433005174" lon="-108.10224320227164"><ele>1849.0</ele><time>2026-04-25T17:00:40Z</time></trkpt><trkpt lat="36.88994796633808" lon="-108.10233034581552"><ele>1849.0</ele><time>2026-04-25T17:00:41Z</time></trkpt><trkpt lat="36.8898580723475" lon="-108.10233331625615"><ele>1849.0</ele><time>2026-04-25T17:00:42Z</time></trkpt><trkpt lat="36.88973153928182" lon="-108.1023024723032"><ele>1849.0</ele><time>2026-04-25T17:00:43Z</time></trkpt><trkpt lat="36.88960570133838" lon="-108.10232212826993"><ele>1849.0</ele><time>2026-04-25T17:00:44Z</time></trkpt><trkpt lat="36.88949906621979" lon="-108.10239088966172"><ele>1848.6666666666667</ele><time>2026-04-25T17:00:45Z</time></trkpt><trkpt lat="36.88936763059589" lon="-108.10248093366216"><ele>1848.3333333333335</ele><time>2026-04-25T17:00:46Z</time></trkpt><trkpt lat="36.88922722891266" lon="-108.10259779743738"><ele>1848.0</ele><time>2026-04-25T17:00:47Z</time></trkpt><trkpt lat="36.88909220371578" lon="-108.10271184278601"><ele>1848.0</ele><time>2026-04-25T17:00:48Z</time></trkpt><trkpt lat="36.88896870800052" lon="-108.10278340112923"><ele>1848.0</ele><time>2026-04-25T17:00:49Z</time></trkpt><trkpt lat="36.88880800847437" lon="-108.10281629712978"><ele>1848.0</ele><time>2026-04-25T17:00:50Z</time></trkpt><trkpt lat="36.88864710291237" lon="-108.10282880572409"><ele>1848.0</ele><time>2026-04-25T17:00:51Z</time></trkpt><trkpt lat="36.88847251221502" lon="-108.10281891192662"><ele>1848.0</ele><time>2026-04-25T17:00:52Z</time></trkpt><trkpt lat="36.88829776847298" lon="-108.10283125993556"><ele>1848.0</ele><time>2026-04-25T17:00:53Z</time></trkpt><trkpt lat="36.8881744453138" lon="-108.10287950485086"><ele>1847.75</ele><time>2026-04-25T17:00:54Z</time></trkpt><trkpt lat="36.88804793099245" lon="-108.10298045685849"><ele>1847.5</ele><time>2026-04-25T17:00:55Z</time></trkpt><trkpt lat="36.887948055772775" lon="-108.10309380923904"><ele>1847.25</ele><time>2026-04-25T17:00:56Z</time></trkpt><trkpt lat="36.887842087107366" lon="-108.10316569173375"><ele>1847.0</ele><time>2026-04-25T17:00:57Z</time></trkpt><trkpt lat="36.88776273405179" lon="-108.10315442577975"><ele>1847.0</ele><time>2026-04-25T17:00:58Z</time></trkpt><trkpt lat="36.887669681274105" lon="-108.10310498791969"><ele>1847.0</ele><time>2026-04-25T17:00:59Z</time></trkpt><trkpt lat="36.88759856983952" lon="-108.10304248263837"><ele>1847.0</ele><time>2026-04-25T17:01:00Z</time></trkpt><trkpt lat="36.88741819760472" lon="-108.10315711104748"><ele>1847.0</ele><time>2026-04-25T17:01:02Z</time></trkpt><trkpt lat="36.8873368514752" lon="-108.10327403564553"><ele>1846.5</ele><time>2026-04-25T17:01:03Z</time></trkpt><trkpt lat="36.88725923238946" lon="-108.1033749311209"><ele>1846.0</ele><time>2026-04-25T17:01:04Z</time></trkpt><trkpt lat="36.88714633431225" lon="-108.10346724581326"><ele>1845.5</ele><time>2026-04-25T17:01:05Z</time></trkpt><trkpt lat="36.88702413928527" lon="-108.10351068684349"><ele>1845.0</ele><time>2026-04-25T17:01:06Z</time></trkpt><trkpt lat="36.88689386337658" lon="-108.10355274456964"><ele>1845.0</ele><time>2026-04-25T17:01:07Z</time></trkpt><trkpt lat="36.88676768799194" lon="-108.10358000625524"><ele>1845.0</ele><time>2026-04-25T17:01:08Z</time></trkpt><trkpt lat="36.886639583749655" lon="-108.10364551580639"><ele>1845.0</ele><time>2026-04-25T17:01:09Z</time></trkpt><trkpt lat="36.886518078313046" lon="-108.10374459065305"><ele>1845.0</ele><time>2026-04-25T17:01:10Z</time></trkpt><trkpt lat="36.88642656893087" lon="-108.10382171338618"><ele>1845.2</ele><time>2026-04-25T17:01:11Z</time></trkpt><trkpt lat="36.88640593883531" lon="-108.1039319604472"><ele>1845.4</ele><time>2026-04-25T17:01:13Z</time></trkpt><trkpt lat="36.88649912619728" lon="-108.10400403765885"><ele>1845.6</ele><time>2026-04-25T17:01:14Z</time></trkpt><trkpt lat="36.88659338829517" lon="-108.10408322310866"><ele>1845.8</ele><time>2026-04-25T17:01:15Z</time></trkpt><trkpt lat="36.88666095663681" lon="-108.1041496364949"><ele>1846.0</ele><time>2026-04-25T17:01:16Z</time></trkpt><trkpt lat="36.88663474739944" lon="-108.10426395496054"><ele>1845.5000000000002</ele><time>2026-04-25T17:01:18Z</time></trkpt><trkpt lat="36.886560221939895" lon="-108.10429423570973"><ele>1845.0</ele><time>2026-04-25T17:01:19Z</time></trkpt><trkpt lat="36.886481269879326" lon="-108.10430252275555"><ele>1844.5</ele><time>2026-04-25T17:01:20Z</time></trkpt><trkpt lat="36.88639318636561" lon="-108.10432038069983"><ele>1844.0</ele><time>2026-04-25T17:01:21Z</time></trkpt><trkpt lat="36.88630772266766" lon="-108.10436649994647"><ele>1843.5000000000002</ele><time>2026-04-25T17:01:22Z</time></trkpt><trkpt lat="36.88622515446559" lon="-108.10440103605463"><ele>1843.0</ele><time>2026-04-25T17:01:23Z</time></trkpt><trkpt lat="36.88615988890119" lon="-108.10440539321448"><ele>1843.0</ele><time>2026-04-25T17:02:36Z</time></trkpt><trkpt lat="36.88613861898144" lon="-108.10429851964051"><ele>1843.0000000000002</ele><time>2026-04-25T17:02:43Z</time></trkpt><trkpt lat="36.88610654100486" lon="-108.1042264671328"><ele>1843.0000000000002</ele><time>2026-04-25T17:02:45Z</time></trkpt><trkpt lat="36.886157310603224" lon="-108.10414977445855"><ele>1843.0</ele><time>2026-04-25T17:02:47Z</time></trkpt><trkpt lat="36.88626465799491" lon="-108.10407308353089"><ele>1843.0</ele><time>2026-04-25T17:02:49Z</time></trkpt><trkpt lat="36.88626012947844" lon="-108.10391855082628"><ele>1843.75</ele><time>2026-04-25T17:02:51Z</time></trkpt><trkpt lat="36.88623134818446" lon="-108.10379348726327"><ele>1844.5</ele><time>2026-04-25T17:02:52Z</time></trkpt><trkpt lat="36.88617131897983" lon="-108.1036714263329"><ele>1845.25</ele><time>2026-04-25T17:02:53Z</time></trkpt><trkpt lat="36.886097982946154" lon="-108.10352662095917"><ele>1846.0</ele><time>2026-04-25T17:02:54Z</time></trkpt><trkpt lat="36.886015098424636" lon="-108.10335497244301"><ele>1847.3333333333335</ele><time>2026-04-25T17:02:55Z</time></trkpt><trkpt lat="36.885951413218194" lon="-108.10317751769794"><ele>1848.6666666666665</ele><time>2026-04-25T17:02:56Z</time></trkpt><trkpt lat="36.88591169050145" lon="-108.10296535145704"><ele>1850.0</ele><time>2026-04-25T17:02:57Z</time></trkpt><trkpt lat="36.88585005711533" lon="-108.10272829554648"><ele>1850.3333333333333</ele><time>2026-04-25T17:02:58Z</time></trkpt><trkpt lat="36.88577044835446" lon="-108.1024962996118"><ele>1850.6666666666665</ele><time>2026-04-25T17:02:59Z</time></trkpt><trkpt lat="36.88569578941791" lon="-108.10228154735145"><ele>1851.0</ele><time>2026-04-25T17:03:00Z</time></trkpt><trkpt lat="36.88566630236755" lon="-108.10211837340105"><ele>1851.6</ele><time>2026-04-25T17:03:01Z</time></trkpt><trkpt lat="36.88562438735838" lon="-108.10201867559034"><ele>1852.1999999999998</ele><time>2026-04-25T17:03:02Z</time></trkpt><trkpt lat="36.885538931846185" lon="-108.10196085532286"><ele>1852.8000000000002</ele><time>2026-04-25T17:03:03Z</time></trkpt><trkpt lat="36.88543418163303" lon="-108.10191540167921"><ele>1853.4</ele><time>2026-04-25T17:03:04Z</time></trkpt><trkpt lat="36.88532603727686" lon="-108.10189968335648"><ele>1854.0</ele><time>2026-04-25T17:03:05Z</time></trkpt><trkpt lat="36.88522257493785" lon="-108.1018822699521"><ele>1854.0</ele><time>2026-04-25T17:03:06Z</time></trkpt><trkpt lat="36.885151775725326" lon="-108.10182231955099"><ele>1854.0</ele><time>2026-04-25T17:03:07Z</time></trkpt><trkpt lat="36.88506370657802" lon="-108.1017264083826"><ele>1854.0</ele><time>2026-04-25T17:03:08Z</time></trkpt><trkpt lat="36.8850172205242" lon="-108.10165543937481"><ele>1854.0</ele><time>2026-04-25T17:03:09Z</time></trkpt><trkpt lat="36.884869745315804" lon="-108.10170932021876"><ele>1854.0</ele><time>2026-04-25T17:03:11Z</time></trkpt><trkpt lat="36.884792424434615" lon="-108.10167557682675"><ele>1854.0</ele><time>2026-04-25T17:03:12Z</time></trkpt><trkpt lat="36.88470159557337" lon="-108.10163094268243"><ele>1854.0</ele><time>2026-04-25T17:03:13Z</time></trkpt><trkpt lat="36.88460260692348" lon="-108.10160216007408"><ele>1854.0</ele><time>2026-04-25T17:03:14Z</time></trkpt><trkpt lat="36.88450698960386" lon="-108.10157467148116"><ele>1854.0</ele><time>2026-04-25T17:03:15Z</time></trkpt><trkpt lat="36.88439770587701" lon="-108.10153618042494"><ele>1854.0</ele><time>2026-04-25T17:03:16Z</time></trkpt><trkpt lat="36.884334218403595" lon="-108.10149834681972"><ele>1854.4</ele><time>2026-04-25T17:03:17Z</time></trkpt><trkpt lat="36.88429186722773" lon="-108.10140278387208"><ele>1854.8000000000002</ele><time>2026-04-25T17:03:18Z</time></trkpt><trkpt lat="36.884264746142584" lon="-108.10127869057628"><ele>1855.1999999999998</ele><time>2026-04-25T17:03:19Z</time></trkpt><trkpt lat="36.884216139710986" lon="-108.10121803412156"><ele>1855.6</ele><time>2026-04-25T17:03:20Z</time></trkpt><trkpt lat="36.88412458976536" lon="-108.10115722928873"><ele>1856.0</ele><time>2026-04-25T17:03:21Z</time></trkpt><trkpt lat="36.88406082156517" lon="-108.10105871898759"><ele>1856.8</ele><time>2026-04-25T17:03:22Z</time></trkpt><trkpt lat="36.88400689886442" lon="-108.10094931682157"><ele>1857.6</ele><time>2026-04-25T17:03:23Z</time></trkpt><trkpt lat="36.88395786540903" lon="-108.10082945146038"><ele>1858.4</ele><time>2026-04-25T17:03:24Z</time></trkpt><trkpt lat="36.88389862955104" lon="-108.10072845064443"><ele>1859.2</ele><time>2026-04-25T17:03:25Z</time></trkpt><trkpt lat="36.883851283867145" lon="-108.10066422625611"><ele>1860.0</ele><time>2026-04-25T17:03:26Z</time></trkpt><trkpt lat="36.88377126292236" lon="-108.10062501390686"><ele>1860.4</ele><time>2026-04-25T17:03:27Z</time></trkpt><trkpt lat="36.88370998365537" lon="-108.10054861387839"><ele>1860.8</ele><time>2026-04-25T17:03:28Z</time></trkpt><trkpt lat="36.8836893454863" lon="-108.10043838458547"><ele>1861.1999999999998</ele><time>2026-04-25T17:03:29Z</time></trkpt><trkpt lat="36.88367016479482" lon="-108.10031416708674"><ele>1861.6</ele><time>2026-04-25T17:03:30Z</time></trkpt><trkpt lat="36.883629769746406" lon="-108.10016411160287"><ele>1862.0</ele><time>2026-04-25T17:03:31Z</time></trkpt><trkpt lat="36.88358269387898" lon="-108.10002962450687"><ele>1862.0</ele><time>2026-04-25T17:03:32Z</time></trkpt><trkpt lat="36.88357132731424" lon="-108.09993159450559"><ele>1861.9999999999998</ele><time>2026-04-25T17:03:33Z</time></trkpt><trkpt lat="36.883462310986125" lon="-108.09992912662852"><ele>1861.9999999999998</ele><time>2026-04-25T17:03:35Z</time></trkpt><trkpt lat="36.88334077575544" lon="-108.09990480832198"><ele>1862.0</ele><time>2026-04-25T17:03:36Z</time></trkpt><trkpt lat="36.88324101706239" lon="-108.09984005569027"><ele>1862.0</ele><time>2026-04-25T17:03:37Z</time></trkpt><trkpt lat="36.88312306761773" lon="-108.09977358902636"><ele>1863.25</ele><time>2026-04-25T17:03:38Z</time></trkpt><trkpt lat="36.88301978363052" lon="-108.09973452724476"><ele>1864.5</ele><time>2026-04-25T17:03:39Z</time></trkpt><trkpt lat="36.88295454355849" lon="-108.09963728007081"><ele>1865.75</ele><time>2026-04-25T17:03:40Z</time></trkpt><trkpt lat="36.88290407708312" lon="-108.09949125654202"><ele>1867.0</ele><time>2026-04-25T17:03:41Z</time></trkpt><trkpt lat="36.8828520342045" lon="-108.09933946326838"><ele>1867.0</ele><time>2026-04-25T17:03:42Z</time></trkpt><trkpt lat="36.88275377262106" lon="-108.09923914095131"><ele>1866.9999999999998</ele><time>2026-04-25T17:03:43Z</time></trkpt><trkpt lat="36.88265939144926" lon="-108.09917347516335"><ele>1866.9999999999998</ele><time>2026-04-25T17:03:44Z</time></trkpt><trkpt lat="36.88259185437536" lon="-108.09909541236941"><ele>1867.0</ele><time>2026-04-25T17:03:46Z</time></trkpt><trkpt lat="36.88253170532047" lon="-108.09912262281894"><ele>1867.0</ele><time>2026-04-25T17:03:48Z</time></trkpt><trkpt lat="36.882480359989344" lon="-108.09916980517676"><ele>1868.1999999999998</ele><time>2026-04-25T17:03:49Z</time></trkpt><trkpt lat="36.88241921949141" lon="-108.09920921107407"><ele>1869.3999999999999</ele><time>2026-04-25T17:03:52Z</time></trkpt><trkpt lat="36.8823550263366" lon="-108.09920623767144"><ele>1870.6000000000001</ele><time>2026-04-25T17:04:00Z</time></trkpt><trkpt lat="36.882261158640816" lon="-108.09917665736687"><ele>1871.8000000000002</ele><time>2026-04-25T17:04:02Z</time></trkpt><trkpt lat="36.88215565689699" lon="-108.09917249684807"><ele>1873.0</ele><time>2026-04-25T17:04:04Z</time></trkpt><trkpt lat="36.88203149139535" lon="-108.09919885121106"><ele>1873.0</ele><time>2026-04-25T17:04:06Z</time></trkpt><trkpt lat="36.88197983737541" lon="-108.09911526048329"><ele>1873.0000000000002</ele><time>2026-04-25T17:04:07Z</time></trkpt><trkpt lat="36.88188085415275" lon="-108.09900773562205"><ele>1873.0000000000002</ele><time>2026-04-25T17:04:08Z</time></trkpt><trkpt lat="36.88182712230677" lon="-108.09890936448839"><ele>1873.0</ele><time>2026-04-25T17:04:09Z</time></trkpt><trkpt lat="36.88175643597857" lon="-108.0988716510008"><ele>1873.0</ele><time>2026-04-25T17:04:10Z</time></trkpt><trkpt lat="36.88166822228372" lon="-108.09889336863371"><ele>1874.5</ele><time>2026-04-25T17:04:11Z</time></trkpt><trkpt lat="36.881584430919254" lon="-108.09895612154058"><ele>1876.0</ele><time>2026-04-25T17:04:12Z</time></trkpt><trkpt lat="36.88147887237651" lon="-108.09896223657455"><ele>1877.5</ele><time>2026-04-25T17:04:13Z</time></trkpt><trkpt lat="36.88139787743136" lon="-108.09913085514107"><ele>1879.0</ele><time>2026-04-25T17:04:15Z</time></trkpt><trkpt lat="36.88130373442257" lon="-108.09918636102772"><ele>1879.5000000000002</ele><time>2026-04-25T17:04:16Z</time></trkpt><trkpt lat="36.88122871844677" lon="-108.09918979925172"><ele>1880.0</ele><time>2026-04-25T17:04:17Z</time></trkpt><trkpt lat="36.881164980046975" lon="-108.09920404133327"><ele>1880.5</ele><time>2026-04-25T17:04:18Z</time></trkpt><trkpt lat="36.88109854826662" lon="-108.0992177457332"><ele>1881.0</ele><time>2026-04-25T17:04:19Z</time></trkpt><trkpt lat="36.880995750077915" lon="-108.09924334445557"><ele>1881.5000000000002</ele><time>2026-04-25T17:04:20Z</time></trkpt><trkpt lat="36.88092661412423" lon="-108.09931635929495"><ele>1882.0</ele><time>2026-04-25T17:04:21Z</time></trkpt><trkpt lat="36.88087315184756" lon="-108.09941402668586"><ele>1882.0</ele><time>2026-04-25T17:04:22Z</time></trkpt><trkpt lat="36.880792664838005" lon="-108.09947258859286"><ele>1881.9999999999998</ele><time>2026-04-25T17:04:23Z</time></trkpt><trkpt lat="36.88074209716315" lon="-108.0995279496386"><ele>1881.9999999999998</ele><time>2026-04-25T17:04:24Z</time></trkpt><trkpt lat="36.880675584735584" lon="-108.099579526056"><ele>1882.0</ele><time>2026-04-25T17:04:25Z</time></trkpt><trkpt lat="36.88056215979092" lon="-108.09963610880236"><ele>1882.0</ele><time>2026-04-25T17:04:27Z</time></trkpt><trkpt lat="36.88047276707892" lon="-108.09963718223027"><ele>1882.0</ele><time>2026-04-25T17:04:28Z</time></trkpt><trkpt lat="36.88038787461273" lon="-108.0996414545186"><ele>1881.9999999999998</ele><time>2026-04-25T17:04:29Z</time></trkpt><trkpt lat="36.88029897078629" lon="-108.09966757099359"><ele>1881.9999999999998</ele><time>2026-04-25T17:04:30Z</time></trkpt><trkpt lat="36.88021013019654" lon="-108.09968478749585"><ele>1882.0</ele><time>2026-04-25T17:04:31Z</time></trkpt><trkpt lat="36.88010177901335" lon="-108.09963388904133"><ele>1882.0</ele><time>2026-04-25T17:04:32Z</time></trkpt><trkpt lat="36.88000158851731" lon="-108.09963557873274"><ele>1882.3333333333335</ele><time>2026-04-25T17:04:33Z</time></trkpt><trkpt lat="36.87988382550445" lon="-108.09963711036558"><ele>1882.6666666666667</ele><time>2026-04-25T17:04:34Z</time></trkpt><trkpt lat="36.87981947875084" lon="-108.09959336304743"><ele>1883.0</ele><time>2026-04-25T17:04:35Z</time></trkpt><trkpt lat="36.87974517409469" lon="-108.09955985132126"><ele>1883.3333333333335</ele><time>2026-04-25T17:04:36Z</time></trkpt><trkpt lat="36.87967886868042" lon="-108.09954934415238"><ele>1883.6666666666667</ele><time>2026-04-25T17:04:37Z</time></trkpt><trkpt lat="36.87960677709891" lon="-108.09958740919365"><ele>1884.0</ele><time>2026-04-25T17:04:38Z</time></trkpt><trkpt lat="36.87953999366877" lon="-108.09956911516123"><ele>1884.0</ele><time>2026-04-25T17:04:40Z</time></trkpt><trkpt lat="36.87953535540765" lon="-108.09947437598618"><ele>1884.0</ele><time>2026-04-25T17:04:41Z</time></trkpt><trkpt lat="36.87949185201373" lon="-108.09941367350446"><ele>1884.0</ele><time>2026-04-25T17:04:42Z</time></trkpt><trkpt lat="36.87943173582423" lon="-108.09929371138631"><ele>1884.0</ele><time>2026-04-25T17:04:44Z</time></trkpt><trkpt lat="36.87933663523337" lon="-108.09928367309298"><ele>1884.0</ele><time>2026-04-25T17:04:45Z</time></trkpt><trkpt lat="36.87923953004753" lon="-108.09925169278006"><ele>1885.5</ele><time>2026-04-25T17:04:46Z</time></trkpt><trkpt lat="36.87912968096199" lon="-108.09920710707219"><ele>1887.0</ele><time>2026-04-25T17:04:47Z</time></trkpt><trkpt lat="36.878999958965736" lon="-108.09916342984062"><ele>1888.5</ele><time>2026-04-25T17:04:48Z</time></trkpt><trkpt lat="36.878877460603206" lon="-108.0991437720869"><ele>1890.0</ele><time>2026-04-25T17:04:49Z</time></trkpt><trkpt lat="36.87875145612414" lon="-108.09914791378559"><ele>1890.0</ele><time>2026-04-25T17:04:51Z</time></trkpt><trkpt lat="36.87867053657972" lon="-108.09920991791432"><ele>1890.0</ele><time>2026-04-25T17:04:52Z</time></trkpt><trkpt lat="36.87861986492069" lon="-108.09931703377367"><ele>1890.0</ele><time>2026-04-25T17:04:53Z</time></trkpt><trkpt lat="36.87858984720019" lon="-108.0994526826243"><ele>1890.0</ele><time>2026-04-25T17:04:54Z</time></trkpt><trkpt lat="36.878559290755" lon="-108.09959854962896"><ele>1890.0</ele><time>2026-04-25T17:04:55Z</time></trkpt><trkpt lat="36.878486925035254" lon="-108.09973426374954"><ele>1890.0</ele><time>2026-04-25T17:04:56Z</time></trkpt><trkpt lat="36.87844605500384" lon="-108.0998636349391"><ele>1890.0</ele><time>2026-04-25T17:04:57Z</time></trkpt><trkpt lat="36.87841837954815" lon="-108.09994689539427"><ele>1890.0</ele><time>2026-04-25T17:04:58Z</time></trkpt><trkpt lat="36.878278458011444" lon="-108.10003464987183"><ele>1890.0</ele><time>2026-04-25T17:05:00Z</time></trkpt><trkpt lat="36.87819200726793" lon="-108.10010662991066"><ele>1890.0</ele><time>2026-04-25T17:05:01Z</time></trkpt><trkpt lat="36.878131637841676" lon="-108.10018354641386"><ele>1890.2</ele><time>2026-04-25T17:05:02Z</time></trkpt><trkpt lat="36.87805133961221" lon="-108.10019198717549"><ele>1890.4</ele><time>2026-04-25T17:05:03Z</time></trkpt><trkpt lat="36.87794329946382" lon="-108.10019866429771"><ele>1890.6</ele><time>2026-04-25T17:05:04Z</time></trkpt><trkpt lat="36.87786349364908" lon="-108.10022419479306"><ele>1890.8</ele><time>2026-04-25T17:05:05Z</time></trkpt><trkpt lat="36.87774479942028" lon="-108.10020685632125"><ele>1891.0</ele><time>2026-04-25T17:05:07Z</time></trkpt><trkpt lat="36.87766657126454" lon="-108.10027899486425"><ele>1891.0</ele><time>2026-04-25T17:05:08Z</time></trkpt><trkpt lat="36.87761342524877" lon="-108.10038326636808"><ele>1891.0</ele><time>2026-04-25T17:05:09Z</time></trkpt><trkpt lat="36.87756971897786" lon="-108.10050092067922"><ele>1891.0</ele><time>2026-04-25T17:05:10Z</time></trkpt><trkpt lat="36.87749887408543" lon="-108.10058884967219"><ele>1891.0</ele><time>2026-04-25T17:05:11Z</time></trkpt><trkpt lat="36.87743099195253" lon="-108.10065730385128"><ele>1891.0</ele><time>2026-04-25T17:05:12Z</time></trkpt><trkpt lat="36.87736341189623" lon="-108.10074134731467"><ele>1890.1999999999998</ele><time>2026-04-25T17:05:13Z</time></trkpt><trkpt lat="36.87729764810959" lon="-108.10080518304228"><ele>1889.3999999999999</ele><time>2026-04-25T17:05:14Z</time></trkpt><trkpt lat="36.87722003255546" lon="-108.10084734982108"><ele>1888.6</ele><time>2026-04-25T17:05:15Z</time></trkpt><trkpt lat="36.877113489070744" lon="-108.1008783576179"><ele>1887.8</ele><time>2026-04-25T17:05:16Z</time></trkpt><trkpt lat="36.87702087200286" lon="-108.10087038334856"><ele>1887.0</ele><time>2026-04-25T17:05:17Z</time></trkpt><trkpt lat="36.876918509537454" lon="-108.10082802683637"><ele>1887.0</ele><time>2026-04-25T17:05:18Z</time></trkpt><trkpt lat="36.87681194595766" lon="-108.10081623725192"><ele>1886.9999999999998</ele><time>2026-04-25T17:05:19Z</time></trkpt><trkpt lat="36.87673747613059" lon="-108.10079795794287"><ele>1886.9999999999998</ele><time>2026-04-25T17:05:20Z</time></trkpt><trkpt lat="36.87663884262271" lon="-108.10089304155197"><ele>1887.0</ele><time>2026-04-25T17:05:22Z</time></trkpt><trkpt lat="36.87657040688332" lon="-108.10093861077748"><ele>1887.0</ele><time>2026-04-25T17:05:23Z</time></trkpt><trkpt lat="36.87650143064267" lon="-108.1010136515687"><ele>1887.0</ele><time>2026-04-25T17:05:25Z</time></trkpt><trkpt lat="36.87646862246116" lon="-108.10111848473495"><ele>1887.0</ele><time>2026-04-25T17:05:26Z</time></trkpt><trkpt lat="36.87650960658268" lon="-108.10121575521244"><ele>1887.0</ele><time>2026-04-25T17:05:27Z</time></trkpt><trkpt lat="36.8766032254552" lon="-108.10123664118156"><ele>1887.0</ele><time>2026-04-25T17:05:28Z</time></trkpt><trkpt lat="36.876682578473314" lon="-108.10123310693211"><ele>1887.0</ele><time>2026-04-25T17:05:29Z</time></trkpt><trkpt lat="36.876756945190714" lon="-108.10127606468572"><ele>1887.0</ele><time>2026-04-25T17:05:31Z</time></trkpt><trkpt lat="36.87681626447297" lon="-108.10136581297198"><ele>1887.0</ele><time>2026-04-25T17:05:32Z</time></trkpt><trkpt lat="36.87691901483404" lon="-108.10142738696864"><ele>1886.9999999999998</ele><time>2026-04-25T17:05:33Z</time></trkpt><trkpt lat="36.87700292668088" lon="-108.10148804872695"><ele>1886.9999999999998</ele><time>2026-04-25T17:05:34Z</time></trkpt><trkpt lat="36.8770856474785" lon="-108.10155914481216"><ele>1887.0</ele><time>2026-04-25T17:05:35Z</time></trkpt><trkpt lat="36.87716446541545" lon="-108.10159454832856"><ele>1887.0</ele><time>2026-04-25T17:05:36Z</time></trkpt><trkpt lat="36.87724334015483" lon="-108.10166857563813"><ele>1886.1666666666667</ele><time>2026-04-25T17:05:37Z</time></trkpt><trkpt lat="36.87730201485494" lon="-108.10175850130607"><ele>1885.3333333333335</ele><time>2026-04-25T17:05:38Z</time></trkpt><trkpt lat="36.87735673849558" lon="-108.10183960959313"><ele>1884.5</ele><time>2026-04-25T17:05:39Z</time></trkpt><trkpt lat="36.877411372662074" lon="-108.10191045690576"><ele>1883.6666666666667</ele><time>2026-04-25T17:05:40Z</time></trkpt><trkpt lat="36.87745068028846" lon="-108.10199450991313"><ele>1882.8333333333335</ele><time>2026-04-25T17:05:41Z</time></trkpt><trkpt lat="36.877417644834686" lon="-108.10208792922681"><ele>1882.0</ele><time>2026-04-25T17:05:42Z</time></trkpt><trkpt lat="36.87739017162855" lon="-108.10218211559234"><ele>1882.0</ele><time>2026-04-25T17:05:43Z</time></trkpt><trkpt lat="36.87746548666507" lon="-108.1022206338416"><ele>1881.9999999999998</ele><time>2026-04-25T17:05:44Z</time></trkpt><trkpt lat="36.87757024300536" lon="-108.10227305979718"><ele>1881.9999999999998</ele><time>2026-04-25T17:05:45Z</time></trkpt><trkpt lat="36.87765070854196" lon="-108.1023663216067"><ele>1882.0</ele><time>2026-04-25T17:05:46Z</time></trkpt><trkpt lat="36.87771860797432" lon="-108.10249042281357"><ele>1882.0</ele><time>2026-04-25T17:05:47Z</time></trkpt><trkpt lat="36.87777070366859" lon="-108.1025978224863"><ele>1881.6666666666667</ele><time>2026-04-25T17:05:48Z</time></trkpt><trkpt lat="36.87786372404495" lon="-108.10267256895322"><ele>1881.3333333333335</ele><time>2026-04-25T17:05:49Z</time></trkpt><trkpt lat="36.87791960284432" lon="-108.10271382330349"><ele>1881.0</ele><time>2026-04-25T17:05:50Z</time></trkpt><trkpt lat="36.87798008635934" lon="-108.10275158432779"><ele>1880.6666666666665</ele><time>2026-04-25T17:05:51Z</time></trkpt><trkpt lat="36.87806734395463" lon="-108.10281850960158"><ele>1880.3333333333333</ele><time>2026-04-25T17:05:52Z</time></trkpt><trkpt lat="36.87800507302334" lon="-108.10290620853968"><ele>1880.0</ele><time>2026-04-25T17:05:54Z</time></trkpt><trkpt lat="36.87791483661902" lon="-108.10295317679419"><ele>1880.0</ele><time>2026-04-25T17:05:55Z</time></trkpt><trkpt lat="36.87781905602311" lon="-108.10303099611083"><ele>1880.0</ele><time>2026-04-25T17:05:56Z</time></trkpt><trkpt lat="36.87773091945128" lon="-108.10312454686618"><ele>1880.0</ele><time>2026-04-25T17:05:57Z</time></trkpt><trkpt lat="36.87768751444447" lon="-108.10328584674161"><ele>1880.0</ele><time>2026-04-25T17:05:58Z</time></trkpt><trkpt lat="36.877592708125164" lon="-108.10336836143426"><ele>1878.4999999999998</ele><time>2026-04-25T17:05:59Z</time></trkpt><trkpt lat="36.87751620497856" lon="-108.10343494594602"><ele>1877.0</ele><time>2026-04-25T17:06:00Z</time></trkpt><trkpt lat="36.87744455594597" lon="-108.10349790614595"><ele>1875.5</ele><time>2026-04-25T17:06:01Z</time></trkpt><trkpt lat="36.87738558050353" lon="-108.10354992104855"><ele>1874.0</ele><time>2026-04-25T17:06:02Z</time></trkpt><trkpt lat="36.877313303433816" lon="-108.10361366802788"><ele>1872.4999999999998</ele><time>2026-04-25T17:06:03Z</time></trkpt><trkpt lat="36.877235150392295" lon="-108.10368259735692"><ele>1871.0</ele><time>2026-04-25T17:06:04Z</time></trkpt><trkpt lat="36.87714378713826" lon="-108.1037631778334"><ele>1871.0</ele><time>2026-04-25T17:06:05Z</time></trkpt><trkpt lat="36.877062799554785" lon="-108.10383460717014"><ele>1871.0</ele><time>2026-04-25T17:06:06Z</time></trkpt><trkpt lat="36.87700459296272" lon="-108.10388594415592"><ele>1871.0</ele><time>2026-04-25T17:06:07Z</time></trkpt><trkpt lat="36.876943150088785" lon="-108.10394013549642"><ele>1871.0</ele><time>2026-04-25T17:06:08Z</time></trkpt><trkpt lat="36.87684830767998" lon="-108.10402379427462"><ele>1871.0</ele><time>2026-04-25T17:06:10Z</time></trkpt><trkpt lat="36.87676523415928" lon="-108.10410182529537"><ele>1870.3333333333333</ele><time>2026-04-25T17:06:12Z</time></trkpt><trkpt lat="36.876669189711315" lon="-108.10406762901825"><ele>1869.6666666666665</ele><time>2026-04-25T17:06:16Z</time></trkpt><trkpt lat="36.876614774221025" lon="-108.10399772839209"><ele>1869.0</ele><time>2026-04-25T17:06:26Z</time></trkpt><trkpt lat="36.87657915037291" lon="-108.10392868216944"><ele>1868.3333333333335</ele><time>2026-04-25T17:06:29Z</time></trkpt><trkpt lat="36.876530110844676" lon="-108.10387266802137"><ele>1867.6666666666667</ele><time>2026-04-25T17:06:30Z</time></trkpt><trkpt lat="36.87647913820975" lon="-108.1037500230734"><ele>1867.0</ele><time>2026-04-25T17:06:34Z</time></trkpt><trkpt lat="36.8764301375041" lon="-108.1036209450905"><ele>1867.0</ele><time>2026-04-25T17:06:36Z</time></trkpt><trkpt lat="36.87639724361819" lon="-108.10354845428084"><ele>1867.0</ele><time>2026-04-25T17:06:37Z</time></trkpt><trkpt lat="36.87628653562328" lon="-108.10336827641447"><ele>1867.0</ele><time>2026-04-25T17:06:38Z</time></trkpt><trkpt lat="36.876176926245016" lon="-108.1031669926956"><ele>1867.0</ele><time>2026-04-25T17:06:39Z</time></trkpt><trkpt lat="36.876098995608224" lon="-108.10305066805093"><ele>1867.3999999999999</ele><time>2026-04-25T17:06:40Z</time></trkpt><trkpt lat="36.87603489460365" lon="-108.10295446868577"><ele>1867.7999999999997</ele><time>2026-04-25T17:06:41Z</time></trkpt><trkpt lat="36.87598218316033" lon="-108.10283114790201"><ele>1868.2</ele><time>2026-04-25T17:06:42Z</time></trkpt><trkpt lat="36.875911943937176" lon="-108.10272745532635"><ele>1868.6</ele><time>2026-04-25T17:06:43Z</time></trkpt><trkpt lat="36.875865978328875" lon="-108.10266028362591"><ele>1869.0</ele><time>2026-04-25T17:06:44Z</time></trkpt><trkpt lat="36.875812469106954" lon="-108.10261072828965"><ele>1869.0</ele><time>2026-04-25T17:06:45Z</time></trkpt><trkpt lat="36.87565908319648" lon="-108.1025833802688"><ele>1869.0</ele><time>2026-04-25T17:06:47Z</time></trkpt><trkpt lat="36.87559068955933" lon="-108.10256696329162"><ele>1869.0</ele><time>2026-04-25T17:06:48Z</time></trkpt><trkpt lat="36.87552127369529" lon="-108.10256776261811"><ele>1869.0</ele><time>2026-04-25T17:06:49Z</time></trkpt><trkpt lat="36.87518355216473" lon="-108.10279065962065"><ele>1869.0</ele><time>2026-04-25T17:06:50Z</time></trkpt><trkpt lat="36.87510447403893" lon="-108.10282289797246"><ele>1869.0</ele><time>2026-04-25T17:06:51Z</time></trkpt><trkpt lat="36.87498243096568" lon="-108.102783091043"><ele>1869.0</ele><time>2026-04-25T17:06:52Z</time></trkpt><trkpt lat="36.874896704721834" lon="-108.10271527730133"><ele>1869.0</ele><time>2026-04-25T17:06:53Z</time></trkpt><trkpt lat="36.87482784470683" lon="-108.10273862407206"><ele>1869.0</ele><time>2026-04-25T17:06:54Z</time></trkpt><trkpt lat="36.87474662695405" lon="-108.1028386543908"><ele>1869.8333333333333</ele><time>2026-04-25T17:06:55Z</time></trkpt><trkpt lat="36.874675024543016" lon="-108.10289907790607"><ele>1870.6666666666665</ele><time>2026-04-25T17:06:56Z</time></trkpt><trkpt lat="36.87465742761494" lon="-108.10299376546367"><ele>1871.5</ele><time>2026-04-25T17:06:57Z</time></trkpt><trkpt lat="36.874647747666266" lon="-108.10312650682206"><ele>1872.3333333333333</ele><time>2026-04-25T17:06:58Z</time></trkpt><trkpt lat="36.87461588504951" lon="-108.10321968699351"><ele>1873.1666666666665</ele><time>2026-04-25T17:06:59Z</time></trkpt><trkpt lat="36.874549864614394" lon="-108.10317151985554"><ele>1874.0</ele><time>2026-04-25T17:07:01Z</time></trkpt><trkpt lat="36.87446624441339" lon="-108.10326658175285"><ele>1873.9999999999998</ele><time>2026-04-25T17:07:03Z</time></trkpt><trkpt lat="36.87440979867493" lon="-108.10336286232999"><ele>1874.0</ele><time>2026-04-25T17:07:04Z</time></trkpt><trkpt lat="36.87436071219268" lon="-108.10343721061628"><ele>1874.0</ele><time>2026-04-25T17:07:05Z</time></trkpt><trkpt lat="36.87427523020539" lon="-108.10347664770399"><ele>1874.0</ele><time>2026-04-25T17:07:06Z</time></trkpt><trkpt lat="36.87419382560792" lon="-108.10354134495171"><ele>1873.9999999999998</ele><time>2026-04-25T17:07:07Z</time></trkpt><trkpt lat="36.874137962801655" lon="-108.10360850168799"><ele>1874.0</ele><time>2026-04-25T17:07:08Z</time></trkpt><trkpt lat="36.874065292642285" lon="-108.10367564635796"><ele>1875.5</ele><time>2026-04-25T17:07:09Z</time></trkpt><trkpt lat="36.87396596054194" lon="-108.10375438518557"><ele>1877.0</ele><time>2026-04-25T17:07:10Z</time></trkpt><trkpt lat="36.87386231721339" lon="-108.10383224181093"><ele>1878.5</ele><time>2026-04-25T17:07:11Z</time></trkpt><trkpt lat="36.87377138892276" lon="-108.10392366456944"><ele>1880.0</ele><time>2026-04-25T17:07:12Z</time></trkpt><trkpt lat="36.873694883969875" lon="-108.10402013409599"><ele>1879.9999999999998</ele><time>2026-04-25T17:07:13Z</time></trkpt><trkpt lat="36.87362709208042" lon="-108.10410883792325"><ele>1880.0</ele><time>2026-04-25T17:07:14Z</time></trkpt><trkpt lat="36.873544543197305" lon="-108.10412802768914"><ele>1880.0</ele><time>2026-04-25T17:07:15Z</time></trkpt><trkpt lat="36.87347762227767" lon="-108.10411390040196"><ele>1880.0</ele><time>2026-04-25T17:07:16Z</time></trkpt><trkpt lat="36.873468110242804" lon="-108.10398786662363"><ele>1879.9999999999998</ele><time>2026-04-25T17:07:18Z</time></trkpt><trkpt lat="36.8734879954885" lon="-108.103882400229"><ele>1880.0</ele><time>2026-04-25T17:07:19Z</time></trkpt><trkpt lat="36.873525166441866" lon="-108.10378524337376"><ele>1880.0</ele><time>2026-04-25T17:07:21Z</time></trkpt><trkpt lat="36.87356993096929" lon="-108.10368415279116"><ele>1880.0</ele><time>2026-04-25T17:07:22Z</time></trkpt><trkpt lat="36.8735944156767" lon="-108.10355924235394"><ele>1880.0</ele><time>2026-04-25T17:07:23Z</time></trkpt><trkpt lat="36.87356040005948" lon="-108.10345207294468"><ele>1880.0</ele><time>2026-04-25T17:07:24Z</time></trkpt><trkpt lat="36.873651485055895" lon="-108.10332193789853"><ele>1880.0</ele><time>2026-04-25T17:07:26Z</time></trkpt><trkpt lat="36.87371208591915" lon="-108.10322741158136"><ele>1880.2</ele><time>2026-04-25T17:07:27Z</time></trkpt><trkpt lat="36.87376720485111" lon="-108.10310302065513"><ele>1880.4</ele><time>2026-04-25T17:07:28Z</time></trkpt><trkpt lat="36.87378804642308" lon="-108.10299448866681"><ele>1880.6</ele><time>2026-04-25T17:07:29Z</time></trkpt><trkpt lat="36.87378911254582" lon="-108.1029075549138"><ele>1880.8</ele><time>2026-04-25T17:07:30Z</time></trkpt><trkpt lat="36.873737096595384" lon="-108.10272938908336"><ele>1881.0</ele><time>2026-04-25T17:07:32Z</time></trkpt><trkpt lat="36.87367885032202" lon="-108.10266461112421"><ele>1881.0</ele><time>2026-04-25T17:07:33Z</time></trkpt><trkpt lat="36.87364136569961" lon="-108.10257419724715"><ele>1881.0</ele><time>2026-04-25T17:07:34Z</time></trkpt><trkpt lat="36.87362964820384" lon="-108.10249565709684"><ele>1881.0</ele><time>2026-04-25T17:07:35Z</time></trkpt><trkpt lat="36.87350783749265" lon="-108.10241707389596"><ele>1881.0</ele><time>2026-04-25T17:07:37Z</time></trkpt><trkpt lat="36.87345256350636" lon="-108.1023101427006"><ele>1881.0</ele><time>2026-04-25T17:07:38Z</time></trkpt><trkpt lat="36.873369826989354" lon="-108.10223054733427"><ele>1882.4</ele><time>2026-04-25T17:07:39Z</time></trkpt><trkpt lat="36.87327586707359" lon="-108.10216351037063"><ele>1883.8</ele><time>2026-04-25T17:07:40Z</time></trkpt><trkpt lat="36.873161554463024" lon="-108.10209002269238"><ele>1885.2000000000003</ele><time>2026-04-25T17:07:41Z</time></trkpt><trkpt lat="36.873063065111545" lon="-108.10203964252038"><ele>1886.6000000000001</ele><time>2026-04-25T17:07:42Z</time></trkpt><trkpt lat="36.87300577416801" lon="-108.10196979591562"><ele>1888.0</ele><time>2026-04-25T17:07:43Z</time></trkpt><trkpt lat="36.872954677916645" lon="-108.10192379482241"><ele>1888.0</ele><time>2026-04-25T17:07:44Z</time></trkpt><trkpt lat="36.87288682755116" lon="-108.10185683389494"><ele>1888.0</ele><time>2026-04-25T17:07:45Z</time></trkpt><trkpt lat="36.87287366225156" lon="-108.10167443008594"><ele>1888.0</ele><time>2026-04-25T17:07:47Z</time></trkpt><trkpt lat="36.872873465506466" lon="-108.10153466339715"><ele>1888.0</ele><time>2026-04-25T17:07:48Z</time></trkpt><trkpt lat="36.87282997524895" lon="-108.10138234852387"><ele>1887.8000000000002</ele><time>2026-04-25T17:07:49Z</time></trkpt><trkpt lat="36.872789322265135" lon="-108.10125648659482"><ele>1887.6000000000001</ele><time>2026-04-25T17:07:50Z</time></trkpt><trkpt lat="36.872754670641505" lon="-108.10113053685116"><ele>1887.3999999999999</ele><time>2026-04-25T17:07:51Z</time></trkpt><trkpt lat="36.872717318221476" lon="-108.1010015382551"><ele>1887.1999999999998</ele><time>2026-04-25T17:07:52Z</time></trkpt><trkpt lat="36.87270987175091" lon="-108.10089982400105"><ele>1887.0</ele><time>2026-04-25T17:07:53Z</time></trkpt><trkpt lat="36.87267345938383" lon="-108.10082324874489"><ele>1888.25</ele><time>2026-04-25T17:07:54Z</time></trkpt><trkpt lat="36.87258027023914" lon="-108.10073154329562"><ele>1889.5</ele><time>2026-04-25T17:07:55Z</time></trkpt><trkpt lat="36.87252219033332" lon="-108.10061452898086"><ele>1890.75</ele><time>2026-04-25T17:07:56Z</time></trkpt><trkpt lat="36.87247958936059" lon="-108.1004594439753"><ele>1892.0</ele><time>2026-04-25T17:07:57Z</time></trkpt><trkpt lat="36.87245286720966" lon="-108.10029058523557"><ele>1892.0</ele><time>2026-04-25T17:07:58Z</time></trkpt><trkpt lat="36.87240817603224" lon="-108.10015939757503"><ele>1891.9999999999998</ele><time>2026-04-25T17:07:59Z</time></trkpt><trkpt lat="36.872347095497474" lon="-108.10007409440267"><ele>1891.9999999999998</ele><time>2026-04-25T17:08:00Z</time></trkpt><trkpt lat="36.87224651788566" lon="-108.1000256912119"><ele>1892.0</ele><time>2026-04-25T17:08:01Z</time></trkpt><trkpt lat="36.87213876433909" lon="-108.10000732823912"><ele>1892.0</ele><time>2026-04-25T17:08:02Z</time></trkpt><trkpt lat="36.87204201004886" lon="-108.09995035278283"><ele>1892.0</ele><time>2026-04-25T17:08:03Z</time></trkpt><trkpt lat="36.87200204932096" lon="-108.09986144420914"><ele>1891.9999999999998</ele><time>2026-04-25T17:08:04Z</time></trkpt><trkpt lat="36.871936609199686" lon="-108.0997417138888"><ele>1891.9999999999998</ele><time>2026-04-25T17:08:05Z</time></trkpt><trkpt lat="36.87185962871553" lon="-108.09964854129528"><ele>1892.0</ele><time>2026-04-25T17:08:06Z</time></trkpt><trkpt lat="36.871830282426096" lon="-108.09956699880874"><ele>1892.0</ele><time>2026-04-25T17:08:07Z</time></trkpt><trkpt lat="36.87180873681726" lon="-108.09942601808821"><ele>1893.25</ele><time>2026-04-25T17:08:08Z</time></trkpt><trkpt lat="36.87174862958171" lon="-108.09928898995513"><ele>1894.5</ele><time>2026-04-25T17:08:09Z</time></trkpt><trkpt lat="36.87164672496474" lon="-108.09921472467816"><ele>1895.75</ele><time>2026-04-25T17:08:10Z</time></trkpt><trkpt lat="36.87153600878209" lon="-108.09913571651461"><ele>1897.0</ele><time>2026-04-25T17:08:11Z</time></trkpt><trkpt lat="36.871449447683574" lon="-108.0990513566218"><ele>1897.25</ele><time>2026-04-25T17:08:12Z</time></trkpt><trkpt lat="36.87137927680048" lon="-108.09895239424472"><ele>1897.5</ele><time>2026-04-25T17:08:13Z</time></trkpt><trkpt lat="36.87134586883323" lon="-108.09884646646015"><ele>1897.75</ele><time>2026-04-25T17:08:14Z</time></trkpt><trkpt lat="36.87131457453343" lon="-108.09869229768594"><ele>1898.0</ele><time>2026-04-25T17:08:15Z</time></trkpt><trkpt lat="36.87129551867649" lon="-108.09851850766994"><ele>1898.0</ele><time>2026-04-25T17:08:16Z</time></trkpt><trkpt lat="36.87127723107268" lon="-108.09837538390322"><ele>1898.0</ele><time>2026-04-25T17:08:17Z</time></trkpt><trkpt lat="36.87120673481149" lon="-108.0982441717626"><ele>1898.0</ele><time>2026-04-25T17:08:19Z</time></trkpt><trkpt lat="36.8711104862495" lon="-108.0981743581727"><ele>1898.0</ele><time>2026-04-25T17:08:20Z</time></trkpt><trkpt lat="36.87101403850986" lon="-108.09805104074269"><ele>1899.25</ele><time>2026-04-25T17:08:21Z</time></trkpt><trkpt lat="36.87093938973494" lon="-108.09793706462607"><ele>1900.5</ele><time>2026-04-25T17:08:22Z</time></trkpt><trkpt lat="36.870842338782886" lon="-108.09783124948787"><ele>1901.75</ele><time>2026-04-25T17:08:23Z</time></trkpt><trkpt lat="36.87074802085453" lon="-108.09772248156959"><ele>1903.0</ele><time>2026-04-25T17:08:24Z</time></trkpt><trkpt lat="36.87062372208398" lon="-108.09763154996307"><ele>1903.0</ele><time>2026-04-25T17:08:25Z</time></trkpt><trkpt lat="36.87046821558396" lon="-108.09751777231277"><ele>1903.0</ele><time>2026-04-25T17:08:26Z</time></trkpt><trkpt lat="36.87038099211587" lon="-108.0974191978982"><ele>1903.0</ele><time>2026-04-25T17:08:27Z</time></trkpt><trkpt lat="36.8703088923101" lon="-108.09733497622814"><ele>1903.0</ele><time>2026-04-25T17:08:28Z</time></trkpt><trkpt lat="36.87026656608861" lon="-108.09724470658132"><ele>1903.2</ele><time>2026-04-25T17:08:29Z</time></trkpt><trkpt lat="36.87023723534004" lon="-108.09713926336326"><ele>1903.4</ele><time>2026-04-25T17:08:31Z</time></trkpt><trkpt lat="36.870129770488774" lon="-108.0971543128031"><ele>1903.6000000000001</ele><time>2026-04-25T17:08:33Z</time></trkpt><trkpt lat="36.87005389068144" lon="-108.0971318702801"><ele>1903.8000000000002</ele><time>2026-04-25T17:08:34Z</time></trkpt><trkpt lat="36.86998965673652" lon="-108.09706043027805"><ele>1904.0</ele><time>2026-04-25T17:08:35Z</time></trkpt><trkpt lat="36.86987676693592" lon="-108.09705740585486"><ele>1904.4</ele><time>2026-04-25T17:08:37Z</time></trkpt><trkpt lat="36.86977634984637" lon="-108.09702509775266"><ele>1904.8000000000002</ele><time>2026-04-25T17:08:39Z</time></trkpt><trkpt lat="36.86966192067165" lon="-108.0969979792306"><ele>1905.1999999999998</ele><time>2026-04-25T17:08:41Z</time></trkpt><trkpt lat="36.86960724413252" lon="-108.09692792345501"><ele>1905.6</ele><time>2026-04-25T17:08:42Z</time></trkpt><trkpt lat="36.869539976402365" lon="-108.09684433141243"><ele>1906.0</ele><time>2026-04-25T17:08:43Z</time></trkpt><trkpt lat="36.86947686357581" lon="-108.09680088731267"><ele>1906.0000000000002</ele><time>2026-04-25T17:08:44Z</time></trkpt><trkpt lat="36.86937446570034" lon="-108.09676846540036"><ele>1906.0</ele><time>2026-04-25T17:08:46Z</time></trkpt><trkpt lat="36.86930107947787" lon="-108.09673750143723"><ele>1906.0</ele><time>2026-04-25T17:08:48Z</time></trkpt><trkpt lat="36.8692322482005" lon="-108.09671729994442"><ele>1906.0</ele><time>2026-04-25T17:08:51Z</time></trkpt><trkpt lat="36.869162549204574" lon="-108.0967251088544"><ele>1906.0000000000002</ele><time>2026-04-25T17:08:56Z</time></trkpt><trkpt lat="36.869093223056105" lon="-108.09670797084553"><ele>1906.0</ele><time>2026-04-25T17:09:00Z</time></trkpt><trkpt lat="36.869033975888314" lon="-108.09674934991446"><ele>1906.6</ele><time>2026-04-25T17:09:04Z</time></trkpt><trkpt lat="36.86895167434068" lon="-108.09681364455948"><ele>1907.1999999999998</ele><time>2026-04-25T17:09:08Z</time></trkpt><trkpt lat="36.86889709947062" lon="-108.09686397432833"><ele>1907.8000000000002</ele><time>2026-04-25T17:09:09Z</time></trkpt><trkpt lat="36.868838297298375" lon="-108.09690798199021"><ele>1908.4</ele><time>2026-04-25T17:09:10Z</time></trkpt><trkpt lat="36.86874760287779" lon="-108.09690942705274"><ele>1909.0</ele><time>2026-04-25T17:09:12Z</time></trkpt><trkpt lat="36.86861505107576" lon="-108.09682004642535"><ele>1909.0</ele><time>2026-04-25T17:09:14Z</time></trkpt><trkpt lat="36.86854447293762" lon="-108.09671967517895"><ele>1909.0</ele><time>2026-04-25T17:09:15Z</time></trkpt><trkpt lat="36.868469812122434" lon="-108.09661241534839"><ele>1909.0</ele><time>2026-04-25T17:09:16Z</time></trkpt><trkpt lat="36.86839125649469" lon="-108.09651636158154"><ele>1909.0</ele><time>2026-04-25T17:09:17Z</time></trkpt><trkpt lat="36.868316508804384" lon="-108.09643845778844"><ele>1909.0</ele><time>2026-04-25T17:09:18Z</time></trkpt><trkpt lat="36.86821804680509" lon="-108.09637056009623"><ele>1907.0</ele><time>2026-04-25T17:09:19Z</time></trkpt><trkpt lat="36.86812168968847" lon="-108.0962793074677"><ele>1905.0</ele><time>2026-04-25T17:09:20Z</time></trkpt><trkpt lat="36.868043830643174" lon="-108.09618930280321"><ele>1903.0</ele><time>2026-04-25T17:09:21Z</time></trkpt><trkpt lat="36.8679511187721" lon="-108.09609489666867"><ele>1901.0</ele><time>2026-04-25T17:09:22Z</time></trkpt><trkpt lat="36.86790062637901" lon="-108.09597793902913"><ele>1901.0</ele><time>2026-04-25T17:09:23Z</time></trkpt><trkpt lat="36.86782772065789" lon="-108.09586234622007"><ele>1901.0</ele><time>2026-04-25T17:09:24Z</time></trkpt><trkpt lat="36.86773523879764" lon="-108.0957565247428"><ele>1901.0</ele><time>2026-04-25T17:09:25Z</time></trkpt><trkpt lat="36.867660858875354" lon="-108.09564363355139"><ele>1901.0</ele><time>2026-04-25T17:09:26Z</time></trkpt><trkpt lat="36.867603742727425" lon="-108.09555861542675"><ele>1901.0</ele><time>2026-04-25T17:09:27Z</time></trkpt><trkpt lat="36.867524287631106" lon="-108.09545591810698"><ele>1899.6</ele><time>2026-04-25T17:09:28Z</time></trkpt><trkpt lat="36.8674373881597" lon="-108.09534784829751"><ele>1898.1999999999998</ele><time>2026-04-25T17:09:29Z</time></trkpt><trkpt lat="36.86735923706192" lon="-108.0952879454421"><ele>1896.8000000000002</ele><time>2026-04-25T17:09:30Z</time></trkpt><trkpt lat="36.86726144321427" lon="-108.09527407312991"><ele>1895.4</ele><time>2026-04-25T17:09:31Z</time></trkpt><trkpt lat="36.86716730147884" lon="-108.09525787450663"><ele>1894.0</ele><time>2026-04-25T17:09:32Z</time></trkpt><trkpt lat="36.867083076750376" lon="-108.09523335023634"><ele>1894.0</ele><time>2026-04-25T17:09:33Z</time></trkpt><trkpt lat="36.8670179488432" lon="-108.09520870327391"><ele>1894.0</ele><time>2026-04-25T17:09:34Z</time></trkpt><trkpt lat="36.866944004192234" lon="-108.09514715100998"><ele>1894.0</ele><time>2026-04-25T17:09:35Z</time></trkpt><trkpt lat="36.86688313858782" lon="-108.09504961713509"><ele>1894.0</ele><time>2026-04-25T17:09:36Z</time></trkpt><trkpt lat="36.86683108157127" lon="-108.09490573221102"><ele>1894.0</ele><time>2026-04-25T17:09:37Z</time></trkpt><trkpt lat="36.86678328501379" lon="-108.09476830437188"><ele>1893.0</ele><time>2026-04-25T17:09:38Z</time></trkpt><trkpt lat="36.86674040910726" lon="-108.09465433265787"><ele>1892.0</ele><time>2026-04-25T17:09:39Z</time></trkpt><trkpt lat="36.86666096092495" lon="-108.09454205777241"><ele>1891.0</ele><time>2026-04-25T17:09:41Z</time></trkpt><trkpt lat="36.86659067496888" lon="-108.0945903749831"><ele>1890.0</ele><time>2026-04-25T17:09:42Z</time></trkpt><trkpt lat="36.866466629420486" lon="-108.09464203771245"><ele>1889.0</ele><time>2026-04-25T17:09:43Z</time></trkpt><trkpt lat="36.86636080209864" lon="-108.0946186911691"><ele>1889.0</ele><time>2026-04-25T17:09:44Z</time></trkpt><trkpt lat="36.866230500871694" lon="-108.09459489555461"><ele>1889.0</ele><time>2026-04-25T17:09:45Z</time></trkpt><trkpt lat="36.86612007699318" lon="-108.09458716612346"><ele>1889.0</ele><time>2026-04-25T17:09:46Z</time></trkpt><trkpt lat="36.86603008489922" lon="-108.09453273468307"><ele>1889.0</ele><time>2026-04-25T17:09:47Z</time></trkpt><trkpt lat="36.86592138332301" lon="-108.09447622427406"><ele>1888.2</ele><time>2026-04-25T17:09:48Z</time></trkpt><trkpt lat="36.865832287783064" lon="-108.09448815266606"><ele>1887.4</ele><time>2026-04-25T17:09:49Z</time></trkpt><trkpt lat="36.86572699419867" lon="-108.09452176511311"><ele>1886.6</ele><time>2026-04-25T17:09:50Z</time></trkpt><trkpt lat="36.86560639359018" lon="-108.09453588962892"><ele>1885.8</ele><time>2026-04-25T17:09:51Z</time></trkpt><trkpt lat="36.86548588380785" lon="-108.0945440035296"><ele>1885.0</ele><time>2026-04-25T17:09:52Z</time></trkpt><trkpt lat="36.8653739904408" lon="-108.09454337429084"><ele>1885.0</ele><time>2026-04-25T17:09:53Z</time></trkpt><trkpt lat="36.86529345213642" lon="-108.094567315929"><ele>1885.0</ele><time>2026-04-25T17:09:54Z</time></trkpt><trkpt lat="36.86518249866767" lon="-108.09464729949407"><ele>1885.0</ele><time>2026-04-25T17:09:56Z</time></trkpt><trkpt lat="36.86509797084192" lon="-108.09470193497339"><ele>1885.0</ele><time>2026-04-25T17:09:58Z</time></trkpt><trkpt lat="36.86502070583126" lon="-108.09471759414977"><ele>1885.0</ele><time>2026-04-25T17:09:59Z</time></trkpt><trkpt lat="36.864912650580344" lon="-108.09473707849854"><ele>1884.0000000000002</ele><time>2026-04-25T17:10:00Z</time></trkpt><trkpt lat="36.864834088250596" lon="-108.09475506527001"><ele>1883.0</ele><time>2026-04-25T17:10:01Z</time></trkpt><trkpt lat="36.864757977643606" lon="-108.09476961853994"><ele>1882.0</ele><time>2026-04-25T17:10:02Z</time></trkpt><trkpt lat="36.86467945664711" lon="-108.09471670817793"><ele>1881.0</ele><time>2026-04-25T17:10:03Z</time></trkpt><trkpt lat="36.8646291287289" lon="-108.09463525170618"><ele>1880.0000000000002</ele><time>2026-04-25T17:10:04Z</time></trkpt><trkpt lat="36.86458687556545" lon="-108.09455248593159"><ele>1879.0</ele><time>2026-04-25T17:10:05Z</time></trkpt><trkpt lat="36.86451071631079" lon="-108.09445502236333"><ele>1879.0</ele><time>2026-04-25T17:10:06Z</time></trkpt><trkpt lat="36.864430750027026" lon="-108.09435434130332"><ele>1879.0</ele><time>2026-04-25T17:10:07Z</time></trkpt><trkpt lat="36.864363411922454" lon="-108.09430647237207"><ele>1879.0</ele><time>2026-04-25T17:10:08Z</time></trkpt><trkpt lat="36.86428229015911" lon="-108.09433458320729"><ele>1879.0</ele><time>2026-04-25T17:10:09Z</time></trkpt><trkpt lat="36.8641853386702" lon="-108.09437378400892"><ele>1879.0</ele><time>2026-04-25T17:10:10Z</time></trkpt><trkpt lat="36.86409864764079" lon="-108.09438765714667"><ele>1878.6666666666667</ele><time>2026-04-25T17:10:11Z</time></trkpt><trkpt lat="36.864043942135766" lon="-108.09443756683508"><ele>1878.3333333333335</ele><time>2026-04-25T17:10:12Z</time></trkpt><trkpt lat="36.86398352107055" lon="-108.09450179295865"><ele>1878.0</ele><time>2026-04-25T17:10:13Z</time></trkpt><trkpt lat="36.863935283334534" lon="-108.0945798584527"><ele>1877.6666666666665</ele><time>2026-04-25T17:10:14Z</time></trkpt><trkpt lat="36.86391221639281" lon="-108.09466378905888"><ele>1877.3333333333333</ele><time>2026-04-25T17:10:15Z</time></trkpt><trkpt lat="36.86387169514938" lon="-108.09474793042298"><ele>1877.0</ele><time>2026-04-25T17:10:16Z</time></trkpt><trkpt lat="36.86382041885488" lon="-108.09482851442988"><ele>1877.0</ele><time>2026-04-25T17:10:17Z</time></trkpt><trkpt lat="36.86373394658905" lon="-108.09480431563419"><ele>1876.9999999999998</ele><time>2026-04-25T17:10:19Z</time></trkpt><trkpt lat="36.86364890895915" lon="-108.09485205972904"><ele>1876.9999999999998</ele><time>2026-04-25T17:10:24Z</time></trkpt><trkpt lat="36.86356448683651" lon="-108.09485228598261"><ele>1877.0</ele><time>2026-04-25T17:10:25Z</time></trkpt><trkpt lat="36.86345963618869" lon="-108.09483428738184"><ele>1877.0</ele><time>2026-04-25T17:10:26Z</time></trkpt><trkpt lat="36.86336631136455" lon="-108.09481387098474"><ele>1876.8333333333333</ele><time>2026-04-25T17:10:27Z</time></trkpt><trkpt lat="36.86326715873058" lon="-108.09476201661495"><ele>1876.6666666666665</ele><time>2026-04-25T17:10:29Z</time></trkpt><trkpt lat="36.86320173675316" lon="-108.09482133288866"><ele>1876.5</ele><time>2026-04-25T17:10:30Z</time></trkpt><trkpt lat="36.863112058685836" lon="-108.09486938214965"><ele>1876.3333333333335</ele><time>2026-04-25T17:10:31Z</time></trkpt><trkpt lat="36.86304258566183" lon="-108.09489007483593"><ele>1876.1666666666667</ele><time>2026-04-25T17:10:32Z</time></trkpt><trkpt lat="36.862968330899605" lon="-108.09485085597623"><ele>1876.0</ele><time>2026-04-25T17:10:35Z</time></trkpt><trkpt lat="36.86286976152779" lon="-108.09488194526527"><ele>1876.3333333333335</ele><time>2026-04-25T17:10:37Z</time></trkpt><trkpt lat="36.86281211977063" lon="-108.09492128866304"><ele>1876.6666666666667</ele><time>2026-04-25T17:10:38Z</time></trkpt><trkpt lat="36.86275699362818" lon="-108.09497771064001"><ele>1877.0</ele><time>2026-04-25T17:10:39Z</time></trkpt><trkpt lat="36.86271932283063" lon="-108.09504270742744"><ele>1877.3333333333335</ele><time>2026-04-25T17:10:40Z</time></trkpt><trkpt lat="36.86261981010281" lon="-108.09511004929121"><ele>1877.6666666666667</ele><time>2026-04-25T17:10:42Z</time></trkpt><trkpt lat="36.86256630828243" lon="-108.09521141395629"><ele>1878.0</ele><time>2026-04-25T17:10:44Z</time></trkpt><trkpt lat="36.86251745254991" lon="-108.09526738365616"><ele>1878.0</ele><time>2026-04-25T17:10:45Z</time></trkpt><trkpt lat="36.86244124171886" lon="-108.0953265138377"><ele>1878.0</ele><time>2026-04-25T17:10:46Z</time></trkpt><trkpt lat="36.86235210070345" lon="-108.09536639998576"><ele>1878.0</ele><time>2026-04-25T17:10:47Z</time></trkpt><trkpt lat="36.86225285241009" lon="-108.0953856866748"><ele>1878.0</ele><time>2026-04-25T17:10:48Z</time></trkpt><trkpt lat="36.862169410851116" lon="-108.0953757053437"><ele>1878.0</ele><time>2026-04-25T17:10:49Z</time></trkpt><trkpt lat="36.86210378217465" lon="-108.09537502507803"><ele>1878.0</ele><time>2026-04-25T17:10:50Z</time></trkpt><trkpt lat="36.8620452630227" lon="-108.0953298427142"><ele>1878.0</ele><time>2026-04-25T17:10:51Z</time></trkpt><trkpt lat="36.861967776488775" lon="-108.09527480572862"><ele>1878.0000000000002</ele><time>2026-04-25T17:10:52Z</time></trkpt><trkpt lat="36.86186965593412" lon="-108.09525419616372"><ele>1878.0000000000002</ele><time>2026-04-25T17:10:53Z</time></trkpt><trkpt lat="36.86179276039001" lon="-108.09519944891069"><ele>1878.0</ele><time>2026-04-25T17:10:54Z</time></trkpt><trkpt lat="36.86166032842267" lon="-108.0951717098458"><ele>1878.0</ele><time>2026-04-25T17:10:56Z</time></trkpt><trkpt lat="36.861590346937746" lon="-108.0951632206652"><ele>1878.0</ele><time>2026-04-25T17:10:57Z</time></trkpt><trkpt lat="36.86152107003031" lon="-108.09511812152957"><ele>1878.0</ele><time>2026-04-25T17:10:58Z</time></trkpt><trkpt lat="36.86143846049735" lon="-108.09506743945785"><ele>1878.0</ele><time>2026-04-25T17:10:59Z</time></trkpt><trkpt lat="36.8613579375122" lon="-108.0950734502542"><ele>1878.0</ele><time>2026-04-25T17:11:00Z</time></trkpt><trkpt lat="36.86127092336952" lon="-108.09507962901381"><ele>1878.0</ele><time>2026-04-25T17:11:01Z</time></trkpt><trkpt lat="36.86117192285394" lon="-108.09505306522209"><ele>1878.0</ele><time>2026-04-25T17:11:02Z</time></trkpt><trkpt lat="36.86106867350562" lon="-108.09506695084862"><ele>1878.0</ele><time>2026-04-25T17:11:03Z</time></trkpt><trkpt lat="36.860952356928024" lon="-108.09504897863856"><ele>1878.0000000000002</ele><time>2026-04-25T17:11:04Z</time></trkpt><trkpt lat="36.860818708008644" lon="-108.09497818037406"><ele>1878.0000000000002</ele><time>2026-04-25T17:11:05Z</time></trkpt><trkpt lat="36.86073243037821" lon="-108.09494094248254"><ele>1878.0</ele><time>2026-04-25T17:11:06Z</time></trkpt><trkpt lat="36.860654122428436" lon="-108.09489201646709"><ele>1878.0</ele><time>2026-04-25T17:11:07Z</time></trkpt><trkpt lat="36.86057517278312" lon="-108.09487153452535"><ele>1876.4</ele><time>2026-04-25T17:11:08Z</time></trkpt><trkpt lat="36.86048298062365" lon="-108.09485218048621"><ele>1874.8000000000002</ele><time>2026-04-25T17:11:09Z</time></trkpt><trkpt lat="36.86044214982971" lon="-108.09476230852653"><ele>1873.2</ele><time>2026-04-25T17:11:10Z</time></trkpt><trkpt lat="36.86040259221696" lon="-108.09467908158584"><ele>1871.6</ele><time>2026-04-25T17:11:11Z</time></trkpt><trkpt lat="36.86029600768337" lon="-108.09467478611401"><ele>1870.0</ele><time>2026-04-25T17:11:13Z</time></trkpt><trkpt lat="36.86013993114615" lon="-108.09470894001753"><ele>1869.1666666666667</ele><time>2026-04-25T17:11:15Z</time></trkpt><trkpt lat="36.86002379671245" lon="-108.0947012098103"><ele>1868.3333333333335</ele><time>2026-04-25T17:11:16Z</time></trkpt><trkpt lat="36.859956706922546" lon="-108.09470676978701"><ele>1867.5</ele><time>2026-04-25T17:11:17Z</time></trkpt><trkpt lat="36.859887811464915" lon="-108.0947486473495"><ele>1866.6666666666665</ele><time>2026-04-25T17:11:18Z</time></trkpt><trkpt lat="36.859818155705774" lon="-108.09481673694093"><ele>1865.8333333333333</ele><time>2026-04-25T17:11:19Z</time></trkpt><trkpt lat="36.85976923344862" lon="-108.09487116598257"><ele>1865.0</ele><time>2026-04-25T17:11:20Z</time></trkpt><trkpt lat="36.85966679045595" lon="-108.09486524620381"><ele>1865.0</ele><time>2026-04-25T17:11:22Z</time></trkpt><trkpt lat="36.85951754237548" lon="-108.0948526249534"><ele>1865.0</ele><time>2026-04-25T17:11:31Z</time></trkpt><trkpt lat="36.85942661638422" lon="-108.09486427344879"><ele>1865.0</ele><time>2026-04-25T17:11:32Z</time></trkpt><trkpt lat="36.85932806104477" lon="-108.09487610985825"><ele>1865.0</ele><time>2026-04-25T17:11:33Z</time></trkpt><trkpt lat="36.85924697124496" lon="-108.09487853773739"><ele>1865.0</ele><time>2026-04-25T17:11:34Z</time></trkpt><trkpt lat="36.8591791764689" lon="-108.09491670268044"><ele>1865.9999999999998</ele><time>2026-04-25T17:11:35Z</time></trkpt><trkpt lat="36.85911719977328" lon="-108.09494001134253"><ele>1867.0</ele><time>2026-04-25T17:11:36Z</time></trkpt><trkpt lat="36.85904203701168" lon="-108.09496625032058"><ele>1868.0</ele><time>2026-04-25T17:11:37Z</time></trkpt><trkpt lat="36.85895915590088" lon="-108.09500952598687"><ele>1869.0</ele><time>2026-04-25T17:11:38Z</time></trkpt><trkpt lat="36.85888339529569" lon="-108.09507807422246"><ele>1869.9999999999998</ele><time>2026-04-25T17:11:39Z</time></trkpt><trkpt lat="36.858827463081575" lon="-108.09512912090163"><ele>1871.0</ele><time>2026-04-25T17:11:40Z</time></trkpt><trkpt lat="36.85876491662696" lon="-108.09517241868909"><ele>1871.0</ele><time>2026-04-25T17:11:41Z</time></trkpt><trkpt lat="36.85870672365268" lon="-108.09522256256629"><ele>1871.0</ele><time>2026-04-25T17:11:42Z</time></trkpt><trkpt lat="36.85863115983098" lon="-108.09528392591112"><ele>1871.0</ele><time>2026-04-25T17:11:43Z</time></trkpt><trkpt lat="36.858559804767324" lon="-108.09533906544084"><ele>1871.0</ele><time>2026-04-25T17:11:44Z</time></trkpt><trkpt lat="36.858438295352094" lon="-108.09546602524617"><ele>1871.0</ele><time>2026-04-25T17:11:46Z</time></trkpt><trkpt lat="36.85838322610102" lon="-108.0955612513463"><ele>1871.3333333333333</ele><time>2026-04-25T17:11:47Z</time></trkpt><trkpt lat="36.85831624583255" lon="-108.09562081036964"><ele>1871.6666666666665</ele><time>2026-04-25T17:11:48Z</time></trkpt><trkpt lat="36.8582616121253" lon="-108.09566686442271"><ele>1872.0</ele><time>2026-04-25T17:11:49Z</time></trkpt><trkpt lat="36.85820374540484" lon="-108.0957065685796"><ele>1872.3333333333335</ele><time>2026-04-25T17:11:50Z</time></trkpt><trkpt lat="36.85813335854822" lon="-108.09573426671228"><ele>1872.6666666666667</ele><time>2026-04-25T17:11:51Z</time></trkpt><trkpt lat="36.858029297437774" lon="-108.0957556960725"><ele>1873.0</ele><time>2026-04-25T17:11:52Z</time></trkpt><trkpt lat="36.85791617797322" lon="-108.09578745287546"><ele>1874.2</ele><time>2026-04-25T17:11:53Z</time></trkpt><trkpt lat="36.85784436087442" lon="-108.09588388328872"><ele>1875.4</ele><time>2026-04-25T17:11:55Z</time></trkpt><trkpt lat="36.857787121480335" lon="-108.0959403862237"><ele>1876.6000000000001</ele><time>2026-04-25T17:11:56Z</time></trkpt><trkpt lat="36.85771198319934" lon="-108.09597301988484"><ele>1877.8000000000002</ele><time>2026-04-25T17:11:58Z</time></trkpt><trkpt lat="36.85759201218214" lon="-108.09599245291405"><ele>1879.0</ele><time>2026-04-25T17:12:00Z</time></trkpt><trkpt lat="36.857475939351716" lon="-108.09597689058045"><ele>1879.1666666666667</ele><time>2026-04-25T17:12:02Z</time></trkpt><trkpt lat="36.85740836106188" lon="-108.09596174969431"><ele>1879.3333333333335</ele><time>2026-04-25T17:12:03Z</time></trkpt><trkpt lat="36.85732331685602" lon="-108.09596766852061"><ele>1879.5</ele><time>2026-04-25T17:12:04Z</time></trkpt><trkpt lat="36.85724865979115" lon="-108.09600445556609"><ele>1879.6666666666665</ele><time>2026-04-25T17:12:05Z</time></trkpt><trkpt lat="36.85717986033444" lon="-108.09601051159532"><ele>1879.8333333333333</ele><time>2026-04-25T17:12:06Z</time></trkpt><trkpt lat="36.857115881952836" lon="-108.0960122555348"><ele>1880.0</ele><time>2026-04-25T17:12:07Z</time></trkpt><trkpt lat="36.85703706494124" lon="-108.09605099799468"><ele>1879.9999999999998</ele><time>2026-04-25T17:12:08Z</time></trkpt><trkpt lat="36.85696184237644" lon="-108.09607591790642"><ele>1880.0</ele><time>2026-04-25T17:12:09Z</time></trkpt><trkpt lat="36.85688830249606" lon="-108.09606128251043"><ele>1880.0</ele><time>2026-04-25T17:12:10Z</time></trkpt><trkpt lat="36.85681596940288" lon="-108.09604127758718"><ele>1880.0</ele><time>2026-04-25T17:12:11Z</time></trkpt><trkpt lat="36.8567352194188" lon="-108.09609069101585"><ele>1879.9999999999998</ele><time>2026-04-25T17:12:12Z</time></trkpt><trkpt lat="36.856656440263826" lon="-108.09613428091808"><ele>1880.0</ele><time>2026-04-25T17:12:13Z</time></trkpt><trkpt lat="36.85658359002772" lon="-108.09614677797744"><ele>1879.3333333333333</ele><time>2026-04-25T17:12:14Z</time></trkpt><trkpt lat="36.85649856963596" lon="-108.09616312313835"><ele>1878.6666666666665</ele><time>2026-04-25T17:12:15Z</time></trkpt><trkpt lat="36.85639020251106" lon="-108.09617073730573"><ele>1878.0</ele><time>2026-04-25T17:12:17Z</time></trkpt><trkpt lat="36.856324133754356" lon="-108.09619083197613"><ele>1877.3333333333335</ele><time>2026-04-25T17:12:20Z</time></trkpt><trkpt lat="36.85627045070765" lon="-108.09610450137743"><ele>1876.6666666666667</ele><time>2026-04-25T17:12:31Z</time></trkpt><trkpt lat="36.856257203390015" lon="-108.09598688840532"><ele>1876.0</ele><time>2026-04-25T17:12:33Z</time></trkpt><trkpt lat="36.856254566727245" lon="-108.09590707376888"><ele>1876.0000000000002</ele><time>2026-04-25T17:12:34Z</time></trkpt><trkpt lat="36.85624490949112" lon="-108.09581690738116"><ele>1876.0</ele><time>2026-04-25T17:12:35Z</time></trkpt><trkpt lat="36.85620222890056" lon="-108.09572650599905"><ele>1876.0</ele><time>2026-04-25T17:12:36Z</time></trkpt><trkpt lat="36.85615370585509" lon="-108.09563996257705"><ele>1876.0</ele><time>2026-04-25T17:12:37Z</time></trkpt><trkpt lat="36.85610450447913" lon="-108.09558290874116"><ele>1876.0000000000002</ele><time>2026-04-25T17:12:38Z</time></trkpt><trkpt lat="36.85603684096091" lon="-108.09553838380977"><ele>1876.0</ele><time>2026-04-25T17:12:39Z</time></trkpt><trkpt lat="36.855946566502375" lon="-108.09547574542006"><ele>1874.1999999999998</ele><time>2026-04-25T17:12:40Z</time></trkpt><trkpt lat="36.855886947965935" lon="-108.09538880924097"><ele>1872.3999999999999</ele><time>2026-04-25T17:12:41Z</time></trkpt><trkpt lat="36.855823823168336" lon="-108.09531621717963"><ele>1870.6</ele><time>2026-04-25T17:12:42Z</time></trkpt><trkpt lat="36.85571807221449" lon="-108.09521872986241"><ele>1868.8</ele><time>2026-04-25T17:12:44Z</time></trkpt><trkpt lat="36.855645148714046" lon="-108.09517037137543"><ele>1867.0</ele><time>2026-04-25T17:12:45Z</time></trkpt><trkpt lat="36.855550123081954" lon="-108.09513660874568"><ele>1867.0000000000002</ele><time>2026-04-25T17:12:46Z</time></trkpt><trkpt lat="36.8554677893754" lon="-108.09508427127889"><ele>1867.0</ele><time>2026-04-25T17:12:47Z</time></trkpt><trkpt lat="36.85539435977431" lon="-108.09505043038722"><ele>1867.0</ele><time>2026-04-25T17:12:48Z</time></trkpt><trkpt lat="36.85532581648966" lon="-108.09502634798082"><ele>1867.0</ele><time>2026-04-25T17:12:49Z</time></trkpt><trkpt lat="36.85526789094632" lon="-108.09494241760324"><ele>1867.0000000000002</ele><time>2026-04-25T17:12:50Z</time></trkpt><trkpt lat="36.85522032478662" lon="-108.09486387671124"><ele>1867.0</ele><time>2026-04-25T17:12:51Z</time></trkpt><trkpt lat="36.85511515990526" lon="-108.09490242462392"><ele>1865.1999999999998</ele><time>2026-04-25T17:12:53Z</time></trkpt><trkpt lat="36.85503866065934" lon="-108.094951754445"><ele>1863.3999999999999</ele><time>2026-04-25T17:12:54Z</time></trkpt><trkpt lat="36.85495371801837" lon="-108.09499290256286"><ele>1861.6000000000001</ele><time>2026-04-25T17:12:55Z</time></trkpt><trkpt lat="36.85488947738468" lon="-108.09500158450244"><ele>1859.8000000000002</ele><time>2026-04-25T17:12:56Z</time></trkpt><trkpt lat="36.85476919972632" lon="-108.09495760863092"><ele>1858.0</ele><time>2026-04-25T17:12:58Z</time></trkpt><trkpt lat="36.85468720939373" lon="-108.09498200738952"><ele>1858.0</ele><time>2026-04-25T17:12:59Z</time></trkpt><trkpt lat="36.85458152698216" lon="-108.09496170116863"><ele>1858.0000000000002</ele><time>2026-04-25T17:13:01Z</time></trkpt><trkpt lat="36.854564049018634" lon="-108.09487970789095"><ele>1858.0000000000002</ele><time>2026-04-25T17:13:02Z</time></trkpt><trkpt lat="36.85453366486719" lon="-108.09479492943095"><ele>1858.0</ele><time>2026-04-25T17:13:03Z</time></trkpt><trkpt lat="36.854378889205684" lon="-108.09477571657294"><ele>1858.0</ele><time>2026-04-25T17:13:05Z</time></trkpt><trkpt lat="36.854279362679726" lon="-108.09480426651939"><ele>1857.4</ele><time>2026-04-25T17:13:06Z</time></trkpt><trkpt lat="36.854192679887035" lon="-108.09483200039372"><ele>1856.8000000000002</ele><time>2026-04-25T17:13:07Z</time></trkpt><trkpt lat="36.854100461664686" lon="-108.09486964260262"><ele>1856.2</ele><time>2026-04-25T17:13:08Z</time></trkpt><trkpt lat="36.85400746132912" lon="-108.0949409763072"><ele>1855.6</ele><time>2026-04-25T17:13:09Z</time></trkpt><trkpt lat="36.85390168552367" lon="-108.09501455949736"><ele>1855.0</ele><time>2026-04-25T17:13:10Z</time></trkpt><trkpt lat="36.85380074227888" lon="-108.09504690389926"><ele>1854.6666666666667</ele><time>2026-04-25T17:13:11Z</time></trkpt><trkpt lat="36.85371873961535" lon="-108.09504524598351"><ele>1854.3333333333335</ele><time>2026-04-25T17:13:12Z</time></trkpt><trkpt lat="36.853643028051906" lon="-108.09508748363884"><ele>1854.0</ele><time>2026-04-25T17:13:13Z</time></trkpt><trkpt lat="36.853555163778495" lon="-108.09518355192151"><ele>1853.6666666666665</ele><time>2026-04-25T17:13:14Z</time></trkpt><trkpt lat="36.85348885435358" lon="-108.09525454136296"><ele>1853.3333333333333</ele><time>2026-04-25T17:13:15Z</time></trkpt><trkpt lat="36.85343530639876" lon="-108.0953191302506"><ele>1853.0</ele><time>2026-04-25T17:13:16Z</time></trkpt><trkpt lat="36.85338600684187" lon="-108.09539222445582"><ele>1851.8333333333333</ele><time>2026-04-25T17:13:17Z</time></trkpt><trkpt lat="36.85330953799202" lon="-108.09539909489891"><ele>1850.6666666666665</ele><time>2026-04-25T17:13:18Z</time></trkpt><trkpt lat="36.85322415195575" lon="-108.09543194020178"><ele>1849.5</ele><time>2026-04-25T17:13:19Z</time></trkpt><trkpt lat="36.85316309487786" lon="-108.0955134856006"><ele>1848.3333333333335</ele><time>2026-04-25T17:13:20Z</time></trkpt><trkpt lat="36.85309663470628" lon="-108.09556744951341"><ele>1847.1666666666667</ele><time>2026-04-25T17:13:21Z</time></trkpt><trkpt lat="36.853003625861874" lon="-108.09557638871823"><ele>1846.0</ele><time>2026-04-25T17:13:22Z</time></trkpt><trkpt lat="36.85296937420485" lon="-108.09549349492818"><ele>1846.0</ele><time>2026-04-25T17:13:23Z</time></trkpt><trkpt lat="36.852937075567944" lon="-108.09538187620728"><ele>1846.0</ele><time>2026-04-25T17:13:24Z</time></trkpt><trkpt lat="36.852896367622876" lon="-108.09529366532233"><ele>1846.0</ele><time>2026-04-25T17:13:25Z</time></trkpt><trkpt lat="36.85278329915792" lon="-108.09521289965684"><ele>1846.0</ele><time>2026-04-25T17:13:27Z</time></trkpt><trkpt lat="36.85269644830404" lon="-108.09516485112927"><ele>1846.0</ele><time>2026-04-25T17:13:28Z</time></trkpt><trkpt lat="36.852600793252826" lon="-108.09510295988161"><ele>1844.8</ele><time>2026-04-25T17:13:29Z</time></trkpt><trkpt lat="36.8525272044196" lon="-108.0950170673363"><ele>1843.6</ele><time>2026-04-25T17:13:30Z</time></trkpt><trkpt lat="36.85246020449494" lon="-108.094921326785"><ele>1842.4</ele><time>2026-04-25T17:13:31Z</time></trkpt><trkpt lat="36.85236379778252" lon="-108.09488140316891"><ele>1841.2</ele><time>2026-04-25T17:13:32Z</time></trkpt><trkpt lat="36.852290137374546" lon="-108.09487135860422"><ele>1840.0</ele><time>2026-04-25T17:13:33Z</time></trkpt><trkpt lat="36.85226130643032" lon="-108.09478565903261"><ele>1840.0</ele><time>2026-04-25T17:13:34Z</time></trkpt><trkpt lat="36.852253725626085" lon="-108.09467076823988"><ele>1840.0</ele><time>2026-04-25T17:13:35Z</time></trkpt><trkpt lat="36.852250433410916" lon="-108.09456907734452"><ele>1840.0</ele><time>2026-04-25T17:13:36Z</time></trkpt><trkpt lat="36.852240702713765" lon="-108.09443427323521"><ele>1840.0</ele><time>2026-04-25T17:13:37Z</time></trkpt><trkpt lat="36.85211804514803" lon="-108.09440686999662"><ele>1840.0</ele><time>2026-04-25T17:13:39Z</time></trkpt><trkpt lat="36.852022657620175" lon="-108.09447112744039"><ele>1840.0</ele><time>2026-04-25T17:13:40Z</time></trkpt><trkpt lat="36.85192691004277" lon="-108.094534490932"><ele>1840.0</ele><time>2026-04-25T17:13:41Z</time></trkpt><trkpt lat="36.85183251316507" lon="-108.09457349414292"><ele>1840.0</ele><time>2026-04-25T17:13:42Z</time></trkpt><trkpt lat="36.8517239846637" lon="-108.09464195386927"><ele>1840.0</ele><time>2026-04-25T17:13:43Z</time></trkpt><trkpt lat="36.8516358882267" lon="-108.0947227218861"><ele>1840.0</ele><time>2026-04-25T17:13:44Z</time></trkpt><trkpt lat="36.85156712110849" lon="-108.09475509177847"><ele>1839.4</ele><time>2026-04-25T17:13:45Z</time></trkpt><trkpt lat="36.85148435819454" lon="-108.094774086981"><ele>1838.8</ele><time>2026-04-25T17:13:46Z</time></trkpt><trkpt lat="36.85137746216485" lon="-108.09478482491905"><ele>1838.1999999999998</ele><time>2026-04-25T17:13:47Z</time></trkpt><trkpt lat="36.85127921223745" lon="-108.09481145483394"><ele>1837.6</ele><time>2026-04-25T17:13:48Z</time></trkpt><trkpt lat="36.851175277542026" lon="-108.09485115529034"><ele>1837.0</ele><time>2026-04-25T17:13:49Z</time></trkpt><trkpt lat="36.85107475192666" lon="-108.09484845995489"><ele>1837.0</ele><time>2026-04-25T17:13:50Z</time></trkpt><trkpt lat="36.85099654948772" lon="-108.09484988928789"><ele>1836.9999999999998</ele><time>2026-04-25T17:13:51Z</time></trkpt><trkpt lat="36.85095749185558" lon="-108.0949257310528"><ele>1836.9999999999998</ele><time>2026-04-25T17:13:52Z</time></trkpt><trkpt lat="36.85088949739406" lon="-108.09507164484519"><ele>1837.0</ele><time>2026-04-25T17:13:53Z</time></trkpt><trkpt lat="36.850873807122674" lon="-108.09522013113535"><ele>1837.0</ele><time>2026-04-25T17:13:54Z</time></trkpt><trkpt lat="36.850850677449095" lon="-108.09533310579954"><ele>1836.0</ele><time>2026-04-25T17:13:55Z</time></trkpt><trkpt lat="36.8508242386833" lon="-108.09543986493614"><ele>1834.9999999999998</ele><time>2026-04-25T17:13:56Z</time></trkpt><trkpt lat="36.850777823795504" lon="-108.09556467812418"><ele>1833.9999999999998</ele><time>2026-04-25T17:13:57Z</time></trkpt><trkpt lat="36.85074194849985" lon="-108.09568870262024"><ele>1833.0</ele><time>2026-04-25T17:13:58Z</time></trkpt><trkpt lat="36.8507046653233" lon="-108.09579117455137"><ele>1832.0</ele><time>2026-04-25T17:13:59Z</time></trkpt><trkpt lat="36.850641833178145" lon="-108.09584973472316"><ele>1830.6666666666665</ele><time>2026-04-25T17:14:00Z</time></trkpt><trkpt lat="36.85058944844409" lon="-108.0959027408826"><ele>1829.3333333333333</ele><time>2026-04-25T17:14:01Z</time></trkpt><trkpt lat="36.85051919198441" lon="-108.09598504428718"><ele>1828.0</ele><time>2026-04-25T17:14:12Z</time></trkpt><trkpt lat="36.85046884283373" lon="-108.09607006142106"><ele>1826.6666666666665</ele><time>2026-04-25T17:14:13Z</time></trkpt><trkpt lat="36.850460183603964" lon="-108.09617352465831"><ele>1825.3333333333333</ele><time>2026-04-25T17:14:14Z</time></trkpt><trkpt lat="36.85043220850755" lon="-108.09627666130507"><ele>1824.0</ele><time>2026-04-25T17:14:15Z</time></trkpt><trkpt lat="36.85037825721322" lon="-108.09632088764931"><ele>1824.0</ele><time>2026-04-25T17:14:16Z</time></trkpt><trkpt lat="36.85027365157737" lon="-108.09643211145287"><ele>1824.0</ele><time>2026-04-25T17:14:18Z</time></trkpt><trkpt lat="36.850245803997105" lon="-108.09652170428551"><ele>1824.0</ele><time>2026-04-25T17:14:19Z</time></trkpt><trkpt lat="36.85020853164811" lon="-108.09661968085473"><ele>1824.0</ele><time>2026-04-25T17:14:20Z</time></trkpt><trkpt lat="36.8501732388434" lon="-108.09674558687551"><ele>1824.0</ele><time>2026-04-25T17:14:21Z</time></trkpt><trkpt lat="36.85015702593176" lon="-108.09689774708488"><ele>1823.2</ele><time>2026-04-25T17:14:22Z</time></trkpt><trkpt lat="36.850108320247514" lon="-108.09699294591027"><ele>1822.4</ele><time>2026-04-25T17:14:23Z</time></trkpt><trkpt lat="36.850057867897235" lon="-108.09711994872669"><ele>1821.6</ele><time>2026-04-25T17:14:24Z</time></trkpt><trkpt lat="36.850048255868806" lon="-108.09724003509373"><ele>1820.8</ele><time>2026-04-25T17:14:25Z</time></trkpt><trkpt lat="36.8500386000654" lon="-108.09734957627614"><ele>1820.0</ele><time>2026-04-25T17:14:26Z</time></trkpt><trkpt lat="36.849944790302466" lon="-108.09740784988568"><ele>1818.25</ele><time>2026-04-25T17:14:27Z</time></trkpt><trkpt lat="36.849810494847475" lon="-108.09746730936888"><ele>1816.5</ele><time>2026-04-25T17:14:28Z</time></trkpt><trkpt lat="36.84970501138044" lon="-108.09749693531631"><ele>1814.75</ele><time>2026-04-25T17:14:29Z</time></trkpt><trkpt lat="36.849601017902536" lon="-108.09752854865907"><ele>1813.0</ele><time>2026-04-25T17:14:30Z</time></trkpt><trkpt lat="36.84948465517358" lon="-108.0975741910754"><ele>1813.0</ele><time>2026-04-25T17:14:31Z</time></trkpt><trkpt lat="36.849349641421725" lon="-108.0976075820573"><ele>1813.0000000000002</ele><time>2026-04-25T17:14:32Z</time></trkpt><trkpt lat="36.84923890681148" lon="-108.09763038331313"><ele>1813.0000000000002</ele><time>2026-04-25T17:14:33Z</time></trkpt><trkpt lat="36.84913838288017" lon="-108.09761352431079"><ele>1813.0</ele><time>2026-04-25T17:14:34Z</time></trkpt><trkpt lat="36.84908006259904" lon="-108.09768296291303"><ele>1813.0</ele><time>2026-04-25T17:14:36Z</time></trkpt><trkpt lat="36.84906823825231" lon="-108.09783506090426"><ele>1813.0</ele><time>2026-04-25T17:14:38Z</time></trkpt><trkpt lat="36.84904099928965" lon="-108.09794910061733"><ele>1813.0000000000002</ele><time>2026-04-25T17:14:39Z</time></trkpt><trkpt lat="36.84893474158954" lon="-108.09805093272313"><ele>1813.0000000000002</ele><time>2026-04-25T17:14:41Z</time></trkpt><trkpt lat="36.84883340691251" lon="-108.09805934036079"><ele>1813.0</ele><time>2026-04-25T17:14:42Z</time></trkpt><trkpt lat="36.84874509500737" lon="-108.09805826151947"><ele>1813.0</ele><time>2026-04-25T17:14:43Z</time></trkpt><trkpt lat="36.84866023576805" lon="-108.09807727504662"><ele>1813.0</ele><time>2026-04-25T17:14:44Z</time></trkpt><trkpt lat="36.84858272737576" lon="-108.0980852714146"><ele>1813.0</ele><time>2026-04-25T17:14:45Z</time></trkpt><trkpt lat="36.848426530734805" lon="-108.09813675383822"><ele>1813.0</ele><time>2026-04-25T17:14:47Z</time></trkpt><trkpt lat="36.848331197191875" lon="-108.098193755109"><ele>1813.0</ele><time>2026-04-25T17:14:48Z</time></trkpt><trkpt lat="36.84821498720088" lon="-108.0982384098976"><ele>1811.8000000000002</ele><time>2026-04-25T17:14:49Z</time></trkpt><trkpt lat="36.848125279035735" lon="-108.09830146551374"><ele>1810.6000000000001</ele><time>2026-04-25T17:14:50Z</time></trkpt><trkpt lat="36.84803884289709" lon="-108.09837416778156"><ele>1809.3999999999999</ele><time>2026-04-25T17:14:51Z</time></trkpt><trkpt lat="36.84795281952115" lon="-108.09844518296381"><ele>1808.1999999999998</ele><time>2026-04-25T17:14:52Z</time></trkpt><trkpt lat="36.8478511542263" lon="-108.09850587813222"><ele>1807.0</ele><time>2026-04-25T17:14:53Z</time></trkpt><trkpt lat="36.847757022027835" lon="-108.09859716291288"><ele>1807.0</ele><time>2026-04-25T17:14:54Z</time></trkpt><trkpt lat="36.847664270550354" lon="-108.09873174430015"><ele>1807.0</ele><time>2026-04-25T17:14:55Z</time></trkpt><trkpt lat="36.847574373112785" lon="-108.09887896741272"><ele>1807.0</ele><time>2026-04-25T17:14:56Z</time></trkpt><trkpt lat="36.8474821922892" lon="-108.09906074696245"><ele>1805.6666666666667</ele><time>2026-04-25T17:14:57Z</time></trkpt><trkpt lat="36.84739867674731" lon="-108.09924375032202"><ele>1804.3333333333335</ele><time>2026-04-25T17:14:58Z</time></trkpt><trkpt lat="36.84731657030585" lon="-108.09941500107614"><ele>1803.0</ele><time>2026-04-25T17:14:59Z</time></trkpt><trkpt lat="36.84720723692574" lon="-108.09949451424858"><ele>1803.0</ele><time>2026-04-25T17:15:00Z</time></trkpt><trkpt lat="36.84704792033251" lon="-108.09961517489705"><ele>1803.0</ele><time>2026-04-25T17:15:01Z</time></trkpt><trkpt lat="36.84693232231068" lon="-108.09972672975955"><ele>1803.0</ele><time>2026-04-25T17:15:02Z</time></trkpt><trkpt lat="36.846875424063334" lon="-108.09983656476565"><ele>1803.0</ele><time>2026-04-25T17:15:03Z</time></trkpt><trkpt lat="36.846813480185084" lon="-108.09996170465973"><ele>1802.8000000000002</ele><time>2026-04-25T17:15:04Z</time></trkpt><trkpt lat="36.84676536688938" lon="-108.10011275065995"><ele>1802.6000000000001</ele><time>2026-04-25T17:15:05Z</time></trkpt><trkpt lat="36.84671129182944" lon="-108.10021448272605"><ele>1802.3999999999999</ele><time>2026-04-25T17:15:06Z</time></trkpt><trkpt lat="36.846640470780066" lon="-108.10023169514598"><ele>1802.1999999999998</ele><time>2026-04-25T17:15:07Z</time></trkpt><trkpt lat="36.846518946909484" lon="-108.10021487701557"><ele>1802.0</ele><time>2026-04-25T17:15:08Z</time></trkpt><trkpt lat="36.84638870431511" lon="-108.10016052759698"><ele>1802.0</ele><time>2026-04-25T17:15:09Z</time></trkpt><trkpt lat="36.84627284449772" lon="-108.10012943507448"><ele>1801.9999999999998</ele><time>2026-04-25T17:15:10Z</time></trkpt><trkpt lat="36.84617347177553" lon="-108.10012105992689"><ele>1801.9999999999998</ele><time>2026-04-25T17:15:11Z</time></trkpt><trkpt lat="36.84608763713261" lon="-108.10006855352967"><ele>1802.0</ele><time>2026-04-25T17:15:12Z</time></trkpt><trkpt lat="36.84597928820736" lon="-108.10003424898194"><ele>1802.0</ele><time>2026-04-25T17:15:13Z</time></trkpt><trkpt lat="36.845896880754644" lon="-108.10002116387538"><ele>1801.8</ele><time>2026-04-25T17:15:14Z</time></trkpt><trkpt lat="36.84583017361741" lon="-108.09993724448177"><ele>1801.6</ele><time>2026-04-25T17:15:15Z</time></trkpt><trkpt lat="36.84577774093769" lon="-108.09986103362499"><ele>1801.3999999999999</ele><time>2026-04-25T17:15:16Z</time></trkpt><trkpt lat="36.845707630838774" lon="-108.0998575656306"><ele>1801.1999999999998</ele><time>2026-04-25T17:15:17Z</time></trkpt><trkpt lat="36.845630147497694" lon="-108.09993340730189"><ele>1801.0</ele><time>2026-04-25T17:15:18Z</time></trkpt><trkpt lat="36.845529566076124" lon="-108.10005828962682"><ele>1801.0000000000002</ele><time>2026-04-25T17:15:19Z</time></trkpt><trkpt lat="36.84543580586284" lon="-108.1001285696551"><ele>1801.0</ele><time>2026-04-25T17:15:20Z</time></trkpt><trkpt lat="36.845370044915185" lon="-108.10017478925802"><ele>1801.0</ele><time>2026-04-25T17:15:21Z</time></trkpt><trkpt lat="36.845284236234725" lon="-108.10020727820192"><ele>1801.0</ele><time>2026-04-25T17:15:22Z</time></trkpt><trkpt lat="36.84521472225823" lon="-108.10025110231588"><ele>1801.0000000000002</ele><time>2026-04-25T17:15:23Z</time></trkpt><trkpt lat="36.84512205590214" lon="-108.10022517426884"><ele>1801.0</ele><time>2026-04-25T17:15:24Z</time></trkpt><trkpt lat="36.84503366266899" lon="-108.1002259801155"><ele>1802.0</ele><time>2026-04-25T17:15:25Z</time></trkpt><trkpt lat="36.84497065032447" lon="-108.10030137920945"><ele>1803.0</ele><time>2026-04-25T17:15:26Z</time></trkpt><trkpt lat="36.84490656317302" lon="-108.10032515961726"><ele>1804.0</ele><time>2026-04-25T17:15:27Z</time></trkpt><trkpt lat="36.84482649023417" lon="-108.10025439532717"><ele>1805.0</ele><time>2026-04-25T17:15:28Z</time></trkpt><trkpt lat="36.844741600852444" lon="-108.10016153882232"><ele>1806.0</ele><time>2026-04-25T17:15:29Z</time></trkpt><trkpt lat="36.84466708658701" lon="-108.10008582905746"><ele>1806.0</ele><time>2026-04-25T17:15:30Z</time></trkpt><trkpt lat="36.84460650038082" lon="-108.10002018546732"><ele>1806.0</ele><time>2026-04-25T17:15:31Z</time></trkpt><trkpt lat="36.84453983821442" lon="-108.09993629628548"><ele>1806.0</ele><time>2026-04-25T17:15:32Z</time></trkpt><trkpt lat="36.8444181350715" lon="-108.09996157789413"><ele>1806.0</ele><time>2026-04-25T17:15:34Z</time></trkpt><trkpt lat="36.844340129413006" lon="-108.10002034313526"><ele>1806.0</ele><time>2026-04-25T17:15:35Z</time></trkpt><trkpt lat="36.84423357630473" lon="-108.10012492469637"><ele>1806.1666666666667</ele><time>2026-04-25T17:15:37Z</time></trkpt><trkpt lat="36.844178334004646" lon="-108.10017031154949"><ele>1806.3333333333335</ele><time>2026-04-25T17:15:38Z</time></trkpt><trkpt lat="36.84410123474243" lon="-108.10017903187163"><ele>1806.5</ele><time>2026-04-25T17:15:39Z</time></trkpt><trkpt lat="36.84401524874658" lon="-108.10023330020579"><ele>1806.6666666666667</ele><time>2026-04-25T17:15:40Z</time></trkpt><trkpt lat="36.84395035309202" lon="-108.10030737078048"><ele>1806.8333333333335</ele><time>2026-04-25T17:15:41Z</time></trkpt><trkpt lat="36.84391894432809" lon="-108.10038538909929"><ele>1807.0</ele><time>2026-04-25T17:15:42Z</time></trkpt><trkpt lat="36.843865679058304" lon="-108.1004396195819"><ele>1807.0</ele><time>2026-04-25T17:15:43Z</time></trkpt><trkpt lat="36.84376660283619" lon="-108.10048771901128"><ele>1806.9999999999998</ele><time>2026-04-25T17:15:44Z</time></trkpt><trkpt lat="36.84367413558837" lon="-108.10055460082691"><ele>1806.9999999999998</ele><time>2026-04-25T17:15:45Z</time></trkpt><trkpt lat="36.84362928969131" lon="-108.10062757246293"><ele>1807.0</ele><time>2026-04-25T17:15:46Z</time></trkpt><trkpt lat="36.84356239107532" lon="-108.10070141154996"><ele>1807.0</ele><time>2026-04-25T17:15:48Z</time></trkpt><trkpt lat="36.84358455390002" lon="-108.10079567336076"><ele>1806.3333333333335</ele><time>2026-04-25T17:15:56Z</time></trkpt><trkpt lat="36.8435607700592" lon="-108.10091718855618"><ele>1805.6666666666667</ele><time>2026-04-25T17:15:58Z</time></trkpt><trkpt lat="36.84353150011407" lon="-108.10099299673068"><ele>1805.0</ele><time>2026-04-25T17:15:59Z</time></trkpt><trkpt lat="36.84349651941248" lon="-108.10107231833776"><ele>1804.3333333333335</ele><time>2026-04-25T17:16:00Z</time></trkpt><trkpt lat="36.843475426408375" lon="-108.10116591653056"><ele>1803.6666666666667</ele><time>2026-04-25T17:16:01Z</time></trkpt><trkpt lat="36.84348412223205" lon="-108.10128363810954"><ele>1803.0</ele><time>2026-04-25T17:16:02Z</time></trkpt><trkpt lat="36.843498715888565" lon="-108.10140300113268"><ele>1803.0</ele><time>2026-04-25T17:16:03Z</time></trkpt><trkpt lat="36.84352145729364" lon="-108.10152592951695"><ele>1803.0000000000002</ele><time>2026-04-25T17:16:04Z</time></trkpt><trkpt lat="36.84350301498084" lon="-108.10161464205164"><ele>1803.0000000000002</ele><time>2026-04-25T17:16:05Z</time></trkpt><trkpt lat="36.84345267053839" lon="-108.10169999457175"><ele>1803.0</ele><time>2026-04-25T17:16:06Z</time></trkpt><trkpt lat="36.84344088754882" lon="-108.10181413310895"><ele>1803.0</ele><time>2026-04-25T17:16:07Z</time></trkpt><trkpt lat="36.843488799568206" lon="-108.10195164945482"><ele>1802.0</ele><time>2026-04-25T17:16:08Z</time></trkpt><trkpt lat="36.84348457951579" lon="-108.10206983457074"><ele>1801.0</ele><time>2026-04-25T17:16:09Z</time></trkpt><trkpt lat="36.843456249430766" lon="-108.1021431537187"><ele>1800.0</ele><time>2026-04-25T17:16:10Z</time></trkpt><trkpt lat="36.843425491699" lon="-108.1022174603028"><ele>1799.0</ele><time>2026-04-25T17:16:11Z</time></trkpt><trkpt lat="36.843394743703605" lon="-108.10232621173877"><ele>1798.0</ele><time>2026-04-25T17:16:12Z</time></trkpt><trkpt lat="36.84334317079139" lon="-108.10246848135903"><ele>1797.0</ele><time>2026-04-25T17:16:13Z</time></trkpt><trkpt lat="36.84330342625959" lon="-108.10257651997608"><ele>1795.5</ele><time>2026-04-25T17:16:14Z</time></trkpt><trkpt lat="36.84328119173699" lon="-108.10269316617632"><ele>1794.0</ele><time>2026-04-25T17:16:15Z</time></trkpt><trkpt lat="36.843236457606324" lon="-108.10283142539289"><ele>1792.5</ele><time>2026-04-25T17:16:16Z</time></trkpt><trkpt lat="36.843203629406624" lon="-108.10299122756966"><ele>1791.0</ele><time>2026-04-25T17:16:17Z</time></trkpt><trkpt lat="36.84314702426502" lon="-108.10319589181167"><ele>1789.6666666666665</ele><time>2026-04-25T17:16:18Z</time></trkpt><trkpt lat="36.843084518433315" lon="-108.10340609923237"><ele>1788.3333333333333</ele><time>2026-04-25T17:16:19Z</time></trkpt><trkpt lat="36.84300809118988" lon="-108.10362595978084"><ele>1787.0</ele><time>2026-04-25T17:16:20Z</time></trkpt><trkpt lat="36.84294428929357" lon="-108.10383798774623"><ele>1787.0</ele><time>2026-04-25T17:16:21Z</time></trkpt><trkpt lat="36.842892407447906" lon="-108.1040037453146"><ele>1787.0</ele><time>2026-04-25T17:16:22Z</time></trkpt><trkpt lat="36.84284734902029" lon="-108.10414445760472"><ele>1787.0</ele><time>2026-04-25T17:16:23Z</time></trkpt><trkpt lat="36.842807248391885" lon="-108.10429029920158"><ele>1787.0</ele><time>2026-04-25T17:16:24Z</time></trkpt><trkpt lat="36.84277244318001" lon="-108.10443233815113"><ele>1786.6666666666665</ele><time>2026-04-25T17:16:25Z</time></trkpt><trkpt lat="36.84275049876327" lon="-108.10452642074156"><ele>1786.3333333333333</ele><time>2026-04-25T17:16:26Z</time></trkpt><trkpt lat="36.84274843061418" lon="-108.10461356725132"><ele>1786.0</ele><time>2026-04-25T17:16:27Z</time></trkpt><trkpt lat="36.84274938205864" lon="-108.10469917261676"><ele>1785.6666666666665</ele><time>2026-04-25T17:16:28Z</time></trkpt><trkpt lat="36.842690006898586" lon="-108.10478114939833"><ele>1785.3333333333333</ele><time>2026-04-25T17:16:30Z</time></trkpt><trkpt lat="36.842593363334586" lon="-108.10481999123994"><ele>1785.0</ele><time>2026-04-25T17:16:32Z</time></trkpt><trkpt lat="36.842496067611236" lon="-108.10484488036128"><ele>1785.0</ele><time>2026-04-25T17:16:34Z</time></trkpt><trkpt lat="36.8424410263469" lon="-108.1049387734314"><ele>1785.0</ele><time>2026-04-25T17:16:36Z</time></trkpt><trkpt lat="36.84238794706392" lon="-108.10498506998134"><ele>1785.0</ele><time>2026-04-25T17:16:37Z</time></trkpt><trkpt lat="36.842297619334815" lon="-108.10501957208436"><ele>1785.0</ele><time>2026-04-25T17:16:38Z</time></trkpt><trkpt lat="36.84218627113478" lon="-108.105045849768"><ele>1785.0</ele><time>2026-04-25T17:16:39Z</time></trkpt><trkpt lat="36.84209985634697" lon="-108.10509824567241"><ele>1785.0</ele><time>2026-04-25T17:16:40Z</time></trkpt><trkpt lat="36.842009046659584" lon="-108.10515154862743"><ele>1785.0</ele><time>2026-04-25T17:16:41Z</time></trkpt><trkpt lat="36.841954266759444" lon="-108.10521347026366"><ele>1785.0</ele><time>2026-04-25T17:16:42Z</time></trkpt><trkpt lat="36.841936692219974" lon="-108.10531927878436"><ele>1785.0</ele><time>2026-04-25T17:16:44Z</time></trkpt><trkpt lat="36.84204691063666" lon="-108.10542929237276"><ele>1785.0</ele><time>2026-04-25T17:16:46Z</time></trkpt><trkpt lat="36.84213325808138" lon="-108.1055177869932"><ele>1785.0</ele><time>2026-04-25T17:16:47Z</time></trkpt><trkpt lat="36.84219276477932" lon="-108.10561680155539"><ele>1785.0</ele><time>2026-04-25T17:16:48Z</time></trkpt><trkpt lat="36.84224142610912" lon="-108.10569117288226"><ele>1785.0</ele><time>2026-04-25T17:16:49Z</time></trkpt><trkpt lat="36.84228438641421" lon="-108.10575298103399"><ele>1785.0</ele><time>2026-04-25T17:16:50Z</time></trkpt><trkpt lat="36.84234713697908" lon="-108.10585760445326"><ele>1785.0</ele><time>2026-04-25T17:16:52Z</time></trkpt><trkpt lat="36.8424121501897" lon="-108.10591760485417"><ele>1785.0</ele><time>2026-04-25T17:16:54Z</time></trkpt><trkpt lat="36.84242453892094" lon="-108.10606345324314"><ele>1785.25</ele><time>2026-04-25T17:16:56Z</time></trkpt><trkpt lat="36.84239823914498" lon="-108.1061663834403"><ele>1785.5</ele><time>2026-04-25T17:16:57Z</time></trkpt><trkpt lat="36.842342446853905" lon="-108.10630551939693"><ele>1785.75</ele><time>2026-04-25T17:16:58Z</time></trkpt><trkpt lat="36.842290558769356" lon="-108.10646129454614"><ele>1786.0</ele><time>2026-04-25T17:16:59Z</time></trkpt><trkpt lat="36.84221639390615" lon="-108.10661860407795"><ele>1786.6666666666667</ele><time>2026-04-25T17:17:00Z</time></trkpt><trkpt lat="36.84209436088793" lon="-108.10674030778834"><ele>1787.3333333333335</ele><time>2026-04-25T17:17:01Z</time></trkpt><trkpt lat="36.84196322831454" lon="-108.10685373511176"><ele>1788.0</ele><time>2026-04-25T17:17:02Z</time></trkpt><trkpt lat="36.84185536747877" lon="-108.10695818493686"><ele>1788.0</ele><time>2026-04-25T17:17:03Z</time></trkpt><trkpt lat="36.84179285288377" lon="-108.10708235809876"><ele>1788.0000000000002</ele><time>2026-04-25T17:17:04Z</time></trkpt><trkpt lat="36.84175383311815" lon="-108.10721709685166"><ele>1788.0000000000002</ele><time>2026-04-25T17:17:05Z</time></trkpt><trkpt lat="36.84171489505851" lon="-108.1073040419281"><ele>1788.0</ele><time>2026-04-25T17:17:06Z</time></trkpt><trkpt lat="36.84180591826959" lon="-108.10741425397951"><ele>1788.0</ele><time>2026-04-25T17:17:08Z</time></trkpt><trkpt lat="36.84182228819166" lon="-108.10753635579417"><ele>1788.6000000000001</ele><time>2026-04-25T17:17:09Z</time></trkpt><trkpt lat="36.8418219877491" lon="-108.1076998060541"><ele>1789.2000000000003</ele><time>2026-04-25T17:17:10Z</time></trkpt><trkpt lat="36.841864309089175" lon="-108.10783329599008"><ele>1789.8</ele><time>2026-04-25T17:17:11Z</time></trkpt><trkpt lat="36.841893953149814" lon="-108.10791321508746"><ele>1790.4</ele><time>2026-04-25T17:17:12Z</time></trkpt><trkpt lat="36.84196572909667" lon="-108.10791309523016"><ele>1791.0</ele><time>2026-04-25T17:17:13Z</time></trkpt><trkpt lat="36.84206759789826" lon="-108.10798189535585"><ele>1791.0</ele><time>2026-04-25T17:17:14Z</time></trkpt><trkpt lat="36.842154892665626" lon="-108.1080746555315"><ele>1791.0</ele><time>2026-04-25T17:17:15Z</time></trkpt><trkpt lat="36.84225223309537" lon="-108.10817004533735"><ele>1791.0</ele><time>2026-04-25T17:17:16Z</time></trkpt><trkpt lat="36.84236734848215" lon="-108.10824302616089"><ele>1791.0</ele><time>2026-04-25T17:17:17Z</time></trkpt><trkpt lat="36.84246335977326" lon="-108.10829165344083"><ele>1792.6</ele><time>2026-04-25T17:17:18Z</time></trkpt><trkpt lat="36.84251048226747" lon="-108.10838213123411"><ele>1794.1999999999998</ele><time>2026-04-25T17:17:19Z</time></trkpt><trkpt lat="36.84249886138023" lon="-108.1084831015512"><ele>1795.8000000000002</ele><time>2026-04-25T17:17:20Z</time></trkpt><trkpt lat="36.84247829252055" lon="-108.10862351188608"><ele>1797.4</ele><time>2026-04-25T17:17:21Z</time></trkpt><trkpt lat="36.84244305104591" lon="-108.10871122068501"><ele>1799.0</ele><time>2026-04-25T17:17:22Z</time></trkpt><trkpt lat="36.84240592530216" lon="-108.1088177707954"><ele>1799.0</ele><time>2026-04-25T17:17:23Z</time></trkpt><trkpt lat="36.84236551667295" lon="-108.10895345341682"><ele>1799.0</ele><time>2026-04-25T17:17:24Z</time></trkpt><trkpt lat="36.84233593111686" lon="-108.10907695085673"><ele>1799.0</ele><time>2026-04-25T17:17:25Z</time></trkpt><trkpt lat="36.84232203764337" lon="-108.10918816047491"><ele>1799.0</ele><time>2026-04-25T17:17:26Z</time></trkpt><trkpt lat="36.84230352924493" lon="-108.10931084619567"><ele>1799.0</ele><time>2026-04-25T17:17:27Z</time></trkpt><trkpt lat="36.84225362308525" lon="-108.10942300093656"><ele>1799.6666666666665</ele><time>2026-04-25T17:17:28Z</time></trkpt><trkpt lat="36.84221457391449" lon="-108.1094975599358"><ele>1800.3333333333333</ele><time>2026-04-25T17:17:29Z</time></trkpt><trkpt lat="36.84216150829432" lon="-108.10956999922207"><ele>1801.0</ele><time>2026-04-25T17:17:31Z</time></trkpt><trkpt lat="36.84209487318998" lon="-108.10955847378644"><ele>1801.6666666666665</ele><time>2026-04-25T17:17:43Z</time></trkpt><trkpt lat="36.84196279086423" lon="-108.10949238223081"><ele>1802.3333333333333</ele><time>2026-04-25T17:17:45Z</time></trkpt><trkpt lat="36.84188869023899" lon="-108.10944373123098"><ele>1803.0</ele><time>2026-04-25T17:17:46Z</time></trkpt><trkpt lat="36.84179343268124" lon="-108.10941092793041"><ele>1803.0</ele><time>2026-04-25T17:17:47Z</time></trkpt><trkpt lat="36.841708529010155" lon="-108.10932917788993"><ele>1803.0</ele><time>2026-04-25T17:17:48Z</time></trkpt><trkpt lat="36.84162334824986" lon="-108.10920152340717"><ele>1803.0</ele><time>2026-04-25T17:17:49Z</time></trkpt><trkpt lat="36.841517397958754" lon="-108.10913091513743"><ele>1803.0</ele><time>2026-04-25T17:17:50Z</time></trkpt><trkpt lat="36.84140281875973" lon="-108.10907709477226"><ele>1801.5</ele><time>2026-04-25T17:17:51Z</time></trkpt><trkpt lat="36.84126021282991" lon="-108.10897069617579"><ele>1800.0</ele><time>2026-04-25T17:17:52Z</time></trkpt><trkpt lat="36.8411543486301" lon="-108.10887433916015"><ele>1798.5</ele><time>2026-04-25T17:17:53Z</time></trkpt><trkpt lat="36.84106614070566" lon="-108.108788682863"><ele>1797.0</ele><time>2026-04-25T17:17:54Z</time></trkpt><trkpt lat="36.840963359495674" lon="-108.10872601404468"><ele>1796.8</ele><time>2026-04-25T17:17:55Z</time></trkpt><trkpt lat="36.84087292956868" lon="-108.10870874527515"><ele>1796.6</ele><time>2026-04-25T17:17:56Z</time></trkpt><trkpt lat="36.84074011084779" lon="-108.10877047228058"><ele>1796.3999999999999</ele><time>2026-04-25T17:17:58Z</time></trkpt><trkpt lat="36.840654349020014" lon="-108.10881345808444"><ele>1796.1999999999998</ele><time>2026-04-25T17:17:59Z</time></trkpt><trkpt lat="36.84055952585977" lon="-108.10880853118762"><ele>1796.0</ele><time>2026-04-25T17:18:00Z</time></trkpt><trkpt lat="36.84045113949435" lon="-108.10880805615417"><ele>1796.0</ele><time>2026-04-25T17:18:01Z</time></trkpt><trkpt lat="36.840350756029004" lon="-108.10887431660693"><ele>1796.0</ele><time>2026-04-25T17:18:02Z</time></trkpt><trkpt lat="36.84028658812469" lon="-108.10896206369243"><ele>1796.0</ele><time>2026-04-25T17:18:03Z</time></trkpt><trkpt lat="36.840213733083324" lon="-108.10907473736656"><ele>1796.0</ele><time>2026-04-25T17:18:04Z</time></trkpt><trkpt lat="36.84013003585453" lon="-108.1092018080594"><ele>1794.25</ele><time>2026-04-25T17:18:05Z</time></trkpt><trkpt lat="36.84004779426034" lon="-108.1093179975028"><ele>1792.5</ele><time>2026-04-25T17:18:06Z</time></trkpt><trkpt lat="36.83994340913436" lon="-108.10942688883868"><ele>1790.75</ele><time>2026-04-25T17:18:07Z</time></trkpt><trkpt lat="36.83980989621992" lon="-108.10956801995023"><ele>1789.0</ele><time>2026-04-25T17:18:08Z</time></trkpt><trkpt lat="36.83970854823111" lon="-108.10969687245596"><ele>1789.0</ele><time>2026-04-25T17:18:09Z</time></trkpt><trkpt lat="36.839619101151904" lon="-108.10978800389967"><ele>1789.0</ele><time>2026-04-25T17:18:10Z</time></trkpt><trkpt lat="36.83951882194863" lon="-108.1098869171159"><ele>1789.0</ele><time>2026-04-25T17:18:11Z</time></trkpt><trkpt lat="36.839411166663055" lon="-108.10995926645506"><ele>1789.0</ele><time>2026-04-25T17:18:12Z</time></trkpt><trkpt lat="36.839282253137014" lon="-108.11003148956124"><ele>1787.2</ele><time>2026-04-25T17:18:13Z</time></trkpt><trkpt lat="36.839202226362005" lon="-108.11011462481034"><ele>1785.4</ele><time>2026-04-25T17:18:14Z</time></trkpt><trkpt lat="36.839159542976184" lon="-108.11022946233328"><ele>1783.6</ele><time>2026-04-25T17:18:15Z</time></trkpt><trkpt lat="36.83911203054293" lon="-108.11037831236001"><ele>1781.8</ele><time>2026-04-25T17:18:16Z</time></trkpt><trkpt lat="36.839051933347605" lon="-108.11049921375539"><ele>1780.0</ele><time>2026-04-25T17:18:17Z</time></trkpt><trkpt lat="36.83898097108582" lon="-108.110609519368"><ele>1780.0</ele><time>2026-04-25T17:18:18Z</time></trkpt><trkpt lat="36.83889741061376" lon="-108.11070206931531"><ele>1780.0</ele><time>2026-04-25T17:18:19Z</time></trkpt><trkpt lat="36.83879853301905" lon="-108.11078949394836"><ele>1780.0</ele><time>2026-04-25T17:18:20Z</time></trkpt><trkpt lat="36.83867771987125" lon="-108.11086441297334"><ele>1780.0</ele><time>2026-04-25T17:18:21Z</time></trkpt><trkpt lat="36.838541214873956" lon="-108.1109720208502"><ele>1779.0</ele><time>2026-04-25T17:18:22Z</time></trkpt><trkpt lat="36.838424798762965" lon="-108.11110544421035"><ele>1778.0</ele><time>2026-04-25T17:18:23Z</time></trkpt><trkpt lat="36.83831082887488" lon="-108.11123746221111"><ele>1777.0</ele><time>2026-04-25T17:18:24Z</time></trkpt><trkpt lat="36.83821822682118" lon="-108.11139810758921"><ele>1778.6666666666667</ele><time>2026-04-25T17:18:25Z</time></trkpt><trkpt lat="36.83812037259363" lon="-108.11160752286453"><ele>1780.3333333333335</ele><time>2026-04-25T17:18:26Z</time></trkpt><trkpt lat="36.83804455972659" lon="-108.11176787399089"><ele>1782.0</ele><time>2026-04-25T17:18:27Z</time></trkpt><trkpt lat="36.83800454483932" lon="-108.1118982289966"><ele>1782.0</ele><time>2026-04-25T17:18:28Z</time></trkpt><trkpt lat="36.83798570169774" lon="-108.11197370830835"><ele>1781.9999999999998</ele><time>2026-04-25T17:18:29Z</time></trkpt><trkpt lat="36.83800496290996" lon="-108.11210487341404"><ele>1781.9999999999998</ele><time>2026-04-25T17:18:31Z</time></trkpt><trkpt lat="36.838045359586" lon="-108.11220487922226"><ele>1782.0</ele><time>2026-04-25T17:18:32Z</time></trkpt><trkpt lat="36.83809103532836" lon="-108.11231604902595"><ele>1782.0</ele><time>2026-04-25T17:18:33Z</time></trkpt><trkpt lat="36.838114621278585" lon="-108.11245432941962"><ele>1782.1999999999998</ele><time>2026-04-25T17:18:34Z</time></trkpt><trkpt lat="36.838108253579314" lon="-108.11258756723285"><ele>1782.3999999999999</ele><time>2026-04-25T17:18:35Z</time></trkpt><trkpt lat="36.83809997302504" lon="-108.11272372905141"><ele>1782.6000000000001</ele><time>2026-04-25T17:18:36Z</time></trkpt><trkpt lat="36.83815064397759" lon="-108.1128394886277"><ele>1782.8000000000002</ele><time>2026-04-25T17:18:37Z</time></trkpt><trkpt lat="36.838213451793614" lon="-108.11295257057573"><ele>1783.0</ele><time>2026-04-25T17:18:38Z</time></trkpt><trkpt lat="36.83820560468053" lon="-108.11307900173308"><ele>1783.0</ele><time>2026-04-25T17:18:39Z</time></trkpt><trkpt lat="36.83816981818434" lon="-108.11321023094447"><ele>1783.0</ele><time>2026-04-25T17:18:40Z</time></trkpt><trkpt lat="36.838121365780125" lon="-108.1133791677642"><ele>1783.0</ele><time>2026-04-25T17:18:41Z</time></trkpt><trkpt lat="36.83803137894307" lon="-108.11352995843147"><ele>1783.0</ele><time>2026-04-25T17:18:42Z</time></trkpt><trkpt lat="36.83793368385456" lon="-108.11367406809042"><ele>1783.5</ele><time>2026-04-25T17:18:43Z</time></trkpt><trkpt lat="36.837830699764105" lon="-108.11380886485298"><ele>1784.0</ele><time>2026-04-25T17:18:44Z</time></trkpt><trkpt lat="36.837724830252576" lon="-108.11390444889685"><ele>1784.5</ele><time>2026-04-25T17:18:45Z</time></trkpt><trkpt lat="36.83763817558573" lon="-108.11399244688856"><ele>1785.0</ele><time>2026-04-25T17:18:46Z</time></trkpt><trkpt lat="36.83757269989198" lon="-108.11406265646015"><ele>1785.8</ele><time>2026-04-25T17:18:47Z</time></trkpt><trkpt lat="36.83753234637672" lon="-108.11412924089716"><ele>1786.6</ele><time>2026-04-25T17:18:48Z</time></trkpt><trkpt lat="36.83754720184506" lon="-108.11423679287758"><ele>1787.4</ele><time>2026-04-25T17:18:49Z</time></trkpt><trkpt lat="36.8375695364335" lon="-108.11440474612783"><ele>1788.2</ele><time>2026-04-25T17:18:50Z</time></trkpt><trkpt lat="36.83755473854567" lon="-108.11452225973032"><ele>1789.0</ele><time>2026-04-25T17:18:51Z</time></trkpt><trkpt lat="36.8374807498857" lon="-108.11457511114344"><ele>1789.0</ele><time>2026-04-25T17:18:52Z</time></trkpt><trkpt lat="36.83737112761022" lon="-108.11461285444919"><ele>1789.0</ele><time>2026-04-25T17:18:53Z</time></trkpt><trkpt lat="36.83726414001188" lon="-108.11467096471422"><ele>1789.0</ele><time>2026-04-25T17:18:54Z</time></trkpt><trkpt lat="36.83717608044997" lon="-108.11471414324096"><ele>1789.0</ele><time>2026-04-25T17:18:55Z</time></trkpt><trkpt lat="36.837070934619234" lon="-108.11476528407626"><ele>1789.0</ele><time>2026-04-25T17:18:56Z</time></trkpt><trkpt lat="36.83694844392916" lon="-108.11477680662458"><ele>1789.0</ele><time>2026-04-25T17:18:57Z</time></trkpt><trkpt lat="36.83680040846155" lon="-108.11475483972264"><ele>1789.0</ele><time>2026-04-25T17:18:58Z</time></trkpt><trkpt lat="36.8366574966652" lon="-108.11471821288173"><ele>1789.0</ele><time>2026-04-25T17:18:59Z</time></trkpt><trkpt lat="36.83654226670163" lon="-108.1146627536717"><ele>1789.0</ele><time>2026-04-25T17:19:00Z</time></trkpt><trkpt lat="36.83642779257818" lon="-108.11454958377921"><ele>1789.0</ele><time>2026-04-25T17:19:01Z</time></trkpt><trkpt lat="36.8363091784327" lon="-108.1144541070484"><ele>1789.0</ele><time>2026-04-25T17:19:02Z</time></trkpt><trkpt lat="36.836185141912004" lon="-108.11436824368815"><ele>1789.0</ele><time>2026-04-25T17:19:03Z</time></trkpt><trkpt lat="36.836092019518176" lon="-108.11430743133266"><ele>1789.0</ele><time>2026-04-25T17:19:04Z</time></trkpt><trkpt lat="36.83599674714921" lon="-108.11427877995258"><ele>1789.0</ele><time>2026-04-25T17:19:05Z</time></trkpt><trkpt lat="36.83590257597788" lon="-108.11423171353601"><ele>1789.0</ele><time>2026-04-25T17:19:06Z</time></trkpt><trkpt lat="36.83584532286021" lon="-108.11413063869851"><ele>1789.0</ele><time>2026-04-25T17:19:07Z</time></trkpt><trkpt lat="36.83582371188082" lon="-108.11396363060545"><ele>1789.0</ele><time>2026-04-25T17:19:08Z</time></trkpt><trkpt lat="36.835827855013285" lon="-108.11380541919307"><ele>1789.0</ele><time>2026-04-25T17:19:09Z</time></trkpt><trkpt lat="36.83581230687616" lon="-108.11368771746467"><ele>1789.0</ele><time>2026-04-25T17:19:10Z</time></trkpt><trkpt lat="36.83572611553462" lon="-108.11359476615564"><ele>1789.0</ele><time>2026-04-25T17:19:11Z</time></trkpt><trkpt lat="36.83562258749176" lon="-108.11348790406063"><ele>1789.0</ele><time>2026-04-25T17:19:12Z</time></trkpt><trkpt lat="36.835529629894666" lon="-108.11337544457254"><ele>1789.0</ele><time>2026-04-25T17:19:13Z</time></trkpt><trkpt lat="36.83539869485532" lon="-108.1132982444943"><ele>1789.0</ele><time>2026-04-25T17:19:14Z</time></trkpt><trkpt lat="36.835258195129036" lon="-108.1132366845486"><ele>1789.0</ele><time>2026-04-25T17:19:15Z</time></trkpt><trkpt lat="36.83512893548842" lon="-108.11318378726214"><ele>1789.0</ele><time>2026-04-25T17:19:16Z</time></trkpt><trkpt lat="36.835024242308755" lon="-108.11317899315452"><ele>1788.0</ele><time>2026-04-25T17:19:17Z</time></trkpt><trkpt lat="36.83490852068325" lon="-108.11315915957609"><ele>1787.0</ele><time>2026-04-25T17:19:18Z</time></trkpt><trkpt lat="36.834777892439796" lon="-108.11311810542016"><ele>1786.0</ele><time>2026-04-25T17:19:19Z</time></trkpt><trkpt lat="36.83469201140227" lon="-108.11311457293"><ele>1785.0</ele><time>2026-04-25T17:19:20Z</time></trkpt><trkpt lat="36.834556632214465" lon="-108.11312483172286"><ele>1785.0</ele><time>2026-04-25T17:19:21Z</time></trkpt><trkpt lat="36.83442253032223" lon="-108.1130992729345"><ele>1785.0</ele><time>2026-04-25T17:19:22Z</time></trkpt><trkpt lat="36.834314488339466" lon="-108.11306362632483"><ele>1785.0</ele><time>2026-04-25T17:19:23Z</time></trkpt><trkpt lat="36.83420941880931" lon="-108.11298744410202"><ele>1785.0</ele><time>2026-04-25T17:19:24Z</time></trkpt><trkpt lat="36.83410835849281" lon="-108.11288892955028"><ele>1784.6</ele><time>2026-04-25T17:19:25Z</time></trkpt><trkpt lat="36.83401276330851" lon="-108.11282412997701"><ele>1784.2</ele><time>2026-04-25T17:19:26Z</time></trkpt><trkpt lat="36.83392204370373" lon="-108.11278101355943"><ele>1783.8000000000002</ele><time>2026-04-25T17:19:27Z</time></trkpt><trkpt lat="36.83380755000124" lon="-108.11274990087082"><ele>1783.4</ele><time>2026-04-25T17:19:28Z</time></trkpt><trkpt lat="36.833690563545304" lon="-108.1127261937681"><ele>1783.0</ele><time>2026-04-25T17:19:29Z</time></trkpt><trkpt lat="36.8335747669673" lon="-108.11269194071312"><ele>1783.0</ele><time>2026-04-25T17:19:30Z</time></trkpt><trkpt lat="36.83348131052597" lon="-108.1126740027913"><ele>1783.0000000000002</ele><time>2026-04-25T17:19:31Z</time></trkpt><trkpt lat="36.83336675104301" lon="-108.11268883984634"><ele>1783.0000000000002</ele><time>2026-04-25T17:19:32Z</time></trkpt><trkpt lat="36.8332707780352" lon="-108.11268351654734"><ele>1783.0</ele><time>2026-04-25T17:19:33Z</time></trkpt><trkpt lat="36.83315884153548" lon="-108.11262455801375"><ele>1783.0</ele><time>2026-04-25T17:19:34Z</time></trkpt><trkpt lat="36.833004089874954" lon="-108.11255114097091"><ele>1781.3333333333335</ele><time>2026-04-25T17:19:35Z</time></trkpt><trkpt lat="36.83285124823561" lon="-108.11249298756923"><ele>1779.6666666666665</ele><time>2026-04-25T17:19:36Z</time></trkpt><trkpt lat="36.83268200384549" lon="-108.11242434389656"><ele>1778.0</ele><time>2026-04-25T17:19:37Z</time></trkpt><trkpt lat="36.83255931950506" lon="-108.11241538492253"><ele>1776.6000000000001</ele><time>2026-04-25T17:19:38Z</time></trkpt><trkpt lat="36.83245103146364" lon="-108.11244955324385"><ele>1775.2000000000003</ele><time>2026-04-25T17:19:39Z</time></trkpt><trkpt lat="36.83233989691835" lon="-108.1125194865188"><ele>1773.8</ele><time>2026-04-25T17:19:40Z</time></trkpt><trkpt lat="36.832218884226606" lon="-108.11255501261846"><ele>1772.4</ele><time>2026-04-25T17:19:41Z</time></trkpt><trkpt lat="36.83213966628234" lon="-108.1125518180544"><ele>1771.0</ele><time>2026-04-25T17:19:42Z</time></trkpt><trkpt lat="36.832058007116984" lon="-108.11253961165198"><ele>1771.0000000000002</ele><time>2026-04-25T17:19:43Z</time></trkpt><trkpt lat="36.83196837058635" lon="-108.1125718822001"><ele>1771.0</ele><time>2026-04-25T17:19:44Z</time></trkpt><trkpt lat="36.831908852844755" lon="-108.11259892351829"><ele>1771.0</ele><time>2026-04-25T17:19:45Z</time></trkpt><trkpt lat="36.8318231362856" lon="-108.11265417682607"><ele>1771.0</ele><time>2026-04-25T17:19:47Z</time></trkpt><trkpt lat="36.83174578418283" lon="-108.11269445543729"><ele>1771.0000000000002</ele><time>2026-04-25T17:19:54Z</time></trkpt><trkpt lat="36.83166877835725" lon="-108.11270203202622"><ele>1771.0</ele><time>2026-04-25T17:19:57Z</time></trkpt><trkpt lat="36.831596364137795" lon="-108.11268886777536"><ele>1771.0</ele><time>2026-04-25T17:20:01.999Z</time></trkpt><trkpt lat="36.831536986321254" lon="-108.11272483851864"><ele>1771.0</ele><time>2026-04-25T17:20:06.999Z</time></trkpt><trkpt lat="36.83146571811016" lon="-108.11275321056283"><ele>1771.0</ele><time>2026-04-25T17:20:10.999Z</time></trkpt><trkpt lat="36.831350140549524" lon="-108.11280563823041"><ele>1771.0</ele><time>2026-04-25T17:20:12.999Z</time></trkpt><trkpt lat="36.831258071499064" lon="-108.11282627246861"><ele>1771.0</ele><time>2026-04-25T17:20:13.999Z</time></trkpt><trkpt lat="36.8311442876799" lon="-108.11283380780168"><ele>1771.0</ele><time>2026-04-25T17:20:14.999Z</time></trkpt><trkpt lat="36.83103336053033" lon="-108.1128254019927"><ele>1771.0</ele><time>2026-04-25T17:20:15.999Z</time></trkpt><trkpt lat="36.830914938444714" lon="-108.11281226986202"><ele>1771.0</ele><time>2026-04-25T17:20:16.999Z</time></trkpt><trkpt lat="36.83081240351831" lon="-108.11281002872647"><ele>1771.0</ele><time>2026-04-25T17:20:17.999Z</time></trkpt><trkpt lat="36.83070672048355" lon="-108.11282953905611"><ele>1771.0</ele><time>2026-04-25T17:20:18.999Z</time></trkpt><trkpt lat="36.830601453188464" lon="-108.11285169946575"><ele>1771.0000000000002</ele><time>2026-04-25T17:20:19.999Z</time></trkpt><trkpt lat="36.830507393965064" lon="-108.11286201705487"><ele>1771.0</ele><time>2026-04-25T17:20:20.999Z</time></trkpt><trkpt lat="36.83043530374842" lon="-108.1128931930176"><ele>1771.0</ele><time>2026-04-25T17:20:21.999Z</time></trkpt><trkpt lat="36.8303966431788" lon="-108.1129858535482"><ele>1771.0</ele><time>2026-04-25T17:20:22.999Z</time></trkpt><trkpt lat="36.83041614356272" lon="-108.11308941973846"><ele>1771.0000000000002</ele><time>2026-04-25T17:20:23.999Z</time></trkpt><trkpt lat="36.83041523900716" lon="-108.11319929995747"><ele>1771.0</ele><time>2026-04-25T17:20:24.999Z</time></trkpt><trkpt lat="36.830353796199276" lon="-108.11329644442296"><ele>1770.75</ele><time>2026-04-25T17:20:25.999Z</time></trkpt><trkpt lat="36.8302455909204" lon="-108.11337967380395"><ele>1770.5</ele><time>2026-04-25T17:20:26.999Z</time></trkpt><trkpt lat="36.83019945845092" lon="-108.1134761458304"><ele>1770.25</ele><time>2026-04-25T17:20:28Z</time></trkpt><trkpt lat="36.83016481745395" lon="-108.11361895005352"><ele>1770.0</ele><time>2026-04-25T17:20:29Z</time></trkpt><trkpt lat="36.83009816462593" lon="-108.11376193573001"><ele>1770.0</ele><time>2026-04-25T17:20:30Z</time></trkpt><trkpt lat="36.83005433555684" lon="-108.11387134783418"><ele>1770.0</ele><time>2026-04-25T17:20:31Z</time></trkpt><trkpt lat="36.830031935867545" lon="-108.11398533990436"><ele>1770.0</ele><time>2026-04-25T17:20:32Z</time></trkpt><trkpt lat="36.83002919832297" lon="-108.11410109151402"><ele>1770.0</ele><time>2026-04-25T17:20:33Z</time></trkpt><trkpt lat="36.830005158101045" lon="-108.11419662571569"><ele>1770.0</ele><time>2026-04-25T17:20:34Z</time></trkpt><trkpt lat="36.82997771044552" lon="-108.11436141043703"><ele>1770.0</ele><time>2026-04-25T17:20:36Z</time></trkpt><trkpt lat="36.82991881670457" lon="-108.11441450314759"><ele>1770.0</ele><time>2026-04-25T17:20:37Z</time></trkpt><trkpt lat="36.82982605723756" lon="-108.11439851523795"><ele>1770.0</ele><time>2026-04-25T17:20:38Z</time></trkpt><trkpt lat="36.82974083118249" lon="-108.11442753077554"><ele>1770.0</ele><time>2026-04-25T17:20:39Z</time></trkpt><trkpt lat="36.82964330583339" lon="-108.11450691841483"><ele>1770.0</ele><time>2026-04-25T17:20:40Z</time></trkpt><trkpt lat="36.829522237138164" lon="-108.11460627979481"><ele>1770.0</ele><time>2026-04-25T17:20:41Z</time></trkpt><trkpt lat="36.82939817607867" lon="-108.11472155486481"><ele>1770.0</ele><time>2026-04-25T17:20:42Z</time></trkpt><trkpt lat="36.82928439597322" lon="-108.11478547711162"><ele>1770.0</ele><time>2026-04-25T17:20:43Z</time></trkpt><trkpt lat="36.829145252573845" lon="-108.11487706440056"><ele>1770.0</ele><time>2026-04-25T17:20:44Z</time></trkpt><trkpt lat="36.82900690716747" lon="-108.11497229470352"><ele>1770.0</ele><time>2026-04-25T17:20:45Z</time></trkpt><trkpt lat="36.82886795870598" lon="-108.11505831171233"><ele>1770.0</ele><time>2026-04-25T17:20:46Z</time></trkpt><trkpt lat="36.82872919778722" lon="-108.11513802309395"><ele>1770.0</ele><time>2026-04-25T17:20:47Z</time></trkpt><trkpt lat="36.82858941502745" lon="-108.11523188827931"><ele>1771.6666666666665</ele><time>2026-04-25T17:20:48Z</time></trkpt><trkpt lat="36.82843002228238" lon="-108.11534219006901"><ele>1773.3333333333333</ele><time>2026-04-25T17:20:49Z</time></trkpt><trkpt lat="36.82827258877411" lon="-108.11540699130813"><ele>1775.0</ele><time>2026-04-25T17:20:50Z</time></trkpt><trkpt lat="36.828117868377035" lon="-108.1155019892274"><ele>1775.0</ele><time>2026-04-25T17:20:51Z</time></trkpt><trkpt lat="36.82798696330403" lon="-108.11559856610151"><ele>1775.0</ele><time>2026-04-25T17:20:52Z</time></trkpt><trkpt lat="36.8278339049575" lon="-108.11568799274998"><ele>1775.0</ele><time>2026-04-25T17:20:53Z</time></trkpt><trkpt lat="36.82769731028633" lon="-108.11576647517664"><ele>1776.0</ele><time>2026-04-25T17:20:54Z</time></trkpt><trkpt lat="36.82757512598614" lon="-108.11585577178451"><ele>1777.0</ele><time>2026-04-25T17:20:55Z</time></trkpt><trkpt lat="36.82746655596931" lon="-108.11592412951735"><ele>1778.0</ele><time>2026-04-25T17:20:56Z</time></trkpt><trkpt lat="36.827352549974265" lon="-108.1159825628022"><ele>1779.0</ele><time>2026-04-25T17:20:57Z</time></trkpt><trkpt lat="36.8272277721156" lon="-108.11606968430016"><ele>1779.0</ele><time>2026-04-25T17:20:58Z</time></trkpt><trkpt lat="36.82709640520715" lon="-108.11616795854867"><ele>1779.0</ele><time>2026-04-25T17:20:59Z</time></trkpt><trkpt lat="36.82693537879049" lon="-108.11628777446327"><ele>1779.0</ele><time>2026-04-25T17:21:00Z</time></trkpt><trkpt lat="36.82676444107557" lon="-108.1163952783638"><ele>1778.25</ele><time>2026-04-25T17:21:01Z</time></trkpt><trkpt lat="36.82662399624336" lon="-108.11649083915209"><ele>1777.5</ele><time>2026-04-25T17:21:02Z</time></trkpt><trkpt lat="36.82650720789719" lon="-108.11655051180458"><ele>1776.75</ele><time>2026-04-25T17:21:03Z</time></trkpt><trkpt lat="36.826396188905534" lon="-108.116606845322"><ele>1776.0</ele><time>2026-04-25T17:21:04Z</time></trkpt><trkpt lat="36.82627439375635" lon="-108.11667762274239"><ele>1776.0</ele><time>2026-04-25T17:21:05Z</time></trkpt><trkpt lat="36.82613508812172" lon="-108.1167988981692"><ele>1776.0</ele><time>2026-04-25T17:21:06Z</time></trkpt><trkpt lat="36.82600099732726" lon="-108.11690531245151"><ele>1776.0</ele><time>2026-04-25T17:21:07Z</time></trkpt><trkpt lat="36.82585459317328" lon="-108.11697908662599"><ele>1776.3333333333335</ele><time>2026-04-25T17:21:08Z</time></trkpt><trkpt lat="36.825713243913604" lon="-108.11705910179981"><ele>1776.6666666666667</ele><time>2026-04-25T17:21:09Z</time></trkpt><trkpt lat="36.82556658168371" lon="-108.11716164242738"><ele>1777.0</ele><time>2026-04-25T17:21:10Z</time></trkpt><trkpt lat="36.82541707545044" lon="-108.1172519356205"><ele>1777.0</ele><time>2026-04-25T17:21:11Z</time></trkpt><trkpt lat="36.825274152746964" lon="-108.11733934847891"><ele>1777.0</ele><time>2026-04-25T17:21:12Z</time></trkpt><trkpt lat="36.825140286836316" lon="-108.11742486829755"><ele>1777.0</ele><time>2026-04-25T17:21:13Z</time></trkpt><trkpt lat="36.82501322238374" lon="-108.11750719335797"><ele>1777.75</ele><time>2026-04-25T17:21:14Z</time></trkpt><trkpt lat="36.82488576789094" lon="-108.11758047228889"><ele>1778.5</ele><time>2026-04-25T17:21:15Z</time></trkpt><trkpt lat="36.824767269202525" lon="-108.11764850292758"><ele>1779.25</ele><time>2026-04-25T17:21:16Z</time></trkpt><trkpt lat="36.824628999212756" lon="-108.11773099693319"><ele>1780.0</ele><time>2026-04-25T17:21:17Z</time></trkpt><trkpt lat="36.824505368348476" lon="-108.1178138487474"><ele>1780.0</ele><time>2026-04-25T17:21:18Z</time></trkpt><trkpt lat="36.82437336914696" lon="-108.11789381786322"><ele>1780.0</ele><time>2026-04-25T17:21:19Z</time></trkpt><trkpt lat="36.82424931916007" lon="-108.11797545639828"><ele>1780.0</ele><time>2026-04-25T17:21:20Z</time></trkpt><trkpt lat="36.82412467820311" lon="-108.11807043892186"><ele>1780.0</ele><time>2026-04-25T17:21:21Z</time></trkpt><trkpt lat="36.823989657706306" lon="-108.11816981653668"><ele>1780.75</ele><time>2026-04-25T17:21:22Z</time></trkpt><trkpt lat="36.82384402778889" lon="-108.11826979328602"><ele>1781.5</ele><time>2026-04-25T17:21:23Z</time></trkpt><trkpt lat="36.82373851081396" lon="-108.11832843091992"><ele>1782.25</ele><time>2026-04-25T17:21:24Z</time></trkpt><trkpt lat="36.82363554390515" lon="-108.11839692126561"><ele>1783.0</ele><time>2026-04-25T17:21:25Z</time></trkpt><trkpt lat="36.82353107392427" lon="-108.11846792605326"><ele>1782.0</ele><time>2026-04-25T17:21:26Z</time></trkpt><trkpt lat="36.823430045814156" lon="-108.11853141869899"><ele>1781.0</ele><time>2026-04-25T17:21:27Z</time></trkpt><trkpt lat="36.823302906381805" lon="-108.11863075495307"><ele>1780.0</ele><time>2026-04-25T17:21:28Z</time></trkpt><trkpt lat="36.8231545152675" lon="-108.11873096444269"><ele>1779.0</ele><time>2026-04-25T17:21:29Z</time></trkpt><trkpt lat="36.823008885238195" lon="-108.11883487996906"><ele>1779.0</ele><time>2026-04-25T17:21:30Z</time></trkpt><trkpt lat="36.822884402390926" lon="-108.11889922184665"><ele>1779.0</ele><time>2026-04-25T17:21:31Z</time></trkpt><trkpt lat="36.82278224508522" lon="-108.11897196569053"><ele>1779.0</ele><time>2026-04-25T17:21:32Z</time></trkpt><trkpt lat="36.82268276015479" lon="-108.11904750383616"><ele>1779.0</ele><time>2026-04-25T17:21:33Z</time></trkpt><trkpt lat="36.8225356177951" lon="-108.11914132114191"><ele>1778.0</ele><time>2026-04-25T17:21:34Z</time></trkpt><trkpt lat="36.82240031997726" lon="-108.11921919616641"><ele>1777.0</ele><time>2026-04-25T17:21:35Z</time></trkpt><trkpt lat="36.82227203464719" lon="-108.11929889001887"><ele>1776.0</ele><time>2026-04-25T17:21:36Z</time></trkpt><trkpt lat="36.82214480440091" lon="-108.11939063838722"><ele>1775.0</ele><time>2026-04-25T17:21:37Z</time></trkpt><trkpt lat="36.8220577635173" lon="-108.1194640082051"><ele>1775.0</ele><time>2026-04-25T17:21:38Z</time></trkpt><trkpt lat="36.821996155843905" lon="-108.11949972350916"><ele>1775.0</ele><time>2026-04-25T17:21:39Z</time></trkpt><trkpt lat="36.82192210940137" lon="-108.11951353944923"><ele>1775.0</ele><time>2026-04-25T17:21:40Z</time></trkpt><trkpt lat="36.8218317356407" lon="-108.1194798798789"><ele>1775.0</ele><time>2026-04-25T17:21:41Z</time></trkpt><trkpt lat="36.821730327747595" lon="-108.11941691556794"><ele>1775.0</ele><time>2026-04-25T17:21:42Z</time></trkpt><trkpt lat="36.82162878811184" lon="-108.11940962059015"><ele>1775.1666666666665</ele><time>2026-04-25T17:21:43Z</time></trkpt><trkpt lat="36.82156579295761" lon="-108.11947251696972"><ele>1775.3333333333333</ele><time>2026-04-25T17:21:44Z</time></trkpt><trkpt lat="36.821495356044004" lon="-108.11954168725599"><ele>1775.5</ele><time>2026-04-25T17:21:45Z</time></trkpt><trkpt lat="36.821417294677914" lon="-108.11958844440873"><ele>1775.6666666666665</ele><time>2026-04-25T17:21:46Z</time></trkpt><trkpt lat="36.82134859742932" lon="-108.11962529181791"><ele>1775.8333333333333</ele><time>2026-04-25T17:21:47Z</time></trkpt><trkpt lat="36.82132875162529" lon="-108.11972734662591"><ele>1776.0</ele><time>2026-04-25T17:21:48Z</time></trkpt><trkpt lat="36.821286426931685" lon="-108.11980975387978"><ele>1776.0</ele><time>2026-04-25T17:21:49Z</time></trkpt><trkpt lat="36.82117680100775" lon="-108.11980377090373"><ele>1776.0</ele><time>2026-04-25T17:21:50Z</time></trkpt><trkpt lat="36.821062978420116" lon="-108.11990622399969"><ele>1776.0</ele><time>2026-04-25T17:21:51Z</time></trkpt><trkpt lat="36.820961576577936" lon="-108.12003318385598"><ele>1776.0</ele><time>2026-04-25T17:21:52Z</time></trkpt><trkpt lat="36.82086606040216" lon="-108.12021299014994"><ele>1775.25</ele><time>2026-04-25T17:21:53Z</time></trkpt><trkpt lat="36.82078160537481" lon="-108.12032141393871"><ele>1774.5</ele><time>2026-04-25T17:21:54Z</time></trkpt><trkpt lat="36.8206684638631" lon="-108.12040219331732"><ele>1773.75</ele><time>2026-04-25T17:21:55Z</time></trkpt><trkpt lat="36.82054031047978" lon="-108.12046094381776"><ele>1773.0</ele><time>2026-04-25T17:21:56Z</time></trkpt><trkpt lat="36.82044820687384" lon="-108.1204856479219"><ele>1773.0</ele><time>2026-04-25T17:21:57Z</time></trkpt><trkpt lat="36.82038410463261" lon="-108.12054057299312"><ele>1773.0000000000002</ele><time>2026-04-25T17:21:58Z</time></trkpt><trkpt lat="36.8202898459058" lon="-108.12063136570562"><ele>1773.0000000000002</ele><time>2026-04-25T17:21:59Z</time></trkpt><trkpt lat="36.82022262461649" lon="-108.12072008207606"><ele>1773.0</ele><time>2026-04-25T17:22:00Z</time></trkpt><trkpt lat="36.82015701195716" lon="-108.12084110490515"><ele>1773.0</ele><time>2026-04-25T17:22:01Z</time></trkpt><trkpt lat="36.820089890444976" lon="-108.12097403064514"><ele>1773.2</ele><time>2026-04-25T17:22:02Z</time></trkpt><trkpt lat="36.82009292910212" lon="-108.12106322612964"><ele>1773.4</ele><time>2026-04-25T17:22:03Z</time></trkpt><trkpt lat="36.820026200161664" lon="-108.12116443202987"><ele>1773.6000000000001</ele><time>2026-04-25T17:22:05Z</time></trkpt><trkpt lat="36.81988401331722" lon="-108.12112434233667"><ele>1773.8000000000002</ele><time>2026-04-25T17:22:07Z</time></trkpt><trkpt lat="36.81980271582827" lon="-108.12108139293503"><ele>1774.0</ele><time>2026-04-25T17:22:08Z</time></trkpt><trkpt lat="36.81971990456447" lon="-108.12095651786706"><ele>1774.0</ele><time>2026-04-25T17:22:10Z</time></trkpt><trkpt lat="36.819645638015615" lon="-108.12099298915072"><ele>1774.0</ele><time>2026-04-25T17:22:11Z</time></trkpt><trkpt lat="36.81955964967226" lon="-108.12105945753237"><ele>1774.0</ele><time>2026-04-25T17:22:12Z</time></trkpt><trkpt lat="36.81948632507151" lon="-108.12113189548347"><ele>1774.0</ele><time>2026-04-25T17:22:13Z</time></trkpt><trkpt lat="36.81938261516409" lon="-108.12119397740646"><ele>1774.0</ele><time>2026-04-25T17:22:14Z</time></trkpt><trkpt lat="36.81928003208605" lon="-108.12127278982672"><ele>1775.25</ele><time>2026-04-25T17:22:15Z</time></trkpt><trkpt lat="36.81916016165196" lon="-108.12135619322967"><ele>1776.5</ele><time>2026-04-25T17:22:16Z</time></trkpt><trkpt lat="36.8190401168682" lon="-108.1214230927825"><ele>1777.75</ele><time>2026-04-25T17:22:17Z</time></trkpt><trkpt lat="36.81890364083755" lon="-108.12149192385101"><ele>1779.0</ele><time>2026-04-25T17:22:18Z</time></trkpt><trkpt lat="36.818756323115686" lon="-108.1215789779689"><ele>1779.5</ele><time>2026-04-25T17:22:19Z</time></trkpt><trkpt lat="36.81862140203482" lon="-108.12169002096793"><ele>1780.0</ele><time>2026-04-25T17:22:20Z</time></trkpt><trkpt lat="36.81850600583836" lon="-108.12174711813378"><ele>1780.5</ele><time>2026-04-25T17:22:21Z</time></trkpt><trkpt lat="36.81836376796093" lon="-108.12180710177572"><ele>1781.0</ele><time>2026-04-25T17:22:22Z</time></trkpt><trkpt lat="36.81824130616143" lon="-108.12187751473857"><ele>1782.0</ele><time>2026-04-25T17:22:23Z</time></trkpt><trkpt lat="36.81811633119765" lon="-108.12196623250175"><ele>1783.0</ele><time>2026-04-25T17:22:24Z</time></trkpt><trkpt lat="36.81800181252538" lon="-108.12206264474275"><ele>1784.0</ele><time>2026-04-25T17:22:25Z</time></trkpt><trkpt lat="36.817878270065385" lon="-108.12212786625417"><ele>1785.0</ele><time>2026-04-25T17:22:26Z</time></trkpt><trkpt lat="36.81778563924524" lon="-108.12219897010567"><ele>1785.0</ele><time>2026-04-25T17:22:27Z</time></trkpt><trkpt lat="36.81770920604303" lon="-108.12224130258505"><ele>1785.0</ele><time>2026-04-25T17:22:28Z</time></trkpt><trkpt lat="36.817640771260834" lon="-108.12229591367262"><ele>1785.0</ele><time>2026-04-25T17:22:29Z</time></trkpt><trkpt lat="36.81757700937916" lon="-108.12233586816696"><ele>1785.0</ele><time>2026-04-25T17:22:31Z</time></trkpt><trkpt lat="36.817512044277365" lon="-108.12239898366724"><ele>1785.0</ele><time>2026-04-25T17:22:46Z</time></trkpt><trkpt lat="36.81745766743383" lon="-108.12244646917762"><ele>1785.0</ele><time>2026-04-25T17:22:47Z</time></trkpt><trkpt lat="36.81738872534752" lon="-108.12250017402253"><ele>1784.5</ele><time>2026-04-25T17:22:48Z</time></trkpt><trkpt lat="36.81730425028992" lon="-108.12255525959924"><ele>1784.0</ele><time>2026-04-25T17:22:49Z</time></trkpt><trkpt lat="36.817205852173906" lon="-108.12261535761895"><ele>1783.5</ele><time>2026-04-25T17:22:50Z</time></trkpt><trkpt lat="36.81710281481664" lon="-108.1226888393326"><ele>1783.0</ele><time>2026-04-25T17:22:51Z</time></trkpt><trkpt lat="36.81698595003287" lon="-108.12276707303548"><ele>1783.0</ele><time>2026-04-25T17:22:52Z</time></trkpt><trkpt lat="36.816860320311626" lon="-108.12285696746389"><ele>1783.0</ele><time>2026-04-25T17:22:53Z</time></trkpt><trkpt lat="36.81674124924888" lon="-108.12296406066658"><ele>1783.0</ele><time>2026-04-25T17:22:54Z</time></trkpt><trkpt lat="36.8166101940787" lon="-108.1230854139701"><ele>1782.6666666666667</ele><time>2026-04-25T17:22:55Z</time></trkpt><trkpt lat="36.816501384249506" lon="-108.12323959075191"><ele>1782.3333333333335</ele><time>2026-04-25T17:22:56Z</time></trkpt><trkpt lat="36.81637760078302" lon="-108.12336009012631"><ele>1782.0</ele><time>2026-04-25T17:22:57Z</time></trkpt><trkpt lat="36.81625815923159" lon="-108.12349110548536"><ele>1782.0</ele><time>2026-04-25T17:22:58Z</time></trkpt><trkpt lat="36.81618258778947" lon="-108.12356151876301"><ele>1781.9999999999998</ele><time>2026-04-25T17:22:59Z</time></trkpt><trkpt lat="36.81609740344928" lon="-108.12361864959654"><ele>1781.9999999999998</ele><time>2026-04-25T17:23:00Z</time></trkpt><trkpt lat="36.81598357232027" lon="-108.1236654035267"><ele>1782.0</ele><time>2026-04-25T17:23:01Z</time></trkpt><trkpt lat="36.81587396976362" lon="-108.12367326334626"><ele>1782.0</ele><time>2026-04-25T17:23:02Z</time></trkpt><trkpt lat="36.81575981877834" lon="-108.12366269869672"><ele>1782.25</ele><time>2026-04-25T17:23:03Z</time></trkpt><trkpt lat="36.81565354389844" lon="-108.12371181309283"><ele>1782.5</ele><time>2026-04-25T17:23:04Z</time></trkpt><trkpt lat="36.81554909656924" lon="-108.12378281172822"><ele>1782.75</ele><time>2026-04-25T17:23:05Z</time></trkpt><trkpt lat="36.81543627443326" lon="-108.1238508751154"><ele>1783.0</ele><time>2026-04-25T17:23:06Z</time></trkpt><trkpt lat="36.81531731801386" lon="-108.12393211093195"><ele>1783.0</ele><time>2026-04-25T17:23:07Z</time></trkpt><trkpt lat="36.81521340222117" lon="-108.12403326363632"><ele>1783.0</ele><time>2026-04-25T17:23:08Z</time></trkpt><trkpt lat="36.815092775111765" lon="-108.12411296320789"><ele>1783.0</ele><time>2026-04-25T17:23:09Z</time></trkpt><trkpt lat="36.814985331394965" lon="-108.12419512916807"><ele>1783.0</ele><time>2026-04-25T17:23:10Z</time></trkpt><trkpt lat="36.81485424350733" lon="-108.12430015434444"><ele>1785.3333333333335</ele><time>2026-04-25T17:23:11Z</time></trkpt><trkpt lat="36.81472428865835" lon="-108.12439695356761"><ele>1787.6666666666665</ele><time>2026-04-25T17:23:12Z</time></trkpt><trkpt lat="36.8145789841034" lon="-108.1244889318171"><ele>1790.0</ele><time>2026-04-25T17:23:13Z</time></trkpt><trkpt lat="36.81444043818387" lon="-108.12458709471912"><ele>1790.0</ele><time>2026-04-25T17:23:14Z</time></trkpt><trkpt lat="36.814314707189446" lon="-108.12469593317672"><ele>1790.0</ele><time>2026-04-25T17:23:15Z</time></trkpt><trkpt lat="36.814177527380735" lon="-108.12479201762284"><ele>1790.0</ele><time>2026-04-25T17:23:16Z</time></trkpt><trkpt lat="36.814044951700566" lon="-108.12486605893677"><ele>1790.75</ele><time>2026-04-25T17:23:17Z</time></trkpt><trkpt lat="36.81394428562351" lon="-108.12494688828234"><ele>1791.5</ele><time>2026-04-25T17:23:18Z</time></trkpt><trkpt lat="36.81384009130847" lon="-108.12503495290608"><ele>1792.25</ele><time>2026-04-25T17:23:19Z</time></trkpt><trkpt lat="36.813721285258374" lon="-108.12512026477185"><ele>1793.0</ele><time>2026-04-25T17:23:20Z</time></trkpt><trkpt lat="36.81361909581603" lon="-108.12518560076128"><ele>1793.0</ele><time>2026-04-25T17:23:21Z</time></trkpt><trkpt lat="36.81349702921025" lon="-108.1252644702555"><ele>1793.0</ele><time>2026-04-25T17:23:22Z</time></trkpt><trkpt lat="36.813366548636964" lon="-108.12535344421708"><ele>1793.0</ele><time>2026-04-25T17:23:23Z</time></trkpt><trkpt lat="36.813245768633045" lon="-108.12543814531091"><ele>1793.0</ele><time>2026-04-25T17:23:24Z</time></trkpt><trkpt lat="36.81313635561337" lon="-108.1255324636919"><ele>1793.25</ele><time>2026-04-25T17:23:25Z</time></trkpt><trkpt lat="36.81301750464247" lon="-108.1256439581983"><ele>1793.5</ele><time>2026-04-25T17:23:26Z</time></trkpt><trkpt lat="36.81291566279844" lon="-108.12571987213278"><ele>1793.75</ele><time>2026-04-25T17:23:27Z</time></trkpt><trkpt lat="36.81281563912011" lon="-108.12577584318203"><ele>1794.0</ele><time>2026-04-25T17:23:28Z</time></trkpt><trkpt lat="36.81271962173235" lon="-108.12582881071042"><ele>1794.5</ele><time>2026-04-25T17:23:29Z</time></trkpt><trkpt lat="36.81262143494823" lon="-108.12589345806815"><ele>1795.0</ele><time>2026-04-25T17:23:30Z</time></trkpt><trkpt lat="36.8125102659625" lon="-108.1259841311474"><ele>1795.5</ele><time>2026-04-25T17:23:31Z</time></trkpt><trkpt lat="36.81242434044355" lon="-108.12608027312804"><ele>1796.0</ele><time>2026-04-25T17:23:32Z</time></trkpt><trkpt lat="36.812347536499615" lon="-108.12616387745325"><ele>1796.0</ele><time>2026-04-25T17:23:33Z</time></trkpt><trkpt lat="36.81225452051297" lon="-108.12624321891002"><ele>1796.0</ele><time>2026-04-25T17:23:34Z</time></trkpt><trkpt lat="36.812141680716564" lon="-108.12631921993818"><ele>1796.0</ele><time>2026-04-25T17:23:35Z</time></trkpt><trkpt lat="36.8120009404588" lon="-108.12636465172163"><ele>1796.0</ele><time>2026-04-25T17:23:36Z</time></trkpt><trkpt lat="36.811854742845576" lon="-108.12639462065731"><ele>1796.5</ele><time>2026-04-25T17:23:37Z</time></trkpt><trkpt lat="36.8117269302746" lon="-108.12645013509825"><ele>1797.0</ele><time>2026-04-25T17:23:38Z</time></trkpt><trkpt lat="36.81158879985742" lon="-108.12652093724135"><ele>1797.5</ele><time>2026-04-25T17:23:39Z</time></trkpt><trkpt lat="36.81145867032006" lon="-108.12655806293266"><ele>1798.0</ele><time>2026-04-25T17:23:40Z</time></trkpt><trkpt lat="36.811328485226255" lon="-108.12657380367607"><ele>1798.6000000000001</ele><time>2026-04-25T17:23:41Z</time></trkpt><trkpt lat="36.8112072114259" lon="-108.12658370422714"><ele>1799.2000000000003</ele><time>2026-04-25T17:23:42Z</time></trkpt><trkpt lat="36.81114807301013" lon="-108.1266293690832"><ele>1799.8</ele><time>2026-04-25T17:23:43Z</time></trkpt><trkpt lat="36.81110080571011" lon="-108.12673245560924"><ele>1800.4</ele><time>2026-04-25T17:23:44Z</time></trkpt><trkpt lat="36.81103221979811" lon="-108.12683627416806"><ele>1801.0</ele><time>2026-04-25T17:23:45Z</time></trkpt><trkpt lat="36.81096032689154" lon="-108.1268943501671"><ele>1801.0</ele><time>2026-04-25T17:23:46Z</time></trkpt><trkpt lat="36.810880949380554" lon="-108.12695671468175"><ele>1801.0</ele><time>2026-04-25T17:23:47Z</time></trkpt><trkpt lat="36.81081925256728" lon="-108.12698015875765"><ele>1801.0</ele><time>2026-04-25T17:23:48Z</time></trkpt><trkpt lat="36.81075593714016" lon="-108.12690020249487"><ele>1801.0</ele><time>2026-04-25T17:23:49Z</time></trkpt><trkpt lat="36.8106938811796" lon="-108.12677481709876"><ele>1801.0</ele><time>2026-04-25T17:23:50Z</time></trkpt><trkpt lat="36.81060569972261" lon="-108.12668960931863"><ele>1801.0</ele><time>2026-04-25T17:23:51Z</time></trkpt><trkpt lat="36.81051948480679" lon="-108.12663277183437"><ele>1801.0</ele><time>2026-04-25T17:23:52Z</time></trkpt><trkpt lat="36.810387499820074" lon="-108.1265680472494"><ele>1801.0</ele><time>2026-04-25T17:23:53Z</time></trkpt><trkpt lat="36.810271280631184" lon="-108.12651677546737"><ele>1801.0</ele><time>2026-04-25T17:23:54Z</time></trkpt><trkpt lat="36.81014789170662" lon="-108.12644734120207"><ele>1799.75</ele><time>2026-04-25T17:23:55Z</time></trkpt><trkpt lat="36.81004295272535" lon="-108.12638462177257"><ele>1798.5</ele><time>2026-04-25T17:23:56Z</time></trkpt><trkpt lat="36.8099232810088" lon="-108.12636055240515"><ele>1797.25</ele><time>2026-04-25T17:23:58Z</time></trkpt><trkpt lat="36.809771759965436" lon="-108.12634336795152"><ele>1796.0</ele><time>2026-04-25T17:23:59Z</time></trkpt><trkpt lat="36.80963514845248" lon="-108.12633030237008"><ele>1796.0</ele><time>2026-04-25T17:24:00Z</time></trkpt><trkpt lat="36.809528440236015" lon="-108.12632606554953"><ele>1796.0</ele><time>2026-04-25T17:24:01Z</time></trkpt><trkpt lat="36.8094045385873" lon="-108.12637010414669"><ele>1796.0</ele><time>2026-04-25T17:24:02Z</time></trkpt><trkpt lat="36.809256450732384" lon="-108.12647688616525"><ele>1796.0</ele><time>2026-04-25T17:24:03Z</time></trkpt><trkpt lat="36.80909384522417" lon="-108.12659792422447"><ele>1794.25</ele><time>2026-04-25T17:24:04Z</time></trkpt><trkpt lat="36.80895782545484" lon="-108.12669512783722"><ele>1792.5</ele><time>2026-04-25T17:24:05Z</time></trkpt><trkpt lat="36.808842872509395" lon="-108.12677477615794"><ele>1790.75</ele><time>2026-04-25T17:24:06Z</time></trkpt><trkpt lat="36.8087399240077" lon="-108.12683886974567"><ele>1789.0</ele><time>2026-04-25T17:24:07Z</time></trkpt><trkpt lat="36.80865204319695" lon="-108.12690699349899"><ele>1789.0000000000002</ele><time>2026-04-25T17:24:08Z</time></trkpt><trkpt lat="36.808574904586926" lon="-108.12698083351015"><ele>1789.0</ele><time>2026-04-25T17:24:09Z</time></trkpt><trkpt lat="36.80850716066138" lon="-108.12706652276724"><ele>1789.0</ele><time>2026-04-25T17:24:10Z</time></trkpt><trkpt lat="36.808441612494605" lon="-108.12717169749456"><ele>1789.0</ele><time>2026-04-25T17:24:11Z</time></trkpt><trkpt lat="36.80839407861146" lon="-108.1272387339053"><ele>1789.0000000000002</ele><time>2026-04-25T17:24:12Z</time></trkpt><trkpt lat="36.80834678741062" lon="-108.12729071956964"><ele>1789.0</ele><time>2026-04-25T17:24:13Z</time></trkpt><trkpt lat="36.808275605457666" lon="-108.12734174592046"><ele>1788.5000000000002</ele><time>2026-04-25T17:24:15Z</time></trkpt><trkpt lat="36.80818429519551" lon="-108.12733829864584"><ele>1788.0</ele><time>2026-04-25T17:29:12Z</time></trkpt><trkpt lat="36.8081285348802" lon="-108.12737688192968"><ele>1787.5</ele><time>2026-04-25T17:29:13Z</time></trkpt><trkpt lat="36.808087931961104" lon="-108.12744216673048"><ele>1787.0</ele><time>2026-04-25T17:29:14Z</time></trkpt><trkpt lat="36.808040852425215" lon="-108.12751348742249"><ele>1786.5000000000002</ele><time>2026-04-25T17:29:15Z</time></trkpt><trkpt lat="36.8079685144938" lon="-108.12761139747293"><ele>1786.0</ele><time>2026-04-25T17:29:16Z</time></trkpt><trkpt lat="36.807878406424784" lon="-108.12769730073371"><ele>1787.1999999999998</ele><time>2026-04-25T17:29:17Z</time></trkpt><trkpt lat="36.80782883100936" lon="-108.12775843832083"><ele>1788.3999999999999</ele><time>2026-04-25T17:29:18Z</time></trkpt><trkpt lat="36.807794651421275" lon="-108.12783915979016"><ele>1789.6</ele><time>2026-04-25T17:29:19Z</time></trkpt><trkpt lat="36.80778782319302" lon="-108.12798308377943"><ele>1790.8</ele><time>2026-04-25T17:29:20Z</time></trkpt><trkpt lat="36.80781193144578" lon="-108.12811503372261"><ele>1792.0</ele><time>2026-04-25T17:29:21Z</time></trkpt><trkpt lat="36.807718814872565" lon="-108.12823192276606"><ele>1790.75</ele><time>2026-04-25T17:29:24Z</time></trkpt><trkpt lat="36.807634188742576" lon="-108.12821372575586"><ele>1789.5</ele><time>2026-04-25T17:29:25Z</time></trkpt><trkpt lat="36.80752350765701" lon="-108.12816787431153"><ele>1788.25</ele><time>2026-04-25T17:29:26Z</time></trkpt><trkpt lat="36.80740070154245" lon="-108.12817114965377"><ele>1787.0</ele><time>2026-04-25T17:29:27Z</time></trkpt><trkpt lat="36.80725640221657" lon="-108.12822069944113"><ele>1787.0</ele><time>2026-04-25T17:29:28Z</time></trkpt><trkpt lat="36.807132868126146" lon="-108.12824477495812"><ele>1787.0</ele><time>2026-04-25T17:29:29Z</time></trkpt><trkpt lat="36.80698182331205" lon="-108.12820687430658"><ele>1787.0</ele><time>2026-04-25T17:29:30Z</time></trkpt><trkpt lat="36.806832024700796" lon="-108.12819180552368"><ele>1787.0</ele><time>2026-04-25T17:29:31Z</time></trkpt><trkpt lat="36.80670464776683" lon="-108.12819038127179"><ele>1786.75</ele><time>2026-04-25T17:29:32Z</time></trkpt><trkpt lat="36.80658977979596" lon="-108.12820435369179"><ele>1786.5</ele><time>2026-04-25T17:29:33Z</time></trkpt><trkpt lat="36.80650140390793" lon="-108.128235610172"><ele>1786.25</ele><time>2026-04-25T17:29:34Z</time></trkpt><trkpt lat="36.80642373596668" lon="-108.12831843015955"><ele>1786.0</ele><time>2026-04-25T17:29:35Z</time></trkpt><trkpt lat="36.80632797644147" lon="-108.12845988412667"><ele>1786.5</ele><time>2026-04-25T17:29:36Z</time></trkpt><trkpt lat="36.80619661878134" lon="-108.1285551338063"><ele>1787.0</ele><time>2026-04-25T17:29:37Z</time></trkpt><trkpt lat="36.806054987349384" lon="-108.12858396091912"><ele>1787.5</ele><time>2026-04-25T17:29:38Z</time></trkpt><trkpt lat="36.80593895653268" lon="-108.12862060673179"><ele>1788.0</ele><time>2026-04-25T17:29:39Z</time></trkpt><trkpt lat="36.80581106043113" lon="-108.12873497011812"><ele>1787.0</ele><time>2026-04-25T17:29:40Z</time></trkpt><trkpt lat="36.8056635677674" lon="-108.1288238590204"><ele>1786.0</ele><time>2026-04-25T17:29:41Z</time></trkpt><trkpt lat="36.80551414890855" lon="-108.12886674309301"><ele>1785.0</ele><time>2026-04-25T17:29:42Z</time></trkpt><trkpt lat="36.80541392513564" lon="-108.12891643403131"><ele>1784.0</ele><time>2026-04-25T17:29:43Z</time></trkpt><trkpt lat="36.80531983119958" lon="-108.12896321881108"><ele>1784.0</ele><time>2026-04-25T17:29:44Z</time></trkpt><trkpt lat="36.80522251297758" lon="-108.12902815735009"><ele>1784.0</ele><time>2026-04-25T17:29:45Z</time></trkpt><trkpt lat="36.80516241241096" lon="-108.12910877992354"><ele>1784.0</ele><time>2026-04-25T17:29:46Z</time></trkpt><trkpt lat="36.80509733580424" lon="-108.12917537067763"><ele>1784.0</ele><time>2026-04-25T17:29:47Z</time></trkpt><trkpt lat="36.80504581534927" lon="-108.12932240889822"><ele>1784.0</ele><time>2026-04-25T17:29:49Z</time></trkpt><trkpt lat="36.80502634945973" lon="-108.12948276277143"><ele>1782.6</ele><time>2026-04-25T17:29:50Z</time></trkpt><trkpt lat="36.8049719382826" lon="-108.12959276267529"><ele>1781.2</ele><time>2026-04-25T17:29:51Z</time></trkpt><trkpt lat="36.80494351570058" lon="-108.12967979446847"><ele>1779.7999999999997</ele><time>2026-04-25T17:29:52Z</time></trkpt><trkpt lat="36.804951374668946" lon="-108.12977178066335"><ele>1778.3999999999999</ele><time>2026-04-25T17:29:53Z</time></trkpt><trkpt lat="36.80497880992905" lon="-108.12993226853646"><ele>1777.0</ele><time>2026-04-25T17:29:54Z</time></trkpt><trkpt lat="36.80498488014784" lon="-108.13010532022464"><ele>1777.0</ele><time>2026-04-25T17:29:55Z</time></trkpt><trkpt lat="36.804990811586684" lon="-108.13028487515754"><ele>1777.0</ele><time>2026-04-25T17:29:56Z</time></trkpt><trkpt lat="36.80499336408381" lon="-108.13044343629872"><ele>1777.0</ele><time>2026-04-25T17:29:57Z</time></trkpt><trkpt lat="36.80499966890853" lon="-108.13058714057715"><ele>1777.0</ele><time>2026-04-25T17:29:58Z</time></trkpt><trkpt lat="36.805004440926744" lon="-108.13073085100109"><ele>1777.0</ele><time>2026-04-25T17:29:59Z</time></trkpt><trkpt lat="36.80500049763666" lon="-108.13091242880276"><ele>1777.0</ele><time>2026-04-25T17:30:00Z</time></trkpt><trkpt lat="36.80499402250183" lon="-108.13109101103014"><ele>1777.0</ele><time>2026-04-25T17:30:01Z</time></trkpt><trkpt lat="36.804987341296446" lon="-108.13127357664773"><ele>1777.0</ele><time>2026-04-25T17:30:02Z</time></trkpt><trkpt lat="36.80498474211233" lon="-108.13146109619433"><ele>1777.25</ele><time>2026-04-25T17:30:03Z</time></trkpt><trkpt lat="36.804984810077976" lon="-108.13164743362378"><ele>1777.5</ele><time>2026-04-25T17:30:04Z</time></trkpt><trkpt lat="36.80498251610831" lon="-108.13183593648343"><ele>1777.75</ele><time>2026-04-25T17:30:05Z</time></trkpt><trkpt lat="36.8049823835487" lon="-108.13201996061262"><ele>1778.0</ele><time>2026-04-25T17:30:06Z</time></trkpt><trkpt lat="36.80498189171909" lon="-108.13219513280737"><ele>1778.0</ele><time>2026-04-25T17:30:07Z</time></trkpt><trkpt lat="36.80498528840243" lon="-108.13235803564564"><ele>1778.0000000000002</ele><time>2026-04-25T17:30:08Z</time></trkpt><trkpt lat="36.80498656523825" lon="-108.13251282868495"><ele>1778.0000000000002</ele><time>2026-04-25T17:30:09Z</time></trkpt><trkpt lat="36.80497077126052" lon="-108.13264336007708"><ele>1778.0</ele><time>2026-04-25T17:30:10Z</time></trkpt><trkpt lat="36.80491214130757" lon="-108.13272214581187"><ele>1778.0</ele><time>2026-04-25T17:30:11Z</time></trkpt><trkpt lat="36.804820498117316" lon="-108.13278953226646"><ele>1778.75</ele><time>2026-04-25T17:30:12Z</time></trkpt><trkpt lat="36.80469207541058" lon="-108.13279793970013"><ele>1779.5</ele><time>2026-04-25T17:30:13Z</time></trkpt><trkpt lat="36.80454881059197" lon="-108.13277299122848"><ele>1780.25</ele><time>2026-04-25T17:30:14Z</time></trkpt><trkpt lat="36.804405233020574" lon="-108.13277580146583"><ele>1781.0</ele><time>2026-04-25T17:30:15Z</time></trkpt><trkpt lat="36.804257806190975" lon="-108.1327796993351"><ele>1781.0</ele><time>2026-04-25T17:30:16Z</time></trkpt><trkpt lat="36.80410890323777" lon="-108.13278720535362"><ele>1781.0</ele><time>2026-04-25T17:30:17Z</time></trkpt><trkpt lat="36.803956266534165" lon="-108.13279382462065"><ele>1781.0</ele><time>2026-04-25T17:30:18Z</time></trkpt><trkpt lat="36.8038067798771" lon="-108.13279905453433"><ele>1781.0</ele><time>2026-04-25T17:30:19Z</time></trkpt><trkpt lat="36.803644042818846" lon="-108.13280897910991"><ele>1781.0</ele><time>2026-04-25T17:30:20Z</time></trkpt><trkpt lat="36.803479426201875" lon="-108.13281056257622"><ele>1781.0</ele><time>2026-04-25T17:30:21Z</time></trkpt><trkpt lat="36.803322846627715" lon="-108.13281806536072"><ele>1779.3333333333333</ele><time>2026-04-25T17:30:22Z</time></trkpt><trkpt lat="36.80316802560649" lon="-108.13282406927937"><ele>1777.6666666666665</ele><time>2026-04-25T17:30:23Z</time></trkpt><trkpt lat="36.803016714370344" lon="-108.13283031083071"><ele>1776.0</ele><time>2026-04-25T17:30:24Z</time></trkpt><trkpt lat="36.80287302217875" lon="-108.13283093410435"><ele>1776.0</ele><time>2026-04-25T17:30:25Z</time></trkpt><trkpt lat="36.802725698833484" lon="-108.13283139215486"><ele>1776.0</ele><time>2026-04-25T17:30:26Z</time></trkpt><trkpt lat="36.80258231858844" lon="-108.13284251935235"><ele>1776.0</ele><time>2026-04-25T17:30:27Z</time></trkpt><trkpt lat="36.802440062264296" lon="-108.13285999043231"><ele>1776.0</ele><time>2026-04-25T17:30:28Z</time></trkpt><trkpt lat="36.80232066283685" lon="-108.13288413634983"><ele>1775.6</ele><time>2026-04-25T17:30:29Z</time></trkpt><trkpt lat="36.80220761409899" lon="-108.13292490227003"><ele>1775.1999999999998</ele><time>2026-04-25T17:30:30Z</time></trkpt><trkpt lat="36.80211648636604" lon="-108.1329934593804"><ele>1774.8000000000002</ele><time>2026-04-25T17:30:31Z</time></trkpt><trkpt lat="36.8020412973762" lon="-108.13305564821555"><ele>1774.4</ele><time>2026-04-25T17:30:32Z</time></trkpt><trkpt lat="36.80196459417093" lon="-108.13311889531491"><ele>1774.0</ele><time>2026-04-25T17:30:33Z</time></trkpt><trkpt lat="36.80189947020198" lon="-108.13317419787772"><ele>1773.5</ele><time>2026-04-25T17:30:34Z</time></trkpt><trkpt lat="36.80180644473936" lon="-108.13323327684834"><ele>1773.0</ele><time>2026-04-25T17:30:36Z</time></trkpt><trkpt lat="36.80168291134022" lon="-108.1330655731581"><ele>1772.5</ele><time>2026-04-25T17:30:37Z</time></trkpt><trkpt lat="36.801619067772165" lon="-108.13293484805692"><ele>1772.0</ele><time>2026-04-25T17:30:38Z</time></trkpt><trkpt lat="36.80155448224048" lon="-108.13279151997354"><ele>1771.5</ele><time>2026-04-25T17:30:39Z</time></trkpt><trkpt lat="36.801482935370515" lon="-108.13263996666812"><ele>1771.0</ele><time>2026-04-25T17:30:40Z</time></trkpt><trkpt lat="36.801415938513934" lon="-108.13247760504483"><ele>1770.5</ele><time>2026-04-25T17:30:41Z</time></trkpt><trkpt lat="36.80136176077433" lon="-108.13230184886204"><ele>1770.0</ele><time>2026-04-25T17:30:42Z</time></trkpt><trkpt lat="36.80132501226638" lon="-108.13211654660259"><ele>1769.25</ele><time>2026-04-25T17:30:43Z</time></trkpt><trkpt lat="36.80130935619801" lon="-108.13194039955974"><ele>1768.5</ele><time>2026-04-25T17:30:44Z</time></trkpt><trkpt lat="36.80129598539109" lon="-108.13174406208117"><ele>1767.75</ele><time>2026-04-25T17:30:45Z</time></trkpt><trkpt lat="36.80128299447386" lon="-108.13156130579074"><ele>1767.0</ele><time>2026-04-25T17:30:46Z</time></trkpt><trkpt lat="36.80127020059482" lon="-108.13138098094419"><ele>1766.25</ele><time>2026-04-25T17:30:47Z</time></trkpt><trkpt lat="36.80125760857232" lon="-108.13120105204592"><ele>1765.5</ele><time>2026-04-25T17:30:48Z</time></trkpt><trkpt lat="36.80124274924253" lon="-108.13103467761137"><ele>1764.75</ele><time>2026-04-25T17:30:49Z</time></trkpt><trkpt lat="36.801218987661386" lon="-108.13087736447359"><ele>1764.0</ele><time>2026-04-25T17:30:50Z</time></trkpt><trkpt lat="36.801175393689654" lon="-108.13070696557817"><ele>1763.5</ele><time>2026-04-25T17:30:51Z</time></trkpt><trkpt lat="36.80110903465958" lon="-108.13053948195227"><ele>1763.0</ele><time>2026-04-25T17:30:52Z</time></trkpt><trkpt lat="36.801031170489786" lon="-108.1303816750728"><ele>1762.5</ele><time>2026-04-25T17:30:53Z</time></trkpt><trkpt lat="36.80094211458595" lon="-108.13024459575277"><ele>1762.0</ele><time>2026-04-25T17:30:54Z</time></trkpt><trkpt lat="36.80084111287839" lon="-108.13010692268199"><ele>1761.0</ele><time>2026-04-25T17:30:55Z</time></trkpt><trkpt lat="36.80073841479812" lon="-108.12999823640178"><ele>1760.0</ele><time>2026-04-25T17:30:56Z</time></trkpt><trkpt lat="36.800616560394666" lon="-108.12990229984318"><ele>1759.0</ele><time>2026-04-25T17:30:57Z</time></trkpt><trkpt lat="36.80048766198788" lon="-108.12982361004374"><ele>1758.0</ele><time>2026-04-25T17:30:58Z</time></trkpt><trkpt lat="36.80035540308893" lon="-108.12976704689076"><ele>1758.0</ele><time>2026-04-25T17:30:59Z</time></trkpt><trkpt lat="36.800214988240725" lon="-108.12972806796412"><ele>1758.0</ele><time>2026-04-25T17:31:00Z</time></trkpt><trkpt lat="36.80006100137758" lon="-108.1296956539449"><ele>1758.0</ele><time>2026-04-25T17:31:01Z</time></trkpt><trkpt lat="36.79989090281634" lon="-108.12965835427026"><ele>1757.0</ele><time>2026-04-25T17:31:02Z</time></trkpt><trkpt lat="36.799722883530876" lon="-108.12961772898788"><ele>1756.0</ele><time>2026-04-25T17:31:03Z</time></trkpt><trkpt lat="36.799570002861394" lon="-108.12957206206927"><ele>1755.0</ele><time>2026-04-25T17:31:04Z</time></trkpt><trkpt lat="36.799409229373424" lon="-108.12951119315747"><ele>1754.3333333333335</ele><time>2026-04-25T17:31:05Z</time></trkpt><trkpt lat="36.79926911356602" lon="-108.12944141699693"><ele>1753.6666666666667</ele><time>2026-04-25T17:31:06Z</time></trkpt><trkpt lat="36.7991232768462" lon="-108.12934612624808"><ele>1753.0</ele><time>2026-04-25T17:31:07Z</time></trkpt><trkpt lat="36.798976469578314" lon="-108.1292289801626"><ele>1753.0</ele><time>2026-04-25T17:31:08Z</time></trkpt><trkpt lat="36.79885345607949" lon="-108.12911287077678"><ele>1753.0</ele><time>2026-04-25T17:31:09Z</time></trkpt><trkpt lat="36.79873593356945" lon="-108.12898887152491"><ele>1753.0</ele><time>2026-04-25T17:31:10Z</time></trkpt><trkpt lat="36.79862991484545" lon="-108.12885709732356"><ele>1753.0</ele><time>2026-04-25T17:31:11Z</time></trkpt><trkpt lat="36.79854255867245" lon="-108.12872206376734"><ele>1753.0</ele><time>2026-04-25T17:31:12Z</time></trkpt><trkpt lat="36.798467765144856" lon="-108.12857379163154"><ele>1753.0</ele><time>2026-04-25T17:31:13Z</time></trkpt><trkpt lat="36.79839294555621" lon="-108.12840405469747"><ele>1753.0</ele><time>2026-04-25T17:31:14Z</time></trkpt><trkpt lat="36.79832461565354" lon="-108.12822030705327"><ele>1754.3333333333335</ele><time>2026-04-25T17:31:15Z</time></trkpt><trkpt lat="36.79827869299197" lon="-108.1280429262267"><ele>1755.6666666666665</ele><time>2026-04-25T17:31:16Z</time></trkpt><trkpt lat="36.79824741816221" lon="-108.12786778404987"><ele>1757.0</ele><time>2026-04-25T17:31:17Z</time></trkpt><trkpt lat="36.79822125663746" lon="-108.12766613678822"><ele>1757.0</ele><time>2026-04-25T17:31:18Z</time></trkpt><trkpt lat="36.798209376676695" lon="-108.12748370061168"><ele>1757.0</ele><time>2026-04-25T17:31:19Z</time></trkpt><trkpt lat="36.79820368780766" lon="-108.12728816976936"><ele>1757.0</ele><time>2026-04-25T17:31:20Z</time></trkpt><trkpt lat="36.7982029086371" lon="-108.12709996240326"><ele>1755.1999999999998</ele><time>2026-04-25T17:31:21Z</time></trkpt><trkpt lat="36.79820558325111" lon="-108.12693431303505"><ele>1753.3999999999999</ele><time>2026-04-25T17:31:22Z</time></trkpt><trkpt lat="36.79821403538078" lon="-108.12678687042407"><ele>1751.6000000000001</ele><time>2026-04-25T17:31:23Z</time></trkpt><trkpt lat="36.79820974347633" lon="-108.12666080558395"><ele>1749.8000000000002</ele><time>2026-04-25T17:31:24Z</time></trkpt><trkpt lat="36.79820963399721" lon="-108.12656433762206"><ele>1748.0</ele><time>2026-04-25T17:31:25Z</time></trkpt><trkpt lat="36.798426484252026" lon="-108.12641627655354"><ele>1746.5</ele><time>2026-04-25T17:31:27Z</time></trkpt><trkpt lat="36.798550023570975" lon="-108.12643036576245"><ele>1745.0</ele><time>2026-04-25T17:31:28Z</time></trkpt><trkpt lat="36.7986857258061" lon="-108.1264313454736"><ele>1743.5</ele><time>2026-04-25T17:31:29Z</time></trkpt><trkpt lat="36.79883552482651" lon="-108.12641981844874"><ele>1742.0</ele><time>2026-04-25T17:31:30Z</time></trkpt><trkpt lat="36.79899422916538" lon="-108.12640369816758"><ele>1742.0</ele><time>2026-04-25T17:31:31Z</time></trkpt><trkpt lat="36.79911563853821" lon="-108.12642198881073"><ele>1742.0</ele><time>2026-04-25T17:31:32Z</time></trkpt><trkpt lat="36.79925496334974" lon="-108.12640437866133"><ele>1742.0</ele><time>2026-04-25T17:31:33Z</time></trkpt><trkpt lat="36.799372927055636" lon="-108.12640202394456"><ele>1742.0</ele><time>2026-04-25T17:31:34Z</time></trkpt><trkpt lat="36.799478513875144" lon="-108.12640069260812"><ele>1743.0</ele><time>2026-04-25T17:31:35Z</time></trkpt><trkpt lat="36.79957447614932" lon="-108.1263998384418"><ele>1743.9999999999998</ele><time>2026-04-25T17:31:36Z</time></trkpt><trkpt lat="36.79965765067959" lon="-108.126411743558"><ele>1744.9999999999998</ele><time>2026-04-25T17:31:37Z</time></trkpt><trkpt lat="36.79974178952973" lon="-108.1263705684477"><ele>1746.0</ele><time>2026-04-25T17:31:39Z</time></trkpt><trkpt lat="36.799749398385146" lon="-108.12620609289361"><ele>1747.0</ele><time>2026-04-25T17:31:40Z</time></trkpt><trkpt lat="36.79975712812997" lon="-108.1260677692139"><ele>1747.0</ele><time>2026-04-25T17:31:41Z</time></trkpt><trkpt lat="36.799757127760486" lon="-108.12594182457276"><ele>1747.0</ele><time>2026-04-25T17:31:42Z</time></trkpt><trkpt lat="36.79973520425877" lon="-108.12585183376251"><ele>1747.0</ele><time>2026-04-25T17:31:43Z</time></trkpt><trkpt lat="36.79972055405063" lon="-108.12574330705286"><ele>1747.0</ele><time>2026-04-25T17:31:45Z</time></trkpt><trkpt lat="36.79977429385394" lon="-108.12570191875335"><ele>1746.0</ele><time>2026-04-25T17:31:47Z</time></trkpt></trkseg></trk></gpx>